<?xml version="1.0" encoding="UTF-8" standalone="no" ?>
<gpx xmlns="http://www.topografix.com/GPX/1/1" xmlns:xsi="http://www.w3.org/2001/XMLSchema-instance" xsi:schemaLocation="http://www.topografix.com/GPX/1/1 http://www.topografix.com/GPX/1/1/gpx.xsd" version="1.1" creator="VisuGPX - https://www.visugpx.com">
  <metadata>
    <name>Champagnat Cyclisme sur route</name>
  </metadata>
  <trk>
    <name><![CDATA[Champagnat Cyclisme sur route_1]]></name>
    <trkseg>
      <trkpt lat="46.48276" lon="5.36843">
        <ele>282.4</ele>
        <time>2022-06-02T12:22:25Z</time>
      </trkpt>
      <trkpt lat="46.48268" lon="5.36831">
        <ele>281.8</ele>
        <time>2022-06-02T12:22:26Z</time>
      </trkpt>
      <trkpt lat="46.48259" lon="5.3682">
        <ele>281.2</ele>
        <time>2022-06-02T12:22:27Z</time>
      </trkpt>
      <trkpt lat="46.4825" lon="5.36811">
        <ele>280.4</ele>
        <time>2022-06-02T12:22:28Z</time>
      </trkpt>
      <trkpt lat="46.4824" lon="5.36802">
        <ele>280</ele>
        <time>2022-06-02T12:22:29Z</time>
      </trkpt>
      <trkpt lat="46.4823" lon="5.36794">
        <ele>278.8</ele>
        <time>2022-06-02T12:22:30Z</time>
      </trkpt>
      <trkpt lat="46.4822" lon="5.36786">
        <ele>277.8</ele>
        <time>2022-06-02T12:22:31Z</time>
      </trkpt>
      <trkpt lat="46.48201" lon="5.3677">
        <ele>276.2</ele>
        <time>2022-06-02T12:22:33Z</time>
      </trkpt>
      <trkpt lat="46.48181" lon="5.36754">
        <ele>274.8</ele>
        <time>2022-06-02T12:22:35Z</time>
      </trkpt>
      <trkpt lat="46.48162" lon="5.36739">
        <ele>273.6</ele>
        <time>2022-06-02T12:22:37Z</time>
      </trkpt>
      <trkpt lat="46.48143" lon="5.36724">
        <ele>272.2</ele>
        <time>2022-06-02T12:22:39Z</time>
      </trkpt>
      <trkpt lat="46.48124" lon="5.36711">
        <ele>271</ele>
        <time>2022-06-02T12:22:41Z</time>
      </trkpt>
      <trkpt lat="46.48116" lon="5.36705">
        <ele>270.2</ele>
        <time>2022-06-02T12:22:42Z</time>
      </trkpt>
      <trkpt lat="46.48111" lon="5.36697">
        <ele>270</ele>
        <time>2022-06-02T12:22:43Z</time>
      </trkpt>
      <trkpt lat="46.48108" lon="5.36688">
        <ele>269.4</ele>
        <time>2022-06-02T12:22:44Z</time>
      </trkpt>
      <trkpt lat="46.48111" lon="5.36679">
        <ele>268.2</ele>
        <time>2022-06-02T12:22:45Z</time>
      </trkpt>
      <trkpt lat="46.48122" lon="5.36665">
        <ele>267.2</ele>
        <time>2022-06-02T12:22:47Z</time>
      </trkpt>
      <trkpt lat="46.48129" lon="5.36658">
        <ele>266.6</ele>
        <time>2022-06-02T12:22:48Z</time>
      </trkpt>
      <trkpt lat="46.48143" lon="5.36646">
        <ele>265.8</ele>
        <time>2022-06-02T12:22:50Z</time>
      </trkpt>
      <trkpt lat="46.4815" lon="5.3664">
        <ele>265.4</ele>
        <time>2022-06-02T12:22:51Z</time>
      </trkpt>
      <trkpt lat="46.48163" lon="5.3663">
        <ele>265</ele>
        <time>2022-06-02T12:22:53Z</time>
      </trkpt>
      <trkpt lat="46.48185" lon="5.36612">
        <ele>264.4</ele>
        <time>2022-06-02T12:22:56Z</time>
      </trkpt>
      <trkpt lat="46.48202" lon="5.36605">
        <ele>264.2</ele>
        <time>2022-06-02T12:22:58Z</time>
      </trkpt>
      <trkpt lat="46.4821" lon="5.36601">
        <ele>264</ele>
        <time>2022-06-02T12:22:59Z</time>
      </trkpt>
      <trkpt lat="46.48217" lon="5.36593">
        <ele>264</ele>
        <time>2022-06-02T12:23:00Z</time>
      </trkpt>
      <trkpt lat="46.48222" lon="5.36583">
        <ele>263.8</ele>
        <time>2022-06-02T12:23:01Z</time>
      </trkpt>
      <trkpt lat="46.4823" lon="5.36563">
        <ele>263.6</ele>
        <time>2022-06-02T12:23:03Z</time>
      </trkpt>
      <trkpt lat="46.48243" lon="5.36547">
        <ele>263.2</ele>
        <time>2022-06-02T12:23:05Z</time>
      </trkpt>
      <trkpt lat="46.4825" lon="5.3654">
        <ele>263.2</ele>
        <time>2022-06-02T12:23:06Z</time>
      </trkpt>
      <trkpt lat="46.48256" lon="5.36533">
        <ele>263</ele>
        <time>2022-06-02T12:23:07Z</time>
      </trkpt>
      <trkpt lat="46.48282" lon="5.36506">
        <ele>262.2</ele>
        <time>2022-06-02T12:23:11Z</time>
      </trkpt>
      <trkpt lat="46.48301" lon="5.36486">
        <ele>261.6</ele>
        <time>2022-06-02T12:23:14Z</time>
      </trkpt>
      <trkpt lat="46.48307" lon="5.36479">
        <ele>261.2</ele>
        <time>2022-06-02T12:23:15Z</time>
      </trkpt>
      <trkpt lat="46.48346" lon="5.36434">
        <ele>260</ele>
        <time>2022-06-02T12:23:21Z</time>
      </trkpt>
      <trkpt lat="46.48353" lon="5.36426">
        <ele>259.8</ele>
        <time>2022-06-02T12:23:22Z</time>
      </trkpt>
      <trkpt lat="46.4838" lon="5.36395">
        <ele>259</ele>
        <time>2022-06-02T12:23:26Z</time>
      </trkpt>
      <trkpt lat="46.48407" lon="5.36369">
        <ele>258.6</ele>
        <time>2022-06-02T12:23:30Z</time>
      </trkpt>
      <trkpt lat="46.48416" lon="5.36362">
        <ele>258.4</ele>
        <time>2022-06-02T12:23:31Z</time>
      </trkpt>
      <trkpt lat="46.48438" lon="5.36352">
        <ele>258.4</ele>
        <time>2022-06-02T12:23:34Z</time>
      </trkpt>
      <trkpt lat="46.48446" lon="5.3635">
        <ele>257.8</ele>
        <time>2022-06-02T12:23:35Z</time>
      </trkpt>
      <trkpt lat="46.48462" lon="5.36347">
        <ele>257.6</ele>
        <time>2022-06-02T12:23:37Z</time>
      </trkpt>
      <trkpt lat="46.48485" lon="5.36343">
        <ele>257.2</ele>
        <time>2022-06-02T12:23:40Z</time>
      </trkpt>
      <trkpt lat="46.4853" lon="5.36335">
        <ele>256.8</ele>
        <time>2022-06-02T12:23:46Z</time>
      </trkpt>
      <trkpt lat="46.48545" lon="5.36332">
        <ele>256.6</ele>
        <time>2022-06-02T12:23:48Z</time>
      </trkpt>
      <trkpt lat="46.48568" lon="5.36329">
        <ele>256.2</ele>
        <time>2022-06-02T12:23:51Z</time>
      </trkpt>
      <trkpt lat="46.48575" lon="5.36327">
        <ele>256</ele>
        <time>2022-06-02T12:23:52Z</time>
      </trkpt>
      <trkpt lat="46.48583" lon="5.36325">
        <ele>256</ele>
        <time>2022-06-02T12:23:53Z</time>
      </trkpt>
      <trkpt lat="46.48591" lon="5.36324">
        <ele>255.8</ele>
        <time>2022-06-02T12:23:54Z</time>
      </trkpt>
      <trkpt lat="46.48616" lon="5.36319">
        <ele>255.6</ele>
        <time>2022-06-02T12:23:57Z</time>
      </trkpt>
      <trkpt lat="46.48624" lon="5.36313">
        <ele>255.4</ele>
        <time>2022-06-02T12:23:58Z</time>
      </trkpt>
      <trkpt lat="46.4863" lon="5.36303">
        <ele>255.2</ele>
        <time>2022-06-02T12:23:59Z</time>
      </trkpt>
      <trkpt lat="46.48637" lon="5.36279">
        <ele>254.4</ele>
        <time>2022-06-02T12:24:01Z</time>
      </trkpt>
      <trkpt lat="46.48643" lon="5.36226">
        <ele>253.2</ele>
        <time>2022-06-02T12:24:05Z</time>
      </trkpt>
      <trkpt lat="46.48645" lon="5.362">
        <ele>252</ele>
        <time>2022-06-02T12:24:07Z</time>
      </trkpt>
      <trkpt lat="46.48647" lon="5.36174">
        <ele>251.6</ele>
        <time>2022-06-02T12:24:09Z</time>
      </trkpt>
      <trkpt lat="46.48649" lon="5.36147">
        <ele>251</ele>
        <time>2022-06-02T12:24:11Z</time>
      </trkpt>
      <trkpt lat="46.48654" lon="5.36122">
        <ele>250.4</ele>
        <time>2022-06-02T12:24:13Z</time>
      </trkpt>
      <trkpt lat="46.48662" lon="5.36085">
        <ele>250</ele>
        <time>2022-06-02T12:24:16Z</time>
      </trkpt>
      <trkpt lat="46.48671" lon="5.3604">
        <ele>249.8</ele>
        <time>2022-06-02T12:24:20Z</time>
      </trkpt>
      <trkpt lat="46.48678" lon="5.36001">
        <ele>249.8</ele>
        <time>2022-06-02T12:24:24Z</time>
      </trkpt>
      <trkpt lat="46.48679" lon="5.35992">
        <ele>250.2</ele>
        <time>2022-06-02T12:24:25Z</time>
      </trkpt>
      <trkpt lat="46.4868" lon="5.35982">
        <ele>250.4</ele>
        <time>2022-06-02T12:24:26Z</time>
      </trkpt>
      <trkpt lat="46.48688" lon="5.35933">
        <ele>251.2</ele>
        <time>2022-06-02T12:24:31Z</time>
      </trkpt>
      <trkpt lat="46.48689" lon="5.35923">
        <ele>251.2</ele>
        <time>2022-06-02T12:24:32Z</time>
      </trkpt>
      <trkpt lat="46.48692" lon="5.35912">
        <ele>251.4</ele>
        <time>2022-06-02T12:24:33Z</time>
      </trkpt>
      <trkpt lat="46.48703" lon="5.35882">
        <ele>251.8</ele>
        <time>2022-06-02T12:24:36Z</time>
      </trkpt>
      <trkpt lat="46.48732" lon="5.35813">
        <ele>251.6</ele>
        <time>2022-06-02T12:24:43Z</time>
      </trkpt>
      <trkpt lat="46.48752" lon="5.35767">
        <ele>250.4</ele>
        <time>2022-06-02T12:24:48Z</time>
      </trkpt>
      <trkpt lat="46.48757" lon="5.35757">
        <ele>250.2</ele>
        <time>2022-06-02T12:24:49Z</time>
      </trkpt>
      <trkpt lat="46.48765" lon="5.35738">
        <ele>249.6</ele>
        <time>2022-06-02T12:24:51Z</time>
      </trkpt>
      <trkpt lat="46.48781" lon="5.35701">
        <ele>249.2</ele>
        <time>2022-06-02T12:24:55Z</time>
      </trkpt>
      <trkpt lat="46.48797" lon="5.35667">
        <ele>249</ele>
        <time>2022-06-02T12:24:59Z</time>
      </trkpt>
      <trkpt lat="46.48801" lon="5.35659">
        <ele>249.2</ele>
        <time>2022-06-02T12:25:00Z</time>
      </trkpt>
      <trkpt lat="46.48813" lon="5.35634">
        <ele>249.2</ele>
        <time>2022-06-02T12:25:03Z</time>
      </trkpt>
      <trkpt lat="46.48842" lon="5.35569">
        <ele>249.8</ele>
        <time>2022-06-02T12:25:11Z</time>
      </trkpt>
      <trkpt lat="46.48862" lon="5.3552">
        <ele>250.2</ele>
        <time>2022-06-02T12:25:17Z</time>
      </trkpt>
      <trkpt lat="46.48869" lon="5.35503">
        <ele>250.2</ele>
        <time>2022-06-02T12:25:19Z</time>
      </trkpt>
      <trkpt lat="46.48899" lon="5.35437">
        <ele>249.4</ele>
        <time>2022-06-02T12:25:27Z</time>
      </trkpt>
      <trkpt lat="46.48907" lon="5.35419">
        <ele>249.4</ele>
        <time>2022-06-02T12:25:29Z</time>
      </trkpt>
      <trkpt lat="46.48915" lon="5.35401">
        <ele>249</ele>
        <time>2022-06-02T12:25:31Z</time>
      </trkpt>
      <trkpt lat="46.48939" lon="5.35346">
        <ele>248.8</ele>
        <time>2022-06-02T12:25:37Z</time>
      </trkpt>
      <trkpt lat="46.4897" lon="5.35274">
        <ele>248.4</ele>
        <time>2022-06-02T12:25:45Z</time>
      </trkpt>
      <trkpt lat="46.48974" lon="5.35266">
        <ele>248.4</ele>
        <time>2022-06-02T12:25:46Z</time>
      </trkpt>
      <trkpt lat="46.49" lon="5.3521">
        <ele>248.6</ele>
        <time>2022-06-02T12:25:53Z</time>
      </trkpt>
      <trkpt lat="46.49026" lon="5.35149">
        <ele>249.2</ele>
        <time>2022-06-02T12:26:01Z</time>
      </trkpt>
      <trkpt lat="46.4904" lon="5.35115">
        <ele>250</ele>
        <time>2022-06-02T12:26:05Z</time>
      </trkpt>
      <trkpt lat="46.49044" lon="5.35096">
        <ele>250.2</ele>
        <time>2022-06-02T12:26:07Z</time>
      </trkpt>
      <trkpt lat="46.4906" lon="5.35024">
        <ele>249.8</ele>
        <time>2022-06-02T12:26:14Z</time>
      </trkpt>
      <trkpt lat="46.49072" lon="5.34957">
        <ele>249.6</ele>
        <time>2022-06-02T12:26:20Z</time>
      </trkpt>
      <trkpt lat="46.49079" lon="5.34922">
        <ele>249</ele>
        <time>2022-06-02T12:26:23Z</time>
      </trkpt>
      <trkpt lat="46.49086" lon="5.34887">
        <ele>248.6</ele>
        <time>2022-06-02T12:26:26Z</time>
      </trkpt>
      <trkpt lat="46.4909" lon="5.34864">
        <ele>248.2</ele>
        <time>2022-06-02T12:26:28Z</time>
      </trkpt>
      <trkpt lat="46.49101" lon="5.34806">
        <ele>247.2</ele>
        <time>2022-06-02T12:26:33Z</time>
      </trkpt>
      <trkpt lat="46.49103" lon="5.34795">
        <ele>247</ele>
        <time>2022-06-02T12:26:34Z</time>
      </trkpt>
      <trkpt lat="46.49105" lon="5.34783">
        <ele>247</ele>
        <time>2022-06-02T12:26:35Z</time>
      </trkpt>
      <trkpt lat="46.49113" lon="5.34735">
        <ele>246</ele>
        <time>2022-06-02T12:26:39Z</time>
      </trkpt>
      <trkpt lat="46.49118" lon="5.34712">
        <ele>245.8</ele>
        <time>2022-06-02T12:26:41Z</time>
      </trkpt>
      <trkpt lat="46.49133" lon="5.34633">
        <ele>245.4</ele>
        <time>2022-06-02T12:26:48Z</time>
      </trkpt>
      <trkpt lat="46.49134" lon="5.34623">
        <ele>245.4</ele>
        <time>2022-06-02T12:26:49Z</time>
      </trkpt>
      <trkpt lat="46.49144" lon="5.34578">
        <ele>244.8</ele>
        <time>2022-06-02T12:26:54Z</time>
      </trkpt>
      <trkpt lat="46.49145" lon="5.34568">
        <ele>244.8</ele>
        <time>2022-06-02T12:26:55Z</time>
      </trkpt>
      <trkpt lat="46.49153" lon="5.34526">
        <ele>244.8</ele>
        <time>2022-06-02T12:26:59Z</time>
      </trkpt>
      <trkpt lat="46.49168" lon="5.34451">
        <ele>244.6</ele>
        <time>2022-06-02T12:27:06Z</time>
      </trkpt>
      <trkpt lat="46.49184" lon="5.34371">
        <ele>244.4</ele>
        <time>2022-06-02T12:27:14Z</time>
      </trkpt>
      <trkpt lat="46.49187" lon="5.34355">
        <ele>244.4</ele>
        <time>2022-06-02T12:27:16Z</time>
      </trkpt>
      <trkpt lat="46.4919" lon="5.3433">
        <ele>244.8</ele>
        <time>2022-06-02T12:27:19Z</time>
      </trkpt>
      <trkpt lat="46.49198" lon="5.34289">
        <ele>245</ele>
        <time>2022-06-02T12:27:23Z</time>
      </trkpt>
      <trkpt lat="46.49213" lon="5.34211">
        <ele>244.6</ele>
        <time>2022-06-02T12:27:30Z</time>
      </trkpt>
      <trkpt lat="46.49229" lon="5.34136">
        <ele>244</ele>
        <time>2022-06-02T12:27:37Z</time>
      </trkpt>
      <trkpt lat="46.49231" lon="5.34126">
        <ele>244</ele>
        <time>2022-06-02T12:27:38Z</time>
      </trkpt>
      <trkpt lat="46.49238" lon="5.34091">
        <ele>244.6</ele>
        <time>2022-06-02T12:27:42Z</time>
      </trkpt>
      <trkpt lat="46.49245" lon="5.34045">
        <ele>245.8</ele>
        <time>2022-06-02T12:27:48Z</time>
      </trkpt>
      <trkpt lat="46.49247" lon="5.34037">
        <ele>246</ele>
        <time>2022-06-02T12:27:49Z</time>
      </trkpt>
      <trkpt lat="46.49255" lon="5.34">
        <ele>246.8</ele>
        <time>2022-06-02T12:27:53Z</time>
      </trkpt>
      <trkpt lat="46.4927" lon="5.33923">
        <ele>247</ele>
        <time>2022-06-02T12:28:01Z</time>
      </trkpt>
      <trkpt lat="46.49272" lon="5.33914">
        <ele>247</ele>
        <time>2022-06-02T12:28:02Z</time>
      </trkpt>
      <trkpt lat="46.49287" lon="5.33839">
        <ele>247</ele>
        <time>2022-06-02T12:28:10Z</time>
      </trkpt>
      <trkpt lat="46.49289" lon="5.33829">
        <ele>247</ele>
        <time>2022-06-02T12:28:11Z</time>
      </trkpt>
      <trkpt lat="46.49303" lon="5.33749">
        <ele>246.8</ele>
        <time>2022-06-02T12:28:19Z</time>
      </trkpt>
      <trkpt lat="46.49305" lon="5.33738">
        <ele>246.6</ele>
        <time>2022-06-02T12:28:20Z</time>
      </trkpt>
      <trkpt lat="46.49308" lon="5.33672">
        <ele>246</ele>
        <time>2022-06-02T12:28:26Z</time>
      </trkpt>
      <trkpt lat="46.49313" lon="5.33605">
        <ele>245.4</ele>
        <time>2022-06-02T12:28:32Z</time>
      </trkpt>
      <trkpt lat="46.49315" lon="5.33594">
        <ele>245.2</ele>
        <time>2022-06-02T12:28:33Z</time>
      </trkpt>
      <trkpt lat="46.49323" lon="5.33553">
        <ele>245.2</ele>
        <time>2022-06-02T12:28:37Z</time>
      </trkpt>
      <trkpt lat="46.49323" lon="5.33531">
        <ele>245</ele>
        <time>2022-06-02T12:28:39Z</time>
      </trkpt>
      <trkpt lat="46.49322" lon="5.3352">
        <ele>245</ele>
        <time>2022-06-02T12:28:40Z</time>
      </trkpt>
      <trkpt lat="46.49312" lon="5.33447">
        <ele>244.8</ele>
        <time>2022-06-02T12:28:47Z</time>
      </trkpt>
      <trkpt lat="46.49295" lon="5.33365">
        <ele>244.6</ele>
        <time>2022-06-02T12:28:55Z</time>
      </trkpt>
      <trkpt lat="46.49282" lon="5.33299">
        <ele>244</ele>
        <time>2022-06-02T12:29:01Z</time>
      </trkpt>
      <trkpt lat="46.49279" lon="5.33276">
        <ele>243.6</ele>
        <time>2022-06-02T12:29:03Z</time>
      </trkpt>
      <trkpt lat="46.49261" lon="5.33214">
        <ele>243</ele>
        <time>2022-06-02T12:29:09Z</time>
      </trkpt>
      <trkpt lat="46.49256" lon="5.33205">
        <ele>242.8</ele>
        <time>2022-06-02T12:29:10Z</time>
      </trkpt>
      <trkpt lat="46.49245" lon="5.3319">
        <ele>242.6</ele>
        <time>2022-06-02T12:29:12Z</time>
      </trkpt>
      <trkpt lat="46.49238" lon="5.33184">
        <ele>242.4</ele>
        <time>2022-06-02T12:29:13Z</time>
      </trkpt>
      <trkpt lat="46.49217" lon="5.33168">
        <ele>241.8</ele>
        <time>2022-06-02T12:29:16Z</time>
      </trkpt>
      <trkpt lat="46.49197" lon="5.33152">
        <ele>241.4</ele>
        <time>2022-06-02T12:29:19Z</time>
      </trkpt>
      <trkpt lat="46.49177" lon="5.33132">
        <ele>240.4</ele>
        <time>2022-06-02T12:29:22Z</time>
      </trkpt>
      <trkpt lat="46.4916" lon="5.33109">
        <ele>240</ele>
        <time>2022-06-02T12:29:25Z</time>
      </trkpt>
      <trkpt lat="46.49145" lon="5.33073">
        <ele>239.6</ele>
        <time>2022-06-02T12:29:29Z</time>
      </trkpt>
      <trkpt lat="46.49135" lon="5.33026">
        <ele>239.8</ele>
        <time>2022-06-02T12:29:34Z</time>
      </trkpt>
      <trkpt lat="46.49127" lon="5.32954">
        <ele>239.8</ele>
        <time>2022-06-02T12:29:41Z</time>
      </trkpt>
      <trkpt lat="46.49127" lon="5.32932">
        <ele>239.6</ele>
        <time>2022-06-02T12:29:43Z</time>
      </trkpt>
      <trkpt lat="46.49127" lon="5.32897">
        <ele>239.4</ele>
        <time>2022-06-02T12:29:46Z</time>
      </trkpt>
      <trkpt lat="46.4913" lon="5.32887">
        <ele>239.2</ele>
        <time>2022-06-02T12:29:47Z</time>
      </trkpt>
      <trkpt lat="46.49136" lon="5.32867">
        <ele>239</ele>
        <time>2022-06-02T12:29:49Z</time>
      </trkpt>
      <trkpt lat="46.49142" lon="5.32846">
        <ele>239</ele>
        <time>2022-06-02T12:29:51Z</time>
      </trkpt>
      <trkpt lat="46.49145" lon="5.32825">
        <ele>238.8</ele>
        <time>2022-06-02T12:29:53Z</time>
      </trkpt>
      <trkpt lat="46.49146" lon="5.32815">
        <ele>238.8</ele>
        <time>2022-06-02T12:29:54Z</time>
      </trkpt>
      <trkpt lat="46.49146" lon="5.32805">
        <ele>238.6</ele>
        <time>2022-06-02T12:29:55Z</time>
      </trkpt>
      <trkpt lat="46.49142" lon="5.32777">
        <ele>238.6</ele>
        <time>2022-06-02T12:29:58Z</time>
      </trkpt>
      <trkpt lat="46.49136" lon="5.3274">
        <ele>238.8</ele>
        <time>2022-06-02T12:30:02Z</time>
      </trkpt>
      <trkpt lat="46.4913" lon="5.32722">
        <ele>238.8</ele>
        <time>2022-06-02T12:30:04Z</time>
      </trkpt>
      <trkpt lat="46.49121" lon="5.32707">
        <ele>238.8</ele>
        <time>2022-06-02T12:30:06Z</time>
      </trkpt>
      <trkpt lat="46.4911" lon="5.32697">
        <ele>238.6</ele>
        <time>2022-06-02T12:30:08Z</time>
      </trkpt>
      <trkpt lat="46.49096" lon="5.32695">
        <ele>238.6</ele>
        <time>2022-06-02T12:30:10Z</time>
      </trkpt>
      <trkpt lat="46.49088" lon="5.32696">
        <ele>238.6</ele>
        <time>2022-06-02T12:30:11Z</time>
      </trkpt>
      <trkpt lat="46.49072" lon="5.32699">
        <ele>238.2</ele>
        <time>2022-06-02T12:30:13Z</time>
      </trkpt>
      <trkpt lat="46.49055" lon="5.32702">
        <ele>237.8</ele>
        <time>2022-06-02T12:30:15Z</time>
      </trkpt>
      <trkpt lat="46.49029" lon="5.32707">
        <ele>236.8</ele>
        <time>2022-06-02T12:30:18Z</time>
      </trkpt>
      <trkpt lat="46.49001" lon="5.3271">
        <ele>235.8</ele>
        <time>2022-06-02T12:30:21Z</time>
      </trkpt>
      <trkpt lat="46.48982" lon="5.3271">
        <ele>234.6</ele>
        <time>2022-06-02T12:30:23Z</time>
      </trkpt>
      <trkpt lat="46.48963" lon="5.32704">
        <ele>233.4</ele>
        <time>2022-06-02T12:30:25Z</time>
      </trkpt>
      <trkpt lat="46.48937" lon="5.32685">
        <ele>232.2</ele>
        <time>2022-06-02T12:30:28Z</time>
      </trkpt>
      <trkpt lat="46.4893" lon="5.32675">
        <ele>231.6</ele>
        <time>2022-06-02T12:30:29Z</time>
      </trkpt>
      <trkpt lat="46.48924" lon="5.32663">
        <ele>231.4</ele>
        <time>2022-06-02T12:30:30Z</time>
      </trkpt>
      <trkpt lat="46.48919" lon="5.32652">
        <ele>230.8</ele>
        <time>2022-06-02T12:30:31Z</time>
      </trkpt>
      <trkpt lat="46.48914" lon="5.32638">
        <ele>230.4</ele>
        <time>2022-06-02T12:30:32Z</time>
      </trkpt>
      <trkpt lat="46.48912" lon="5.32621">
        <ele>229.6</ele>
        <time>2022-06-02T12:30:33Z</time>
      </trkpt>
      <trkpt lat="46.48916" lon="5.32605">
        <ele>228.8</ele>
        <time>2022-06-02T12:30:34Z</time>
      </trkpt>
      <trkpt lat="46.48925" lon="5.32591">
        <ele>228.2</ele>
        <time>2022-06-02T12:30:35Z</time>
      </trkpt>
      <trkpt lat="46.48935" lon="5.32578">
        <ele>227.4</ele>
        <time>2022-06-02T12:30:36Z</time>
      </trkpt>
      <trkpt lat="46.48943" lon="5.32565">
        <ele>227</ele>
        <time>2022-06-02T12:30:37Z</time>
      </trkpt>
      <trkpt lat="46.48953" lon="5.32535">
        <ele>226</ele>
        <time>2022-06-02T12:30:39Z</time>
      </trkpt>
      <trkpt lat="46.48949" lon="5.32506">
        <ele>224.4</ele>
        <time>2022-06-02T12:30:41Z</time>
      </trkpt>
      <trkpt lat="46.48936" lon="5.32456">
        <ele>223.2</ele>
        <time>2022-06-02T12:30:45Z</time>
      </trkpt>
      <trkpt lat="46.48928" lon="5.3243">
        <ele>223</ele>
        <time>2022-06-02T12:30:47Z</time>
      </trkpt>
      <trkpt lat="46.48925" lon="5.32418">
        <ele>223</ele>
        <time>2022-06-02T12:30:48Z</time>
      </trkpt>
      <trkpt lat="46.48916" lon="5.32383">
        <ele>223</ele>
        <time>2022-06-02T12:30:51Z</time>
      </trkpt>
      <trkpt lat="46.48909" lon="5.3236">
        <ele>223</ele>
        <time>2022-06-02T12:30:53Z</time>
      </trkpt>
      <trkpt lat="46.48902" lon="5.32341">
        <ele>223</ele>
        <time>2022-06-02T12:30:55Z</time>
      </trkpt>
      <trkpt lat="46.48893" lon="5.32324">
        <ele>223</ele>
        <time>2022-06-02T12:30:57Z</time>
      </trkpt>
      <trkpt lat="46.48874" lon="5.32294">
        <ele>223.8</ele>
        <time>2022-06-02T12:31:02Z</time>
      </trkpt>
      <trkpt lat="46.48864" lon="5.3228">
        <ele>224.2</ele>
        <time>2022-06-02T12:31:05Z</time>
      </trkpt>
      <trkpt lat="46.48855" lon="5.32268">
        <ele>225.2</ele>
        <time>2022-06-02T12:31:08Z</time>
      </trkpt>
      <trkpt lat="46.48852" lon="5.32263">
        <ele>225.8</ele>
        <time>2022-06-02T12:31:09Z</time>
      </trkpt>
      <trkpt lat="46.48845" lon="5.32249">
        <ele>226.8</ele>
        <time>2022-06-02T12:31:12Z</time>
      </trkpt>
      <trkpt lat="46.4884" lon="5.3224">
        <ele>227.4</ele>
        <time>2022-06-02T12:31:14Z</time>
      </trkpt>
      <trkpt lat="46.48837" lon="5.32235">
        <ele>227.6</ele>
        <time>2022-06-02T12:31:15Z</time>
      </trkpt>
      <trkpt lat="46.48836" lon="5.32229">
        <ele>228</ele>
        <time>2022-06-02T12:31:16Z</time>
      </trkpt>
      <trkpt lat="46.48834" lon="5.32222">
        <ele>228.2</ele>
        <time>2022-06-02T12:31:17Z</time>
      </trkpt>
      <trkpt lat="46.48831" lon="5.32206">
        <ele>228.6</ele>
        <time>2022-06-02T12:31:19Z</time>
      </trkpt>
      <trkpt lat="46.48826" lon="5.32152">
        <ele>229</ele>
        <time>2022-06-02T12:31:25Z</time>
      </trkpt>
      <trkpt lat="46.48826" lon="5.32141">
        <ele>228.8</ele>
        <time>2022-06-02T12:31:26Z</time>
      </trkpt>
      <trkpt lat="46.4883" lon="5.3211">
        <ele>228.4</ele>
        <time>2022-06-02T12:31:29Z</time>
      </trkpt>
      <trkpt lat="46.48836" lon="5.3208">
        <ele>227.8</ele>
        <time>2022-06-02T12:31:32Z</time>
      </trkpt>
      <trkpt lat="46.48846" lon="5.32027">
        <ele>227</ele>
        <time>2022-06-02T12:31:37Z</time>
      </trkpt>
      <trkpt lat="46.48848" lon="5.32016">
        <ele>227</ele>
        <time>2022-06-02T12:31:38Z</time>
      </trkpt>
      <trkpt lat="46.4885" lon="5.31972">
        <ele>226.4</ele>
        <time>2022-06-02T12:31:42Z</time>
      </trkpt>
      <trkpt lat="46.48847" lon="5.31915">
        <ele>225.8</ele>
        <time>2022-06-02T12:31:47Z</time>
      </trkpt>
      <trkpt lat="46.48843" lon="5.31892">
        <ele>225.6</ele>
        <time>2022-06-02T12:31:49Z</time>
      </trkpt>
      <trkpt lat="46.48841" lon="5.31881">
        <ele>225.4</ele>
        <time>2022-06-02T12:31:50Z</time>
      </trkpt>
      <trkpt lat="46.48832" lon="5.31862">
        <ele>225</ele>
        <time>2022-06-02T12:31:52Z</time>
      </trkpt>
      <trkpt lat="46.48819" lon="5.31851">
        <ele>224.8</ele>
        <time>2022-06-02T12:31:54Z</time>
      </trkpt>
      <trkpt lat="46.48811" lon="5.31848">
        <ele>224.8</ele>
        <time>2022-06-02T12:31:55Z</time>
      </trkpt>
      <trkpt lat="46.48796" lon="5.31841">
        <ele>224.8</ele>
        <time>2022-06-02T12:31:57Z</time>
      </trkpt>
      <trkpt lat="46.48791" lon="5.31834">
        <ele>224.8</ele>
        <time>2022-06-02T12:31:58Z</time>
      </trkpt>
      <trkpt lat="46.48787" lon="5.31826">
        <ele>224.8</ele>
        <time>2022-06-02T12:31:59Z</time>
      </trkpt>
      <trkpt lat="46.48784" lon="5.31816">
        <ele>224.8</ele>
        <time>2022-06-02T12:32:00Z</time>
      </trkpt>
      <trkpt lat="46.48784" lon="5.31805">
        <ele>224.8</ele>
        <time>2022-06-02T12:32:01Z</time>
      </trkpt>
      <trkpt lat="46.48782" lon="5.31763">
        <ele>224.8</ele>
        <time>2022-06-02T12:32:05Z</time>
      </trkpt>
      <trkpt lat="46.48779" lon="5.31733">
        <ele>224.8</ele>
        <time>2022-06-02T12:32:08Z</time>
      </trkpt>
      <trkpt lat="46.48774" lon="5.31716">
        <ele>225</ele>
        <time>2022-06-02T12:32:10Z</time>
      </trkpt>
      <trkpt lat="46.48766" lon="5.31703">
        <ele>224.8</ele>
        <time>2022-06-02T12:32:12Z</time>
      </trkpt>
      <trkpt lat="46.48756" lon="5.31691">
        <ele>224.8</ele>
        <time>2022-06-02T12:32:14Z</time>
      </trkpt>
      <trkpt lat="46.48746" lon="5.31681">
        <ele>224.8</ele>
        <time>2022-06-02T12:32:16Z</time>
      </trkpt>
      <trkpt lat="46.48732" lon="5.31662">
        <ele>225.2</ele>
        <time>2022-06-02T12:32:19Z</time>
      </trkpt>
      <trkpt lat="46.48727" lon="5.31657">
        <ele>225.4</ele>
        <time>2022-06-02T12:32:20Z</time>
      </trkpt>
      <trkpt lat="46.48717" lon="5.31645">
        <ele>225.6</ele>
        <time>2022-06-02T12:32:22Z</time>
      </trkpt>
      <trkpt lat="46.48708" lon="5.31633">
        <ele>225.6</ele>
        <time>2022-06-02T12:32:24Z</time>
      </trkpt>
      <trkpt lat="46.48703" lon="5.31627">
        <ele>225.8</ele>
        <time>2022-06-02T12:32:25Z</time>
      </trkpt>
      <trkpt lat="46.48678" lon="5.31593">
        <ele>225.6</ele>
        <time>2022-06-02T12:32:30Z</time>
      </trkpt>
      <trkpt lat="46.48654" lon="5.31561">
        <ele>225.8</ele>
        <time>2022-06-02T12:32:35Z</time>
      </trkpt>
      <trkpt lat="46.48645" lon="5.3155">
        <ele>226</ele>
        <time>2022-06-02T12:32:37Z</time>
      </trkpt>
      <trkpt lat="46.48621" lon="5.31514">
        <ele>226.2</ele>
        <time>2022-06-02T12:32:42Z</time>
      </trkpt>
      <trkpt lat="46.48614" lon="5.31496">
        <ele>226.2</ele>
        <time>2022-06-02T12:32:44Z</time>
      </trkpt>
      <trkpt lat="46.48612" lon="5.31479">
        <ele>226</ele>
        <time>2022-06-02T12:32:46Z</time>
      </trkpt>
      <trkpt lat="46.48612" lon="5.31447">
        <ele>225.8</ele>
        <time>2022-06-02T12:32:49Z</time>
      </trkpt>
      <trkpt lat="46.4861" lon="5.31436">
        <ele>225.8</ele>
        <time>2022-06-02T12:32:50Z</time>
      </trkpt>
      <trkpt lat="46.48608" lon="5.31427">
        <ele>225.8</ele>
        <time>2022-06-02T12:32:51Z</time>
      </trkpt>
      <trkpt lat="46.48601" lon="5.31412">
        <ele>225.8</ele>
        <time>2022-06-02T12:32:53Z</time>
      </trkpt>
      <trkpt lat="46.48597" lon="5.31407">
        <ele>225.8</ele>
        <time>2022-06-02T12:32:54Z</time>
      </trkpt>
      <trkpt lat="46.48574" lon="5.3138">
        <ele>226.6</ele>
        <time>2022-06-02T12:33:00Z</time>
      </trkpt>
      <trkpt lat="46.48568" lon="5.3137">
        <ele>226.8</ele>
        <time>2022-06-02T12:33:02Z</time>
      </trkpt>
      <trkpt lat="46.48566" lon="5.31365">
        <ele>227</ele>
        <time>2022-06-02T12:33:03Z</time>
      </trkpt>
      <trkpt lat="46.48564" lon="5.31359">
        <ele>227.2</ele>
        <time>2022-06-02T12:33:04Z</time>
      </trkpt>
      <trkpt lat="46.48562" lon="5.31353">
        <ele>227.4</ele>
        <time>2022-06-02T12:33:05Z</time>
      </trkpt>
      <trkpt lat="46.48559" lon="5.31336">
        <ele>228.2</ele>
        <time>2022-06-02T12:33:08Z</time>
      </trkpt>
      <trkpt lat="46.48559" lon="5.31324">
        <ele>229</ele>
        <time>2022-06-02T12:33:10Z</time>
      </trkpt>
      <trkpt lat="46.48558" lon="5.31312">
        <ele>229.6</ele>
        <time>2022-06-02T12:33:12Z</time>
      </trkpt>
      <trkpt lat="46.48555" lon="5.31275">
        <ele>230.4</ele>
        <time>2022-06-02T12:33:17Z</time>
      </trkpt>
      <trkpt lat="46.48554" lon="5.31267">
        <ele>230.6</ele>
        <time>2022-06-02T12:33:18Z</time>
      </trkpt>
      <trkpt lat="46.48554" lon="5.3126">
        <ele>230.8</ele>
        <time>2022-06-02T12:33:19Z</time>
      </trkpt>
      <trkpt lat="46.48556" lon="5.31245">
        <ele>231</ele>
        <time>2022-06-02T12:33:21Z</time>
      </trkpt>
      <trkpt lat="46.48558" lon="5.31238">
        <ele>231.2</ele>
        <time>2022-06-02T12:33:22Z</time>
      </trkpt>
      <trkpt lat="46.48562" lon="5.31225">
        <ele>231.2</ele>
        <time>2022-06-02T12:33:24Z</time>
      </trkpt>
      <trkpt lat="46.48573" lon="5.31202">
        <ele>231.8</ele>
        <time>2022-06-02T12:33:28Z</time>
      </trkpt>
      <trkpt lat="46.48598" lon="5.31151">
        <ele>232.6</ele>
        <time>2022-06-02T12:33:37Z</time>
      </trkpt>
      <trkpt lat="46.48601" lon="5.31145">
        <ele>232.8</ele>
        <time>2022-06-02T12:33:38Z</time>
      </trkpt>
      <trkpt lat="46.4862" lon="5.31106">
        <ele>233.8</ele>
        <time>2022-06-02T12:33:45Z</time>
      </trkpt>
      <trkpt lat="46.48625" lon="5.31095">
        <ele>234.2</ele>
        <time>2022-06-02T12:33:47Z</time>
      </trkpt>
      <trkpt lat="46.48639" lon="5.31067">
        <ele>235.2</ele>
        <time>2022-06-02T12:33:52Z</time>
      </trkpt>
      <trkpt lat="46.48653" lon="5.31039">
        <ele>235.8</ele>
        <time>2022-06-02T12:33:57Z</time>
      </trkpt>
      <trkpt lat="46.48656" lon="5.31034">
        <ele>236</ele>
        <time>2022-06-02T12:33:58Z</time>
      </trkpt>
      <trkpt lat="46.48678" lon="5.30988">
        <ele>237.2</ele>
        <time>2022-06-02T12:34:06Z</time>
      </trkpt>
      <trkpt lat="46.48684" lon="5.30975">
        <ele>237.2</ele>
        <time>2022-06-02T12:34:08Z</time>
      </trkpt>
      <trkpt lat="46.48697" lon="5.30947">
        <ele>237.6</ele>
        <time>2022-06-02T12:34:12Z</time>
      </trkpt>
      <trkpt lat="46.4871" lon="5.30925">
        <ele>237.6</ele>
        <time>2022-06-02T12:34:15Z</time>
      </trkpt>
      <trkpt lat="46.48721" lon="5.30911">
        <ele>237.4</ele>
        <time>2022-06-02T12:34:17Z</time>
      </trkpt>
      <trkpt lat="46.48725" lon="5.3089">
        <ele>237.2</ele>
        <time>2022-06-02T12:34:19Z</time>
      </trkpt>
      <trkpt lat="46.4872" lon="5.30868">
        <ele>236.4</ele>
        <time>2022-06-02T12:34:21Z</time>
      </trkpt>
      <trkpt lat="46.48715" lon="5.30859">
        <ele>235.8</ele>
        <time>2022-06-02T12:34:22Z</time>
      </trkpt>
      <trkpt lat="46.48709" lon="5.30851">
        <ele>235.4</ele>
        <time>2022-06-02T12:34:23Z</time>
      </trkpt>
      <trkpt lat="46.48695" lon="5.30839">
        <ele>234.8</ele>
        <time>2022-06-02T12:34:25Z</time>
      </trkpt>
      <trkpt lat="46.4865" lon="5.3081">
        <ele>233.6</ele>
        <time>2022-06-02T12:34:31Z</time>
      </trkpt>
      <trkpt lat="46.48627" lon="5.30794">
        <ele>233.2</ele>
        <time>2022-06-02T12:34:34Z</time>
      </trkpt>
      <trkpt lat="46.48587" lon="5.30762">
        <ele>233</ele>
        <time>2022-06-02T12:34:40Z</time>
      </trkpt>
      <trkpt lat="46.48567" lon="5.30741">
        <ele>233</ele>
        <time>2022-06-02T12:34:44Z</time>
      </trkpt>
      <trkpt lat="46.48559" lon="5.30728">
        <ele>233.2</ele>
        <time>2022-06-02T12:34:46Z</time>
      </trkpt>
      <trkpt lat="46.4855" lon="5.30707">
        <ele>233.8</ele>
        <time>2022-06-02T12:34:49Z</time>
      </trkpt>
      <trkpt lat="46.48549" lon="5.30699">
        <ele>234</ele>
        <time>2022-06-02T12:34:50Z</time>
      </trkpt>
      <trkpt lat="46.48548" lon="5.30691">
        <ele>234.2</ele>
        <time>2022-06-02T12:34:51Z</time>
      </trkpt>
      <trkpt lat="46.48546" lon="5.30685">
        <ele>234.4</ele>
        <time>2022-06-02T12:34:52Z</time>
      </trkpt>
      <trkpt lat="46.48544" lon="5.30674">
        <ele>234.8</ele>
        <time>2022-06-02T12:34:54Z</time>
      </trkpt>
      <trkpt lat="46.48546" lon="5.30646">
        <ele>235.4</ele>
        <time>2022-06-02T12:34:58Z</time>
      </trkpt>
      <trkpt lat="46.48547" lon="5.30625">
        <ele>236.2</ele>
        <time>2022-06-02T12:35:01Z</time>
      </trkpt>
      <trkpt lat="46.48549" lon="5.30605">
        <ele>237.2</ele>
        <time>2022-06-02T12:35:04Z</time>
      </trkpt>
      <trkpt lat="46.4855" lon="5.30598">
        <ele>237.4</ele>
        <time>2022-06-02T12:35:05Z</time>
      </trkpt>
      <trkpt lat="46.48553" lon="5.30571">
        <ele>238.6</ele>
        <time>2022-06-02T12:35:09Z</time>
      </trkpt>
      <trkpt lat="46.48556" lon="5.30544">
        <ele>239.2</ele>
        <time>2022-06-02T12:35:13Z</time>
      </trkpt>
      <trkpt lat="46.48557" lon="5.30537">
        <ele>239.4</ele>
        <time>2022-06-02T12:35:14Z</time>
      </trkpt>
      <trkpt lat="46.4856" lon="5.30523">
        <ele>239.6</ele>
        <time>2022-06-02T12:35:16Z</time>
      </trkpt>
      <trkpt lat="46.48561" lon="5.30516">
        <ele>239.8</ele>
        <time>2022-06-02T12:35:17Z</time>
      </trkpt>
      <trkpt lat="46.4856" lon="5.30502">
        <ele>240.2</ele>
        <time>2022-06-02T12:35:19Z</time>
      </trkpt>
      <trkpt lat="46.48552" lon="5.30495">
        <ele>240.4</ele>
        <time>2022-06-02T12:35:21Z</time>
      </trkpt>
      <trkpt lat="46.48542" lon="5.30498">
        <ele>240.6</ele>
        <time>2022-06-02T12:35:23Z</time>
      </trkpt>
      <trkpt lat="46.48537" lon="5.30501">
        <ele>240.6</ele>
        <time>2022-06-02T12:35:24Z</time>
      </trkpt>
      <trkpt lat="46.48513" lon="5.3052">
        <ele>240.6</ele>
        <time>2022-06-02T12:35:29Z</time>
      </trkpt>
      <trkpt lat="46.48509" lon="5.30524">
        <ele>240.6</ele>
        <time>2022-06-02T12:35:30Z</time>
      </trkpt>
      <trkpt lat="46.48504" lon="5.30529">
        <ele>240.8</ele>
        <time>2022-06-02T12:35:31Z</time>
      </trkpt>
      <trkpt lat="46.48488" lon="5.30544">
        <ele>241</ele>
        <time>2022-06-02T12:35:34Z</time>
      </trkpt>
      <trkpt lat="46.48453" lon="5.30576">
        <ele>241</ele>
        <time>2022-06-02T12:35:40Z</time>
      </trkpt>
      <trkpt lat="46.48412" lon="5.30614">
        <ele>240.6</ele>
        <time>2022-06-02T12:35:47Z</time>
      </trkpt>
      <trkpt lat="46.48365" lon="5.30659">
        <ele>240.2</ele>
        <time>2022-06-02T12:35:55Z</time>
      </trkpt>
      <trkpt lat="46.48347" lon="5.30675">
        <ele>240</ele>
        <time>2022-06-02T12:35:58Z</time>
      </trkpt>
      <trkpt lat="46.48334" lon="5.30685">
        <ele>239.6</ele>
        <time>2022-06-02T12:36:00Z</time>
      </trkpt>
      <trkpt lat="46.48314" lon="5.30695">
        <ele>239.2</ele>
        <time>2022-06-02T12:36:03Z</time>
      </trkpt>
      <trkpt lat="46.48307" lon="5.30697">
        <ele>239.2</ele>
        <time>2022-06-02T12:36:04Z</time>
      </trkpt>
      <trkpt lat="46.48273" lon="5.30694">
        <ele>238.8</ele>
        <time>2022-06-02T12:36:09Z</time>
      </trkpt>
      <trkpt lat="46.48231" lon="5.30682">
        <ele>239</ele>
        <time>2022-06-02T12:36:16Z</time>
      </trkpt>
      <trkpt lat="46.48202" lon="5.30687">
        <ele>239.8</ele>
        <time>2022-06-02T12:36:21Z</time>
      </trkpt>
      <trkpt lat="46.48197" lon="5.3069">
        <ele>239.8</ele>
        <time>2022-06-02T12:36:22Z</time>
      </trkpt>
      <trkpt lat="46.48182" lon="5.30698">
        <ele>240.4</ele>
        <time>2022-06-02T12:36:25Z</time>
      </trkpt>
      <trkpt lat="46.48177" lon="5.307">
        <ele>240.4</ele>
        <time>2022-06-02T12:36:26Z</time>
      </trkpt>
      <trkpt lat="46.48162" lon="5.30708">
        <ele>240.8</ele>
        <time>2022-06-02T12:36:29Z</time>
      </trkpt>
      <trkpt lat="46.48142" lon="5.30718">
        <ele>241.4</ele>
        <time>2022-06-02T12:36:33Z</time>
      </trkpt>
      <trkpt lat="46.48132" lon="5.30724">
        <ele>241.8</ele>
        <time>2022-06-02T12:36:35Z</time>
      </trkpt>
      <trkpt lat="46.48085" lon="5.30749">
        <ele>242.8</ele>
        <time>2022-06-02T12:36:44Z</time>
      </trkpt>
      <trkpt lat="46.4808" lon="5.30752">
        <ele>243</ele>
        <time>2022-06-02T12:36:45Z</time>
      </trkpt>
      <trkpt lat="46.48035" lon="5.30776">
        <ele>243.2</ele>
        <time>2022-06-02T12:36:53Z</time>
      </trkpt>
      <trkpt lat="46.47996" lon="5.30798">
        <ele>242.8</ele>
        <time>2022-06-02T12:36:59Z</time>
      </trkpt>
      <trkpt lat="46.47953" lon="5.30815">
        <ele>241.6</ele>
        <time>2022-06-02T12:37:05Z</time>
      </trkpt>
      <trkpt lat="46.47926" lon="5.30814">
        <ele>241.4</ele>
        <time>2022-06-02T12:37:09Z</time>
      </trkpt>
      <trkpt lat="46.47921" lon="5.30812">
        <ele>241.4</ele>
        <time>2022-06-02T12:37:10Z</time>
      </trkpt>
      <trkpt lat="46.47898" lon="5.30803">
        <ele>242.4</ele>
        <time>2022-06-02T12:37:15Z</time>
      </trkpt>
      <trkpt lat="46.47889" lon="5.308">
        <ele>243</ele>
        <time>2022-06-02T12:37:17Z</time>
      </trkpt>
      <trkpt lat="46.47876" lon="5.30796">
        <ele>243.4</ele>
        <time>2022-06-02T12:37:20Z</time>
      </trkpt>
      <trkpt lat="46.47868" lon="5.30795">
        <ele>244.2</ele>
        <time>2022-06-02T12:37:22Z</time>
      </trkpt>
      <trkpt lat="46.47856" lon="5.30794">
        <ele>244.8</ele>
        <time>2022-06-02T12:37:25Z</time>
      </trkpt>
      <trkpt lat="46.47847" lon="5.30789">
        <ele>245.2</ele>
        <time>2022-06-02T12:37:27Z</time>
      </trkpt>
      <trkpt lat="46.47843" lon="5.30785">
        <ele>245.6</ele>
        <time>2022-06-02T12:37:28Z</time>
      </trkpt>
      <trkpt lat="46.47835" lon="5.30776">
        <ele>246</ele>
        <time>2022-06-02T12:37:30Z</time>
      </trkpt>
      <trkpt lat="46.47823" lon="5.3077">
        <ele>246.2</ele>
        <time>2022-06-02T12:37:32Z</time>
      </trkpt>
      <trkpt lat="46.47792" lon="5.30769">
        <ele>246</ele>
        <time>2022-06-02T12:37:36Z</time>
      </trkpt>
      <trkpt lat="46.47741" lon="5.30776">
        <ele>244.8</ele>
        <time>2022-06-02T12:37:43Z</time>
      </trkpt>
      <trkpt lat="46.477" lon="5.30783">
        <ele>245.2</ele>
        <time>2022-06-02T12:37:50Z</time>
      </trkpt>
      <trkpt lat="46.47656" lon="5.3079">
        <ele>245.8</ele>
        <time>2022-06-02T12:37:58Z</time>
      </trkpt>
      <trkpt lat="46.47628" lon="5.30794">
        <ele>246</ele>
        <time>2022-06-02T12:38:03Z</time>
      </trkpt>
      <trkpt lat="46.47604" lon="5.30798">
        <ele>246.2</ele>
        <time>2022-06-02T12:38:07Z</time>
      </trkpt>
      <trkpt lat="46.47551" lon="5.30806">
        <ele>246.4</ele>
        <time>2022-06-02T12:38:16Z</time>
      </trkpt>
      <trkpt lat="46.47509" lon="5.3082">
        <ele>246.2</ele>
        <time>2022-06-02T12:38:23Z</time>
      </trkpt>
      <trkpt lat="46.47464" lon="5.30844">
        <ele>246</ele>
        <time>2022-06-02T12:38:30Z</time>
      </trkpt>
      <trkpt lat="46.47413" lon="5.3087">
        <ele>245.6</ele>
        <time>2022-06-02T12:38:38Z</time>
      </trkpt>
      <trkpt lat="46.474" lon="5.30876">
        <ele>245.4</ele>
        <time>2022-06-02T12:38:40Z</time>
      </trkpt>
      <trkpt lat="46.47352" lon="5.30892">
        <ele>245.2</ele>
        <time>2022-06-02T12:38:48Z</time>
      </trkpt>
      <trkpt lat="46.4734" lon="5.3089">
        <ele>245</ele>
        <time>2022-06-02T12:38:50Z</time>
      </trkpt>
      <trkpt lat="46.47335" lon="5.30884">
        <ele>245</ele>
        <time>2022-06-02T12:38:51Z</time>
      </trkpt>
      <trkpt lat="46.47332" lon="5.30877">
        <ele>245</ele>
        <time>2022-06-02T12:38:52Z</time>
      </trkpt>
      <trkpt lat="46.47328" lon="5.3086">
        <ele>244.6</ele>
        <time>2022-06-02T12:38:54Z</time>
      </trkpt>
      <trkpt lat="46.47322" lon="5.30799">
        <ele>244.4</ele>
        <time>2022-06-02T12:39:00Z</time>
      </trkpt>
      <trkpt lat="46.47318" lon="5.3072">
        <ele>244.8</ele>
        <time>2022-06-02T12:39:08Z</time>
      </trkpt>
      <trkpt lat="46.47318" lon="5.30711">
        <ele>244.8</ele>
        <time>2022-06-02T12:39:09Z</time>
      </trkpt>
      <trkpt lat="46.47316" lon="5.30667">
        <ele>245</ele>
        <time>2022-06-02T12:39:14Z</time>
      </trkpt>
      <trkpt lat="46.47312" lon="5.30649">
        <ele>245</ele>
        <time>2022-06-02T12:39:16Z</time>
      </trkpt>
      <trkpt lat="46.47305" lon="5.30634">
        <ele>245</ele>
        <time>2022-06-02T12:39:18Z</time>
      </trkpt>
      <trkpt lat="46.47296" lon="5.30622">
        <ele>245</ele>
        <time>2022-06-02T12:39:20Z</time>
      </trkpt>
      <trkpt lat="46.47267" lon="5.30587">
        <ele>245</ele>
        <time>2022-06-02T12:39:26Z</time>
      </trkpt>
      <trkpt lat="46.47257" lon="5.30576">
        <ele>245</ele>
        <time>2022-06-02T12:39:28Z</time>
      </trkpt>
      <trkpt lat="46.4724" lon="5.30563">
        <ele>245.2</ele>
        <time>2022-06-02T12:39:31Z</time>
      </trkpt>
      <trkpt lat="46.47227" lon="5.30557">
        <ele>245.2</ele>
        <time>2022-06-02T12:39:33Z</time>
      </trkpt>
      <trkpt lat="46.47215" lon="5.30554">
        <ele>245.4</ele>
        <time>2022-06-02T12:39:35Z</time>
      </trkpt>
      <trkpt lat="46.47208" lon="5.30555">
        <ele>245.4</ele>
        <time>2022-06-02T12:39:36Z</time>
      </trkpt>
      <trkpt lat="46.47169" lon="5.30557">
        <ele>245.4</ele>
        <time>2022-06-02T12:39:42Z</time>
      </trkpt>
      <trkpt lat="46.4714" lon="5.30548">
        <ele>245.6</ele>
        <time>2022-06-02T12:39:47Z</time>
      </trkpt>
      <trkpt lat="46.47099" lon="5.30526">
        <ele>245.8</ele>
        <time>2022-06-02T12:39:54Z</time>
      </trkpt>
      <trkpt lat="46.47093" lon="5.30522">
        <ele>246</ele>
        <time>2022-06-02T12:39:55Z</time>
      </trkpt>
      <trkpt lat="46.47043" lon="5.3048">
        <ele>246.2</ele>
        <time>2022-06-02T12:40:04Z</time>
      </trkpt>
      <trkpt lat="46.46996" lon="5.30439">
        <ele>245.8</ele>
        <time>2022-06-02T12:40:12Z</time>
      </trkpt>
      <trkpt lat="46.46979" lon="5.30425">
        <ele>245.6</ele>
        <time>2022-06-02T12:40:15Z</time>
      </trkpt>
      <trkpt lat="46.46936" lon="5.30397">
        <ele>245</ele>
        <time>2022-06-02T12:40:22Z</time>
      </trkpt>
      <trkpt lat="46.46923" lon="5.30392">
        <ele>244.8</ele>
        <time>2022-06-02T12:40:24Z</time>
      </trkpt>
      <trkpt lat="46.46876" lon="5.3037">
        <ele>244.4</ele>
        <time>2022-06-02T12:40:32Z</time>
      </trkpt>
      <trkpt lat="46.4685" lon="5.30345">
        <ele>245</ele>
        <time>2022-06-02T12:40:37Z</time>
      </trkpt>
      <trkpt lat="46.46816" lon="5.30303">
        <ele>246</ele>
        <time>2022-06-02T12:40:44Z</time>
      </trkpt>
      <trkpt lat="46.46796" lon="5.30279">
        <ele>246</ele>
        <time>2022-06-02T12:40:48Z</time>
      </trkpt>
      <trkpt lat="46.46753" lon="5.30228">
        <ele>246.2</ele>
        <time>2022-06-02T12:40:57Z</time>
      </trkpt>
      <trkpt lat="46.46748" lon="5.30221">
        <ele>246</ele>
        <time>2022-06-02T12:40:58Z</time>
      </trkpt>
      <trkpt lat="46.4674" lon="5.30207">
        <ele>246</ele>
        <time>2022-06-02T12:41:00Z</time>
      </trkpt>
      <trkpt lat="46.46734" lon="5.3019">
        <ele>245.8</ele>
        <time>2022-06-02T12:41:02Z</time>
      </trkpt>
      <trkpt lat="46.46717" lon="5.30125">
        <ele>245.4</ele>
        <time>2022-06-02T12:41:09Z</time>
      </trkpt>
      <trkpt lat="46.46702" lon="5.30066">
        <ele>245.2</ele>
        <time>2022-06-02T12:41:15Z</time>
      </trkpt>
      <trkpt lat="46.46697" lon="5.30047">
        <ele>245</ele>
        <time>2022-06-02T12:41:17Z</time>
      </trkpt>
      <trkpt lat="46.46695" lon="5.30037">
        <ele>245</ele>
        <time>2022-06-02T12:41:18Z</time>
      </trkpt>
      <trkpt lat="46.46685" lon="5.30002">
        <ele>245</ele>
        <time>2022-06-02T12:41:22Z</time>
      </trkpt>
      <trkpt lat="46.46668" lon="5.29934">
        <ele>245.8</ele>
        <time>2022-06-02T12:41:30Z</time>
      </trkpt>
      <trkpt lat="46.46666" lon="5.29925">
        <ele>246</ele>
        <time>2022-06-02T12:41:31Z</time>
      </trkpt>
      <trkpt lat="46.46649" lon="5.29868">
        <ele>247.2</ele>
        <time>2022-06-02T12:41:38Z</time>
      </trkpt>
      <trkpt lat="46.46635" lon="5.29809">
        <ele>248</ele>
        <time>2022-06-02T12:41:45Z</time>
      </trkpt>
      <trkpt lat="46.46625" lon="5.29771">
        <ele>248</ele>
        <time>2022-06-02T12:41:50Z</time>
      </trkpt>
      <trkpt lat="46.46612" lon="5.29724">
        <ele>247.8</ele>
        <time>2022-06-02T12:41:55Z</time>
      </trkpt>
      <trkpt lat="46.46589" lon="5.29641">
        <ele>247</ele>
        <time>2022-06-02T12:42:03Z</time>
      </trkpt>
      <trkpt lat="46.46579" lon="5.29599">
        <ele>246</ele>
        <time>2022-06-02T12:42:07Z</time>
      </trkpt>
      <trkpt lat="46.46567" lon="5.29559">
        <ele>245.2</ele>
        <time>2022-06-02T12:42:11Z</time>
      </trkpt>
      <trkpt lat="46.4656" lon="5.29537">
        <ele>244.8</ele>
        <time>2022-06-02T12:42:13Z</time>
      </trkpt>
      <trkpt lat="46.46552" lon="5.29499">
        <ele>244.2</ele>
        <time>2022-06-02T12:42:16Z</time>
      </trkpt>
      <trkpt lat="46.46535" lon="5.29424">
        <ele>244.2</ele>
        <time>2022-06-02T12:42:23Z</time>
      </trkpt>
      <trkpt lat="46.46518" lon="5.29342">
        <ele>244.4</ele>
        <time>2022-06-02T12:42:31Z</time>
      </trkpt>
      <trkpt lat="46.465" lon="5.29261">
        <ele>244.4</ele>
        <time>2022-06-02T12:42:39Z</time>
      </trkpt>
      <trkpt lat="46.46498" lon="5.29251">
        <ele>244.4</ele>
        <time>2022-06-02T12:42:40Z</time>
      </trkpt>
      <trkpt lat="46.46482" lon="5.29168">
        <ele>244.8</ele>
        <time>2022-06-02T12:42:49Z</time>
      </trkpt>
      <trkpt lat="46.46467" lon="5.29095">
        <ele>245.6</ele>
        <time>2022-06-02T12:42:57Z</time>
      </trkpt>
      <trkpt lat="46.46452" lon="5.29027">
        <ele>246</ele>
        <time>2022-06-02T12:43:04Z</time>
      </trkpt>
      <trkpt lat="46.46435" lon="5.2895">
        <ele>246.4</ele>
        <time>2022-06-02T12:43:12Z</time>
      </trkpt>
      <trkpt lat="46.46432" lon="5.28929">
        <ele>246.4</ele>
        <time>2022-06-02T12:43:14Z</time>
      </trkpt>
      <trkpt lat="46.46413" lon="5.28857">
        <ele>245.6</ele>
        <time>2022-06-02T12:43:21Z</time>
      </trkpt>
      <trkpt lat="46.46392" lon="5.28813">
        <ele>245</ele>
        <time>2022-06-02T12:43:26Z</time>
      </trkpt>
      <trkpt lat="46.46387" lon="5.28806">
        <ele>244.8</ele>
        <time>2022-06-02T12:43:27Z</time>
      </trkpt>
      <trkpt lat="46.46357" lon="5.28778">
        <ele>244.4</ele>
        <time>2022-06-02T12:43:32Z</time>
      </trkpt>
      <trkpt lat="46.46313" lon="5.28748">
        <ele>243.8</ele>
        <time>2022-06-02T12:43:38Z</time>
      </trkpt>
      <trkpt lat="46.46306" lon="5.28742">
        <ele>243.6</ele>
        <time>2022-06-02T12:43:39Z</time>
      </trkpt>
      <trkpt lat="46.46283" lon="5.28728">
        <ele>242.6</ele>
        <time>2022-06-02T12:43:42Z</time>
      </trkpt>
      <trkpt lat="46.4626" lon="5.28712">
        <ele>242.2</ele>
        <time>2022-06-02T12:43:45Z</time>
      </trkpt>
      <trkpt lat="46.46241" lon="5.28697">
        <ele>241.6</ele>
        <time>2022-06-02T12:43:48Z</time>
      </trkpt>
      <trkpt lat="46.46236" lon="5.28692">
        <ele>241.4</ele>
        <time>2022-06-02T12:43:49Z</time>
      </trkpt>
      <trkpt lat="46.46232" lon="5.28686">
        <ele>241.2</ele>
        <time>2022-06-02T12:43:50Z</time>
      </trkpt>
      <trkpt lat="46.46228" lon="5.28679">
        <ele>240.4</ele>
        <time>2022-06-02T12:43:51Z</time>
      </trkpt>
      <trkpt lat="46.46224" lon="5.28661">
        <ele>239.4</ele>
        <time>2022-06-02T12:43:53Z</time>
      </trkpt>
      <trkpt lat="46.46222" lon="5.2865">
        <ele>239</ele>
        <time>2022-06-02T12:43:54Z</time>
      </trkpt>
      <trkpt lat="46.46217" lon="5.28613">
        <ele>237.8</ele>
        <time>2022-06-02T12:43:57Z</time>
      </trkpt>
      <trkpt lat="46.46211" lon="5.28572">
        <ele>236.8</ele>
        <time>2022-06-02T12:44:00Z</time>
      </trkpt>
      <trkpt lat="46.46207" lon="5.28543">
        <ele>236</ele>
        <time>2022-06-02T12:44:02Z</time>
      </trkpt>
      <trkpt lat="46.46205" lon="5.28528">
        <ele>235.4</ele>
        <time>2022-06-02T12:44:03Z</time>
      </trkpt>
      <trkpt lat="46.46196" lon="5.28467">
        <ele>234.6</ele>
        <time>2022-06-02T12:44:07Z</time>
      </trkpt>
      <trkpt lat="46.46194" lon="5.28451">
        <ele>233.8</ele>
        <time>2022-06-02T12:44:08Z</time>
      </trkpt>
      <trkpt lat="46.46189" lon="5.2842">
        <ele>232.6</ele>
        <time>2022-06-02T12:44:10Z</time>
      </trkpt>
      <trkpt lat="46.46185" lon="5.2839">
        <ele>231.2</ele>
        <time>2022-06-02T12:44:12Z</time>
      </trkpt>
      <trkpt lat="46.46181" lon="5.28361">
        <ele>230.2</ele>
        <time>2022-06-02T12:44:14Z</time>
      </trkpt>
      <trkpt lat="46.46176" lon="5.28333">
        <ele>229.6</ele>
        <time>2022-06-02T12:44:16Z</time>
      </trkpt>
      <trkpt lat="46.4617" lon="5.28274">
        <ele>229.4</ele>
        <time>2022-06-02T12:44:21Z</time>
      </trkpt>
      <trkpt lat="46.4617" lon="5.28263">
        <ele>229.4</ele>
        <time>2022-06-02T12:44:22Z</time>
      </trkpt>
      <trkpt lat="46.46173" lon="5.28234">
        <ele>229.8</ele>
        <time>2022-06-02T12:44:25Z</time>
      </trkpt>
      <trkpt lat="46.46182" lon="5.28181">
        <ele>231.6</ele>
        <time>2022-06-02T12:44:31Z</time>
      </trkpt>
      <trkpt lat="46.46184" lon="5.28163">
        <ele>232</ele>
        <time>2022-06-02T12:44:33Z</time>
      </trkpt>
      <trkpt lat="46.46189" lon="5.28135">
        <ele>232.6</ele>
        <time>2022-06-02T12:44:36Z</time>
      </trkpt>
      <trkpt lat="46.46192" lon="5.28105">
        <ele>232.8</ele>
        <time>2022-06-02T12:44:39Z</time>
      </trkpt>
      <trkpt lat="46.46196" lon="5.28043">
        <ele>233</ele>
        <time>2022-06-02T12:44:45Z</time>
      </trkpt>
      <trkpt lat="46.46198" lon="5.28015">
        <ele>233</ele>
        <time>2022-06-02T12:44:48Z</time>
      </trkpt>
      <trkpt lat="46.46193" lon="5.28">
        <ele>233</ele>
        <time>2022-06-02T12:44:50Z</time>
      </trkpt>
      <trkpt lat="46.46166" lon="5.27981">
        <ele>233.2</ele>
        <time>2022-06-02T12:44:54Z</time>
      </trkpt>
      <trkpt lat="46.46142" lon="5.27962">
        <ele>233</ele>
        <time>2022-06-02T12:44:57Z</time>
      </trkpt>
      <trkpt lat="46.46135" lon="5.27952">
        <ele>232.8</ele>
        <time>2022-06-02T12:44:58Z</time>
      </trkpt>
      <trkpt lat="46.4613" lon="5.2794">
        <ele>232.4</ele>
        <time>2022-06-02T12:44:59Z</time>
      </trkpt>
      <trkpt lat="46.46128" lon="5.27925">
        <ele>232</ele>
        <time>2022-06-02T12:45:00Z</time>
      </trkpt>
      <trkpt lat="46.46127" lon="5.27909">
        <ele>231</ele>
        <time>2022-06-02T12:45:01Z</time>
      </trkpt>
      <trkpt lat="46.46126" lon="5.27876">
        <ele>229.4</ele>
        <time>2022-06-02T12:45:03Z</time>
      </trkpt>
      <trkpt lat="46.46125" lon="5.2786">
        <ele>228.8</ele>
        <time>2022-06-02T12:45:04Z</time>
      </trkpt>
      <trkpt lat="46.46125" lon="5.27843">
        <ele>228.4</ele>
        <time>2022-06-02T12:45:05Z</time>
      </trkpt>
      <trkpt lat="46.46125" lon="5.27827">
        <ele>226.8</ele>
        <time>2022-06-02T12:45:06Z</time>
      </trkpt>
      <trkpt lat="46.46124" lon="5.27794">
        <ele>225.8</ele>
        <time>2022-06-02T12:45:08Z</time>
      </trkpt>
      <trkpt lat="46.46125" lon="5.27762">
        <ele>224.6</ele>
        <time>2022-06-02T12:45:10Z</time>
      </trkpt>
      <trkpt lat="46.46125" lon="5.27746">
        <ele>223.8</ele>
        <time>2022-06-02T12:45:11Z</time>
      </trkpt>
      <trkpt lat="46.46126" lon="5.27715">
        <ele>223</ele>
        <time>2022-06-02T12:45:13Z</time>
      </trkpt>
      <trkpt lat="46.46127" lon="5.27683">
        <ele>222</ele>
        <time>2022-06-02T12:45:15Z</time>
      </trkpt>
      <trkpt lat="46.46128" lon="5.27637">
        <ele>220.8</ele>
        <time>2022-06-02T12:45:18Z</time>
      </trkpt>
      <trkpt lat="46.4613" lon="5.27577">
        <ele>219.4</ele>
        <time>2022-06-02T12:45:22Z</time>
      </trkpt>
      <trkpt lat="46.46132" lon="5.2749">
        <ele>218.4</ele>
        <time>2022-06-02T12:45:28Z</time>
      </trkpt>
      <trkpt lat="46.46133" lon="5.27449">
        <ele>218.4</ele>
        <time>2022-06-02T12:45:31Z</time>
      </trkpt>
      <trkpt lat="46.46135" lon="5.2737">
        <ele>218.6</ele>
        <time>2022-06-02T12:45:37Z</time>
      </trkpt>
      <trkpt lat="46.46136" lon="5.27332">
        <ele>218.6</ele>
        <time>2022-06-02T12:45:40Z</time>
      </trkpt>
      <trkpt lat="46.46139" lon="5.27247">
        <ele>218.6</ele>
        <time>2022-06-02T12:45:47Z</time>
      </trkpt>
      <trkpt lat="46.46139" lon="5.27235">
        <ele>218.6</ele>
        <time>2022-06-02T12:45:48Z</time>
      </trkpt>
      <trkpt lat="46.46142" lon="5.27157">
        <ele>218.6</ele>
        <time>2022-06-02T12:45:55Z</time>
      </trkpt>
      <trkpt lat="46.46144" lon="5.27089">
        <ele>219</ele>
        <time>2022-06-02T12:46:02Z</time>
      </trkpt>
      <trkpt lat="46.46145" lon="5.27025">
        <ele>219.6</ele>
        <time>2022-06-02T12:46:09Z</time>
      </trkpt>
      <trkpt lat="46.46146" lon="5.27006">
        <ele>219.6</ele>
        <time>2022-06-02T12:46:11Z</time>
      </trkpt>
      <trkpt lat="46.46148" lon="5.26928">
        <ele>219.8</ele>
        <time>2022-06-02T12:46:19Z</time>
      </trkpt>
      <trkpt lat="46.46151" lon="5.26847">
        <ele>219.6</ele>
        <time>2022-06-02T12:46:27Z</time>
      </trkpt>
      <trkpt lat="46.46153" lon="5.26785">
        <ele>219.8</ele>
        <time>2022-06-02T12:46:34Z</time>
      </trkpt>
      <trkpt lat="46.46154" lon="5.26734">
        <ele>220.8</ele>
        <time>2022-06-02T12:46:40Z</time>
      </trkpt>
      <trkpt lat="46.46155" lon="5.26701">
        <ele>221.2</ele>
        <time>2022-06-02T12:46:44Z</time>
      </trkpt>
      <trkpt lat="46.46156" lon="5.26658">
        <ele>222</ele>
        <time>2022-06-02T12:46:50Z</time>
      </trkpt>
      <trkpt lat="46.46158" lon="5.26628">
        <ele>223.2</ele>
        <time>2022-06-02T12:46:55Z</time>
      </trkpt>
      <trkpt lat="46.46159" lon="5.26611">
        <ele>224</ele>
        <time>2022-06-02T12:46:58Z</time>
      </trkpt>
      <trkpt lat="46.4616" lon="5.266">
        <ele>224.4</ele>
        <time>2022-06-02T12:47:00Z</time>
      </trkpt>
      <trkpt lat="46.46161" lon="5.26577">
        <ele>225</ele>
        <time>2022-06-02T12:47:04Z</time>
      </trkpt>
      <trkpt lat="46.46163" lon="5.26561">
        <ele>226</ele>
        <time>2022-06-02T12:47:07Z</time>
      </trkpt>
      <trkpt lat="46.46163" lon="5.26555">
        <ele>226</ele>
        <time>2022-06-02T12:47:08Z</time>
      </trkpt>
      <trkpt lat="46.46166" lon="5.26522">
        <ele>227</ele>
        <time>2022-06-02T12:47:14Z</time>
      </trkpt>
      <trkpt lat="46.46167" lon="5.2651">
        <ele>227.2</ele>
        <time>2022-06-02T12:47:16Z</time>
      </trkpt>
      <trkpt lat="46.46169" lon="5.26488">
        <ele>228.2</ele>
        <time>2022-06-02T12:47:20Z</time>
      </trkpt>
      <trkpt lat="46.46171" lon="5.26472">
        <ele>228.8</ele>
        <time>2022-06-02T12:47:23Z</time>
      </trkpt>
      <trkpt lat="46.46171" lon="5.26467">
        <ele>229.2</ele>
        <time>2022-06-02T12:47:24Z</time>
      </trkpt>
      <trkpt lat="46.46174" lon="5.26435">
        <ele>230.2</ele>
        <time>2022-06-02T12:47:30Z</time>
      </trkpt>
      <trkpt lat="46.46178" lon="5.264">
        <ele>231.4</ele>
        <time>2022-06-02T12:47:37Z</time>
      </trkpt>
      <trkpt lat="46.46181" lon="5.26375">
        <ele>232.6</ele>
        <time>2022-06-02T12:47:42Z</time>
      </trkpt>
      <trkpt lat="46.46183" lon="5.26349">
        <ele>233.8</ele>
        <time>2022-06-02T12:47:47Z</time>
      </trkpt>
      <trkpt lat="46.46183" lon="5.26345">
        <ele>233.8</ele>
        <time>2022-06-02T12:47:48Z</time>
      </trkpt>
      <trkpt lat="46.46185" lon="5.26325">
        <ele>234.8</ele>
        <time>2022-06-02T12:47:52Z</time>
      </trkpt>
      <trkpt lat="46.46188" lon="5.26291">
        <ele>235.8</ele>
        <time>2022-06-02T12:47:59Z</time>
      </trkpt>
      <trkpt lat="46.46189" lon="5.26286">
        <ele>236</ele>
        <time>2022-06-02T12:48:00Z</time>
      </trkpt>
      <trkpt lat="46.46191" lon="5.26256">
        <ele>237.2</ele>
        <time>2022-06-02T12:48:06Z</time>
      </trkpt>
      <trkpt lat="46.46189" lon="5.26251">
        <ele>237.4</ele>
        <time>2022-06-02T12:48:07Z</time>
      </trkpt>
      <trkpt lat="46.46179" lon="5.26241">
        <ele>238.2</ele>
        <time>2022-06-02T12:48:10Z</time>
      </trkpt>
      <trkpt lat="46.46175" lon="5.26239">
        <ele>238.2</ele>
        <time>2022-06-02T12:48:11Z</time>
      </trkpt>
      <trkpt lat="46.46143" lon="5.26221">
        <ele>239.2</ele>
        <time>2022-06-02T12:48:18Z</time>
      </trkpt>
      <trkpt lat="46.46139" lon="5.26219">
        <ele>239.2</ele>
        <time>2022-06-02T12:48:19Z</time>
      </trkpt>
      <trkpt lat="46.46101" lon="5.26198">
        <ele>240</ele>
        <time>2022-06-02T12:48:27Z</time>
      </trkpt>
      <trkpt lat="46.46077" lon="5.26185">
        <ele>240.4</ele>
        <time>2022-06-02T12:48:32Z</time>
      </trkpt>
      <trkpt lat="46.46063" lon="5.26178">
        <ele>240.4</ele>
        <time>2022-06-02T12:48:35Z</time>
      </trkpt>
      <trkpt lat="46.46054" lon="5.26174">
        <ele>240.6</ele>
        <time>2022-06-02T12:48:37Z</time>
      </trkpt>
      <trkpt lat="46.46024" lon="5.26166">
        <ele>241.2</ele>
        <time>2022-06-02T12:48:43Z</time>
      </trkpt>
      <trkpt lat="46.46019" lon="5.26165">
        <ele>241.4</ele>
        <time>2022-06-02T12:48:44Z</time>
      </trkpt>
      <trkpt lat="46.45998" lon="5.26163">
        <ele>242</ele>
        <time>2022-06-02T12:48:48Z</time>
      </trkpt>
      <trkpt lat="46.45978" lon="5.26164">
        <ele>242.4</ele>
        <time>2022-06-02T12:48:52Z</time>
      </trkpt>
      <trkpt lat="46.45973" lon="5.26163">
        <ele>242.6</ele>
        <time>2022-06-02T12:48:53Z</time>
      </trkpt>
      <trkpt lat="46.45926" lon="5.26162">
        <ele>243.6</ele>
        <time>2022-06-02T12:49:02Z</time>
      </trkpt>
      <trkpt lat="46.4591" lon="5.26161">
        <ele>243.8</ele>
        <time>2022-06-02T12:49:05Z</time>
      </trkpt>
      <trkpt lat="46.45872" lon="5.2616">
        <ele>244.4</ele>
        <time>2022-06-02T12:49:12Z</time>
      </trkpt>
      <trkpt lat="46.4582" lon="5.2616">
        <ele>244.6</ele>
        <time>2022-06-02T12:49:21Z</time>
      </trkpt>
      <trkpt lat="46.45789" lon="5.26159">
        <ele>244.4</ele>
        <time>2022-06-02T12:49:26Z</time>
      </trkpt>
      <trkpt lat="46.45777" lon="5.26163">
        <ele>244.2</ele>
        <time>2022-06-02T12:49:28Z</time>
      </trkpt>
      <trkpt lat="46.45772" lon="5.26166">
        <ele>244.4</ele>
        <time>2022-06-02T12:49:29Z</time>
      </trkpt>
      <trkpt lat="46.45762" lon="5.26176">
        <ele>244.4</ele>
        <time>2022-06-02T12:49:31Z</time>
      </trkpt>
      <trkpt lat="46.45758" lon="5.26183">
        <ele>244.4</ele>
        <time>2022-06-02T12:49:32Z</time>
      </trkpt>
      <trkpt lat="46.45755" lon="5.26191">
        <ele>244.4</ele>
        <time>2022-06-02T12:49:33Z</time>
      </trkpt>
      <trkpt lat="46.45748" lon="5.26217">
        <ele>244.2</ele>
        <time>2022-06-02T12:49:36Z</time>
      </trkpt>
      <trkpt lat="46.4573" lon="5.26289">
        <ele>243.8</ele>
        <time>2022-06-02T12:49:44Z</time>
      </trkpt>
      <trkpt lat="46.45712" lon="5.26366">
        <ele>243.2</ele>
        <time>2022-06-02T12:49:52Z</time>
      </trkpt>
      <trkpt lat="46.4571" lon="5.26376">
        <ele>243.2</ele>
        <time>2022-06-02T12:49:53Z</time>
      </trkpt>
      <trkpt lat="46.45702" lon="5.26429">
        <ele>243</ele>
        <time>2022-06-02T12:49:58Z</time>
      </trkpt>
      <trkpt lat="46.45696" lon="5.26472">
        <ele>242.8</ele>
        <time>2022-06-02T12:50:02Z</time>
      </trkpt>
      <trkpt lat="46.45683" lon="5.26548">
        <ele>242.2</ele>
        <time>2022-06-02T12:50:09Z</time>
      </trkpt>
      <trkpt lat="46.45679" lon="5.26559">
        <ele>242.2</ele>
        <time>2022-06-02T12:50:10Z</time>
      </trkpt>
      <trkpt lat="46.45676" lon="5.2657">
        <ele>242</ele>
        <time>2022-06-02T12:50:11Z</time>
      </trkpt>
      <trkpt lat="46.45661" lon="5.266">
        <ele>241.6</ele>
        <time>2022-06-02T12:50:14Z</time>
      </trkpt>
      <trkpt lat="46.45648" lon="5.26619">
        <ele>241.2</ele>
        <time>2022-06-02T12:50:16Z</time>
      </trkpt>
      <trkpt lat="46.45632" lon="5.26632">
        <ele>240.6</ele>
        <time>2022-06-02T12:50:18Z</time>
      </trkpt>
      <trkpt lat="46.45598" lon="5.26642">
        <ele>239.6</ele>
        <time>2022-06-02T12:50:22Z</time>
      </trkpt>
      <trkpt lat="46.4559" lon="5.26644">
        <ele>239.4</ele>
        <time>2022-06-02T12:50:23Z</time>
      </trkpt>
      <trkpt lat="46.45559" lon="5.26646">
        <ele>239</ele>
        <time>2022-06-02T12:50:27Z</time>
      </trkpt>
      <trkpt lat="46.45552" lon="5.26645">
        <ele>239</ele>
        <time>2022-06-02T12:50:28Z</time>
      </trkpt>
      <trkpt lat="46.45525" lon="5.26635">
        <ele>238.8</ele>
        <time>2022-06-02T12:50:32Z</time>
      </trkpt>
      <trkpt lat="46.45474" lon="5.26613">
        <ele>239</ele>
        <time>2022-06-02T12:50:40Z</time>
      </trkpt>
      <trkpt lat="46.45468" lon="5.26609">
        <ele>239</ele>
        <time>2022-06-02T12:50:41Z</time>
      </trkpt>
      <trkpt lat="46.45444" lon="5.26595">
        <ele>239.6</ele>
        <time>2022-06-02T12:50:45Z</time>
      </trkpt>
      <trkpt lat="46.45405" lon="5.26573">
        <ele>240.6</ele>
        <time>2022-06-02T12:50:52Z</time>
      </trkpt>
      <trkpt lat="46.45395" lon="5.26568">
        <ele>241</ele>
        <time>2022-06-02T12:50:54Z</time>
      </trkpt>
      <trkpt lat="46.45374" lon="5.2656">
        <ele>241.6</ele>
        <time>2022-06-02T12:50:58Z</time>
      </trkpt>
      <trkpt lat="46.45351" lon="5.26552">
        <ele>242</ele>
        <time>2022-06-02T12:51:02Z</time>
      </trkpt>
      <trkpt lat="46.45302" lon="5.26546">
        <ele>238.4</ele>
        <time>2022-06-02T12:51:10Z</time>
      </trkpt>
      <trkpt lat="46.45245" lon="5.26555">
        <ele>242.2</ele>
        <time>2022-06-02T12:51:19Z</time>
      </trkpt>
      <trkpt lat="46.45199" lon="5.26556">
        <ele>241.8</ele>
        <time>2022-06-02T12:51:26Z</time>
      </trkpt>
      <trkpt lat="46.45162" lon="5.26543">
        <ele>242</ele>
        <time>2022-06-02T12:51:32Z</time>
      </trkpt>
      <trkpt lat="46.45114" lon="5.26524">
        <ele>242.2</ele>
        <time>2022-06-02T12:51:40Z</time>
      </trkpt>
      <trkpt lat="46.45089" lon="5.26516">
        <ele>242.4</ele>
        <time>2022-06-02T12:51:44Z</time>
      </trkpt>
      <trkpt lat="46.45063" lon="5.26514">
        <ele>242.6</ele>
        <time>2022-06-02T12:51:48Z</time>
      </trkpt>
      <trkpt lat="46.45007" lon="5.26512">
        <ele>242.4</ele>
        <time>2022-06-02T12:51:56Z</time>
      </trkpt>
      <trkpt lat="46.45" lon="5.26513">
        <ele>242.4</ele>
        <time>2022-06-02T12:51:57Z</time>
      </trkpt>
      <trkpt lat="46.44957" lon="5.26516">
        <ele>241.6</ele>
        <time>2022-06-02T12:52:03Z</time>
      </trkpt>
      <trkpt lat="46.44949" lon="5.26518">
        <ele>241.2</ele>
        <time>2022-06-02T12:52:04Z</time>
      </trkpt>
      <trkpt lat="46.44927" lon="5.26529">
        <ele>240.8</ele>
        <time>2022-06-02T12:52:07Z</time>
      </trkpt>
      <trkpt lat="46.44906" lon="5.26539">
        <ele>240.6</ele>
        <time>2022-06-02T12:52:10Z</time>
      </trkpt>
      <trkpt lat="46.44879" lon="5.26554">
        <ele>240.6</ele>
        <time>2022-06-02T12:52:14Z</time>
      </trkpt>
      <trkpt lat="46.44874" lon="5.26559">
        <ele>240.6</ele>
        <time>2022-06-02T12:52:15Z</time>
      </trkpt>
      <trkpt lat="46.44869" lon="5.26564">
        <ele>241</ele>
        <time>2022-06-02T12:52:16Z</time>
      </trkpt>
      <trkpt lat="46.4485" lon="5.26589">
        <ele>241.4</ele>
        <time>2022-06-02T12:52:20Z</time>
      </trkpt>
      <trkpt lat="46.44847" lon="5.26596">
        <ele>241.6</ele>
        <time>2022-06-02T12:52:21Z</time>
      </trkpt>
      <trkpt lat="46.44839" lon="5.26618">
        <ele>241.8</ele>
        <time>2022-06-02T12:52:24Z</time>
      </trkpt>
      <trkpt lat="46.44836" lon="5.26632">
        <ele>242</ele>
        <time>2022-06-02T12:52:26Z</time>
      </trkpt>
      <trkpt lat="46.44834" lon="5.26639">
        <ele>242.4</ele>
        <time>2022-06-02T12:52:27Z</time>
      </trkpt>
      <trkpt lat="46.44827" lon="5.26651">
        <ele>243</ele>
        <time>2022-06-02T12:52:29Z</time>
      </trkpt>
      <trkpt lat="46.44822" lon="5.26655">
        <ele>243.2</ele>
        <time>2022-06-02T12:52:30Z</time>
      </trkpt>
      <trkpt lat="46.44816" lon="5.26657">
        <ele>243.4</ele>
        <time>2022-06-02T12:52:31Z</time>
      </trkpt>
      <trkpt lat="46.44811" lon="5.26658">
        <ele>243.6</ele>
        <time>2022-06-02T12:52:32Z</time>
      </trkpt>
      <trkpt lat="46.44793" lon="5.26661">
        <ele>243.8</ele>
        <time>2022-06-02T12:52:35Z</time>
      </trkpt>
      <trkpt lat="46.44782" lon="5.26668">
        <ele>244</ele>
        <time>2022-06-02T12:52:37Z</time>
      </trkpt>
      <trkpt lat="46.44763" lon="5.26682">
        <ele>244</ele>
        <time>2022-06-02T12:52:40Z</time>
      </trkpt>
      <trkpt lat="46.44756" lon="5.26686">
        <ele>244</ele>
        <time>2022-06-02T12:52:41Z</time>
      </trkpt>
      <trkpt lat="46.44716" lon="5.26702">
        <ele>243.2</ele>
        <time>2022-06-02T12:52:46Z</time>
      </trkpt>
      <trkpt lat="46.44698" lon="5.26703">
        <ele>242.2</ele>
        <time>2022-06-02T12:52:48Z</time>
      </trkpt>
      <trkpt lat="46.44688" lon="5.26703">
        <ele>241.8</ele>
        <time>2022-06-02T12:52:49Z</time>
      </trkpt>
      <trkpt lat="46.4468" lon="5.26701">
        <ele>241.6</ele>
        <time>2022-06-02T12:52:50Z</time>
      </trkpt>
      <trkpt lat="46.44671" lon="5.26698">
        <ele>241.2</ele>
        <time>2022-06-02T12:52:51Z</time>
      </trkpt>
      <trkpt lat="46.44646" lon="5.26683">
        <ele>240</ele>
        <time>2022-06-02T12:52:54Z</time>
      </trkpt>
      <trkpt lat="46.44604" lon="5.26654">
        <ele>239.4</ele>
        <time>2022-06-02T12:53:00Z</time>
      </trkpt>
      <trkpt lat="46.44577" lon="5.26638">
        <ele>240.2</ele>
        <time>2022-06-02T12:53:05Z</time>
      </trkpt>
      <trkpt lat="46.44561" lon="5.26634">
        <ele>240.8</ele>
        <time>2022-06-02T12:53:08Z</time>
      </trkpt>
      <trkpt lat="46.44556" lon="5.26635">
        <ele>241</ele>
        <time>2022-06-02T12:53:09Z</time>
      </trkpt>
      <trkpt lat="46.4455" lon="5.26636">
        <ele>241.4</ele>
        <time>2022-06-02T12:53:10Z</time>
      </trkpt>
      <trkpt lat="46.44522" lon="5.26651">
        <ele>242</ele>
        <time>2022-06-02T12:53:15Z</time>
      </trkpt>
      <trkpt lat="46.44499" lon="5.26677">
        <ele>242</ele>
        <time>2022-06-02T12:53:19Z</time>
      </trkpt>
      <trkpt lat="46.44473" lon="5.26708">
        <ele>241.4</ele>
        <time>2022-06-02T12:53:23Z</time>
      </trkpt>
      <trkpt lat="46.44465" lon="5.26713">
        <ele>241</ele>
        <time>2022-06-02T12:53:24Z</time>
      </trkpt>
      <trkpt lat="46.44456" lon="5.26717">
        <ele>240.8</ele>
        <time>2022-06-02T12:53:25Z</time>
      </trkpt>
      <trkpt lat="46.44438" lon="5.26722">
        <ele>239.8</ele>
        <time>2022-06-02T12:53:27Z</time>
      </trkpt>
      <trkpt lat="46.44429" lon="5.26725">
        <ele>239.2</ele>
        <time>2022-06-02T12:53:28Z</time>
      </trkpt>
      <trkpt lat="46.4442" lon="5.26728">
        <ele>238.8</ele>
        <time>2022-06-02T12:53:29Z</time>
      </trkpt>
      <trkpt lat="46.44383" lon="5.26741">
        <ele>237.8</ele>
        <time>2022-06-02T12:53:33Z</time>
      </trkpt>
      <trkpt lat="46.44374" lon="5.26749">
        <ele>237.4</ele>
        <time>2022-06-02T12:53:34Z</time>
      </trkpt>
      <trkpt lat="46.44367" lon="5.26759">
        <ele>236.8</ele>
        <time>2022-06-02T12:53:35Z</time>
      </trkpt>
      <trkpt lat="46.44356" lon="5.26784">
        <ele>236</ele>
        <time>2022-06-02T12:53:37Z</time>
      </trkpt>
      <trkpt lat="46.4435" lon="5.26797">
        <ele>235.2</ele>
        <time>2022-06-02T12:53:38Z</time>
      </trkpt>
      <trkpt lat="46.44337" lon="5.26818">
        <ele>234.2</ele>
        <time>2022-06-02T12:53:40Z</time>
      </trkpt>
      <trkpt lat="46.44329" lon="5.26825">
        <ele>234</ele>
        <time>2022-06-02T12:53:41Z</time>
      </trkpt>
      <trkpt lat="46.44319" lon="5.26829">
        <ele>233.2</ele>
        <time>2022-06-02T12:53:42Z</time>
      </trkpt>
      <trkpt lat="46.44309" lon="5.26831">
        <ele>232.6</ele>
        <time>2022-06-02T12:53:43Z</time>
      </trkpt>
      <trkpt lat="46.44299" lon="5.26834">
        <ele>232.2</ele>
        <time>2022-06-02T12:53:44Z</time>
      </trkpt>
      <trkpt lat="46.44261" lon="5.26849">
        <ele>231.4</ele>
        <time>2022-06-02T12:53:48Z</time>
      </trkpt>
      <trkpt lat="46.44242" lon="5.26861">
        <ele>230.8</ele>
        <time>2022-06-02T12:53:50Z</time>
      </trkpt>
      <trkpt lat="46.44204" lon="5.26892">
        <ele>230.2</ele>
        <time>2022-06-02T12:53:54Z</time>
      </trkpt>
      <trkpt lat="46.44195" lon="5.26902">
        <ele>230</ele>
        <time>2022-06-02T12:53:55Z</time>
      </trkpt>
      <trkpt lat="46.44178" lon="5.26923">
        <ele>228.8</ele>
        <time>2022-06-02T12:53:57Z</time>
      </trkpt>
      <trkpt lat="46.44158" lon="5.26934">
        <ele>227.4</ele>
        <time>2022-06-02T12:53:59Z</time>
      </trkpt>
      <trkpt lat="46.4414" lon="5.26927">
        <ele>226.2</ele>
        <time>2022-06-02T12:54:01Z</time>
      </trkpt>
      <trkpt lat="46.44123" lon="5.26912">
        <ele>225.2</ele>
        <time>2022-06-02T12:54:03Z</time>
      </trkpt>
      <trkpt lat="46.44108" lon="5.26897">
        <ele>224.8</ele>
        <time>2022-06-02T12:54:05Z</time>
      </trkpt>
      <trkpt lat="46.44066" lon="5.26857">
        <ele>224.2</ele>
        <time>2022-06-02T12:54:11Z</time>
      </trkpt>
      <trkpt lat="46.44059" lon="5.26852">
        <ele>224</ele>
        <time>2022-06-02T12:54:12Z</time>
      </trkpt>
      <trkpt lat="46.44029" lon="5.26824">
        <ele>224</ele>
        <time>2022-06-02T12:54:17Z</time>
      </trkpt>
      <trkpt lat="46.43991" lon="5.26791">
        <ele>224.6</ele>
        <time>2022-06-02T12:54:24Z</time>
      </trkpt>
      <trkpt lat="46.43986" lon="5.26788">
        <ele>224.8</ele>
        <time>2022-06-02T12:54:25Z</time>
      </trkpt>
      <trkpt lat="46.43975" lon="5.26784">
        <ele>225</ele>
        <time>2022-06-02T12:54:27Z</time>
      </trkpt>
      <trkpt lat="46.43969" lon="5.26784">
        <ele>225.2</ele>
        <time>2022-06-02T12:54:28Z</time>
      </trkpt>
      <trkpt lat="46.43963" lon="5.26783">
        <ele>225.2</ele>
        <time>2022-06-02T12:54:29Z</time>
      </trkpt>
      <trkpt lat="46.43953" lon="5.26777">
        <ele>225.2</ele>
        <time>2022-06-02T12:54:31Z</time>
      </trkpt>
      <trkpt lat="46.43944" lon="5.26766">
        <ele>225.4</ele>
        <time>2022-06-02T12:54:33Z</time>
      </trkpt>
      <trkpt lat="46.43933" lon="5.2676">
        <ele>225.4</ele>
        <time>2022-06-02T12:54:35Z</time>
      </trkpt>
      <trkpt lat="46.43921" lon="5.26761">
        <ele>225.4</ele>
        <time>2022-06-02T12:54:37Z</time>
      </trkpt>
      <trkpt lat="46.43916" lon="5.26764">
        <ele>225.4</ele>
        <time>2022-06-02T12:54:38Z</time>
      </trkpt>
      <trkpt lat="46.43911" lon="5.26769">
        <ele>225.6</ele>
        <time>2022-06-02T12:54:39Z</time>
      </trkpt>
      <trkpt lat="46.43904" lon="5.26782">
        <ele>225.6</ele>
        <time>2022-06-02T12:54:41Z</time>
      </trkpt>
      <trkpt lat="46.43897" lon="5.26796">
        <ele>225.6</ele>
        <time>2022-06-02T12:54:43Z</time>
      </trkpt>
      <trkpt lat="46.43887" lon="5.26806">
        <ele>225.8</ele>
        <time>2022-06-02T12:54:45Z</time>
      </trkpt>
      <trkpt lat="46.43882" lon="5.26811">
        <ele>225.8</ele>
        <time>2022-06-02T12:54:46Z</time>
      </trkpt>
      <trkpt lat="46.43873" lon="5.26821">
        <ele>226</ele>
        <time>2022-06-02T12:54:48Z</time>
      </trkpt>
      <trkpt lat="46.4387" lon="5.26827">
        <ele>226</ele>
        <time>2022-06-02T12:54:49Z</time>
      </trkpt>
      <trkpt lat="46.43867" lon="5.26834">
        <ele>226.2</ele>
        <time>2022-06-02T12:54:50Z</time>
      </trkpt>
      <trkpt lat="46.43865" lon="5.26849">
        <ele>226.6</ele>
        <time>2022-06-02T12:54:52Z</time>
      </trkpt>
      <trkpt lat="46.43861" lon="5.26904">
        <ele>227.4</ele>
        <time>2022-06-02T12:54:59Z</time>
      </trkpt>
      <trkpt lat="46.43852" lon="5.26935">
        <ele>228.2</ele>
        <time>2022-06-02T12:55:03Z</time>
      </trkpt>
      <trkpt lat="46.43849" lon="5.26943">
        <ele>228.2</ele>
        <time>2022-06-02T12:55:04Z</time>
      </trkpt>
      <trkpt lat="46.43845" lon="5.2695">
        <ele>228.4</ele>
        <time>2022-06-02T12:55:05Z</time>
      </trkpt>
      <trkpt lat="46.43832" lon="5.26969">
        <ele>228</ele>
        <time>2022-06-02T12:55:08Z</time>
      </trkpt>
      <trkpt lat="46.43826" lon="5.26974">
        <ele>227.8</ele>
        <time>2022-06-02T12:55:09Z</time>
      </trkpt>
      <trkpt lat="46.43806" lon="5.26986">
        <ele>227.6</ele>
        <time>2022-06-02T12:55:12Z</time>
      </trkpt>
      <trkpt lat="46.43799" lon="5.26988">
        <ele>227.4</ele>
        <time>2022-06-02T12:55:13Z</time>
      </trkpt>
      <trkpt lat="46.43784" lon="5.26989">
        <ele>227.2</ele>
        <time>2022-06-02T12:55:15Z</time>
      </trkpt>
      <trkpt lat="46.4377" lon="5.26987">
        <ele>227</ele>
        <time>2022-06-02T12:55:17Z</time>
      </trkpt>
      <trkpt lat="46.43738" lon="5.26976">
        <ele>226.4</ele>
        <time>2022-06-02T12:55:22Z</time>
      </trkpt>
      <trkpt lat="46.43732" lon="5.26973">
        <ele>226.4</ele>
        <time>2022-06-02T12:55:23Z</time>
      </trkpt>
      <trkpt lat="46.43691" lon="5.26957">
        <ele>226.6</ele>
        <time>2022-06-02T12:55:30Z</time>
      </trkpt>
      <trkpt lat="46.4364" lon="5.26938">
        <ele>227.2</ele>
        <time>2022-06-02T12:55:39Z</time>
      </trkpt>
      <trkpt lat="46.43597" lon="5.26923">
        <ele>226.8</ele>
        <time>2022-06-02T12:55:47Z</time>
      </trkpt>
      <trkpt lat="46.43565" lon="5.26913">
        <ele>227.8</ele>
        <time>2022-06-02T12:55:53Z</time>
      </trkpt>
      <trkpt lat="46.43549" lon="5.2691">
        <ele>228.2</ele>
        <time>2022-06-02T12:55:56Z</time>
      </trkpt>
      <trkpt lat="46.43496" lon="5.269">
        <ele>228.6</ele>
        <time>2022-06-02T12:56:06Z</time>
      </trkpt>
      <trkpt lat="46.43485" lon="5.26898">
        <ele>228.8</ele>
        <time>2022-06-02T12:56:08Z</time>
      </trkpt>
      <trkpt lat="46.43431" lon="5.26888">
        <ele>229.4</ele>
        <time>2022-06-02T12:56:19Z</time>
      </trkpt>
      <trkpt lat="46.43395" lon="5.26879">
        <ele>229.6</ele>
        <time>2022-06-02T12:56:27Z</time>
      </trkpt>
      <trkpt lat="46.4339" lon="5.26878">
        <ele>229.8</ele>
        <time>2022-06-02T12:56:28Z</time>
      </trkpt>
      <trkpt lat="46.4336" lon="5.26874">
        <ele>230.6</ele>
        <time>2022-06-02T12:56:34Z</time>
      </trkpt>
      <trkpt lat="46.4331" lon="5.26872">
        <ele>230.6</ele>
        <time>2022-06-02T12:56:44Z</time>
      </trkpt>
      <trkpt lat="46.4327" lon="5.26872">
        <ele>231</ele>
        <time>2022-06-02T12:56:52Z</time>
      </trkpt>
      <trkpt lat="46.43265" lon="5.26873">
        <ele>231.2</ele>
        <time>2022-06-02T12:56:53Z</time>
      </trkpt>
      <trkpt lat="46.43214" lon="5.2687">
        <ele>232</ele>
        <time>2022-06-02T12:57:03Z</time>
      </trkpt>
      <trkpt lat="46.43175" lon="5.26862">
        <ele>232.2</ele>
        <time>2022-06-02T12:57:11Z</time>
      </trkpt>
      <trkpt lat="46.43162" lon="5.26858">
        <ele>232.4</ele>
        <time>2022-06-02T12:57:14Z</time>
      </trkpt>
      <trkpt lat="46.4314" lon="5.26853">
        <ele>232.8</ele>
        <time>2022-06-02T12:57:19Z</time>
      </trkpt>
      <trkpt lat="46.43128" lon="5.26849">
        <ele>233.6</ele>
        <time>2022-06-02T12:57:22Z</time>
      </trkpt>
      <trkpt lat="46.43114" lon="5.26844">
        <ele>234.6</ele>
        <time>2022-06-02T12:57:26Z</time>
      </trkpt>
      <trkpt lat="46.43108" lon="5.26842">
        <ele>235.4</ele>
        <time>2022-06-02T12:57:28Z</time>
      </trkpt>
      <trkpt lat="46.43104" lon="5.26841">
        <ele>235.8</ele>
        <time>2022-06-02T12:57:29Z</time>
      </trkpt>
      <trkpt lat="46.43079" lon="5.26838">
        <ele>237.2</ele>
        <time>2022-06-02T12:57:36Z</time>
      </trkpt>
      <trkpt lat="46.43068" lon="5.26837">
        <ele>237.6</ele>
        <time>2022-06-02T12:57:39Z</time>
      </trkpt>
      <trkpt lat="46.43057" lon="5.26837">
        <ele>238.2</ele>
        <time>2022-06-02T12:57:42Z</time>
      </trkpt>
      <trkpt lat="46.43037" lon="5.26837">
        <ele>239</ele>
        <time>2022-06-02T12:57:47Z</time>
      </trkpt>
      <trkpt lat="46.43033" lon="5.26837">
        <ele>239.4</ele>
        <time>2022-06-02T12:57:48Z</time>
      </trkpt>
      <trkpt lat="46.43022" lon="5.26837">
        <ele>240.8</ele>
        <time>2022-06-02T12:57:51Z</time>
      </trkpt>
      <trkpt lat="46.43007" lon="5.26839">
        <ele>241.6</ele>
        <time>2022-06-02T12:57:55Z</time>
      </trkpt>
      <trkpt lat="46.42999" lon="5.2684">
        <ele>241.8</ele>
        <time>2022-06-02T12:57:57Z</time>
      </trkpt>
      <trkpt lat="46.42975" lon="5.26842">
        <ele>242.4</ele>
        <time>2022-06-02T12:58:03Z</time>
      </trkpt>
      <trkpt lat="46.42958" lon="5.26844">
        <ele>242.8</ele>
        <time>2022-06-02T12:58:07Z</time>
      </trkpt>
      <trkpt lat="46.42936" lon="5.26847">
        <ele>243.2</ele>
        <time>2022-06-02T12:58:12Z</time>
      </trkpt>
      <trkpt lat="46.42896" lon="5.26852">
        <ele>244</ele>
        <time>2022-06-02T12:58:20Z</time>
      </trkpt>
      <trkpt lat="46.42886" lon="5.26853">
        <ele>244</ele>
        <time>2022-06-02T12:58:22Z</time>
      </trkpt>
      <trkpt lat="46.42881" lon="5.26854">
        <ele>244</ele>
        <time>2022-06-02T12:58:23Z</time>
      </trkpt>
      <trkpt lat="46.4284" lon="5.26854">
        <ele>243.8</ele>
        <time>2022-06-02T12:58:30Z</time>
      </trkpt>
      <trkpt lat="46.42793" lon="5.26846">
        <ele>243.2</ele>
        <time>2022-06-02T12:58:37Z</time>
      </trkpt>
      <trkpt lat="46.42778" lon="5.26843">
        <ele>242.8</ele>
        <time>2022-06-02T12:58:39Z</time>
      </trkpt>
      <trkpt lat="46.42747" lon="5.26835">
        <ele>241.6</ele>
        <time>2022-06-02T12:58:43Z</time>
      </trkpt>
      <trkpt lat="46.42732" lon="5.26832">
        <ele>241.4</ele>
        <time>2022-06-02T12:58:45Z</time>
      </trkpt>
      <trkpt lat="46.42712" lon="5.26827">
        <ele>240</ele>
        <time>2022-06-02T12:58:47Z</time>
      </trkpt>
      <trkpt lat="46.42694" lon="5.26823">
        <ele>238.6</ele>
        <time>2022-06-02T12:58:49Z</time>
      </trkpt>
      <trkpt lat="46.42665" lon="5.26816">
        <ele>237.6</ele>
        <time>2022-06-02T12:58:52Z</time>
      </trkpt>
      <trkpt lat="46.42655" lon="5.26813">
        <ele>237.4</ele>
        <time>2022-06-02T12:58:53Z</time>
      </trkpt>
      <trkpt lat="46.42625" lon="5.26806">
        <ele>236.4</ele>
        <time>2022-06-02T12:58:56Z</time>
      </trkpt>
      <trkpt lat="46.42594" lon="5.26798">
        <ele>235</ele>
        <time>2022-06-02T12:58:59Z</time>
      </trkpt>
      <trkpt lat="46.42584" lon="5.26796">
        <ele>234.4</ele>
        <time>2022-06-02T12:59:00Z</time>
      </trkpt>
      <trkpt lat="46.42574" lon="5.26793">
        <ele>233.6</ele>
        <time>2022-06-02T12:59:01Z</time>
      </trkpt>
      <trkpt lat="46.42553" lon="5.26788">
        <ele>231.6</ele>
        <time>2022-06-02T12:59:03Z</time>
      </trkpt>
      <trkpt lat="46.42523" lon="5.26781">
        <ele>230.6</ele>
        <time>2022-06-02T12:59:06Z</time>
      </trkpt>
      <trkpt lat="46.42495" lon="5.26774">
        <ele>229.6</ele>
        <time>2022-06-02T12:59:09Z</time>
      </trkpt>
      <trkpt lat="46.4247" lon="5.26768">
        <ele>228.6</ele>
        <time>2022-06-02T12:59:12Z</time>
      </trkpt>
      <trkpt lat="46.42447" lon="5.26762">
        <ele>228.4</ele>
        <time>2022-06-02T12:59:15Z</time>
      </trkpt>
      <trkpt lat="46.42402" lon="5.26751">
        <ele>229</ele>
        <time>2022-06-02T12:59:22Z</time>
      </trkpt>
      <trkpt lat="46.42377" lon="5.26745">
        <ele>229.6</ele>
        <time>2022-06-02T12:59:26Z</time>
      </trkpt>
      <trkpt lat="46.42359" lon="5.26741">
        <ele>230.6</ele>
        <time>2022-06-02T12:59:29Z</time>
      </trkpt>
      <trkpt lat="46.42335" lon="5.26735">
        <ele>231</ele>
        <time>2022-06-02T12:59:33Z</time>
      </trkpt>
      <trkpt lat="46.42323" lon="5.26732">
        <ele>231.4</ele>
        <time>2022-06-02T12:59:35Z</time>
      </trkpt>
      <trkpt lat="46.42317" lon="5.2673">
        <ele>231.6</ele>
        <time>2022-06-02T12:59:36Z</time>
      </trkpt>
      <trkpt lat="46.42305" lon="5.26727">
        <ele>232.2</ele>
        <time>2022-06-02T12:59:38Z</time>
      </trkpt>
      <trkpt lat="46.42276" lon="5.26721">
        <ele>232.6</ele>
        <time>2022-06-02T12:59:43Z</time>
      </trkpt>
      <trkpt lat="46.42243" lon="5.26711">
        <ele>233.2</ele>
        <time>2022-06-02T12:59:49Z</time>
      </trkpt>
      <trkpt lat="46.42238" lon="5.26709">
        <ele>233.4</ele>
        <time>2022-06-02T12:59:50Z</time>
      </trkpt>
      <trkpt lat="46.42217" lon="5.26701">
        <ele>234.4</ele>
        <time>2022-06-02T12:59:54Z</time>
      </trkpt>
      <trkpt lat="46.42194" lon="5.26693">
        <ele>235.2</ele>
        <time>2022-06-02T12:59:58Z</time>
      </trkpt>
      <trkpt lat="46.4217" lon="5.26684">
        <ele>235.4</ele>
        <time>2022-06-02T13:00:02Z</time>
      </trkpt>
      <trkpt lat="46.42139" lon="5.26673">
        <ele>235.4</ele>
        <time>2022-06-02T13:00:07Z</time>
      </trkpt>
      <trkpt lat="46.42101" lon="5.26659">
        <ele>234.4</ele>
        <time>2022-06-02T13:00:13Z</time>
      </trkpt>
      <trkpt lat="46.4208" lon="5.26652">
        <ele>234.2</ele>
        <time>2022-06-02T13:00:16Z</time>
      </trkpt>
      <trkpt lat="46.42022" lon="5.2663">
        <ele>233.4</ele>
        <time>2022-06-02T13:00:25Z</time>
      </trkpt>
      <trkpt lat="46.42016" lon="5.26627">
        <ele>233.6</ele>
        <time>2022-06-02T13:00:26Z</time>
      </trkpt>
      <trkpt lat="46.4201" lon="5.26625">
        <ele>233.6</ele>
        <time>2022-06-02T13:00:27Z</time>
      </trkpt>
      <trkpt lat="46.41955" lon="5.26604">
        <ele>233.2</ele>
        <time>2022-06-02T13:00:36Z</time>
      </trkpt>
      <trkpt lat="46.41949" lon="5.26601">
        <ele>233.2</ele>
        <time>2022-06-02T13:00:37Z</time>
      </trkpt>
      <trkpt lat="46.41891" lon="5.26578">
        <ele>233</ele>
        <time>2022-06-02T13:00:46Z</time>
      </trkpt>
      <trkpt lat="46.41885" lon="5.26575">
        <ele>232.8</ele>
        <time>2022-06-02T13:00:47Z</time>
      </trkpt>
      <trkpt lat="46.41851" lon="5.26561">
        <ele>232.4</ele>
        <time>2022-06-02T13:00:52Z</time>
      </trkpt>
      <trkpt lat="46.41824" lon="5.2655">
        <ele>232.4</ele>
        <time>2022-06-02T13:00:56Z</time>
      </trkpt>
      <trkpt lat="46.41768" lon="5.26527">
        <ele>231.6</ele>
        <time>2022-06-02T13:01:05Z</time>
      </trkpt>
      <trkpt lat="46.41762" lon="5.26524">
        <ele>231.6</ele>
        <time>2022-06-02T13:01:06Z</time>
      </trkpt>
      <trkpt lat="46.41755" lon="5.26522">
        <ele>231.4</ele>
        <time>2022-06-02T13:01:07Z</time>
      </trkpt>
      <trkpt lat="46.41705" lon="5.26504">
        <ele>231.2</ele>
        <time>2022-06-02T13:01:15Z</time>
      </trkpt>
      <trkpt lat="46.41658" lon="5.26501">
        <ele>231</ele>
        <time>2022-06-02T13:01:22Z</time>
      </trkpt>
      <trkpt lat="46.41618" lon="5.2651">
        <ele>230.8</ele>
        <time>2022-06-02T13:01:28Z</time>
      </trkpt>
      <trkpt lat="46.41579" lon="5.26527">
        <ele>231</ele>
        <time>2022-06-02T13:01:34Z</time>
      </trkpt>
      <trkpt lat="46.41573" lon="5.26528">
        <ele>231</ele>
        <time>2022-06-02T13:01:35Z</time>
      </trkpt>
      <trkpt lat="46.41567" lon="5.26525">
        <ele>231</ele>
        <time>2022-06-02T13:01:36Z</time>
      </trkpt>
      <trkpt lat="46.41556" lon="5.26516">
        <ele>230.8</ele>
        <time>2022-06-02T13:01:38Z</time>
      </trkpt>
      <trkpt lat="46.41544" lon="5.2651">
        <ele>231</ele>
        <time>2022-06-02T13:01:40Z</time>
      </trkpt>
      <trkpt lat="46.41538" lon="5.26509">
        <ele>231</ele>
        <time>2022-06-02T13:01:41Z</time>
      </trkpt>
      <trkpt lat="46.41497" lon="5.26505">
        <ele>230.6</ele>
        <time>2022-06-02T13:01:48Z</time>
      </trkpt>
      <trkpt lat="46.41488" lon="5.26506">
        <ele>230.6</ele>
        <time>2022-06-02T13:01:50Z</time>
      </trkpt>
      <trkpt lat="46.41482" lon="5.26507">
        <ele>230.6</ele>
        <time>2022-06-02T13:01:52Z</time>
      </trkpt>
      <trkpt lat="46.41469" lon="5.2651">
        <ele>231</ele>
        <time>2022-06-02T13:01:57Z</time>
      </trkpt>
      <trkpt lat="46.41448" lon="5.26515">
        <ele>231.2</ele>
        <time>2022-06-02T13:02:02Z</time>
      </trkpt>
      <trkpt lat="46.41439" lon="5.26518">
        <ele>231.2</ele>
        <time>2022-06-02T13:02:04Z</time>
      </trkpt>
      <trkpt lat="46.41426" lon="5.2652">
        <ele>231.4</ele>
        <time>2022-06-02T13:02:07Z</time>
      </trkpt>
      <trkpt lat="46.41382" lon="5.26522">
        <ele>232.6</ele>
        <time>2022-06-02T13:02:16Z</time>
      </trkpt>
      <trkpt lat="46.41373" lon="5.26524">
        <ele>233</ele>
        <time>2022-06-02T13:02:18Z</time>
      </trkpt>
      <trkpt lat="46.41354" lon="5.26533">
        <ele>233.4</ele>
        <time>2022-06-02T13:02:22Z</time>
      </trkpt>
      <trkpt lat="46.4135" lon="5.26537">
        <ele>233.6</ele>
        <time>2022-06-02T13:02:23Z</time>
      </trkpt>
      <trkpt lat="46.41345" lon="5.26541">
        <ele>233.6</ele>
        <time>2022-06-02T13:02:24Z</time>
      </trkpt>
      <trkpt lat="46.41341" lon="5.26545">
        <ele>233.6</ele>
        <time>2022-06-02T13:02:25Z</time>
      </trkpt>
      <trkpt lat="46.41334" lon="5.26553">
        <ele>234.2</ele>
        <time>2022-06-02T13:02:27Z</time>
      </trkpt>
      <trkpt lat="46.41318" lon="5.26569">
        <ele>234.4</ele>
        <time>2022-06-02T13:02:31Z</time>
      </trkpt>
      <trkpt lat="46.41309" lon="5.26574">
        <ele>234.6</ele>
        <time>2022-06-02T13:02:33Z</time>
      </trkpt>
      <trkpt lat="46.41296" lon="5.26578">
        <ele>234.8</ele>
        <time>2022-06-02T13:02:36Z</time>
      </trkpt>
      <trkpt lat="46.41288" lon="5.26578">
        <ele>235.4</ele>
        <time>2022-06-02T13:02:38Z</time>
      </trkpt>
      <trkpt lat="46.41271" lon="5.26574">
        <ele>236</ele>
        <time>2022-06-02T13:02:41Z</time>
      </trkpt>
      <trkpt lat="46.41254" lon="5.26571">
        <ele>236.4</ele>
        <time>2022-06-02T13:02:44Z</time>
      </trkpt>
      <trkpt lat="46.41242" lon="5.26567">
        <ele>236.6</ele>
        <time>2022-06-02T13:02:46Z</time>
      </trkpt>
      <trkpt lat="46.41231" lon="5.2656">
        <ele>236.6</ele>
        <time>2022-06-02T13:02:48Z</time>
      </trkpt>
      <trkpt lat="46.41225" lon="5.26554">
        <ele>236.6</ele>
        <time>2022-06-02T13:02:49Z</time>
      </trkpt>
      <trkpt lat="46.41194" lon="5.26514">
        <ele>235.4</ele>
        <time>2022-06-02T13:02:55Z</time>
      </trkpt>
      <trkpt lat="46.41184" lon="5.265">
        <ele>235</ele>
        <time>2022-06-02T13:02:57Z</time>
      </trkpt>
      <trkpt lat="46.41162" lon="5.2647">
        <ele>234.2</ele>
        <time>2022-06-02T13:03:02Z</time>
      </trkpt>
      <trkpt lat="46.41152" lon="5.26463">
        <ele>234</ele>
        <time>2022-06-02T13:03:04Z</time>
      </trkpt>
      <trkpt lat="46.41142" lon="5.26458">
        <ele>234</ele>
        <time>2022-06-02T13:03:06Z</time>
      </trkpt>
      <trkpt lat="46.41114" lon="5.26449">
        <ele>234</ele>
        <time>2022-06-02T13:03:11Z</time>
      </trkpt>
      <trkpt lat="46.41108" lon="5.26448">
        <ele>234</ele>
        <time>2022-06-02T13:03:12Z</time>
      </trkpt>
      <trkpt lat="46.41085" lon="5.26451">
        <ele>233.8</ele>
        <time>2022-06-02T13:03:16Z</time>
      </trkpt>
      <trkpt lat="46.41068" lon="5.26455">
        <ele>233.6</ele>
        <time>2022-06-02T13:03:19Z</time>
      </trkpt>
      <trkpt lat="46.41052" lon="5.26457">
        <ele>233.4</ele>
        <time>2022-06-02T13:03:23Z</time>
      </trkpt>
      <trkpt lat="46.41049" lon="5.26457">
        <ele>233.2</ele>
        <time>2022-06-02T13:03:25Z</time>
      </trkpt>
      <trkpt lat="46.41047" lon="5.26459">
        <ele>233.2</ele>
        <time>2022-06-02T13:03:26Z</time>
      </trkpt>
      <trkpt lat="46.41049" lon="5.26475">
        <ele>232.8</ele>
        <time>2022-06-02T13:03:29Z</time>
      </trkpt>
      <trkpt lat="46.41061" lon="5.26514">
        <ele>232.4</ele>
        <time>2022-06-02T13:03:34Z</time>
      </trkpt>
      <trkpt lat="46.41076" lon="5.26572">
        <ele>232.8</ele>
        <time>2022-06-02T13:03:41Z</time>
      </trkpt>
      <trkpt lat="46.41089" lon="5.26623">
        <ele>234</ele>
        <time>2022-06-02T13:03:48Z</time>
      </trkpt>
      <trkpt lat="46.41094" lon="5.26644">
        <ele>234.4</ele>
        <time>2022-06-02T13:03:51Z</time>
      </trkpt>
      <trkpt lat="46.41098" lon="5.26657">
        <ele>235</ele>
        <time>2022-06-02T13:03:53Z</time>
      </trkpt>
      <trkpt lat="46.411" lon="5.26663">
        <ele>235.2</ele>
        <time>2022-06-02T13:03:54Z</time>
      </trkpt>
      <trkpt lat="46.41104" lon="5.26675">
        <ele>236</ele>
        <time>2022-06-02T13:03:56Z</time>
      </trkpt>
      <trkpt lat="46.4111" lon="5.26693">
        <ele>236.4</ele>
        <time>2022-06-02T13:03:59Z</time>
      </trkpt>
      <trkpt lat="46.41111" lon="5.26699">
        <ele>237</ele>
        <time>2022-06-02T13:04:00Z</time>
      </trkpt>
      <trkpt lat="46.41113" lon="5.26704">
        <ele>237.2</ele>
        <time>2022-06-02T13:04:01Z</time>
      </trkpt>
      <trkpt lat="46.41116" lon="5.26721">
        <ele>237.8</ele>
        <time>2022-06-02T13:04:04Z</time>
      </trkpt>
      <trkpt lat="46.41117" lon="5.26726">
        <ele>238.4</ele>
        <time>2022-06-02T13:04:05Z</time>
      </trkpt>
      <trkpt lat="46.41125" lon="5.26747">
        <ele>239.6</ele>
        <time>2022-06-02T13:04:09Z</time>
      </trkpt>
      <trkpt lat="46.41126" lon="5.26752">
        <ele>240</ele>
        <time>2022-06-02T13:04:10Z</time>
      </trkpt>
      <trkpt lat="46.41133" lon="5.26773">
        <ele>241</ele>
        <time>2022-06-02T13:04:14Z</time>
      </trkpt>
      <trkpt lat="46.41136" lon="5.26784">
        <ele>241.8</ele>
        <time>2022-06-02T13:04:16Z</time>
      </trkpt>
      <trkpt lat="46.4114" lon="5.26799">
        <ele>242.4</ele>
        <time>2022-06-02T13:04:19Z</time>
      </trkpt>
      <trkpt lat="46.41148" lon="5.26814">
        <ele>243</ele>
        <time>2022-06-02T13:04:22Z</time>
      </trkpt>
      <trkpt lat="46.41153" lon="5.26823">
        <ele>243.4</ele>
        <time>2022-06-02T13:04:24Z</time>
      </trkpt>
      <trkpt lat="46.41165" lon="5.26838">
        <ele>244.4</ele>
        <time>2022-06-02T13:04:28Z</time>
      </trkpt>
      <trkpt lat="46.41168" lon="5.26841">
        <ele>244.6</ele>
        <time>2022-06-02T13:04:29Z</time>
      </trkpt>
      <trkpt lat="46.41176" lon="5.2686">
        <ele>245.4</ele>
        <time>2022-06-02T13:04:33Z</time>
      </trkpt>
      <trkpt lat="46.41169" lon="5.26881">
        <ele>245.6</ele>
        <time>2022-06-02T13:04:37Z</time>
      </trkpt>
      <trkpt lat="46.41157" lon="5.26889">
        <ele>245.8</ele>
        <time>2022-06-02T13:04:40Z</time>
      </trkpt>
      <trkpt lat="46.41149" lon="5.26893">
        <ele>245.8</ele>
        <time>2022-06-02T13:04:42Z</time>
      </trkpt>
      <trkpt lat="46.41109" lon="5.26904">
        <ele>246.6</ele>
        <time>2022-06-02T13:04:50Z</time>
      </trkpt>
      <trkpt lat="46.41073" lon="5.26905">
        <ele>246.2</ele>
        <time>2022-06-02T13:04:56Z</time>
      </trkpt>
      <trkpt lat="46.4102" lon="5.26904">
        <ele>245.6</ele>
        <time>2022-06-02T13:05:04Z</time>
      </trkpt>
      <trkpt lat="46.40961" lon="5.26913">
        <ele>244.8</ele>
        <time>2022-06-02T13:05:12Z</time>
      </trkpt>
      <trkpt lat="46.40953" lon="5.26915">
        <ele>244.6</ele>
        <time>2022-06-02T13:05:13Z</time>
      </trkpt>
      <trkpt lat="46.40908" lon="5.26927">
        <ele>243.6</ele>
        <time>2022-06-02T13:05:19Z</time>
      </trkpt>
      <trkpt lat="46.40901" lon="5.2693">
        <ele>243.4</ele>
        <time>2022-06-02T13:05:20Z</time>
      </trkpt>
      <trkpt lat="46.40856" lon="5.26951">
        <ele>243</ele>
        <time>2022-06-02T13:05:26Z</time>
      </trkpt>
      <trkpt lat="46.40805" lon="5.26977">
        <ele>242.4</ele>
        <time>2022-06-02T13:05:33Z</time>
      </trkpt>
      <trkpt lat="46.40797" lon="5.26979">
        <ele>242</ele>
        <time>2022-06-02T13:05:34Z</time>
      </trkpt>
      <trkpt lat="46.40773" lon="5.26981">
        <ele>241.6</ele>
        <time>2022-06-02T13:05:37Z</time>
      </trkpt>
      <trkpt lat="46.40731" lon="5.26974">
        <ele>241.6</ele>
        <time>2022-06-02T13:05:43Z</time>
      </trkpt>
      <trkpt lat="46.40691" lon="5.26965">
        <ele>242.2</ele>
        <time>2022-06-02T13:05:50Z</time>
      </trkpt>
      <trkpt lat="46.4068" lon="5.26962">
        <ele>242.6</ele>
        <time>2022-06-02T13:05:52Z</time>
      </trkpt>
      <trkpt lat="46.40651" lon="5.26953">
        <ele>243</ele>
        <time>2022-06-02T13:05:57Z</time>
      </trkpt>
      <trkpt lat="46.40611" lon="5.26931">
        <ele>243.2</ele>
        <time>2022-06-02T13:06:04Z</time>
      </trkpt>
      <trkpt lat="46.40553" lon="5.26901">
        <ele>242.8</ele>
        <time>2022-06-02T13:06:13Z</time>
      </trkpt>
      <trkpt lat="46.40546" lon="5.26899">
        <ele>242.8</ele>
        <time>2022-06-02T13:06:14Z</time>
      </trkpt>
      <trkpt lat="46.40498" lon="5.26886">
        <ele>242.2</ele>
        <time>2022-06-02T13:06:21Z</time>
      </trkpt>
      <trkpt lat="46.40447" lon="5.2688">
        <ele>242</ele>
        <time>2022-06-02T13:06:29Z</time>
      </trkpt>
      <trkpt lat="46.40388" lon="5.26875">
        <ele>242.8</ele>
        <time>2022-06-02T13:06:38Z</time>
      </trkpt>
      <trkpt lat="46.40336" lon="5.26886">
        <ele>243.2</ele>
        <time>2022-06-02T13:06:46Z</time>
      </trkpt>
      <trkpt lat="46.40317" lon="5.26888">
        <ele>243.2</ele>
        <time>2022-06-02T13:06:49Z</time>
      </trkpt>
      <trkpt lat="46.40298" lon="5.26889">
        <ele>243.2</ele>
        <time>2022-06-02T13:06:52Z</time>
      </trkpt>
      <trkpt lat="46.40278" lon="5.2689">
        <ele>243.6</ele>
        <time>2022-06-02T13:06:55Z</time>
      </trkpt>
      <trkpt lat="46.40234" lon="5.26892">
        <ele>244.2</ele>
        <time>2022-06-02T13:07:02Z</time>
      </trkpt>
      <trkpt lat="46.40211" lon="5.26893">
        <ele>244.4</ele>
        <time>2022-06-02T13:07:06Z</time>
      </trkpt>
      <trkpt lat="46.40189" lon="5.26894">
        <ele>244.4</ele>
        <time>2022-06-02T13:07:10Z</time>
      </trkpt>
      <trkpt lat="46.40157" lon="5.26897">
        <ele>244.6</ele>
        <time>2022-06-02T13:07:16Z</time>
      </trkpt>
      <trkpt lat="46.40135" lon="5.26898">
        <ele>245</ele>
        <time>2022-06-02T13:07:20Z</time>
      </trkpt>
      <trkpt lat="46.40103" lon="5.26898">
        <ele>245.8</ele>
        <time>2022-06-02T13:07:26Z</time>
      </trkpt>
      <trkpt lat="46.40098" lon="5.26897">
        <ele>245.8</ele>
        <time>2022-06-02T13:07:27Z</time>
      </trkpt>
      <trkpt lat="46.40087" lon="5.26895">
        <ele>245.8</ele>
        <time>2022-06-02T13:07:29Z</time>
      </trkpt>
      <trkpt lat="46.40062" lon="5.26886">
        <ele>246.2</ele>
        <time>2022-06-02T13:07:34Z</time>
      </trkpt>
      <trkpt lat="46.4002" lon="5.2687">
        <ele>247.2</ele>
        <time>2022-06-02T13:07:42Z</time>
      </trkpt>
      <trkpt lat="46.39971" lon="5.26848">
        <ele>247.8</ele>
        <time>2022-06-02T13:07:51Z</time>
      </trkpt>
      <trkpt lat="46.3993" lon="5.26829">
        <ele>247</ele>
        <time>2022-06-02T13:07:57Z</time>
      </trkpt>
      <trkpt lat="46.399" lon="5.26815">
        <ele>246</ele>
        <time>2022-06-02T13:08:01Z</time>
      </trkpt>
      <trkpt lat="46.39893" lon="5.26812">
        <ele>245.8</ele>
        <time>2022-06-02T13:08:02Z</time>
      </trkpt>
      <trkpt lat="46.39876" lon="5.26808">
        <ele>245.4</ele>
        <time>2022-06-02T13:08:04Z</time>
      </trkpt>
      <trkpt lat="46.39868" lon="5.26807">
        <ele>244.8</ele>
        <time>2022-06-02T13:08:05Z</time>
      </trkpt>
      <trkpt lat="46.3985" lon="5.26807">
        <ele>244.2</ele>
        <time>2022-06-02T13:08:07Z</time>
      </trkpt>
      <trkpt lat="46.39842" lon="5.26808">
        <ele>243.6</ele>
        <time>2022-06-02T13:08:08Z</time>
      </trkpt>
      <trkpt lat="46.39809" lon="5.26812">
        <ele>242.2</ele>
        <time>2022-06-02T13:08:12Z</time>
      </trkpt>
      <trkpt lat="46.39794" lon="5.26816">
        <ele>242</ele>
        <time>2022-06-02T13:08:14Z</time>
      </trkpt>
      <trkpt lat="46.39745" lon="5.26832">
        <ele>241.6</ele>
        <time>2022-06-02T13:08:21Z</time>
      </trkpt>
      <trkpt lat="46.39709" lon="5.26839">
        <ele>242.4</ele>
        <time>2022-06-02T13:08:27Z</time>
      </trkpt>
      <trkpt lat="46.39699" lon="5.26839">
        <ele>242.6</ele>
        <time>2022-06-02T13:08:29Z</time>
      </trkpt>
      <trkpt lat="46.39683" lon="5.26837">
        <ele>243</ele>
        <time>2022-06-02T13:08:32Z</time>
      </trkpt>
      <trkpt lat="46.39672" lon="5.26836">
        <ele>243.6</ele>
        <time>2022-06-02T13:08:34Z</time>
      </trkpt>
      <trkpt lat="46.39661" lon="5.26834">
        <ele>244.2</ele>
        <time>2022-06-02T13:08:36Z</time>
      </trkpt>
      <trkpt lat="46.39651" lon="5.26833">
        <ele>244.4</ele>
        <time>2022-06-02T13:08:38Z</time>
      </trkpt>
      <trkpt lat="46.39646" lon="5.26831">
        <ele>244.4</ele>
        <time>2022-06-02T13:08:39Z</time>
      </trkpt>
      <trkpt lat="46.39641" lon="5.26828">
        <ele>244.4</ele>
        <time>2022-06-02T13:08:40Z</time>
      </trkpt>
      <trkpt lat="46.39636" lon="5.26827">
        <ele>244.6</ele>
        <time>2022-06-02T13:08:41Z</time>
      </trkpt>
      <trkpt lat="46.39622" lon="5.26825">
        <ele>244.8</ele>
        <time>2022-06-02T13:08:44Z</time>
      </trkpt>
      <trkpt lat="46.39615" lon="5.26825">
        <ele>245</ele>
        <time>2022-06-02T13:08:45Z</time>
      </trkpt>
      <trkpt lat="46.39605" lon="5.26829">
        <ele>245.2</ele>
        <time>2022-06-02T13:08:47Z</time>
      </trkpt>
      <trkpt lat="46.396" lon="5.26833">
        <ele>245.4</ele>
        <time>2022-06-02T13:08:48Z</time>
      </trkpt>
      <trkpt lat="46.39596" lon="5.26838">
        <ele>245.4</ele>
        <time>2022-06-02T13:08:49Z</time>
      </trkpt>
      <trkpt lat="46.39589" lon="5.2685">
        <ele>245.6</ele>
        <time>2022-06-02T13:08:51Z</time>
      </trkpt>
      <trkpt lat="46.39587" lon="5.26857">
        <ele>245.8</ele>
        <time>2022-06-02T13:08:52Z</time>
      </trkpt>
      <trkpt lat="46.39581" lon="5.26876">
        <ele>246.2</ele>
        <time>2022-06-02T13:08:55Z</time>
      </trkpt>
      <trkpt lat="46.39574" lon="5.26888">
        <ele>246.4</ele>
        <time>2022-06-02T13:08:57Z</time>
      </trkpt>
      <trkpt lat="46.39561" lon="5.269">
        <ele>247</ele>
        <time>2022-06-02T13:09:00Z</time>
      </trkpt>
      <trkpt lat="46.39542" lon="5.26913">
        <ele>247.4</ele>
        <time>2022-06-02T13:09:04Z</time>
      </trkpt>
      <trkpt lat="46.39514" lon="5.26925">
        <ele>247.6</ele>
        <time>2022-06-02T13:09:09Z</time>
      </trkpt>
      <trkpt lat="46.39503" lon="5.26933">
        <ele>247.6</ele>
        <time>2022-06-02T13:09:11Z</time>
      </trkpt>
      <trkpt lat="46.39494" lon="5.26945">
        <ele>247.6</ele>
        <time>2022-06-02T13:09:13Z</time>
      </trkpt>
      <trkpt lat="46.39487" lon="5.2696">
        <ele>247.6</ele>
        <time>2022-06-02T13:09:15Z</time>
      </trkpt>
      <trkpt lat="46.39464" lon="5.27011">
        <ele>247.4</ele>
        <time>2022-06-02T13:09:21Z</time>
      </trkpt>
      <trkpt lat="46.39446" lon="5.2707">
        <ele>246.8</ele>
        <time>2022-06-02T13:09:27Z</time>
      </trkpt>
      <trkpt lat="46.3944" lon="5.27089">
        <ele>246.8</ele>
        <time>2022-06-02T13:09:29Z</time>
      </trkpt>
      <trkpt lat="46.39431" lon="5.27104">
        <ele>246.4</ele>
        <time>2022-06-02T13:09:31Z</time>
      </trkpt>
      <trkpt lat="46.39419" lon="5.27115">
        <ele>246.2</ele>
        <time>2022-06-02T13:09:33Z</time>
      </trkpt>
      <trkpt lat="46.39413" lon="5.27119">
        <ele>246.2</ele>
        <time>2022-06-02T13:09:34Z</time>
      </trkpt>
      <trkpt lat="46.39395" lon="5.2713">
        <ele>245.8</ele>
        <time>2022-06-02T13:09:37Z</time>
      </trkpt>
      <trkpt lat="46.39371" lon="5.27146">
        <ele>245.8</ele>
        <time>2022-06-02T13:09:41Z</time>
      </trkpt>
      <trkpt lat="46.39325" lon="5.27177">
        <ele>246</ele>
        <time>2022-06-02T13:09:49Z</time>
      </trkpt>
      <trkpt lat="46.39278" lon="5.27201">
        <ele>246.4</ele>
        <time>2022-06-02T13:09:57Z</time>
      </trkpt>
      <trkpt lat="46.39261" lon="5.2721">
        <ele>247</ele>
        <time>2022-06-02T13:10:00Z</time>
      </trkpt>
      <trkpt lat="46.39245" lon="5.27221">
        <ele>247.2</ele>
        <time>2022-06-02T13:10:03Z</time>
      </trkpt>
      <trkpt lat="46.3924" lon="5.27226">
        <ele>247.4</ele>
        <time>2022-06-02T13:10:04Z</time>
      </trkpt>
      <trkpt lat="46.39226" lon="5.27244">
        <ele>247.8</ele>
        <time>2022-06-02T13:10:07Z</time>
      </trkpt>
      <trkpt lat="46.3922" lon="5.27258">
        <ele>248</ele>
        <time>2022-06-02T13:10:09Z</time>
      </trkpt>
      <trkpt lat="46.39203" lon="5.27318">
        <ele>248.8</ele>
        <time>2022-06-02T13:10:17Z</time>
      </trkpt>
      <trkpt lat="46.39194" lon="5.27349">
        <ele>249</ele>
        <time>2022-06-02T13:10:21Z</time>
      </trkpt>
      <trkpt lat="46.39185" lon="5.27373">
        <ele>249.2</ele>
        <time>2022-06-02T13:10:24Z</time>
      </trkpt>
      <trkpt lat="46.39174" lon="5.27393">
        <ele>249.2</ele>
        <time>2022-06-02T13:10:27Z</time>
      </trkpt>
      <trkpt lat="46.39164" lon="5.27404">
        <ele>249.2</ele>
        <time>2022-06-02T13:10:29Z</time>
      </trkpt>
      <trkpt lat="46.39119" lon="5.27441">
        <ele>249</ele>
        <time>2022-06-02T13:10:37Z</time>
      </trkpt>
      <trkpt lat="46.391" lon="5.27459">
        <ele>249.4</ele>
        <time>2022-06-02T13:10:41Z</time>
      </trkpt>
      <trkpt lat="46.39065" lon="5.27484">
        <ele>249.8</ele>
        <time>2022-06-02T13:10:47Z</time>
      </trkpt>
      <trkpt lat="46.39059" lon="5.27488">
        <ele>250</ele>
        <time>2022-06-02T13:10:48Z</time>
      </trkpt>
      <trkpt lat="46.39035" lon="5.27505">
        <ele>249.8</ele>
        <time>2022-06-02T13:10:52Z</time>
      </trkpt>
      <trkpt lat="46.39012" lon="5.2752">
        <ele>249.8</ele>
        <time>2022-06-02T13:10:56Z</time>
      </trkpt>
      <trkpt lat="46.39001" lon="5.27528">
        <ele>249.8</ele>
        <time>2022-06-02T13:10:58Z</time>
      </trkpt>
      <trkpt lat="46.38988" lon="5.27538">
        <ele>250</ele>
        <time>2022-06-02T13:11:00Z</time>
      </trkpt>
      <trkpt lat="46.38984" lon="5.27543">
        <ele>250.2</ele>
        <time>2022-06-02T13:11:01Z</time>
      </trkpt>
      <trkpt lat="46.38973" lon="5.27552">
        <ele>250.4</ele>
        <time>2022-06-02T13:11:03Z</time>
      </trkpt>
      <trkpt lat="46.3896" lon="5.27561">
        <ele>250.8</ele>
        <time>2022-06-02T13:11:06Z</time>
      </trkpt>
      <trkpt lat="46.38949" lon="5.27563">
        <ele>251</ele>
        <time>2022-06-02T13:11:08Z</time>
      </trkpt>
      <trkpt lat="46.38928" lon="5.27566">
        <ele>251.2</ele>
        <time>2022-06-02T13:11:11Z</time>
      </trkpt>
      <trkpt lat="46.38892" lon="5.27565">
        <ele>251.4</ele>
        <time>2022-06-02T13:11:15Z</time>
      </trkpt>
      <trkpt lat="46.38869" lon="5.27547">
        <ele>251.4</ele>
        <time>2022-06-02T13:11:19Z</time>
      </trkpt>
      <trkpt lat="46.38834" lon="5.27525">
        <ele>251.8</ele>
        <time>2022-06-02T13:11:25Z</time>
      </trkpt>
      <trkpt lat="46.38813" lon="5.27514">
        <ele>252</ele>
        <time>2022-06-02T13:11:29Z</time>
      </trkpt>
      <trkpt lat="46.38806" lon="5.2751">
        <ele>252</ele>
        <time>2022-06-02T13:11:30Z</time>
      </trkpt>
      <trkpt lat="46.3879" lon="5.27504">
        <ele>252</ele>
        <time>2022-06-02T13:11:33Z</time>
      </trkpt>
      <trkpt lat="46.38778" lon="5.27498">
        <ele>252.2</ele>
        <time>2022-06-02T13:11:35Z</time>
      </trkpt>
      <trkpt lat="46.38772" lon="5.27495">
        <ele>252.2</ele>
        <time>2022-06-02T13:11:36Z</time>
      </trkpt>
      <trkpt lat="46.38744" lon="5.27481">
        <ele>252.4</ele>
        <time>2022-06-02T13:11:41Z</time>
      </trkpt>
      <trkpt lat="46.38737" lon="5.27476">
        <ele>252.4</ele>
        <time>2022-06-02T13:11:42Z</time>
      </trkpt>
      <trkpt lat="46.38689" lon="5.27438">
        <ele>252.8</ele>
        <time>2022-06-02T13:11:51Z</time>
      </trkpt>
      <trkpt lat="46.38668" lon="5.2742">
        <ele>253</ele>
        <time>2022-06-02T13:11:55Z</time>
      </trkpt>
      <trkpt lat="46.38658" lon="5.27412">
        <ele>253.2</ele>
        <time>2022-06-02T13:11:57Z</time>
      </trkpt>
      <trkpt lat="46.38652" lon="5.27408">
        <ele>253.2</ele>
        <time>2022-06-02T13:11:58Z</time>
      </trkpt>
      <trkpt lat="46.38639" lon="5.27405">
        <ele>253.4</ele>
        <time>2022-06-02T13:12:00Z</time>
      </trkpt>
      <trkpt lat="46.38628" lon="5.27411">
        <ele>253.4</ele>
        <time>2022-06-02T13:12:02Z</time>
      </trkpt>
      <trkpt lat="46.38623" lon="5.27417">
        <ele>253.4</ele>
        <time>2022-06-02T13:12:03Z</time>
      </trkpt>
      <trkpt lat="46.38619" lon="5.27424">
        <ele>253.4</ele>
        <time>2022-06-02T13:12:04Z</time>
      </trkpt>
      <trkpt lat="46.38598" lon="5.27456">
        <ele>252.6</ele>
        <time>2022-06-02T13:12:08Z</time>
      </trkpt>
      <trkpt lat="46.38567" lon="5.27487">
        <ele>252</ele>
        <time>2022-06-02T13:12:12Z</time>
      </trkpt>
      <trkpt lat="46.38557" lon="5.27492">
        <ele>251.6</ele>
        <time>2022-06-02T13:12:13Z</time>
      </trkpt>
      <trkpt lat="46.38529" lon="5.27506">
        <ele>250.2</ele>
        <time>2022-06-02T13:12:16Z</time>
      </trkpt>
      <trkpt lat="46.38509" lon="5.27519">
        <ele>248.8</ele>
        <time>2022-06-02T13:12:18Z</time>
      </trkpt>
      <trkpt lat="46.38492" lon="5.27535">
        <ele>247.4</ele>
        <time>2022-06-02T13:12:20Z</time>
      </trkpt>
      <trkpt lat="46.38472" lon="5.27558">
        <ele>245.8</ele>
        <time>2022-06-02T13:12:22Z</time>
      </trkpt>
      <trkpt lat="46.38465" lon="5.27568">
        <ele>244.8</ele>
        <time>2022-06-02T13:12:23Z</time>
      </trkpt>
      <trkpt lat="46.38456" lon="5.27579">
        <ele>244</ele>
        <time>2022-06-02T13:12:24Z</time>
      </trkpt>
      <trkpt lat="46.38447" lon="5.2759">
        <ele>242.6</ele>
        <time>2022-06-02T13:12:25Z</time>
      </trkpt>
      <trkpt lat="46.38428" lon="5.27614">
        <ele>240.8</ele>
        <time>2022-06-02T13:12:27Z</time>
      </trkpt>
      <trkpt lat="46.38403" lon="5.27645">
        <ele>239.4</ele>
        <time>2022-06-02T13:12:30Z</time>
      </trkpt>
      <trkpt lat="46.38394" lon="5.27654">
        <ele>239.2</ele>
        <time>2022-06-02T13:12:31Z</time>
      </trkpt>
      <trkpt lat="46.38384" lon="5.27663">
        <ele>239</ele>
        <time>2022-06-02T13:12:32Z</time>
      </trkpt>
      <trkpt lat="46.38364" lon="5.27676">
        <ele>237.2</ele>
        <time>2022-06-02T13:12:34Z</time>
      </trkpt>
      <trkpt lat="46.38356" lon="5.27681">
        <ele>236.8</ele>
        <time>2022-06-02T13:12:35Z</time>
      </trkpt>
      <trkpt lat="46.38345" lon="5.27689">
        <ele>236</ele>
        <time>2022-06-02T13:12:36Z</time>
      </trkpt>
      <trkpt lat="46.38318" lon="5.27709">
        <ele>234.8</ele>
        <time>2022-06-02T13:12:39Z</time>
      </trkpt>
      <trkpt lat="46.38308" lon="5.27715">
        <ele>234.4</ele>
        <time>2022-06-02T13:12:40Z</time>
      </trkpt>
      <trkpt lat="46.38299" lon="5.2772">
        <ele>234.2</ele>
        <time>2022-06-02T13:12:41Z</time>
      </trkpt>
      <trkpt lat="46.3828" lon="5.27726">
        <ele>233.4</ele>
        <time>2022-06-02T13:12:43Z</time>
      </trkpt>
      <trkpt lat="46.38271" lon="5.27728">
        <ele>233.2</ele>
        <time>2022-06-02T13:12:44Z</time>
      </trkpt>
      <trkpt lat="46.38235" lon="5.27741">
        <ele>232.4</ele>
        <time>2022-06-02T13:12:48Z</time>
      </trkpt>
      <trkpt lat="46.38226" lon="5.27746">
        <ele>232.2</ele>
        <time>2022-06-02T13:12:49Z</time>
      </trkpt>
      <trkpt lat="46.38188" lon="5.27777">
        <ele>231.6</ele>
        <time>2022-06-02T13:12:54Z</time>
      </trkpt>
      <trkpt lat="46.38182" lon="5.27785">
        <ele>231.6</ele>
        <time>2022-06-02T13:12:55Z</time>
      </trkpt>
      <trkpt lat="46.38178" lon="5.27796">
        <ele>231.4</ele>
        <time>2022-06-02T13:12:56Z</time>
      </trkpt>
      <trkpt lat="46.38174" lon="5.2781">
        <ele>231.2</ele>
        <time>2022-06-02T13:12:57Z</time>
      </trkpt>
      <trkpt lat="46.38168" lon="5.27896">
        <ele>230.6</ele>
        <time>2022-06-02T13:13:04Z</time>
      </trkpt>
      <trkpt lat="46.38159" lon="5.27962">
        <ele>230.8</ele>
        <time>2022-06-02T13:13:10Z</time>
      </trkpt>
      <trkpt lat="46.38154" lon="5.27981">
        <ele>230.8</ele>
        <time>2022-06-02T13:13:12Z</time>
      </trkpt>
      <trkpt lat="46.38147" lon="5.27997">
        <ele>230.8</ele>
        <time>2022-06-02T13:13:14Z</time>
      </trkpt>
      <trkpt lat="46.38123" lon="5.28029">
        <ele>230.8</ele>
        <time>2022-06-02T13:13:19Z</time>
      </trkpt>
      <trkpt lat="46.38083" lon="5.28087">
        <ele>231.2</ele>
        <time>2022-06-02T13:13:28Z</time>
      </trkpt>
      <trkpt lat="46.3806" lon="5.28123">
        <ele>232.4</ele>
        <time>2022-06-02T13:13:34Z</time>
      </trkpt>
      <trkpt lat="46.38055" lon="5.28129">
        <ele>232.4</ele>
        <time>2022-06-02T13:13:35Z</time>
      </trkpt>
      <trkpt lat="46.38031" lon="5.28165">
        <ele>233.4</ele>
        <time>2022-06-02T13:13:42Z</time>
      </trkpt>
      <trkpt lat="46.38028" lon="5.2817">
        <ele>233.4</ele>
        <time>2022-06-02T13:13:43Z</time>
      </trkpt>
      <trkpt lat="46.38014" lon="5.28182">
        <ele>234.8</ele>
        <time>2022-06-02T13:13:47Z</time>
      </trkpt>
      <trkpt lat="46.38001" lon="5.28191">
        <ele>236</ele>
        <time>2022-06-02T13:13:51Z</time>
      </trkpt>
      <trkpt lat="46.37992" lon="5.28196">
        <ele>236.4</ele>
        <time>2022-06-02T13:13:53Z</time>
      </trkpt>
      <trkpt lat="46.37985" lon="5.28202">
        <ele>237.2</ele>
        <time>2022-06-02T13:13:55Z</time>
      </trkpt>
      <trkpt lat="46.3797" lon="5.2822">
        <ele>238.4</ele>
        <time>2022-06-02T13:14:00Z</time>
      </trkpt>
      <trkpt lat="46.37959" lon="5.28238">
        <ele>239.8</ele>
        <time>2022-06-02T13:14:05Z</time>
      </trkpt>
      <trkpt lat="46.37957" lon="5.28241">
        <ele>240</ele>
        <time>2022-06-02T13:14:06Z</time>
      </trkpt>
      <trkpt lat="46.37953" lon="5.28248">
        <ele>240.8</ele>
        <time>2022-06-02T13:14:08Z</time>
      </trkpt>
      <trkpt lat="46.37947" lon="5.28258">
        <ele>241.8</ele>
        <time>2022-06-02T13:14:11Z</time>
      </trkpt>
      <trkpt lat="46.3794" lon="5.2827">
        <ele>242.6</ele>
        <time>2022-06-02T13:14:14Z</time>
      </trkpt>
      <trkpt lat="46.37938" lon="5.28274">
        <ele>243</ele>
        <time>2022-06-02T13:14:15Z</time>
      </trkpt>
      <trkpt lat="46.37931" lon="5.28292">
        <ele>244</ele>
        <time>2022-06-02T13:14:19Z</time>
      </trkpt>
      <trkpt lat="46.37925" lon="5.28307">
        <ele>244.4</ele>
        <time>2022-06-02T13:14:22Z</time>
      </trkpt>
      <trkpt lat="46.37908" lon="5.28337">
        <ele>244.6</ele>
        <time>2022-06-02T13:14:27Z</time>
      </trkpt>
      <trkpt lat="46.37884" lon="5.28381">
        <ele>244.2</ele>
        <time>2022-06-02T13:14:32Z</time>
      </trkpt>
      <trkpt lat="46.37865" lon="5.28429">
        <ele>242</ele>
        <time>2022-06-02T13:14:36Z</time>
      </trkpt>
      <trkpt lat="46.37861" lon="5.28443">
        <ele>241.8</ele>
        <time>2022-06-02T13:14:37Z</time>
      </trkpt>
      <trkpt lat="46.37853" lon="5.28472">
        <ele>240.8</ele>
        <time>2022-06-02T13:14:39Z</time>
      </trkpt>
      <trkpt lat="46.37846" lon="5.28502">
        <ele>239.4</ele>
        <time>2022-06-02T13:14:41Z</time>
      </trkpt>
      <trkpt lat="46.37844" lon="5.28517">
        <ele>238.8</ele>
        <time>2022-06-02T13:14:42Z</time>
      </trkpt>
      <trkpt lat="46.37842" lon="5.28532">
        <ele>237.8</ele>
        <time>2022-06-02T13:14:43Z</time>
      </trkpt>
      <trkpt lat="46.37837" lon="5.28563">
        <ele>235.8</ele>
        <time>2022-06-02T13:14:45Z</time>
      </trkpt>
      <trkpt lat="46.37829" lon="5.28604">
        <ele>234.6</ele>
        <time>2022-06-02T13:14:48Z</time>
      </trkpt>
      <trkpt lat="46.37806" lon="5.2866">
        <ele>233.6</ele>
        <time>2022-06-02T13:14:53Z</time>
      </trkpt>
      <trkpt lat="46.37802" lon="5.2867">
        <ele>233.6</ele>
        <time>2022-06-02T13:14:54Z</time>
      </trkpt>
      <trkpt lat="46.37789" lon="5.28711">
        <ele>233.4</ele>
        <time>2022-06-02T13:14:58Z</time>
      </trkpt>
      <trkpt lat="46.37787" lon="5.28719">
        <ele>233.6</ele>
        <time>2022-06-02T13:14:59Z</time>
      </trkpt>
      <trkpt lat="46.37776" lon="5.28762">
        <ele>234</ele>
        <time>2022-06-02T13:15:04Z</time>
      </trkpt>
      <trkpt lat="46.37773" lon="5.28775">
        <ele>234.8</ele>
        <time>2022-06-02T13:15:06Z</time>
      </trkpt>
      <trkpt lat="46.37769" lon="5.28788">
        <ele>235.8</ele>
        <time>2022-06-02T13:15:08Z</time>
      </trkpt>
      <trkpt lat="46.37767" lon="5.28794">
        <ele>236.6</ele>
        <time>2022-06-02T13:15:09Z</time>
      </trkpt>
      <trkpt lat="46.37766" lon="5.288">
        <ele>236.8</ele>
        <time>2022-06-02T13:15:10Z</time>
      </trkpt>
      <trkpt lat="46.37763" lon="5.28813">
        <ele>237.4</ele>
        <time>2022-06-02T13:15:12Z</time>
      </trkpt>
      <trkpt lat="46.3776" lon="5.28821">
        <ele>237.8</ele>
        <time>2022-06-02T13:15:13Z</time>
      </trkpt>
      <trkpt lat="46.37755" lon="5.28832">
        <ele>238.6</ele>
        <time>2022-06-02T13:15:15Z</time>
      </trkpt>
      <trkpt lat="46.3775" lon="5.28844">
        <ele>239</ele>
        <time>2022-06-02T13:15:17Z</time>
      </trkpt>
      <trkpt lat="46.37736" lon="5.28872">
        <ele>240</ele>
        <time>2022-06-02T13:15:22Z</time>
      </trkpt>
      <trkpt lat="46.37733" lon="5.28877">
        <ele>240.2</ele>
        <time>2022-06-02T13:15:23Z</time>
      </trkpt>
      <trkpt lat="46.3773" lon="5.28881">
        <ele>240.2</ele>
        <time>2022-06-02T13:15:24Z</time>
      </trkpt>
      <trkpt lat="46.37714" lon="5.28899">
        <ele>241</ele>
        <time>2022-06-02T13:15:29Z</time>
      </trkpt>
      <trkpt lat="46.37711" lon="5.28901">
        <ele>241.2</ele>
        <time>2022-06-02T13:15:30Z</time>
      </trkpt>
      <trkpt lat="46.37697" lon="5.28912">
        <ele>242.2</ele>
        <time>2022-06-02T13:15:35Z</time>
      </trkpt>
      <trkpt lat="46.37688" lon="5.28918">
        <ele>243.4</ele>
        <time>2022-06-02T13:15:38Z</time>
      </trkpt>
      <trkpt lat="46.37675" lon="5.28924">
        <ele>244.6</ele>
        <time>2022-06-02T13:15:42Z</time>
      </trkpt>
      <trkpt lat="46.37662" lon="5.28934">
        <ele>245.6</ele>
        <time>2022-06-02T13:15:46Z</time>
      </trkpt>
      <trkpt lat="46.37659" lon="5.28936">
        <ele>245.8</ele>
        <time>2022-06-02T13:15:47Z</time>
      </trkpt>
      <trkpt lat="46.37646" lon="5.28948">
        <ele>246.8</ele>
        <time>2022-06-02T13:15:51Z</time>
      </trkpt>
      <trkpt lat="46.37642" lon="5.28952">
        <ele>246.8</ele>
        <time>2022-06-02T13:15:52Z</time>
      </trkpt>
      <trkpt lat="46.37621" lon="5.28978">
        <ele>247.2</ele>
        <time>2022-06-02T13:15:57Z</time>
      </trkpt>
      <trkpt lat="46.37589" lon="5.29017">
        <ele>247</ele>
        <time>2022-06-02T13:16:03Z</time>
      </trkpt>
      <trkpt lat="46.37546" lon="5.29064">
        <ele>246.4</ele>
        <time>2022-06-02T13:16:10Z</time>
      </trkpt>
      <trkpt lat="46.3751" lon="5.29107">
        <ele>245.8</ele>
        <time>2022-06-02T13:16:16Z</time>
      </trkpt>
      <trkpt lat="46.37505" lon="5.29114">
        <ele>245.8</ele>
        <time>2022-06-02T13:16:17Z</time>
      </trkpt>
      <trkpt lat="46.37495" lon="5.29131">
        <ele>245.6</ele>
        <time>2022-06-02T13:16:19Z</time>
      </trkpt>
      <trkpt lat="46.37483" lon="5.29156">
        <ele>245.6</ele>
        <time>2022-06-02T13:16:22Z</time>
      </trkpt>
      <trkpt lat="46.37473" lon="5.29201">
        <ele>245.8</ele>
        <time>2022-06-02T13:16:27Z</time>
      </trkpt>
      <trkpt lat="46.37465" lon="5.29237">
        <ele>246.8</ele>
        <time>2022-06-02T13:16:32Z</time>
      </trkpt>
      <trkpt lat="46.37463" lon="5.29243">
        <ele>247.2</ele>
        <time>2022-06-02T13:16:33Z</time>
      </trkpt>
      <trkpt lat="46.3746" lon="5.29256">
        <ele>248</ele>
        <time>2022-06-02T13:16:35Z</time>
      </trkpt>
      <trkpt lat="46.37458" lon="5.29262">
        <ele>248.2</ele>
        <time>2022-06-02T13:16:36Z</time>
      </trkpt>
      <trkpt lat="46.37451" lon="5.29272">
        <ele>249</ele>
        <time>2022-06-02T13:16:38Z</time>
      </trkpt>
      <trkpt lat="46.37447" lon="5.29274">
        <ele>249.4</ele>
        <time>2022-06-02T13:16:39Z</time>
      </trkpt>
      <trkpt lat="46.37442" lon="5.29272">
        <ele>249.8</ele>
        <time>2022-06-02T13:16:40Z</time>
      </trkpt>
      <trkpt lat="46.37438" lon="5.29269">
        <ele>249.6</ele>
        <time>2022-06-02T13:16:41Z</time>
      </trkpt>
      <trkpt lat="46.37434" lon="5.29264">
        <ele>250</ele>
        <time>2022-06-02T13:16:42Z</time>
      </trkpt>
      <trkpt lat="46.37423" lon="5.29247">
        <ele>250.8</ele>
        <time>2022-06-02T13:16:45Z</time>
      </trkpt>
      <trkpt lat="46.37416" lon="5.29235">
        <ele>251</ele>
        <time>2022-06-02T13:16:47Z</time>
      </trkpt>
      <trkpt lat="46.37412" lon="5.2922">
        <ele>251.6</ele>
        <time>2022-06-02T13:16:49Z</time>
      </trkpt>
      <trkpt lat="46.37411" lon="5.29213">
        <ele>251.8</ele>
        <time>2022-06-02T13:16:50Z</time>
      </trkpt>
      <trkpt lat="46.37409" lon="5.29204">
        <ele>251.8</ele>
        <time>2022-06-02T13:16:51Z</time>
      </trkpt>
      <trkpt lat="46.37394" lon="5.29169">
        <ele>252</ele>
        <time>2022-06-02T13:16:56Z</time>
      </trkpt>
      <trkpt lat="46.37363" lon="5.29122">
        <ele>252.2</ele>
        <time>2022-06-02T13:17:04Z</time>
      </trkpt>
      <trkpt lat="46.37354" lon="5.29086">
        <ele>252.6</ele>
        <time>2022-06-02T13:17:09Z</time>
      </trkpt>
      <trkpt lat="46.3735" lon="5.29071">
        <ele>252.8</ele>
        <time>2022-06-02T13:17:11Z</time>
      </trkpt>
      <trkpt lat="46.37344" lon="5.29059">
        <ele>253</ele>
        <time>2022-06-02T13:17:13Z</time>
      </trkpt>
      <trkpt lat="46.37335" lon="5.29049">
        <ele>253.2</ele>
        <time>2022-06-02T13:17:15Z</time>
      </trkpt>
      <trkpt lat="46.3732" lon="5.29038">
        <ele>253.6</ele>
        <time>2022-06-02T13:17:18Z</time>
      </trkpt>
      <trkpt lat="46.37306" lon="5.29032">
        <ele>253.8</ele>
        <time>2022-06-02T13:17:21Z</time>
      </trkpt>
      <trkpt lat="46.37284" lon="5.29027">
        <ele>254.4</ele>
        <time>2022-06-02T13:17:25Z</time>
      </trkpt>
      <trkpt lat="46.37278" lon="5.29027">
        <ele>254.6</ele>
        <time>2022-06-02T13:17:26Z</time>
      </trkpt>
      <trkpt lat="46.37268" lon="5.2903">
        <ele>254.8</ele>
        <time>2022-06-02T13:17:28Z</time>
      </trkpt>
      <trkpt lat="46.37262" lon="5.29034">
        <ele>254.8</ele>
        <time>2022-06-02T13:17:29Z</time>
      </trkpt>
      <trkpt lat="46.37248" lon="5.29046">
        <ele>254.8</ele>
        <time>2022-06-02T13:17:32Z</time>
      </trkpt>
      <trkpt lat="46.37233" lon="5.29057">
        <ele>255.2</ele>
        <time>2022-06-02T13:17:35Z</time>
      </trkpt>
      <trkpt lat="46.37204" lon="5.29062">
        <ele>255.8</ele>
        <time>2022-06-02T13:17:40Z</time>
      </trkpt>
      <trkpt lat="46.37187" lon="5.29062">
        <ele>256</ele>
        <time>2022-06-02T13:17:43Z</time>
      </trkpt>
      <trkpt lat="46.37176" lon="5.29061">
        <ele>256</ele>
        <time>2022-06-02T13:17:45Z</time>
      </trkpt>
      <trkpt lat="46.37165" lon="5.29054">
        <ele>256.2</ele>
        <time>2022-06-02T13:17:47Z</time>
      </trkpt>
      <trkpt lat="46.37159" lon="5.29039">
        <ele>256.4</ele>
        <time>2022-06-02T13:17:49Z</time>
      </trkpt>
      <trkpt lat="46.37157" lon="5.29031">
        <ele>256.4</ele>
        <time>2022-06-02T13:17:50Z</time>
      </trkpt>
      <trkpt lat="46.37154" lon="5.29023">
        <ele>256.6</ele>
        <time>2022-06-02T13:17:51Z</time>
      </trkpt>
      <trkpt lat="46.37145" lon="5.29011">
        <ele>256.6</ele>
        <time>2022-06-02T13:17:53Z</time>
      </trkpt>
      <trkpt lat="46.37128" lon="5.29005">
        <ele>256.4</ele>
        <time>2022-06-02T13:17:56Z</time>
      </trkpt>
      <trkpt lat="46.37121" lon="5.29004">
        <ele>256.6</ele>
        <time>2022-06-02T13:17:57Z</time>
      </trkpt>
      <trkpt lat="46.37077" lon="5.29011">
        <ele>256.4</ele>
        <time>2022-06-02T13:18:04Z</time>
      </trkpt>
      <trkpt lat="46.37045" lon="5.29017">
        <ele>256.2</ele>
        <time>2022-06-02T13:18:09Z</time>
      </trkpt>
      <trkpt lat="46.37039" lon="5.29021">
        <ele>256.2</ele>
        <time>2022-06-02T13:18:10Z</time>
      </trkpt>
      <trkpt lat="46.37034" lon="5.29028">
        <ele>256.2</ele>
        <time>2022-06-02T13:18:11Z</time>
      </trkpt>
      <trkpt lat="46.37031" lon="5.29045">
        <ele>256</ele>
        <time>2022-06-02T13:18:13Z</time>
      </trkpt>
      <trkpt lat="46.37038" lon="5.29081">
        <ele>256</ele>
        <time>2022-06-02T13:18:17Z</time>
      </trkpt>
      <trkpt lat="46.37049" lon="5.29127">
        <ele>256</ele>
        <time>2022-06-02T13:18:22Z</time>
      </trkpt>
      <trkpt lat="46.3705" lon="5.29136">
        <ele>256</ele>
        <time>2022-06-02T13:18:23Z</time>
      </trkpt>
      <trkpt lat="46.37049" lon="5.29146">
        <ele>256</ele>
        <time>2022-06-02T13:18:24Z</time>
      </trkpt>
      <trkpt lat="46.37046" lon="5.29155">
        <ele>255.8</ele>
        <time>2022-06-02T13:18:25Z</time>
      </trkpt>
      <trkpt lat="46.37041" lon="5.29161">
        <ele>255.8</ele>
        <time>2022-06-02T13:18:26Z</time>
      </trkpt>
      <trkpt lat="46.37035" lon="5.29163">
        <ele>255.8</ele>
        <time>2022-06-02T13:18:27Z</time>
      </trkpt>
      <trkpt lat="46.37029" lon="5.29163">
        <ele>255.6</ele>
        <time>2022-06-02T13:18:28Z</time>
      </trkpt>
      <trkpt lat="46.37009" lon="5.29164">
        <ele>255.2</ele>
        <time>2022-06-02T13:18:31Z</time>
      </trkpt>
      <trkpt lat="46.3696" lon="5.29161">
        <ele>255</ele>
        <time>2022-06-02T13:18:38Z</time>
      </trkpt>
      <trkpt lat="46.36939" lon="5.29151">
        <ele>255</ele>
        <time>2022-06-02T13:18:41Z</time>
      </trkpt>
      <trkpt lat="46.36933" lon="5.29146">
        <ele>255</ele>
        <time>2022-06-02T13:18:42Z</time>
      </trkpt>
      <trkpt lat="46.36927" lon="5.2914">
        <ele>254.8</ele>
        <time>2022-06-02T13:18:43Z</time>
      </trkpt>
      <trkpt lat="46.36907" lon="5.29114">
        <ele>254.8</ele>
        <time>2022-06-02T13:18:47Z</time>
      </trkpt>
      <trkpt lat="46.36902" lon="5.29108">
        <ele>254.8</ele>
        <time>2022-06-02T13:18:48Z</time>
      </trkpt>
      <trkpt lat="46.36881" lon="5.29087">
        <ele>254.6</ele>
        <time>2022-06-02T13:18:52Z</time>
      </trkpt>
      <trkpt lat="46.36845" lon="5.29068">
        <ele>254.6</ele>
        <time>2022-06-02T13:18:58Z</time>
      </trkpt>
      <trkpt lat="46.36805" lon="5.29067">
        <ele>254.2</ele>
        <time>2022-06-02T13:19:04Z</time>
      </trkpt>
      <trkpt lat="46.36799" lon="5.29069">
        <ele>253.8</ele>
        <time>2022-06-02T13:19:05Z</time>
      </trkpt>
      <trkpt lat="46.36781" lon="5.29075">
        <ele>253.6</ele>
        <time>2022-06-02T13:19:08Z</time>
      </trkpt>
      <trkpt lat="46.36775" lon="5.29075">
        <ele>253.6</ele>
        <time>2022-06-02T13:19:09Z</time>
      </trkpt>
      <trkpt lat="46.3677" lon="5.29072">
        <ele>253.4</ele>
        <time>2022-06-02T13:19:10Z</time>
      </trkpt>
      <trkpt lat="46.36761" lon="5.29063">
        <ele>253.4</ele>
        <time>2022-06-02T13:19:12Z</time>
      </trkpt>
      <trkpt lat="46.36757" lon="5.29057">
        <ele>253.2</ele>
        <time>2022-06-02T13:19:13Z</time>
      </trkpt>
      <trkpt lat="46.36742" lon="5.29037">
        <ele>253</ele>
        <time>2022-06-02T13:19:16Z</time>
      </trkpt>
      <trkpt lat="46.3673" lon="5.29024">
        <ele>252.8</ele>
        <time>2022-06-02T13:19:18Z</time>
      </trkpt>
      <trkpt lat="46.36724" lon="5.2902">
        <ele>252.8</ele>
        <time>2022-06-02T13:19:19Z</time>
      </trkpt>
      <trkpt lat="46.36716" lon="5.29017">
        <ele>252.8</ele>
        <time>2022-06-02T13:19:20Z</time>
      </trkpt>
      <trkpt lat="46.36684" lon="5.29017">
        <ele>252.6</ele>
        <time>2022-06-02T13:19:24Z</time>
      </trkpt>
      <trkpt lat="46.36629" lon="5.29024">
        <ele>252.2</ele>
        <time>2022-06-02T13:19:31Z</time>
      </trkpt>
      <trkpt lat="46.36622" lon="5.29026">
        <ele>252</ele>
        <time>2022-06-02T13:19:32Z</time>
      </trkpt>
      <trkpt lat="46.36562" lon="5.29036">
        <ele>251.8</ele>
        <time>2022-06-02T13:19:40Z</time>
      </trkpt>
      <trkpt lat="46.36509" lon="5.2904">
        <ele>252</ele>
        <time>2022-06-02T13:19:47Z</time>
      </trkpt>
      <trkpt lat="46.36461" lon="5.29044">
        <ele>252.2</ele>
        <time>2022-06-02T13:19:54Z</time>
      </trkpt>
      <trkpt lat="46.36405" lon="5.29048">
        <ele>252.4</ele>
        <time>2022-06-02T13:20:02Z</time>
      </trkpt>
      <trkpt lat="46.36391" lon="5.2905">
        <ele>252.6</ele>
        <time>2022-06-02T13:20:04Z</time>
      </trkpt>
      <trkpt lat="46.36336" lon="5.2906">
        <ele>252.8</ele>
        <time>2022-06-02T13:20:12Z</time>
      </trkpt>
      <trkpt lat="46.36324" lon="5.29063">
        <ele>252.8</ele>
        <time>2022-06-02T13:20:14Z</time>
      </trkpt>
      <trkpt lat="46.36274" lon="5.29072">
        <ele>253.2</ele>
        <time>2022-06-02T13:20:22Z</time>
      </trkpt>
      <trkpt lat="46.36262" lon="5.29076">
        <ele>253.4</ele>
        <time>2022-06-02T13:20:24Z</time>
      </trkpt>
      <trkpt lat="46.36251" lon="5.29084">
        <ele>253.6</ele>
        <time>2022-06-02T13:20:26Z</time>
      </trkpt>
      <trkpt lat="46.36244" lon="5.29096">
        <ele>253.8</ele>
        <time>2022-06-02T13:20:28Z</time>
      </trkpt>
      <trkpt lat="46.3624" lon="5.29104">
        <ele>254</ele>
        <time>2022-06-02T13:20:29Z</time>
      </trkpt>
      <trkpt lat="46.36237" lon="5.29111">
        <ele>254</ele>
        <time>2022-06-02T13:20:30Z</time>
      </trkpt>
      <trkpt lat="46.36227" lon="5.29121">
        <ele>254.2</ele>
        <time>2022-06-02T13:20:32Z</time>
      </trkpt>
      <trkpt lat="46.36221" lon="5.29122">
        <ele>254.2</ele>
        <time>2022-06-02T13:20:33Z</time>
      </trkpt>
      <trkpt lat="46.36215" lon="5.29123">
        <ele>254.4</ele>
        <time>2022-06-02T13:20:34Z</time>
      </trkpt>
      <trkpt lat="46.36207" lon="5.29131">
        <ele>254.4</ele>
        <time>2022-06-02T13:20:36Z</time>
      </trkpt>
      <trkpt lat="46.36204" lon="5.29146">
        <ele>254.6</ele>
        <time>2022-06-02T13:20:38Z</time>
      </trkpt>
      <trkpt lat="46.36205" lon="5.29156">
        <ele>254.6</ele>
        <time>2022-06-02T13:20:39Z</time>
      </trkpt>
      <trkpt lat="46.36205" lon="5.29166">
        <ele>254.8</ele>
        <time>2022-06-02T13:20:40Z</time>
      </trkpt>
      <trkpt lat="46.36209" lon="5.29187">
        <ele>254.8</ele>
        <time>2022-06-02T13:20:42Z</time>
      </trkpt>
      <trkpt lat="46.36212" lon="5.29198">
        <ele>254.8</ele>
        <time>2022-06-02T13:20:43Z</time>
      </trkpt>
      <trkpt lat="46.36216" lon="5.29209">
        <ele>254.6</ele>
        <time>2022-06-02T13:20:44Z</time>
      </trkpt>
      <trkpt lat="46.36224" lon="5.29235">
        <ele>254.4</ele>
        <time>2022-06-02T13:20:46Z</time>
      </trkpt>
      <trkpt lat="46.36236" lon="5.29297">
        <ele>252.2</ele>
        <time>2022-06-02T13:20:50Z</time>
      </trkpt>
      <trkpt lat="46.36239" lon="5.29328">
        <ele>251.2</ele>
        <time>2022-06-02T13:20:52Z</time>
      </trkpt>
      <trkpt lat="46.36244" lon="5.2937">
        <ele>249.6</ele>
        <time>2022-06-02T13:20:55Z</time>
      </trkpt>
      <trkpt lat="46.36253" lon="5.29443">
        <ele>249.2</ele>
        <time>2022-06-02T13:21:01Z</time>
      </trkpt>
      <trkpt lat="46.36248" lon="5.29461">
        <ele>249.4</ele>
        <time>2022-06-02T13:21:03Z</time>
      </trkpt>
      <trkpt lat="46.36238" lon="5.2947">
        <ele>249.6</ele>
        <time>2022-06-02T13:21:05Z</time>
      </trkpt>
      <trkpt lat="46.36226" lon="5.29474">
        <ele>250</ele>
        <time>2022-06-02T13:21:07Z</time>
      </trkpt>
      <trkpt lat="46.36215" lon="5.29482">
        <ele>251</ele>
        <time>2022-06-02T13:21:09Z</time>
      </trkpt>
      <trkpt lat="46.362" lon="5.29497">
        <ele>252.2</ele>
        <time>2022-06-02T13:21:12Z</time>
      </trkpt>
      <trkpt lat="46.36186" lon="5.2951">
        <ele>253.2</ele>
        <time>2022-06-02T13:21:15Z</time>
      </trkpt>
      <trkpt lat="46.36175" lon="5.29517">
        <ele>253.8</ele>
        <time>2022-06-02T13:21:17Z</time>
      </trkpt>
      <trkpt lat="46.36155" lon="5.29525">
        <ele>254.4</ele>
        <time>2022-06-02T13:21:20Z</time>
      </trkpt>
      <trkpt lat="46.3614" lon="5.29528">
        <ele>254.4</ele>
        <time>2022-06-02T13:21:22Z</time>
      </trkpt>
      <trkpt lat="46.36099" lon="5.29533">
        <ele>254.4</ele>
        <time>2022-06-02T13:21:27Z</time>
      </trkpt>
      <trkpt lat="46.36083" lon="5.29535">
        <ele>254</ele>
        <time>2022-06-02T13:21:29Z</time>
      </trkpt>
      <trkpt lat="46.36027" lon="5.29542">
        <ele>253.4</ele>
        <time>2022-06-02T13:21:36Z</time>
      </trkpt>
      <trkpt lat="46.35997" lon="5.29546">
        <ele>253.4</ele>
        <time>2022-06-02T13:21:40Z</time>
      </trkpt>
      <trkpt lat="46.35938" lon="5.29552">
        <ele>253.4</ele>
        <time>2022-06-02T13:21:48Z</time>
      </trkpt>
      <trkpt lat="46.35883" lon="5.29549">
        <ele>253.8</ele>
        <time>2022-06-02T13:21:56Z</time>
      </trkpt>
      <trkpt lat="46.35852" lon="5.29542">
        <ele>254.8</ele>
        <time>2022-06-02T13:22:01Z</time>
      </trkpt>
      <trkpt lat="46.35829" lon="5.29541">
        <ele>255.4</ele>
        <time>2022-06-02T13:22:05Z</time>
      </trkpt>
      <trkpt lat="46.3581" lon="5.29541">
        <ele>256</ele>
        <time>2022-06-02T13:22:08Z</time>
      </trkpt>
      <trkpt lat="46.35792" lon="5.29541">
        <ele>256.8</ele>
        <time>2022-06-02T13:22:11Z</time>
      </trkpt>
      <trkpt lat="46.35757" lon="5.29542">
        <ele>257.4</ele>
        <time>2022-06-02T13:22:17Z</time>
      </trkpt>
      <trkpt lat="46.35744" lon="5.29541">
        <ele>257.8</ele>
        <time>2022-06-02T13:22:19Z</time>
      </trkpt>
      <trkpt lat="46.35716" lon="5.29546">
        <ele>258.2</ele>
        <time>2022-06-02T13:22:24Z</time>
      </trkpt>
      <trkpt lat="46.3571" lon="5.29548">
        <ele>258.4</ele>
        <time>2022-06-02T13:22:25Z</time>
      </trkpt>
      <trkpt lat="46.35695" lon="5.29555">
        <ele>258.8</ele>
        <time>2022-06-02T13:22:28Z</time>
      </trkpt>
      <trkpt lat="46.3569" lon="5.2956">
        <ele>258.8</ele>
        <time>2022-06-02T13:22:29Z</time>
      </trkpt>
      <trkpt lat="46.35682" lon="5.29568">
        <ele>258.8</ele>
        <time>2022-06-02T13:22:31Z</time>
      </trkpt>
      <trkpt lat="46.35655" lon="5.29592">
        <ele>259</ele>
        <time>2022-06-02T13:22:36Z</time>
      </trkpt>
      <trkpt lat="46.35609" lon="5.29619">
        <ele>259</ele>
        <time>2022-06-02T13:22:44Z</time>
      </trkpt>
      <trkpt lat="46.35559" lon="5.2964">
        <ele>259</ele>
        <time>2022-06-02T13:22:52Z</time>
      </trkpt>
      <trkpt lat="46.35533" lon="5.29646">
        <ele>259.4</ele>
        <time>2022-06-02T13:22:56Z</time>
      </trkpt>
      <trkpt lat="46.35505" lon="5.29651">
        <ele>259.4</ele>
        <time>2022-06-02T13:23:00Z</time>
      </trkpt>
      <trkpt lat="46.35499" lon="5.29654">
        <ele>259.4</ele>
        <time>2022-06-02T13:23:01Z</time>
      </trkpt>
      <trkpt lat="46.35493" lon="5.29659">
        <ele>259.2</ele>
        <time>2022-06-02T13:23:02Z</time>
      </trkpt>
      <trkpt lat="46.35485" lon="5.29673">
        <ele>259</ele>
        <time>2022-06-02T13:23:04Z</time>
      </trkpt>
      <trkpt lat="46.35476" lon="5.29688">
        <ele>258.8</ele>
        <time>2022-06-02T13:23:06Z</time>
      </trkpt>
      <trkpt lat="46.35463" lon="5.29695">
        <ele>258.6</ele>
        <time>2022-06-02T13:23:08Z</time>
      </trkpt>
      <trkpt lat="46.35432" lon="5.29687">
        <ele>258.6</ele>
        <time>2022-06-02T13:23:13Z</time>
      </trkpt>
      <trkpt lat="46.3538" lon="5.29669">
        <ele>259.6</ele>
        <time>2022-06-02T13:23:21Z</time>
      </trkpt>
      <trkpt lat="46.35359" lon="5.29662">
        <ele>259.6</ele>
        <time>2022-06-02T13:23:24Z</time>
      </trkpt>
      <trkpt lat="46.35304" lon="5.29647">
        <ele>259.6</ele>
        <time>2022-06-02T13:23:32Z</time>
      </trkpt>
      <trkpt lat="46.35297" lon="5.29646">
        <ele>259.6</ele>
        <time>2022-06-02T13:23:33Z</time>
      </trkpt>
      <trkpt lat="46.35248" lon="5.29641">
        <ele>259.4</ele>
        <time>2022-06-02T13:23:40Z</time>
      </trkpt>
      <trkpt lat="46.35203" lon="5.29647">
        <ele>259</ele>
        <time>2022-06-02T13:23:46Z</time>
      </trkpt>
      <trkpt lat="46.35147" lon="5.29655">
        <ele>258.4</ele>
        <time>2022-06-02T13:23:53Z</time>
      </trkpt>
      <trkpt lat="46.35122" lon="5.29658">
        <ele>257.6</ele>
        <time>2022-06-02T13:23:56Z</time>
      </trkpt>
      <trkpt lat="46.35087" lon="5.2966">
        <ele>256.6</ele>
        <time>2022-06-02T13:24:00Z</time>
      </trkpt>
      <trkpt lat="46.35079" lon="5.29659">
        <ele>256.4</ele>
        <time>2022-06-02T13:24:01Z</time>
      </trkpt>
      <trkpt lat="46.35055" lon="5.29652">
        <ele>256.2</ele>
        <time>2022-06-02T13:24:04Z</time>
      </trkpt>
      <trkpt lat="46.35035" lon="5.29639">
        <ele>256.2</ele>
        <time>2022-06-02T13:24:07Z</time>
      </trkpt>
      <trkpt lat="46.35029" lon="5.29637">
        <ele>256.4</ele>
        <time>2022-06-02T13:24:08Z</time>
      </trkpt>
      <trkpt lat="46.34992" lon="5.29631">
        <ele>256.8</ele>
        <time>2022-06-02T13:24:14Z</time>
      </trkpt>
      <trkpt lat="46.3498" lon="5.29631">
        <ele>257</ele>
        <time>2022-06-02T13:24:16Z</time>
      </trkpt>
      <trkpt lat="46.34968" lon="5.29635">
        <ele>257.2</ele>
        <time>2022-06-02T13:24:18Z</time>
      </trkpt>
      <trkpt lat="46.34956" lon="5.29643">
        <ele>257.4</ele>
        <time>2022-06-02T13:24:20Z</time>
      </trkpt>
      <trkpt lat="46.34945" lon="5.29655">
        <ele>257.4</ele>
        <time>2022-06-02T13:24:22Z</time>
      </trkpt>
      <trkpt lat="46.34933" lon="5.29662">
        <ele>257.6</ele>
        <time>2022-06-02T13:24:24Z</time>
      </trkpt>
      <trkpt lat="46.34924" lon="5.29662">
        <ele>257.6</ele>
        <time>2022-06-02T13:24:25Z</time>
      </trkpt>
      <trkpt lat="46.34917" lon="5.2966">
        <ele>257.6</ele>
        <time>2022-06-02T13:24:26Z</time>
      </trkpt>
      <trkpt lat="46.34899" lon="5.2965">
        <ele>257.6</ele>
        <time>2022-06-02T13:24:29Z</time>
      </trkpt>
      <trkpt lat="46.34881" lon="5.29637">
        <ele>257.6</ele>
        <time>2022-06-02T13:24:32Z</time>
      </trkpt>
      <trkpt lat="46.34857" lon="5.29623">
        <ele>257.8</ele>
        <time>2022-06-02T13:24:36Z</time>
      </trkpt>
      <trkpt lat="46.34813" lon="5.29612">
        <ele>257.8</ele>
        <time>2022-06-02T13:24:43Z</time>
      </trkpt>
      <trkpt lat="46.34767" lon="5.29616">
        <ele>257.8</ele>
        <time>2022-06-02T13:24:50Z</time>
      </trkpt>
      <trkpt lat="46.3476" lon="5.29617">
        <ele>257.8</ele>
        <time>2022-06-02T13:24:51Z</time>
      </trkpt>
      <trkpt lat="46.34746" lon="5.29622">
        <ele>257.8</ele>
        <time>2022-06-02T13:24:53Z</time>
      </trkpt>
      <trkpt lat="46.34739" lon="5.29626">
        <ele>257.8</ele>
        <time>2022-06-02T13:24:54Z</time>
      </trkpt>
      <trkpt lat="46.34711" lon="5.29642">
        <ele>257.2</ele>
        <time>2022-06-02T13:24:58Z</time>
      </trkpt>
      <trkpt lat="46.34703" lon="5.29643">
        <ele>257.2</ele>
        <time>2022-06-02T13:24:59Z</time>
      </trkpt>
      <trkpt lat="46.34695" lon="5.29641">
        <ele>257</ele>
        <time>2022-06-02T13:25:00Z</time>
      </trkpt>
      <trkpt lat="46.34671" lon="5.29636">
        <ele>256.6</ele>
        <time>2022-06-02T13:25:03Z</time>
      </trkpt>
      <trkpt lat="46.34625" lon="5.29627">
        <ele>255.6</ele>
        <time>2022-06-02T13:25:09Z</time>
      </trkpt>
      <trkpt lat="46.34617" lon="5.29625">
        <ele>255.6</ele>
        <time>2022-06-02T13:25:10Z</time>
      </trkpt>
      <trkpt lat="46.34563" lon="5.29615">
        <ele>255.2</ele>
        <time>2022-06-02T13:25:17Z</time>
      </trkpt>
      <trkpt lat="46.34548" lon="5.29612">
        <ele>255</ele>
        <time>2022-06-02T13:25:19Z</time>
      </trkpt>
      <trkpt lat="46.34489" lon="5.29601">
        <ele>255</ele>
        <time>2022-06-02T13:25:27Z</time>
      </trkpt>
      <trkpt lat="46.34476" lon="5.29598">
        <ele>255.2</ele>
        <time>2022-06-02T13:25:29Z</time>
      </trkpt>
      <trkpt lat="46.34464" lon="5.29589">
        <ele>255.4</ele>
        <time>2022-06-02T13:25:31Z</time>
      </trkpt>
      <trkpt lat="46.34457" lon="5.29573">
        <ele>255.4</ele>
        <time>2022-06-02T13:25:33Z</time>
      </trkpt>
      <trkpt lat="46.34458" lon="5.29555">
        <ele>255.8</ele>
        <time>2022-06-02T13:25:35Z</time>
      </trkpt>
      <trkpt lat="46.34459" lon="5.29547">
        <ele>255.8</ele>
        <time>2022-06-02T13:25:36Z</time>
      </trkpt>
      <trkpt lat="46.34468" lon="5.29495">
        <ele>256.8</ele>
        <time>2022-06-02T13:25:42Z</time>
      </trkpt>
      <trkpt lat="46.34471" lon="5.29469">
        <ele>257.4</ele>
        <time>2022-06-02T13:25:45Z</time>
      </trkpt>
      <trkpt lat="46.34468" lon="5.29453">
        <ele>257.8</ele>
        <time>2022-06-02T13:25:47Z</time>
      </trkpt>
      <trkpt lat="46.34465" lon="5.29446">
        <ele>258</ele>
        <time>2022-06-02T13:25:48Z</time>
      </trkpt>
      <trkpt lat="46.34461" lon="5.2944">
        <ele>258.2</ele>
        <time>2022-06-02T13:25:49Z</time>
      </trkpt>
      <trkpt lat="46.34445" lon="5.2942">
        <ele>258.8</ele>
        <time>2022-06-02T13:25:53Z</time>
      </trkpt>
      <trkpt lat="46.34441" lon="5.29414">
        <ele>259</ele>
        <time>2022-06-02T13:25:54Z</time>
      </trkpt>
      <trkpt lat="46.34437" lon="5.29408">
        <ele>259.4</ele>
        <time>2022-06-02T13:25:55Z</time>
      </trkpt>
      <trkpt lat="46.34421" lon="5.29371">
        <ele>259.8</ele>
        <time>2022-06-02T13:26:00Z</time>
      </trkpt>
      <trkpt lat="46.34417" lon="5.29364">
        <ele>259.8</ele>
        <time>2022-06-02T13:26:01Z</time>
      </trkpt>
      <trkpt lat="46.34407" lon="5.29351">
        <ele>259.8</ele>
        <time>2022-06-02T13:26:03Z</time>
      </trkpt>
      <trkpt lat="46.34401" lon="5.29346">
        <ele>259.6</ele>
        <time>2022-06-02T13:26:04Z</time>
      </trkpt>
      <trkpt lat="46.34388" lon="5.29339">
        <ele>259.6</ele>
        <time>2022-06-02T13:26:06Z</time>
      </trkpt>
      <trkpt lat="46.34374" lon="5.29334">
        <ele>259.6</ele>
        <time>2022-06-02T13:26:08Z</time>
      </trkpt>
      <trkpt lat="46.34359" lon="5.2933">
        <ele>259.6</ele>
        <time>2022-06-02T13:26:10Z</time>
      </trkpt>
      <trkpt lat="46.34339" lon="5.29316">
        <ele>259.4</ele>
        <time>2022-06-02T13:26:13Z</time>
      </trkpt>
      <trkpt lat="46.34303" lon="5.29295">
        <ele>258.8</ele>
        <time>2022-06-02T13:26:18Z</time>
      </trkpt>
      <trkpt lat="46.34258" lon="5.29283">
        <ele>258.4</ele>
        <time>2022-06-02T13:26:24Z</time>
      </trkpt>
      <trkpt lat="46.34243" lon="5.29279">
        <ele>258.4</ele>
        <time>2022-06-02T13:26:26Z</time>
      </trkpt>
      <trkpt lat="46.34209" lon="5.29265">
        <ele>258.2</ele>
        <time>2022-06-02T13:26:31Z</time>
      </trkpt>
      <trkpt lat="46.34195" lon="5.29259">
        <ele>258.2</ele>
        <time>2022-06-02T13:26:33Z</time>
      </trkpt>
      <trkpt lat="46.34179" lon="5.29258">
        <ele>258.2</ele>
        <time>2022-06-02T13:26:35Z</time>
      </trkpt>
      <trkpt lat="46.34132" lon="5.29266">
        <ele>257.6</ele>
        <time>2022-06-02T13:26:41Z</time>
      </trkpt>
      <trkpt lat="46.34117" lon="5.2927">
        <ele>257.4</ele>
        <time>2022-06-02T13:26:43Z</time>
      </trkpt>
      <trkpt lat="46.3411" lon="5.29274">
        <ele>257.2</ele>
        <time>2022-06-02T13:26:44Z</time>
      </trkpt>
      <trkpt lat="46.34103" lon="5.2928">
        <ele>257</ele>
        <time>2022-06-02T13:26:45Z</time>
      </trkpt>
      <trkpt lat="46.34092" lon="5.29296">
        <ele>257</ele>
        <time>2022-06-02T13:26:47Z</time>
      </trkpt>
      <trkpt lat="46.34088" lon="5.29305">
        <ele>257</ele>
        <time>2022-06-02T13:26:48Z</time>
      </trkpt>
      <trkpt lat="46.3407" lon="5.29343">
        <ele>256.8</ele>
        <time>2022-06-02T13:26:52Z</time>
      </trkpt>
      <trkpt lat="46.34064" lon="5.29351">
        <ele>256.8</ele>
        <time>2022-06-02T13:26:53Z</time>
      </trkpt>
      <trkpt lat="46.34058" lon="5.29357">
        <ele>256.8</ele>
        <time>2022-06-02T13:26:54Z</time>
      </trkpt>
      <trkpt lat="46.34046" lon="5.29367">
        <ele>256.8</ele>
        <time>2022-06-02T13:26:56Z</time>
      </trkpt>
      <trkpt lat="46.34039" lon="5.2937">
        <ele>256.8</ele>
        <time>2022-06-02T13:26:57Z</time>
      </trkpt>
      <trkpt lat="46.34006" lon="5.29385">
        <ele>257.2</ele>
        <time>2022-06-02T13:27:02Z</time>
      </trkpt>
      <trkpt lat="46.34" lon="5.2939">
        <ele>257.4</ele>
        <time>2022-06-02T13:27:03Z</time>
      </trkpt>
      <trkpt lat="46.33976" lon="5.29419">
        <ele>258.2</ele>
        <time>2022-06-02T13:27:08Z</time>
      </trkpt>
      <trkpt lat="46.33967" lon="5.29434">
        <ele>258.4</ele>
        <time>2022-06-02T13:27:10Z</time>
      </trkpt>
      <trkpt lat="46.3396" lon="5.2945">
        <ele>258.6</ele>
        <time>2022-06-02T13:27:12Z</time>
      </trkpt>
      <trkpt lat="46.33958" lon="5.29459">
        <ele>258.8</ele>
        <time>2022-06-02T13:27:13Z</time>
      </trkpt>
      <trkpt lat="46.33951" lon="5.29486">
        <ele>259.2</ele>
        <time>2022-06-02T13:27:16Z</time>
      </trkpt>
      <trkpt lat="46.33948" lon="5.29494">
        <ele>259.6</ele>
        <time>2022-06-02T13:27:17Z</time>
      </trkpt>
      <trkpt lat="46.33944" lon="5.29502">
        <ele>259.6</ele>
        <time>2022-06-02T13:27:18Z</time>
      </trkpt>
      <trkpt lat="46.33938" lon="5.29507">
        <ele>259.8</ele>
        <time>2022-06-02T13:27:19Z</time>
      </trkpt>
      <trkpt lat="46.33924" lon="5.29513">
        <ele>260</ele>
        <time>2022-06-02T13:27:21Z</time>
      </trkpt>
      <trkpt lat="46.33884" lon="5.29516">
        <ele>260</ele>
        <time>2022-06-02T13:27:27Z</time>
      </trkpt>
      <trkpt lat="46.33837" lon="5.29515">
        <ele>259.8</ele>
        <time>2022-06-02T13:27:34Z</time>
      </trkpt>
      <trkpt lat="46.33817" lon="5.29516">
        <ele>259.8</ele>
        <time>2022-06-02T13:27:37Z</time>
      </trkpt>
      <trkpt lat="46.33798" lon="5.29509">
        <ele>260</ele>
        <time>2022-06-02T13:27:40Z</time>
      </trkpt>
      <trkpt lat="46.33764" lon="5.29483">
        <ele>260</ele>
        <time>2022-06-02T13:27:46Z</time>
      </trkpt>
      <trkpt lat="46.33733" lon="5.29448">
        <ele>260.6</ele>
        <time>2022-06-02T13:27:52Z</time>
      </trkpt>
      <trkpt lat="46.33697" lon="5.29397">
        <ele>261</ele>
        <time>2022-06-02T13:28:00Z</time>
      </trkpt>
      <trkpt lat="46.33679" lon="5.29374">
        <ele>261.2</ele>
        <time>2022-06-02T13:28:04Z</time>
      </trkpt>
      <trkpt lat="46.33668" lon="5.29367">
        <ele>261.2</ele>
        <time>2022-06-02T13:28:06Z</time>
      </trkpt>
      <trkpt lat="46.33656" lon="5.29363">
        <ele>261.2</ele>
        <time>2022-06-02T13:28:08Z</time>
      </trkpt>
      <trkpt lat="46.33643" lon="5.29364">
        <ele>261.2</ele>
        <time>2022-06-02T13:28:10Z</time>
      </trkpt>
      <trkpt lat="46.33605" lon="5.29371">
        <ele>261.2</ele>
        <time>2022-06-02T13:28:16Z</time>
      </trkpt>
      <trkpt lat="46.3357" lon="5.29363">
        <ele>261.4</ele>
        <time>2022-06-02T13:28:22Z</time>
      </trkpt>
      <trkpt lat="46.33563" lon="5.29361">
        <ele>261.6</ele>
        <time>2022-06-02T13:28:23Z</time>
      </trkpt>
      <trkpt lat="46.33519" lon="5.29346">
        <ele>262.4</ele>
        <time>2022-06-02T13:28:30Z</time>
      </trkpt>
      <trkpt lat="46.3348" lon="5.2933">
        <ele>262.4</ele>
        <time>2022-06-02T13:28:36Z</time>
      </trkpt>
      <trkpt lat="46.33438" lon="5.293">
        <ele>262</ele>
        <time>2022-06-02T13:28:43Z</time>
      </trkpt>
      <trkpt lat="46.33428" lon="5.29289">
        <ele>261.4</ele>
        <time>2022-06-02T13:28:45Z</time>
      </trkpt>
      <trkpt lat="46.33424" lon="5.29278">
        <ele>261</ele>
        <time>2022-06-02T13:28:47Z</time>
      </trkpt>
      <trkpt lat="46.33426" lon="5.29266">
        <ele>260.8</ele>
        <time>2022-06-02T13:28:49Z</time>
      </trkpt>
      <trkpt lat="46.33429" lon="5.2926">
        <ele>260.6</ele>
        <time>2022-06-02T13:28:50Z</time>
      </trkpt>
      <trkpt lat="46.33432" lon="5.29253">
        <ele>260.6</ele>
        <time>2022-06-02T13:28:51Z</time>
      </trkpt>
      <trkpt lat="46.33435" lon="5.29246">
        <ele>260.6</ele>
        <time>2022-06-02T13:28:52Z</time>
      </trkpt>
      <trkpt lat="46.33444" lon="5.29222">
        <ele>260.4</ele>
        <time>2022-06-02T13:28:55Z</time>
      </trkpt>
      <trkpt lat="46.33474" lon="5.29148">
        <ele>260.4</ele>
        <time>2022-06-02T13:29:04Z</time>
      </trkpt>
      <trkpt lat="46.33495" lon="5.29093">
        <ele>260.4</ele>
        <time>2022-06-02T13:29:10Z</time>
      </trkpt>
      <trkpt lat="46.33516" lon="5.2903">
        <ele>259.8</ele>
        <time>2022-06-02T13:29:16Z</time>
      </trkpt>
      <trkpt lat="46.33522" lon="5.29007">
        <ele>259.2</ele>
        <time>2022-06-02T13:29:18Z</time>
      </trkpt>
      <trkpt lat="46.33538" lon="5.28945">
        <ele>258</ele>
        <time>2022-06-02T13:29:23Z</time>
      </trkpt>
      <trkpt lat="46.33559" lon="5.28866">
        <ele>257</ele>
        <time>2022-06-02T13:29:30Z</time>
      </trkpt>
      <trkpt lat="46.33572" lon="5.28808">
        <ele>257.6</ele>
        <time>2022-06-02T13:29:36Z</time>
      </trkpt>
      <trkpt lat="46.33573" lon="5.28759">
        <ele>258</ele>
        <time>2022-06-02T13:29:41Z</time>
      </trkpt>
      <trkpt lat="46.33567" lon="5.28677">
        <ele>258.6</ele>
        <time>2022-06-02T13:29:49Z</time>
      </trkpt>
      <trkpt lat="46.33566" lon="5.28666">
        <ele>258.6</ele>
        <time>2022-06-02T13:29:50Z</time>
      </trkpt>
      <trkpt lat="46.33559" lon="5.28582">
        <ele>257.6</ele>
        <time>2022-06-02T13:29:58Z</time>
      </trkpt>
      <trkpt lat="46.33549" lon="5.28514">
        <ele>257</ele>
        <time>2022-06-02T13:30:04Z</time>
      </trkpt>
      <trkpt lat="46.33547" lon="5.28502">
        <ele>256.6</ele>
        <time>2022-06-02T13:30:05Z</time>
      </trkpt>
      <trkpt lat="46.33547" lon="5.28489">
        <ele>256.4</ele>
        <time>2022-06-02T13:30:06Z</time>
      </trkpt>
      <trkpt lat="46.33547" lon="5.28463">
        <ele>256</ele>
        <time>2022-06-02T13:30:08Z</time>
      </trkpt>
      <trkpt lat="46.33548" lon="5.28437">
        <ele>255.4</ele>
        <time>2022-06-02T13:30:10Z</time>
      </trkpt>
      <trkpt lat="46.33548" lon="5.28398">
        <ele>254.8</ele>
        <time>2022-06-02T13:30:13Z</time>
      </trkpt>
      <trkpt lat="46.33548" lon="5.2837">
        <ele>253.8</ele>
        <time>2022-06-02T13:30:15Z</time>
      </trkpt>
      <trkpt lat="46.3355" lon="5.28329">
        <ele>252.8</ele>
        <time>2022-06-02T13:30:18Z</time>
      </trkpt>
      <trkpt lat="46.33551" lon="5.28315">
        <ele>252.6</ele>
        <time>2022-06-02T13:30:19Z</time>
      </trkpt>
      <trkpt lat="46.33559" lon="5.2825">
        <ele>251.6</ele>
        <time>2022-06-02T13:30:24Z</time>
      </trkpt>
      <trkpt lat="46.33561" lon="5.28237">
        <ele>251.4</ele>
        <time>2022-06-02T13:30:25Z</time>
      </trkpt>
      <trkpt lat="46.33573" lon="5.28193">
        <ele>250.8</ele>
        <time>2022-06-02T13:30:29Z</time>
      </trkpt>
      <trkpt lat="46.33594" lon="5.28136">
        <ele>250.8</ele>
        <time>2022-06-02T13:30:35Z</time>
      </trkpt>
      <trkpt lat="46.33623" lon="5.28079">
        <ele>251</ele>
        <time>2022-06-02T13:30:42Z</time>
      </trkpt>
      <trkpt lat="46.33657" lon="5.28024">
        <ele>252</ele>
        <time>2022-06-02T13:30:49Z</time>
      </trkpt>
      <trkpt lat="46.337" lon="5.27959">
        <ele>252.2</ele>
        <time>2022-06-02T13:30:57Z</time>
      </trkpt>
      <trkpt lat="46.33705" lon="5.2795">
        <ele>252</ele>
        <time>2022-06-02T13:30:58Z</time>
      </trkpt>
      <trkpt lat="46.33735" lon="5.27904">
        <ele>251</ele>
        <time>2022-06-02T13:31:03Z</time>
      </trkpt>
      <trkpt lat="46.33753" lon="5.27875">
        <ele>250.2</ele>
        <time>2022-06-02T13:31:06Z</time>
      </trkpt>
      <trkpt lat="46.33779" lon="5.27835">
        <ele>249.4</ele>
        <time>2022-06-02T13:31:10Z</time>
      </trkpt>
      <trkpt lat="46.33791" lon="5.27814">
        <ele>249.2</ele>
        <time>2022-06-02T13:31:12Z</time>
      </trkpt>
      <trkpt lat="46.33824" lon="5.27761">
        <ele>247.4</ele>
        <time>2022-06-02T13:31:17Z</time>
      </trkpt>
      <trkpt lat="46.33837" lon="5.27738">
        <ele>246.4</ele>
        <time>2022-06-02T13:31:19Z</time>
      </trkpt>
      <trkpt lat="46.33858" lon="5.2769">
        <ele>245.2</ele>
        <time>2022-06-02T13:31:23Z</time>
      </trkpt>
      <trkpt lat="46.33866" lon="5.27649">
        <ele>244.2</ele>
        <time>2022-06-02T13:31:26Z</time>
      </trkpt>
      <trkpt lat="46.33872" lon="5.2762">
        <ele>243.4</ele>
        <time>2022-06-02T13:31:27Z</time>
      </trkpt>
      <trkpt lat="46.33872" lon="5.2762">
        <ele>243</ele>
        <time>2022-06-02T13:31:28Z</time>
      </trkpt>
      <trkpt lat="46.33882" lon="5.27573">
        <ele>241.2</ele>
        <time>2022-06-02T13:31:31Z</time>
      </trkpt>
      <trkpt lat="46.33889" lon="5.27541">
        <ele>240.2</ele>
        <time>2022-06-02T13:31:33Z</time>
      </trkpt>
      <trkpt lat="46.33892" lon="5.27524">
        <ele>239.4</ele>
        <time>2022-06-02T13:31:34Z</time>
      </trkpt>
      <trkpt lat="46.33895" lon="5.27507">
        <ele>239</ele>
        <time>2022-06-02T13:31:35Z</time>
      </trkpt>
      <trkpt lat="46.33903" lon="5.27473">
        <ele>238</ele>
        <time>2022-06-02T13:31:37Z</time>
      </trkpt>
      <trkpt lat="46.3391" lon="5.27438">
        <ele>236.6</ele>
        <time>2022-06-02T13:31:39Z</time>
      </trkpt>
      <trkpt lat="46.33914" lon="5.27402">
        <ele>236</ele>
        <time>2022-06-02T13:31:40Z</time>
      </trkpt>
      <trkpt lat="46.33915" lon="5.27384">
        <ele>235.4</ele>
        <time>2022-06-02T13:31:41Z</time>
      </trkpt>
      <trkpt lat="46.33916" lon="5.27366">
        <ele>234.2</ele>
        <time>2022-06-02T13:31:43Z</time>
      </trkpt>
      <trkpt lat="46.33915" lon="5.2733">
        <ele>232.8</ele>
        <time>2022-06-02T13:31:45Z</time>
      </trkpt>
      <trkpt lat="46.33911" lon="5.27265">
        <ele>231.6</ele>
        <time>2022-06-02T13:31:48Z</time>
      </trkpt>
      <trkpt lat="46.3391" lon="5.27235">
        <ele>230.8</ele>
        <time>2022-06-02T13:31:50Z</time>
      </trkpt>
      <trkpt lat="46.3391" lon="5.27235">
        <ele>230.6</ele>
        <time>2022-06-02T13:31:51Z</time>
      </trkpt>
      <trkpt lat="46.33905" lon="5.27166">
        <ele>229.6</ele>
        <time>2022-06-02T13:31:55Z</time>
      </trkpt>
      <trkpt lat="46.33904" lon="5.27153">
        <ele>229.6</ele>
        <time>2022-06-02T13:31:57Z</time>
      </trkpt>
      <trkpt lat="46.33902" lon="5.27079">
        <ele>229.2</ele>
        <time>2022-06-02T13:32:02Z</time>
      </trkpt>
      <trkpt lat="46.33903" lon="5.27067">
        <ele>229.2</ele>
        <time>2022-06-02T13:32:03Z</time>
      </trkpt>
      <trkpt lat="46.3391" lon="5.27033">
        <ele>229</ele>
        <time>2022-06-02T13:32:06Z</time>
      </trkpt>
      <trkpt lat="46.33918" lon="5.27013">
        <ele>228.8</ele>
        <time>2022-06-02T13:32:08Z</time>
      </trkpt>
      <trkpt lat="46.33941" lon="5.26958">
        <ele>228.8</ele>
        <time>2022-06-02T13:32:14Z</time>
      </trkpt>
      <trkpt lat="46.33974" lon="5.26884">
        <ele>229</ele>
        <time>2022-06-02T13:32:22Z</time>
      </trkpt>
      <trkpt lat="46.33981" lon="5.26866">
        <ele>229.2</ele>
        <time>2022-06-02T13:32:24Z</time>
      </trkpt>
      <trkpt lat="46.3401" lon="5.26797">
        <ele>229.2</ele>
        <time>2022-06-02T13:32:32Z</time>
      </trkpt>
      <trkpt lat="46.34014" lon="5.26789">
        <ele>229.2</ele>
        <time>2022-06-02T13:32:33Z</time>
      </trkpt>
      <trkpt lat="46.34034" lon="5.26742">
        <ele>229.2</ele>
        <time>2022-06-02T13:32:40Z</time>
      </trkpt>
      <trkpt lat="46.34053" lon="5.26697">
        <ele>230.4</ele>
        <time>2022-06-02T13:32:46Z</time>
      </trkpt>
      <trkpt lat="46.34057" lon="5.26686">
        <ele>230.8</ele>
        <time>2022-06-02T13:32:48Z</time>
      </trkpt>
      <trkpt lat="46.34067" lon="5.26665">
        <ele>232</ele>
        <time>2022-06-02T13:32:52Z</time>
      </trkpt>
      <trkpt lat="46.34069" lon="5.2666">
        <ele>232.2</ele>
        <time>2022-06-02T13:32:53Z</time>
      </trkpt>
      <trkpt lat="46.34073" lon="5.2665">
        <ele>232.4</ele>
        <time>2022-06-02T13:32:55Z</time>
      </trkpt>
      <trkpt lat="46.34079" lon="5.26636">
        <ele>233.2</ele>
        <time>2022-06-02T13:32:58Z</time>
      </trkpt>
      <trkpt lat="46.34083" lon="5.26625">
        <ele>233.6</ele>
        <time>2022-06-02T13:33:00Z</time>
      </trkpt>
      <trkpt lat="46.34091" lon="5.26605">
        <ele>234.2</ele>
        <time>2022-06-02T13:33:04Z</time>
      </trkpt>
      <trkpt lat="46.34096" lon="5.26589">
        <ele>235.4</ele>
        <time>2022-06-02T13:33:07Z</time>
      </trkpt>
      <trkpt lat="46.341" lon="5.26579">
        <ele>235.6</ele>
        <time>2022-06-02T13:33:10Z</time>
      </trkpt>
      <trkpt lat="46.34105" lon="5.26557">
        <ele>236.6</ele>
        <time>2022-06-02T13:33:13Z</time>
      </trkpt>
      <trkpt lat="46.3411" lon="5.26532">
        <ele>237.8</ele>
        <time>2022-06-02T13:33:18Z</time>
      </trkpt>
      <trkpt lat="46.34111" lon="5.26527">
        <ele>238</ele>
        <time>2022-06-02T13:33:19Z</time>
      </trkpt>
      <trkpt lat="46.34114" lon="5.26511">
        <ele>238.8</ele>
        <time>2022-06-02T13:33:23Z</time>
      </trkpt>
      <trkpt lat="46.34117" lon="5.26497">
        <ele>239.2</ele>
        <time>2022-06-02T13:33:25Z</time>
      </trkpt>
      <trkpt lat="46.34118" lon="5.26486">
        <ele>239.8</ele>
        <time>2022-06-02T13:33:27Z</time>
      </trkpt>
      <trkpt lat="46.34121" lon="5.26472">
        <ele>240.8</ele>
        <time>2022-06-02T13:33:30Z</time>
      </trkpt>
      <trkpt lat="46.34122" lon="5.26467">
        <ele>241</ele>
        <time>2022-06-02T13:33:31Z</time>
      </trkpt>
      <trkpt lat="46.34124" lon="5.26452">
        <ele>242</ele>
        <time>2022-06-02T13:33:34Z</time>
      </trkpt>
      <trkpt lat="46.34129" lon="5.26421">
        <ele>243.2</ele>
        <time>2022-06-02T13:33:40Z</time>
      </trkpt>
      <trkpt lat="46.34132" lon="5.26401">
        <ele>244.6</ele>
        <time>2022-06-02T13:33:44Z</time>
      </trkpt>
      <trkpt lat="46.34133" lon="5.26391">
        <ele>245</ele>
        <time>2022-06-02T13:33:46Z</time>
      </trkpt>
      <trkpt lat="46.34137" lon="5.26365">
        <ele>245.8</ele>
        <time>2022-06-02T13:33:51Z</time>
      </trkpt>
      <trkpt lat="46.34138" lon="5.26354">
        <ele>246.2</ele>
        <time>2022-06-02T13:33:53Z</time>
      </trkpt>
      <trkpt lat="46.3414" lon="5.26327">
        <ele>247.2</ele>
        <time>2022-06-02T13:33:58Z</time>
      </trkpt>
      <trkpt lat="46.3414" lon="5.26321">
        <ele>247.2</ele>
        <time>2022-06-02T13:33:59Z</time>
      </trkpt>
      <trkpt lat="46.34142" lon="5.26282">
        <ele>248.2</ele>
        <time>2022-06-02T13:34:06Z</time>
      </trkpt>
      <trkpt lat="46.34143" lon="5.2627">
        <ele>248.8</ele>
        <time>2022-06-02T13:34:08Z</time>
      </trkpt>
      <trkpt lat="46.34144" lon="5.26252">
        <ele>249.2</ele>
        <time>2022-06-02T13:34:11Z</time>
      </trkpt>
      <trkpt lat="46.34147" lon="5.2622">
        <ele>249.8</ele>
        <time>2022-06-02T13:34:16Z</time>
      </trkpt>
      <trkpt lat="46.34148" lon="5.26206">
        <ele>250.2</ele>
        <time>2022-06-02T13:34:18Z</time>
      </trkpt>
      <trkpt lat="46.34152" lon="5.26166">
        <ele>251.4</ele>
        <time>2022-06-02T13:34:24Z</time>
      </trkpt>
      <trkpt lat="46.34159" lon="5.26114">
        <ele>252.2</ele>
        <time>2022-06-02T13:34:32Z</time>
      </trkpt>
      <trkpt lat="46.34161" lon="5.261">
        <ele>252.4</ele>
        <time>2022-06-02T13:34:34Z</time>
      </trkpt>
      <trkpt lat="46.3417" lon="5.26058">
        <ele>253</ele>
        <time>2022-06-02T13:34:40Z</time>
      </trkpt>
      <trkpt lat="46.34175" lon="5.26044">
        <ele>253</ele>
        <time>2022-06-02T13:34:42Z</time>
      </trkpt>
      <trkpt lat="46.34185" lon="5.26023">
        <ele>253.2</ele>
        <time>2022-06-02T13:34:45Z</time>
      </trkpt>
      <trkpt lat="46.34208" lon="5.25975">
        <ele>252.8</ele>
        <time>2022-06-02T13:34:51Z</time>
      </trkpt>
      <trkpt lat="46.34235" lon="5.25922">
        <ele>251.6</ele>
        <time>2022-06-02T13:34:57Z</time>
      </trkpt>
      <trkpt lat="46.34248" lon="5.25907">
        <ele>251.2</ele>
        <time>2022-06-02T13:34:59Z</time>
      </trkpt>
      <trkpt lat="46.34265" lon="5.25895">
        <ele>250.6</ele>
        <time>2022-06-02T13:35:01Z</time>
      </trkpt>
      <trkpt lat="46.34281" lon="5.25885">
        <ele>249.8</ele>
        <time>2022-06-02T13:35:03Z</time>
      </trkpt>
      <trkpt lat="46.34289" lon="5.2588">
        <ele>249.2</ele>
        <time>2022-06-02T13:35:04Z</time>
      </trkpt>
      <trkpt lat="46.34296" lon="5.25878">
        <ele>248.4</ele>
        <time>2022-06-02T13:35:06Z</time>
      </trkpt>
      <trkpt lat="46.34311" lon="5.25876">
        <ele>248.2</ele>
        <time>2022-06-02T13:35:07Z</time>
      </trkpt>
      <trkpt lat="46.34326" lon="5.25877">
        <ele>247.8</ele>
        <time>2022-06-02T13:35:09Z</time>
      </trkpt>
      <trkpt lat="46.34333" lon="5.25877">
        <ele>247.2</ele>
        <time>2022-06-02T13:35:10Z</time>
      </trkpt>
      <trkpt lat="46.34361" lon="5.25879">
        <ele>246.6</ele>
        <time>2022-06-02T13:35:14Z</time>
      </trkpt>
      <trkpt lat="46.34393" lon="5.2588">
        <ele>246</ele>
        <time>2022-06-02T13:35:18Z</time>
      </trkpt>
      <trkpt lat="46.34402" lon="5.2588">
        <ele>246</ele>
        <time>2022-06-02T13:35:19Z</time>
      </trkpt>
      <trkpt lat="46.3441" lon="5.25878">
        <ele>245.6</ele>
        <time>2022-06-02T13:35:20Z</time>
      </trkpt>
      <trkpt lat="46.34428" lon="5.25873">
        <ele>244.8</ele>
        <time>2022-06-02T13:35:22Z</time>
      </trkpt>
      <trkpt lat="46.34445" lon="5.25869">
        <ele>244</ele>
        <time>2022-06-02T13:35:24Z</time>
      </trkpt>
      <trkpt lat="46.34453" lon="5.25866">
        <ele>243.6</ele>
        <time>2022-06-02T13:35:25Z</time>
      </trkpt>
      <trkpt lat="46.34461" lon="5.25864">
        <ele>243</ele>
        <time>2022-06-02T13:35:26Z</time>
      </trkpt>
      <trkpt lat="46.34469" lon="5.25862">
        <ele>242.6</ele>
        <time>2022-06-02T13:35:27Z</time>
      </trkpt>
      <trkpt lat="46.34485" lon="5.25858">
        <ele>242</ele>
        <time>2022-06-02T13:35:29Z</time>
      </trkpt>
      <trkpt lat="46.34515" lon="5.25851">
        <ele>241.8</ele>
        <time>2022-06-02T13:35:33Z</time>
      </trkpt>
      <trkpt lat="46.34521" lon="5.25851">
        <ele>241.6</ele>
        <time>2022-06-02T13:35:34Z</time>
      </trkpt>
      <trkpt lat="46.34527" lon="5.25853">
        <ele>241.4</ele>
        <time>2022-06-02T13:35:35Z</time>
      </trkpt>
      <trkpt lat="46.34537" lon="5.25856">
        <ele>241.2</ele>
        <time>2022-06-02T13:35:37Z</time>
      </trkpt>
      <trkpt lat="46.34537" lon="5.25856">
        <ele>241.4</ele>
        <time>2022-06-02T13:35:38Z</time>
      </trkpt>
      <trkpt lat="46.34546" lon="5.25856">
        <ele>241.2</ele>
        <time>2022-06-02T13:35:41Z</time>
      </trkpt>
      <trkpt lat="46.34546" lon="5.25856">
        <ele>241.2</ele>
        <time>2022-06-02T13:35:42Z</time>
      </trkpt>
      <trkpt lat="46.34552" lon="5.25856">
        <ele>241.2</ele>
        <time>2022-06-02T13:35:53Z</time>
      </trkpt>
      <trkpt lat="46.34556" lon="5.2585">
        <ele>241</ele>
        <time>2022-06-02T13:35:55Z</time>
      </trkpt>
      <trkpt lat="46.34559" lon="5.25848">
        <ele>241</ele>
        <time>2022-06-02T13:35:56Z</time>
      </trkpt>
      <trkpt lat="46.34566" lon="5.25846">
        <ele>241</ele>
        <time>2022-06-02T13:35:58Z</time>
      </trkpt>
      <trkpt lat="46.34589" lon="5.2585">
        <ele>242.2</ele>
        <time>2022-06-02T13:36:05Z</time>
      </trkpt>
      <trkpt lat="46.34601" lon="5.25851">
        <ele>242.6</ele>
        <time>2022-06-02T13:36:08Z</time>
      </trkpt>
      <trkpt lat="46.34615" lon="5.25851">
        <ele>243</ele>
        <time>2022-06-02T13:36:11Z</time>
      </trkpt>
      <trkpt lat="46.34641" lon="5.25849">
        <ele>243.6</ele>
        <time>2022-06-02T13:36:17Z</time>
      </trkpt>
      <trkpt lat="46.3465" lon="5.25849">
        <ele>244</ele>
        <time>2022-06-02T13:36:19Z</time>
      </trkpt>
      <trkpt lat="46.34662" lon="5.25848">
        <ele>244.8</ele>
        <time>2022-06-02T13:36:22Z</time>
      </trkpt>
      <trkpt lat="46.34682" lon="5.25843">
        <ele>246.2</ele>
        <time>2022-06-02T13:36:27Z</time>
      </trkpt>
      <trkpt lat="46.34693" lon="5.25838">
        <ele>247.4</ele>
        <time>2022-06-02T13:36:30Z</time>
      </trkpt>
      <trkpt lat="46.34708" lon="5.25832">
        <ele>248.6</ele>
        <time>2022-06-02T13:36:35Z</time>
      </trkpt>
      <trkpt lat="46.34729" lon="5.2582">
        <ele>249.6</ele>
        <time>2022-06-02T13:36:39Z</time>
      </trkpt>
      <trkpt lat="46.34751" lon="5.25808">
        <ele>250.4</ele>
        <time>2022-06-02T13:36:44Z</time>
      </trkpt>
      <trkpt lat="46.34761" lon="5.25803">
        <ele>250.8</ele>
        <time>2022-06-02T13:36:46Z</time>
      </trkpt>
      <trkpt lat="46.34788" lon="5.25788">
        <ele>251</ele>
        <time>2022-06-02T13:36:51Z</time>
      </trkpt>
      <trkpt lat="46.34794" lon="5.25786">
        <ele>251</ele>
        <time>2022-06-02T13:36:52Z</time>
      </trkpt>
      <trkpt lat="46.3482" lon="5.25775">
        <ele>251.4</ele>
        <time>2022-06-02T13:36:57Z</time>
      </trkpt>
      <trkpt lat="46.34879" lon="5.25753">
        <ele>251.2</ele>
        <time>2022-06-02T13:37:04Z</time>
      </trkpt>
      <trkpt lat="46.34887" lon="5.25751">
        <ele>251.2</ele>
        <time>2022-06-02T13:37:05Z</time>
      </trkpt>
      <trkpt lat="46.34943" lon="5.25731">
        <ele>250.2</ele>
        <time>2022-06-02T13:37:12Z</time>
      </trkpt>
      <trkpt lat="46.34967" lon="5.25724">
        <ele>249.6</ele>
        <time>2022-06-02T13:37:16Z</time>
      </trkpt>
      <trkpt lat="46.35017" lon="5.25711">
        <ele>248.8</ele>
        <time>2022-06-02T13:37:21Z</time>
      </trkpt>
      <trkpt lat="46.35051" lon="5.25703">
        <ele>248.4</ele>
        <time>2022-06-02T13:37:25Z</time>
      </trkpt>
      <trkpt lat="46.35088" lon="5.25694">
        <ele>247.8</ele>
        <time>2022-06-02T13:37:29Z</time>
      </trkpt>
      <trkpt lat="46.35098" lon="5.25692">
        <ele>247.4</ele>
        <time>2022-06-02T13:37:30Z</time>
      </trkpt>
      <trkpt lat="46.35139" lon="5.25683">
        <ele>246.4</ele>
        <time>2022-06-02T13:37:34Z</time>
      </trkpt>
      <trkpt lat="46.3515" lon="5.25681">
        <ele>245.8</ele>
        <time>2022-06-02T13:37:35Z</time>
      </trkpt>
      <trkpt lat="46.35172" lon="5.25676">
        <ele>245.2</ele>
        <time>2022-06-02T13:37:37Z</time>
      </trkpt>
      <trkpt lat="46.35207" lon="5.25668">
        <ele>243.6</ele>
        <time>2022-06-02T13:37:40Z</time>
      </trkpt>
      <trkpt lat="46.35231" lon="5.25663">
        <ele>242.2</ele>
        <time>2022-06-02T13:37:42Z</time>
      </trkpt>
      <trkpt lat="46.35242" lon="5.2566">
        <ele>241.6</ele>
        <time>2022-06-02T13:37:43Z</time>
      </trkpt>
      <trkpt lat="46.35254" lon="5.25658">
        <ele>240.8</ele>
        <time>2022-06-02T13:37:44Z</time>
      </trkpt>
      <trkpt lat="46.35276" lon="5.25652">
        <ele>239.6</ele>
        <time>2022-06-02T13:37:46Z</time>
      </trkpt>
      <trkpt lat="46.35309" lon="5.25646">
        <ele>238.2</ele>
        <time>2022-06-02T13:37:49Z</time>
      </trkpt>
      <trkpt lat="46.35319" lon="5.25643">
        <ele>238</ele>
        <time>2022-06-02T13:37:50Z</time>
      </trkpt>
      <trkpt lat="46.35349" lon="5.25637">
        <ele>237</ele>
        <time>2022-06-02T13:37:53Z</time>
      </trkpt>
      <trkpt lat="46.35377" lon="5.25631">
        <ele>236.4</ele>
        <time>2022-06-02T13:37:56Z</time>
      </trkpt>
      <trkpt lat="46.35395" lon="5.25627">
        <ele>235.8</ele>
        <time>2022-06-02T13:37:58Z</time>
      </trkpt>
      <trkpt lat="46.35438" lon="5.25619">
        <ele>235.4</ele>
        <time>2022-06-02T13:38:03Z</time>
      </trkpt>
      <trkpt lat="46.35473" lon="5.25607">
        <ele>235.2</ele>
        <time>2022-06-02T13:38:07Z</time>
      </trkpt>
      <trkpt lat="46.35482" lon="5.25601">
        <ele>235</ele>
        <time>2022-06-02T13:38:08Z</time>
      </trkpt>
      <trkpt lat="46.35498" lon="5.25585">
        <ele>234.8</ele>
        <time>2022-06-02T13:38:10Z</time>
      </trkpt>
      <trkpt lat="46.35506" lon="5.25576">
        <ele>235</ele>
        <time>2022-06-02T13:38:11Z</time>
      </trkpt>
      <trkpt lat="46.35514" lon="5.25567">
        <ele>234.6</ele>
        <time>2022-06-02T13:38:12Z</time>
      </trkpt>
      <trkpt lat="46.35544" lon="5.25528">
        <ele>234</ele>
        <time>2022-06-02T13:38:16Z</time>
      </trkpt>
      <trkpt lat="46.35572" lon="5.25491">
        <ele>232.8</ele>
        <time>2022-06-02T13:38:20Z</time>
      </trkpt>
      <trkpt lat="46.35578" lon="5.25482">
        <ele>232.8</ele>
        <time>2022-06-02T13:38:21Z</time>
      </trkpt>
      <trkpt lat="46.35616" lon="5.25441">
        <ele>232.8</ele>
        <time>2022-06-02T13:38:27Z</time>
      </trkpt>
      <trkpt lat="46.35648" lon="5.25413">
        <ele>233.8</ele>
        <time>2022-06-02T13:38:33Z</time>
      </trkpt>
      <trkpt lat="46.35653" lon="5.25409">
        <ele>234</ele>
        <time>2022-06-02T13:38:34Z</time>
      </trkpt>
      <trkpt lat="46.35668" lon="5.25399">
        <ele>235</ele>
        <time>2022-06-02T13:38:37Z</time>
      </trkpt>
      <trkpt lat="46.35679" lon="5.25392">
        <ele>236</ele>
        <time>2022-06-02T13:38:39Z</time>
      </trkpt>
      <trkpt lat="46.35694" lon="5.25381">
        <ele>237.4</ele>
        <time>2022-06-02T13:38:42Z</time>
      </trkpt>
      <trkpt lat="46.35699" lon="5.25377">
        <ele>237.8</ele>
        <time>2022-06-02T13:38:43Z</time>
      </trkpt>
      <trkpt lat="46.35715" lon="5.25366">
        <ele>238.4</ele>
        <time>2022-06-02T13:38:46Z</time>
      </trkpt>
      <trkpt lat="46.35755" lon="5.25339">
        <ele>239.6</ele>
        <time>2022-06-02T13:38:53Z</time>
      </trkpt>
      <trkpt lat="46.35794" lon="5.25326">
        <ele>239.8</ele>
        <time>2022-06-02T13:38:59Z</time>
      </trkpt>
      <trkpt lat="46.35848" lon="5.25319">
        <ele>240</ele>
        <time>2022-06-02T13:39:07Z</time>
      </trkpt>
      <trkpt lat="46.35874" lon="5.25315">
        <ele>240.2</ele>
        <time>2022-06-02T13:39:11Z</time>
      </trkpt>
      <trkpt lat="46.35893" lon="5.25309">
        <ele>240.4</ele>
        <time>2022-06-02T13:39:14Z</time>
      </trkpt>
      <trkpt lat="46.35936" lon="5.25284">
        <ele>240.4</ele>
        <time>2022-06-02T13:39:21Z</time>
      </trkpt>
      <trkpt lat="46.35964" lon="5.25268">
        <ele>240.6</ele>
        <time>2022-06-02T13:39:25Z</time>
      </trkpt>
      <trkpt lat="46.35971" lon="5.25266">
        <ele>240.6</ele>
        <time>2022-06-02T13:39:26Z</time>
      </trkpt>
      <trkpt lat="46.36017" lon="5.25259">
        <ele>240.2</ele>
        <time>2022-06-02T13:39:32Z</time>
      </trkpt>
      <trkpt lat="46.36073" lon="5.25263">
        <ele>240.4</ele>
        <time>2022-06-02T13:39:40Z</time>
      </trkpt>
      <trkpt lat="46.36079" lon="5.25264">
        <ele>240.6</ele>
        <time>2022-06-02T13:39:41Z</time>
      </trkpt>
      <trkpt lat="46.3611" lon="5.25267">
        <ele>241.8</ele>
        <time>2022-06-02T13:39:46Z</time>
      </trkpt>
      <trkpt lat="46.36116" lon="5.25268">
        <ele>242</ele>
        <time>2022-06-02T13:39:48Z</time>
      </trkpt>
      <trkpt lat="46.3615" lon="5.25273">
        <ele>242.8</ele>
        <time>2022-06-02T13:39:53Z</time>
      </trkpt>
      <trkpt lat="46.36163" lon="5.25275">
        <ele>243.2</ele>
        <time>2022-06-02T13:39:55Z</time>
      </trkpt>
      <trkpt lat="46.36189" lon="5.25279">
        <ele>243.8</ele>
        <time>2022-06-02T13:39:59Z</time>
      </trkpt>
      <trkpt lat="46.36205" lon="5.25279">
        <ele>243.8</ele>
        <time>2022-06-02T13:40:01Z</time>
      </trkpt>
      <trkpt lat="46.36257" lon="5.25276">
        <ele>243</ele>
        <time>2022-06-02T13:40:07Z</time>
      </trkpt>
      <trkpt lat="46.36276" lon="5.25279">
        <ele>242.8</ele>
        <time>2022-06-02T13:40:09Z</time>
      </trkpt>
      <trkpt lat="46.36302" lon="5.25287">
        <ele>242.2</ele>
        <time>2022-06-02T13:40:12Z</time>
      </trkpt>
      <trkpt lat="46.36327" lon="5.25298">
        <ele>241.6</ele>
        <time>2022-06-02T13:40:15Z</time>
      </trkpt>
      <trkpt lat="46.36359" lon="5.25312">
        <ele>241.6</ele>
        <time>2022-06-02T13:40:19Z</time>
      </trkpt>
      <trkpt lat="46.364" lon="5.2533">
        <ele>242.4</ele>
        <time>2022-06-02T13:40:25Z</time>
      </trkpt>
      <trkpt lat="46.36412" lon="5.25335">
        <ele>242.8</ele>
        <time>2022-06-02T13:40:27Z</time>
      </trkpt>
      <trkpt lat="46.36434" lon="5.25345">
        <ele>243.8</ele>
        <time>2022-06-02T13:40:31Z</time>
      </trkpt>
      <trkpt lat="46.36439" lon="5.25347">
        <ele>244</ele>
        <time>2022-06-02T13:40:32Z</time>
      </trkpt>
      <trkpt lat="46.3646" lon="5.25358">
        <ele>245.2</ele>
        <time>2022-06-02T13:40:36Z</time>
      </trkpt>
      <trkpt lat="46.36464" lon="5.2536">
        <ele>245.6</ele>
        <time>2022-06-02T13:40:37Z</time>
      </trkpt>
      <trkpt lat="46.3648" lon="5.25367">
        <ele>246.4</ele>
        <time>2022-06-02T13:40:40Z</time>
      </trkpt>
      <trkpt lat="46.36505" lon="5.25375">
        <ele>247.4</ele>
        <time>2022-06-02T13:40:45Z</time>
      </trkpt>
      <trkpt lat="46.36519" lon="5.25381">
        <ele>248.6</ele>
        <time>2022-06-02T13:40:48Z</time>
      </trkpt>
      <trkpt lat="46.36538" lon="5.2539">
        <ele>249.6</ele>
        <time>2022-06-02T13:40:52Z</time>
      </trkpt>
      <trkpt lat="46.36542" lon="5.25392">
        <ele>249.8</ele>
        <time>2022-06-02T13:40:53Z</time>
      </trkpt>
      <trkpt lat="46.36551" lon="5.25398">
        <ele>250.6</ele>
        <time>2022-06-02T13:40:55Z</time>
      </trkpt>
      <trkpt lat="46.36564" lon="5.25406">
        <ele>251.6</ele>
        <time>2022-06-02T13:40:58Z</time>
      </trkpt>
      <trkpt lat="46.36578" lon="5.25417">
        <ele>252</ele>
        <time>2022-06-02T13:41:01Z</time>
      </trkpt>
      <trkpt lat="46.36588" lon="5.25425">
        <ele>252.6</ele>
        <time>2022-06-02T13:41:03Z</time>
      </trkpt>
      <trkpt lat="46.36604" lon="5.25437">
        <ele>253</ele>
        <time>2022-06-02T13:41:06Z</time>
      </trkpt>
      <trkpt lat="46.3664" lon="5.25466">
        <ele>253</ele>
        <time>2022-06-02T13:41:12Z</time>
      </trkpt>
      <trkpt lat="46.36694" lon="5.25509">
        <ele>252.4</ele>
        <time>2022-06-02T13:41:20Z</time>
      </trkpt>
      <trkpt lat="46.36732" lon="5.25538">
        <ele>251.6</ele>
        <time>2022-06-02T13:41:25Z</time>
      </trkpt>
      <trkpt lat="46.36784" lon="5.25577">
        <ele>250.2</ele>
        <time>2022-06-02T13:41:31Z</time>
      </trkpt>
      <trkpt lat="46.36792" lon="5.25581">
        <ele>250</ele>
        <time>2022-06-02T13:41:32Z</time>
      </trkpt>
      <trkpt lat="46.36812" lon="5.25587">
        <ele>249.6</ele>
        <time>2022-06-02T13:41:34Z</time>
      </trkpt>
      <trkpt lat="46.36823" lon="5.25586">
        <ele>249</ele>
        <time>2022-06-02T13:41:35Z</time>
      </trkpt>
      <trkpt lat="46.36834" lon="5.25583">
        <ele>248.6</ele>
        <time>2022-06-02T13:41:36Z</time>
      </trkpt>
      <trkpt lat="46.36855" lon="5.25574">
        <ele>247.6</ele>
        <time>2022-06-02T13:41:38Z</time>
      </trkpt>
      <trkpt lat="46.36866" lon="5.25569">
        <ele>247.4</ele>
        <time>2022-06-02T13:41:39Z</time>
      </trkpt>
      <trkpt lat="46.36898" lon="5.25552">
        <ele>246.4</ele>
        <time>2022-06-02T13:41:42Z</time>
      </trkpt>
      <trkpt lat="46.36921" lon="5.25542">
        <ele>245.2</ele>
        <time>2022-06-02T13:41:44Z</time>
      </trkpt>
      <trkpt lat="46.36943" lon="5.25534">
        <ele>243.8</ele>
        <time>2022-06-02T13:41:46Z</time>
      </trkpt>
      <trkpt lat="46.36977" lon="5.25529">
        <ele>241.6</ele>
        <time>2022-06-02T13:41:49Z</time>
      </trkpt>
      <trkpt lat="46.36988" lon="5.25529">
        <ele>241.2</ele>
        <time>2022-06-02T13:41:50Z</time>
      </trkpt>
      <trkpt lat="46.36999" lon="5.2553">
        <ele>240.4</ele>
        <time>2022-06-02T13:41:51Z</time>
      </trkpt>
      <trkpt lat="46.37031" lon="5.25532">
        <ele>239.2</ele>
        <time>2022-06-02T13:41:54Z</time>
      </trkpt>
      <trkpt lat="46.37062" lon="5.25534">
        <ele>238.6</ele>
        <time>2022-06-02T13:41:57Z</time>
      </trkpt>
      <trkpt lat="46.37113" lon="5.25538">
        <ele>238.2</ele>
        <time>2022-06-02T13:42:02Z</time>
      </trkpt>
      <trkpt lat="46.37133" lon="5.2554">
        <ele>238</ele>
        <time>2022-06-02T13:42:04Z</time>
      </trkpt>
      <trkpt lat="46.37189" lon="5.25552">
        <ele>238</ele>
        <time>2022-06-02T13:42:10Z</time>
      </trkpt>
      <trkpt lat="46.37251" lon="5.25565">
        <ele>238.8</ele>
        <time>2022-06-02T13:42:17Z</time>
      </trkpt>
      <trkpt lat="46.37294" lon="5.25558">
        <ele>239.2</ele>
        <time>2022-06-02T13:42:22Z</time>
      </trkpt>
      <trkpt lat="46.37347" lon="5.25535">
        <ele>239</ele>
        <time>2022-06-02T13:42:28Z</time>
      </trkpt>
      <trkpt lat="46.37357" lon="5.25529">
        <ele>238.6</ele>
        <time>2022-06-02T13:42:29Z</time>
      </trkpt>
      <trkpt lat="46.37387" lon="5.25515">
        <ele>238</ele>
        <time>2022-06-02T13:42:32Z</time>
      </trkpt>
      <trkpt lat="46.37417" lon="5.25497">
        <ele>236.8</ele>
        <time>2022-06-02T13:42:35Z</time>
      </trkpt>
      <trkpt lat="46.37427" lon="5.25489">
        <ele>236.2</ele>
        <time>2022-06-02T13:42:36Z</time>
      </trkpt>
      <trkpt lat="46.37446" lon="5.25474">
        <ele>235.6</ele>
        <time>2022-06-02T13:42:38Z</time>
      </trkpt>
      <trkpt lat="46.37476" lon="5.25451">
        <ele>234.2</ele>
        <time>2022-06-02T13:42:41Z</time>
      </trkpt>
      <trkpt lat="46.37497" lon="5.25435">
        <ele>232.6</ele>
        <time>2022-06-02T13:42:43Z</time>
      </trkpt>
      <trkpt lat="46.37507" lon="5.25427">
        <ele>232.2</ele>
        <time>2022-06-02T13:42:44Z</time>
      </trkpt>
      <trkpt lat="46.37518" lon="5.25419">
        <ele>231.4</ele>
        <time>2022-06-02T13:42:45Z</time>
      </trkpt>
      <trkpt lat="46.37548" lon="5.25399">
        <ele>229.8</ele>
        <time>2022-06-02T13:42:48Z</time>
      </trkpt>
      <trkpt lat="46.37558" lon="5.25394">
        <ele>229.6</ele>
        <time>2022-06-02T13:42:49Z</time>
      </trkpt>
      <trkpt lat="46.37589" lon="5.25381">
        <ele>228.4</ele>
        <time>2022-06-02T13:42:52Z</time>
      </trkpt>
      <trkpt lat="46.37619" lon="5.25369">
        <ele>227.2</ele>
        <time>2022-06-02T13:42:55Z</time>
      </trkpt>
      <trkpt lat="46.37681" lon="5.25347">
        <ele>226.6</ele>
        <time>2022-06-02T13:43:01Z</time>
      </trkpt>
      <trkpt lat="46.37713" lon="5.25335">
        <ele>226.2</ele>
        <time>2022-06-02T13:43:04Z</time>
      </trkpt>
      <trkpt lat="46.37723" lon="5.25331">
        <ele>226</ele>
        <time>2022-06-02T13:43:05Z</time>
      </trkpt>
      <trkpt lat="46.37754" lon="5.25319">
        <ele>225</ele>
        <time>2022-06-02T13:43:08Z</time>
      </trkpt>
      <trkpt lat="46.37812" lon="5.25298">
        <ele>224</ele>
        <time>2022-06-02T13:43:14Z</time>
      </trkpt>
      <trkpt lat="46.37821" lon="5.25295">
        <ele>224</ele>
        <time>2022-06-02T13:43:15Z</time>
      </trkpt>
      <trkpt lat="46.37872" lon="5.25276">
        <ele>224</ele>
        <time>2022-06-02T13:43:21Z</time>
      </trkpt>
      <trkpt lat="46.37923" lon="5.25257">
        <ele>224.8</ele>
        <time>2022-06-02T13:43:28Z</time>
      </trkpt>
      <trkpt lat="46.37929" lon="5.25255">
        <ele>225</ele>
        <time>2022-06-02T13:43:29Z</time>
      </trkpt>
      <trkpt lat="46.37969" lon="5.25239">
        <ele>226</ele>
        <time>2022-06-02T13:43:35Z</time>
      </trkpt>
      <trkpt lat="46.37976" lon="5.25237">
        <ele>226</ele>
        <time>2022-06-02T13:43:36Z</time>
      </trkpt>
      <trkpt lat="46.38025" lon="5.25215">
        <ele>227</ele>
        <time>2022-06-02T13:43:44Z</time>
      </trkpt>
      <trkpt lat="46.38039" lon="5.25208">
        <ele>227.2</ele>
        <time>2022-06-02T13:43:46Z</time>
      </trkpt>
      <trkpt lat="46.38068" lon="5.2519">
        <ele>227.2</ele>
        <time>2022-06-02T13:43:50Z</time>
      </trkpt>
      <trkpt lat="46.38124" lon="5.25157">
        <ele>227</ele>
        <time>2022-06-02T13:43:57Z</time>
      </trkpt>
      <trkpt lat="46.38131" lon="5.25152">
        <ele>226.8</ele>
        <time>2022-06-02T13:43:58Z</time>
      </trkpt>
      <trkpt lat="46.38181" lon="5.25122">
        <ele>226.4</ele>
        <time>2022-06-02T13:44:05Z</time>
      </trkpt>
      <trkpt lat="46.38222" lon="5.25097">
        <ele>226.8</ele>
        <time>2022-06-02T13:44:11Z</time>
      </trkpt>
      <trkpt lat="46.38235" lon="5.25088">
        <ele>227</ele>
        <time>2022-06-02T13:44:13Z</time>
      </trkpt>
      <trkpt lat="46.38286" lon="5.25056">
        <ele>227.2</ele>
        <time>2022-06-02T13:44:20Z</time>
      </trkpt>
      <trkpt lat="46.38309" lon="5.25043">
        <ele>227.2</ele>
        <time>2022-06-02T13:44:23Z</time>
      </trkpt>
      <trkpt lat="46.38361" lon="5.2501">
        <ele>226.8</ele>
        <time>2022-06-02T13:44:30Z</time>
      </trkpt>
      <trkpt lat="46.3839" lon="5.24991">
        <ele>226.8</ele>
        <time>2022-06-02T13:44:34Z</time>
      </trkpt>
      <trkpt lat="46.38441" lon="5.24958">
        <ele>226.8</ele>
        <time>2022-06-02T13:44:41Z</time>
      </trkpt>
      <trkpt lat="46.38449" lon="5.24953">
        <ele>226.8</ele>
        <time>2022-06-02T13:44:42Z</time>
      </trkpt>
      <trkpt lat="46.38501" lon="5.2492">
        <ele>226.6</ele>
        <time>2022-06-02T13:44:49Z</time>
      </trkpt>
      <trkpt lat="46.38515" lon="5.24911">
        <ele>226.6</ele>
        <time>2022-06-02T13:44:51Z</time>
      </trkpt>
      <trkpt lat="46.38544" lon="5.24893">
        <ele>226.8</ele>
        <time>2022-06-02T13:44:55Z</time>
      </trkpt>
      <trkpt lat="46.38571" lon="5.24876">
        <ele>226.8</ele>
        <time>2022-06-02T13:44:59Z</time>
      </trkpt>
      <trkpt lat="46.38627" lon="5.2484">
        <ele>227.4</ele>
        <time>2022-06-02T13:45:07Z</time>
      </trkpt>
      <trkpt lat="46.38674" lon="5.2481">
        <ele>227.2</ele>
        <time>2022-06-02T13:45:13Z</time>
      </trkpt>
      <trkpt lat="46.38717" lon="5.24782">
        <ele>225.8</ele>
        <time>2022-06-02T13:45:18Z</time>
      </trkpt>
      <trkpt lat="46.38734" lon="5.24771">
        <ele>225.2</ele>
        <time>2022-06-02T13:45:20Z</time>
      </trkpt>
      <trkpt lat="46.38743" lon="5.24766">
        <ele>224.8</ele>
        <time>2022-06-02T13:45:21Z</time>
      </trkpt>
      <trkpt lat="46.38799" lon="5.24731">
        <ele>224.2</ele>
        <time>2022-06-02T13:45:28Z</time>
      </trkpt>
      <trkpt lat="46.38824" lon="5.24714">
        <ele>225.4</ele>
        <time>2022-06-02T13:45:32Z</time>
      </trkpt>
      <trkpt lat="46.3883" lon="5.24711">
        <ele>225.6</ele>
        <time>2022-06-02T13:45:33Z</time>
      </trkpt>
      <trkpt lat="46.38852" lon="5.24697">
        <ele>226</ele>
        <time>2022-06-02T13:45:37Z</time>
      </trkpt>
      <trkpt lat="46.38863" lon="5.2469">
        <ele>226.4</ele>
        <time>2022-06-02T13:45:39Z</time>
      </trkpt>
      <trkpt lat="46.38883" lon="5.24676">
        <ele>227</ele>
        <time>2022-06-02T13:45:43Z</time>
      </trkpt>
      <trkpt lat="46.38897" lon="5.24666">
        <ele>227.8</ele>
        <time>2022-06-02T13:45:46Z</time>
      </trkpt>
      <trkpt lat="46.38902" lon="5.24663">
        <ele>228.2</ele>
        <time>2022-06-02T13:45:47Z</time>
      </trkpt>
      <trkpt lat="46.38913" lon="5.24657">
        <ele>228.6</ele>
        <time>2022-06-02T13:45:49Z</time>
      </trkpt>
      <trkpt lat="46.38928" lon="5.24648">
        <ele>229.6</ele>
        <time>2022-06-02T13:45:52Z</time>
      </trkpt>
      <trkpt lat="46.38944" lon="5.24639">
        <ele>230.2</ele>
        <time>2022-06-02T13:45:55Z</time>
      </trkpt>
      <trkpt lat="46.38954" lon="5.24632">
        <ele>230.6</ele>
        <time>2022-06-02T13:45:57Z</time>
      </trkpt>
      <trkpt lat="46.38991" lon="5.24612">
        <ele>231.4</ele>
        <time>2022-06-02T13:46:04Z</time>
      </trkpt>
      <trkpt lat="46.39016" lon="5.246">
        <ele>231.6</ele>
        <time>2022-06-02T13:46:08Z</time>
      </trkpt>
      <trkpt lat="46.3903" lon="5.24594">
        <ele>231.6</ele>
        <time>2022-06-02T13:46:10Z</time>
      </trkpt>
      <trkpt lat="46.3907" lon="5.24575">
        <ele>231.4</ele>
        <time>2022-06-02T13:46:15Z</time>
      </trkpt>
      <trkpt lat="46.39106" lon="5.24558">
        <ele>230.6</ele>
        <time>2022-06-02T13:46:19Z</time>
      </trkpt>
      <trkpt lat="46.39126" lon="5.24548">
        <ele>230.4</ele>
        <time>2022-06-02T13:46:21Z</time>
      </trkpt>
      <trkpt lat="46.39146" lon="5.24539">
        <ele>229.4</ele>
        <time>2022-06-02T13:46:23Z</time>
      </trkpt>
      <trkpt lat="46.39185" lon="5.24519">
        <ele>227.8</ele>
        <time>2022-06-02T13:46:27Z</time>
      </trkpt>
      <trkpt lat="46.39195" lon="5.24515">
        <ele>227.4</ele>
        <time>2022-06-02T13:46:28Z</time>
      </trkpt>
      <trkpt lat="46.39221" lon="5.24502">
        <ele>226.8</ele>
        <time>2022-06-02T13:46:31Z</time>
      </trkpt>
      <trkpt lat="46.39238" lon="5.24494">
        <ele>226.6</ele>
        <time>2022-06-02T13:46:33Z</time>
      </trkpt>
      <trkpt lat="46.39292" lon="5.24468">
        <ele>226.8</ele>
        <time>2022-06-02T13:46:40Z</time>
      </trkpt>
      <trkpt lat="46.39344" lon="5.24443">
        <ele>227.6</ele>
        <time>2022-06-02T13:46:47Z</time>
      </trkpt>
      <trkpt lat="46.39351" lon="5.24439">
        <ele>227.8</ele>
        <time>2022-06-02T13:46:48Z</time>
      </trkpt>
      <trkpt lat="46.39409" lon="5.24413">
        <ele>229</ele>
        <time>2022-06-02T13:46:56Z</time>
      </trkpt>
      <trkpt lat="46.39423" lon="5.24407">
        <ele>229.2</ele>
        <time>2022-06-02T13:46:58Z</time>
      </trkpt>
      <trkpt lat="46.39464" lon="5.24388">
        <ele>230</ele>
        <time>2022-06-02T13:47:04Z</time>
      </trkpt>
      <trkpt lat="46.39519" lon="5.24363">
        <ele>230.6</ele>
        <time>2022-06-02T13:47:12Z</time>
      </trkpt>
      <trkpt lat="46.3954" lon="5.24354">
        <ele>231</ele>
        <time>2022-06-02T13:47:15Z</time>
      </trkpt>
      <trkpt lat="46.39547" lon="5.24351">
        <ele>231</ele>
        <time>2022-06-02T13:47:16Z</time>
      </trkpt>
      <trkpt lat="46.39591" lon="5.24336">
        <ele>231.6</ele>
        <time>2022-06-02T13:47:22Z</time>
      </trkpt>
      <trkpt lat="46.3964" lon="5.24322">
        <ele>231.2</ele>
        <time>2022-06-02T13:47:28Z</time>
      </trkpt>
      <trkpt lat="46.39698" lon="5.24308">
        <ele>230.8</ele>
        <time>2022-06-02T13:47:35Z</time>
      </trkpt>
      <trkpt lat="46.39714" lon="5.24304">
        <ele>230.6</ele>
        <time>2022-06-02T13:47:37Z</time>
      </trkpt>
      <trkpt lat="46.39767" lon="5.2429">
        <ele>231</ele>
        <time>2022-06-02T13:47:44Z</time>
      </trkpt>
      <trkpt lat="46.39794" lon="5.24283">
        <ele>232</ele>
        <time>2022-06-02T13:47:48Z</time>
      </trkpt>
      <trkpt lat="46.398" lon="5.24281">
        <ele>232</ele>
        <time>2022-06-02T13:47:49Z</time>
      </trkpt>
      <trkpt lat="46.39806" lon="5.24279">
        <ele>232.4</ele>
        <time>2022-06-02T13:47:50Z</time>
      </trkpt>
      <trkpt lat="46.39824" lon="5.24275">
        <ele>233</ele>
        <time>2022-06-02T13:47:53Z</time>
      </trkpt>
      <trkpt lat="46.39829" lon="5.24274">
        <ele>233</ele>
        <time>2022-06-02T13:47:54Z</time>
      </trkpt>
      <trkpt lat="46.39851" lon="5.24267">
        <ele>234</ele>
        <time>2022-06-02T13:47:58Z</time>
      </trkpt>
      <trkpt lat="46.39857" lon="5.24265">
        <ele>234.2</ele>
        <time>2022-06-02T13:47:59Z</time>
      </trkpt>
      <trkpt lat="46.39879" lon="5.24259">
        <ele>235.2</ele>
        <time>2022-06-02T13:48:03Z</time>
      </trkpt>
      <trkpt lat="46.39893" lon="5.24256">
        <ele>235.4</ele>
        <time>2022-06-02T13:48:05Z</time>
      </trkpt>
      <trkpt lat="46.39926" lon="5.24248">
        <ele>235.8</ele>
        <time>2022-06-02T13:48:10Z</time>
      </trkpt>
      <trkpt lat="46.3996" lon="5.24239">
        <ele>236.2</ele>
        <time>2022-06-02T13:48:15Z</time>
      </trkpt>
      <trkpt lat="46.39985" lon="5.24232">
        <ele>236.8</ele>
        <time>2022-06-02T13:48:19Z</time>
      </trkpt>
      <trkpt lat="46.40014" lon="5.24226">
        <ele>237</ele>
        <time>2022-06-02T13:48:24Z</time>
      </trkpt>
      <trkpt lat="46.40019" lon="5.24225">
        <ele>237.2</ele>
        <time>2022-06-02T13:48:25Z</time>
      </trkpt>
      <trkpt lat="46.40025" lon="5.24223">
        <ele>237.4</ele>
        <time>2022-06-02T13:48:26Z</time>
      </trkpt>
      <trkpt lat="46.4005" lon="5.24216">
        <ele>237.4</ele>
        <time>2022-06-02T13:48:29Z</time>
      </trkpt>
      <trkpt lat="46.40105" lon="5.24201">
        <ele>237.4</ele>
        <time>2022-06-02T13:48:35Z</time>
      </trkpt>
      <trkpt lat="46.40151" lon="5.24189">
        <ele>236.2</ele>
        <time>2022-06-02T13:48:40Z</time>
      </trkpt>
      <trkpt lat="46.40159" lon="5.24187">
        <ele>236.2</ele>
        <time>2022-06-02T13:48:41Z</time>
      </trkpt>
      <trkpt lat="46.40193" lon="5.24179">
        <ele>235.2</ele>
        <time>2022-06-02T13:48:45Z</time>
      </trkpt>
      <trkpt lat="46.4022" lon="5.24172">
        <ele>234.4</ele>
        <time>2022-06-02T13:48:48Z</time>
      </trkpt>
      <trkpt lat="46.40229" lon="5.2417">
        <ele>234</ele>
        <time>2022-06-02T13:48:49Z</time>
      </trkpt>
      <trkpt lat="46.40288" lon="5.24154">
        <ele>233</ele>
        <time>2022-06-02T13:48:56Z</time>
      </trkpt>
      <trkpt lat="46.4032" lon="5.24146">
        <ele>233</ele>
        <time>2022-06-02T13:49:00Z</time>
      </trkpt>
      <trkpt lat="46.40352" lon="5.24138">
        <ele>232.8</ele>
        <time>2022-06-02T13:49:04Z</time>
      </trkpt>
      <trkpt lat="46.40408" lon="5.24125">
        <ele>232.4</ele>
        <time>2022-06-02T13:49:11Z</time>
      </trkpt>
      <trkpt lat="46.40467" lon="5.24109">
        <ele>232.6</ele>
        <time>2022-06-02T13:49:19Z</time>
      </trkpt>
      <trkpt lat="46.40517" lon="5.24097">
        <ele>233</ele>
        <time>2022-06-02T13:49:26Z</time>
      </trkpt>
      <trkpt lat="46.40531" lon="5.24093">
        <ele>233.2</ele>
        <time>2022-06-02T13:49:28Z</time>
      </trkpt>
      <trkpt lat="46.40544" lon="5.2409">
        <ele>233.4</ele>
        <time>2022-06-02T13:49:30Z</time>
      </trkpt>
      <trkpt lat="46.40588" lon="5.24077">
        <ele>234</ele>
        <time>2022-06-02T13:49:37Z</time>
      </trkpt>
      <trkpt lat="46.40624" lon="5.24068">
        <ele>235</ele>
        <time>2022-06-02T13:49:43Z</time>
      </trkpt>
      <trkpt lat="46.4063" lon="5.24066">
        <ele>235.2</ele>
        <time>2022-06-02T13:49:44Z</time>
      </trkpt>
      <trkpt lat="46.40669" lon="5.24055">
        <ele>236.2</ele>
        <time>2022-06-02T13:49:50Z</time>
      </trkpt>
      <trkpt lat="46.40721" lon="5.2404">
        <ele>236.4</ele>
        <time>2022-06-02T13:49:57Z</time>
      </trkpt>
      <trkpt lat="46.40764" lon="5.24027">
        <ele>235.8</ele>
        <time>2022-06-02T13:50:02Z</time>
      </trkpt>
      <trkpt lat="46.40782" lon="5.24022">
        <ele>235</ele>
        <time>2022-06-02T13:50:04Z</time>
      </trkpt>
      <trkpt lat="46.40817" lon="5.24015">
        <ele>233.8</ele>
        <time>2022-06-02T13:50:08Z</time>
      </trkpt>
      <trkpt lat="46.40825" lon="5.24013">
        <ele>233.6</ele>
        <time>2022-06-02T13:50:09Z</time>
      </trkpt>
      <trkpt lat="46.40862" lon="5.24003">
        <ele>233.2</ele>
        <time>2022-06-02T13:50:14Z</time>
      </trkpt>
      <trkpt lat="46.40884" lon="5.23998">
        <ele>234.2</ele>
        <time>2022-06-02T13:50:18Z</time>
      </trkpt>
      <trkpt lat="46.40894" lon="5.23995">
        <ele>235</ele>
        <time>2022-06-02T13:50:20Z</time>
      </trkpt>
      <trkpt lat="46.40902" lon="5.23995">
        <ele>235.4</ele>
        <time>2022-06-02T13:50:23Z</time>
      </trkpt>
      <trkpt lat="46.40904" lon="5.23994">
        <ele>236</ele>
        <time>2022-06-02T13:50:25Z</time>
      </trkpt>
      <trkpt lat="46.40906" lon="5.23995">
        <ele>236.4</ele>
        <time>2022-06-02T13:50:26Z</time>
      </trkpt>
      <trkpt lat="46.40908" lon="5.23994">
        <ele>237.2</ele>
        <time>2022-06-02T13:50:27Z</time>
      </trkpt>
      <trkpt lat="46.40913" lon="5.23993">
        <ele>237.6</ele>
        <time>2022-06-02T13:50:28Z</time>
      </trkpt>
      <trkpt lat="46.40935" lon="5.23985">
        <ele>238.6</ele>
        <time>2022-06-02T13:50:31Z</time>
      </trkpt>
      <trkpt lat="46.4094" lon="5.23983">
        <ele>239</ele>
        <time>2022-06-02T13:50:32Z</time>
      </trkpt>
      <trkpt lat="46.40964" lon="5.23975">
        <ele>239.8</ele>
        <time>2022-06-02T13:50:36Z</time>
      </trkpt>
      <trkpt lat="46.40975" lon="5.23971">
        <ele>240</ele>
        <time>2022-06-02T13:50:38Z</time>
      </trkpt>
      <trkpt lat="46.41003" lon="5.23966">
        <ele>240.4</ele>
        <time>2022-06-02T13:50:40Z</time>
      </trkpt>
      <trkpt lat="46.41031" lon="5.23959">
        <ele>240.4</ele>
        <time>2022-06-02T13:50:43Z</time>
      </trkpt>
      <trkpt lat="46.41084" lon="5.23945">
        <ele>239.8</ele>
        <time>2022-06-02T13:50:49Z</time>
      </trkpt>
      <trkpt lat="46.41134" lon="5.23933">
        <ele>238.6</ele>
        <time>2022-06-02T13:50:54Z</time>
      </trkpt>
      <trkpt lat="46.41156" lon="5.23926">
        <ele>237.4</ele>
        <time>2022-06-02T13:50:56Z</time>
      </trkpt>
      <trkpt lat="46.41181" lon="5.23919">
        <ele>236.6</ele>
        <time>2022-06-02T13:50:58Z</time>
      </trkpt>
      <trkpt lat="46.41193" lon="5.23917">
        <ele>236</ele>
        <time>2022-06-02T13:50:59Z</time>
      </trkpt>
      <trkpt lat="46.41213" lon="5.23912">
        <ele>235</ele>
        <time>2022-06-02T13:51:01Z</time>
      </trkpt>
      <trkpt lat="46.41236" lon="5.23907">
        <ele>233.8</ele>
        <time>2022-06-02T13:51:03Z</time>
      </trkpt>
      <trkpt lat="46.41259" lon="5.23902">
        <ele>232.4</ele>
        <time>2022-06-02T13:51:05Z</time>
      </trkpt>
      <trkpt lat="46.41283" lon="5.23895">
        <ele>230.6</ele>
        <time>2022-06-02T13:51:07Z</time>
      </trkpt>
      <trkpt lat="46.41306" lon="5.23889">
        <ele>230</ele>
        <time>2022-06-02T13:51:09Z</time>
      </trkpt>
      <trkpt lat="46.41317" lon="5.23886">
        <ele>229.6</ele>
        <time>2022-06-02T13:51:10Z</time>
      </trkpt>
      <trkpt lat="46.41349" lon="5.23878">
        <ele>228.8</ele>
        <time>2022-06-02T13:51:13Z</time>
      </trkpt>
      <trkpt lat="46.4136" lon="5.23876">
        <ele>228.6</ele>
        <time>2022-06-02T13:51:14Z</time>
      </trkpt>
      <trkpt lat="46.4142" lon="5.23859">
        <ele>228.2</ele>
        <time>2022-06-02T13:51:20Z</time>
      </trkpt>
      <trkpt lat="46.41479" lon="5.23843">
        <ele>227.8</ele>
        <time>2022-06-02T13:51:26Z</time>
      </trkpt>
      <trkpt lat="46.41499" lon="5.23838">
        <ele>227.6</ele>
        <time>2022-06-02T13:51:28Z</time>
      </trkpt>
      <trkpt lat="46.41559" lon="5.23824">
        <ele>226.2</ele>
        <time>2022-06-02T13:51:34Z</time>
      </trkpt>
      <trkpt lat="46.4158" lon="5.23818">
        <ele>226</ele>
        <time>2022-06-02T13:51:36Z</time>
      </trkpt>
      <trkpt lat="46.41638" lon="5.23803">
        <ele>225.4</ele>
        <time>2022-06-02T13:51:42Z</time>
      </trkpt>
      <trkpt lat="46.41657" lon="5.23798">
        <ele>225.4</ele>
        <time>2022-06-02T13:51:44Z</time>
      </trkpt>
      <trkpt lat="46.41694" lon="5.23788">
        <ele>225.2</ele>
        <time>2022-06-02T13:51:48Z</time>
      </trkpt>
      <trkpt lat="46.41732" lon="5.23778">
        <ele>225</ele>
        <time>2022-06-02T13:51:52Z</time>
      </trkpt>
      <trkpt lat="46.41788" lon="5.23763">
        <ele>224.6</ele>
        <time>2022-06-02T13:51:58Z</time>
      </trkpt>
      <trkpt lat="46.41833" lon="5.23751">
        <ele>224.6</ele>
        <time>2022-06-02T13:52:03Z</time>
      </trkpt>
      <trkpt lat="46.41889" lon="5.23736">
        <ele>224.8</ele>
        <time>2022-06-02T13:52:09Z</time>
      </trkpt>
      <trkpt lat="46.41898" lon="5.23734">
        <ele>224.6</ele>
        <time>2022-06-02T13:52:10Z</time>
      </trkpt>
      <trkpt lat="46.41957" lon="5.23718">
        <ele>224.8</ele>
        <time>2022-06-02T13:52:17Z</time>
      </trkpt>
      <trkpt lat="46.4201" lon="5.23705">
        <ele>225.4</ele>
        <time>2022-06-02T13:52:24Z</time>
      </trkpt>
      <trkpt lat="46.42053" lon="5.23693">
        <ele>226.2</ele>
        <time>2022-06-02T13:52:30Z</time>
      </trkpt>
      <trkpt lat="46.4206" lon="5.23692">
        <ele>226.4</ele>
        <time>2022-06-02T13:52:31Z</time>
      </trkpt>
      <trkpt lat="46.42115" lon="5.23677">
        <ele>226.6</ele>
        <time>2022-06-02T13:52:39Z</time>
      </trkpt>
      <trkpt lat="46.42158" lon="5.23666">
        <ele>227</ele>
        <time>2022-06-02T13:52:45Z</time>
      </trkpt>
      <trkpt lat="46.42195" lon="5.23657">
        <ele>227</ele>
        <time>2022-06-02T13:52:50Z</time>
      </trkpt>
      <trkpt lat="46.42238" lon="5.23646">
        <ele>226</ele>
        <time>2022-06-02T13:52:55Z</time>
      </trkpt>
      <trkpt lat="46.42267" lon="5.23639">
        <ele>225.2</ele>
        <time>2022-06-02T13:52:58Z</time>
      </trkpt>
      <trkpt lat="46.42296" lon="5.23631">
        <ele>224.2</ele>
        <time>2022-06-02T13:53:01Z</time>
      </trkpt>
      <trkpt lat="46.42306" lon="5.23629">
        <ele>223.8</ele>
        <time>2022-06-02T13:53:02Z</time>
      </trkpt>
      <trkpt lat="46.42364" lon="5.23614">
        <ele>223.2</ele>
        <time>2022-06-02T13:53:09Z</time>
      </trkpt>
      <trkpt lat="46.42402" lon="5.23604">
        <ele>224.4</ele>
        <time>2022-06-02T13:53:14Z</time>
      </trkpt>
      <trkpt lat="46.42448" lon="5.23592">
        <ele>225.4</ele>
        <time>2022-06-02T13:53:20Z</time>
      </trkpt>
      <trkpt lat="46.42456" lon="5.23589">
        <ele>225.6</ele>
        <time>2022-06-02T13:53:21Z</time>
      </trkpt>
      <trkpt lat="46.42513" lon="5.23574">
        <ele>226.4</ele>
        <time>2022-06-02T13:53:28Z</time>
      </trkpt>
      <trkpt lat="46.42522" lon="5.23572">
        <ele>226.4</ele>
        <time>2022-06-02T13:53:29Z</time>
      </trkpt>
      <trkpt lat="46.4253" lon="5.2357">
        <ele>226.4</ele>
        <time>2022-06-02T13:53:30Z</time>
      </trkpt>
      <trkpt lat="46.42586" lon="5.23555">
        <ele>226.8</ele>
        <time>2022-06-02T13:53:37Z</time>
      </trkpt>
      <trkpt lat="46.42594" lon="5.23553">
        <ele>226.8</ele>
        <time>2022-06-02T13:53:38Z</time>
      </trkpt>
      <trkpt lat="46.42623" lon="5.23544">
        <ele>227.4</ele>
        <time>2022-06-02T13:53:42Z</time>
      </trkpt>
      <trkpt lat="46.42659" lon="5.23534">
        <ele>227.6</ele>
        <time>2022-06-02T13:53:47Z</time>
      </trkpt>
      <trkpt lat="46.42709" lon="5.23521">
        <ele>227.4</ele>
        <time>2022-06-02T13:53:53Z</time>
      </trkpt>
      <trkpt lat="46.42747" lon="5.23511">
        <ele>226.2</ele>
        <time>2022-06-02T13:53:57Z</time>
      </trkpt>
      <trkpt lat="46.42777" lon="5.23503">
        <ele>225.4</ele>
        <time>2022-06-02T13:54:00Z</time>
      </trkpt>
      <trkpt lat="46.42787" lon="5.235">
        <ele>225</ele>
        <time>2022-06-02T13:54:01Z</time>
      </trkpt>
      <trkpt lat="46.42819" lon="5.23492">
        <ele>223.2</ele>
        <time>2022-06-02T13:54:04Z</time>
      </trkpt>
      <trkpt lat="46.42851" lon="5.23483">
        <ele>222</ele>
        <time>2022-06-02T13:54:07Z</time>
      </trkpt>
      <trkpt lat="46.42862" lon="5.2348">
        <ele>221.6</ele>
        <time>2022-06-02T13:54:08Z</time>
      </trkpt>
      <trkpt lat="46.42891" lon="5.23472">
        <ele>220.6</ele>
        <time>2022-06-02T13:54:11Z</time>
      </trkpt>
      <trkpt lat="46.4292" lon="5.23464">
        <ele>219.8</ele>
        <time>2022-06-02T13:54:14Z</time>
      </trkpt>
      <trkpt lat="46.42948" lon="5.23457">
        <ele>219.4</ele>
        <time>2022-06-02T13:54:17Z</time>
      </trkpt>
      <trkpt lat="46.42984" lon="5.23447">
        <ele>219.2</ele>
        <time>2022-06-02T13:54:21Z</time>
      </trkpt>
      <trkpt lat="46.43045" lon="5.23431">
        <ele>219.4</ele>
        <time>2022-06-02T13:54:28Z</time>
      </trkpt>
      <trkpt lat="46.43053" lon="5.23429">
        <ele>219.4</ele>
        <time>2022-06-02T13:54:29Z</time>
      </trkpt>
      <trkpt lat="46.43108" lon="5.23415">
        <ele>220.4</ele>
        <time>2022-06-02T13:54:36Z</time>
      </trkpt>
      <trkpt lat="46.43133" lon="5.23408">
        <ele>220.6</ele>
        <time>2022-06-02T13:54:40Z</time>
      </trkpt>
      <trkpt lat="46.43145" lon="5.23406">
        <ele>221</ele>
        <time>2022-06-02T13:54:42Z</time>
      </trkpt>
      <trkpt lat="46.43151" lon="5.23405">
        <ele>221</ele>
        <time>2022-06-02T13:54:43Z</time>
      </trkpt>
      <trkpt lat="46.43163" lon="5.23402">
        <ele>221.6</ele>
        <time>2022-06-02T13:54:45Z</time>
      </trkpt>
      <trkpt lat="46.43191" lon="5.23396">
        <ele>222.4</ele>
        <time>2022-06-02T13:54:50Z</time>
      </trkpt>
      <trkpt lat="46.43211" lon="5.23393">
        <ele>223</ele>
        <time>2022-06-02T13:54:53Z</time>
      </trkpt>
      <trkpt lat="46.43237" lon="5.23391">
        <ele>223.4</ele>
        <time>2022-06-02T13:54:57Z</time>
      </trkpt>
      <trkpt lat="46.43274" lon="5.23389">
        <ele>223.6</ele>
        <time>2022-06-02T13:55:02Z</time>
      </trkpt>
      <trkpt lat="46.4333" lon="5.23385">
        <ele>223.2</ele>
        <time>2022-06-02T13:55:10Z</time>
      </trkpt>
      <trkpt lat="46.43336" lon="5.23384">
        <ele>223.4</ele>
        <time>2022-06-02T13:55:11Z</time>
      </trkpt>
      <trkpt lat="46.43373" lon="5.23382">
        <ele>223.8</ele>
        <time>2022-06-02T13:55:17Z</time>
      </trkpt>
      <trkpt lat="46.43379" lon="5.23381">
        <ele>224</ele>
        <time>2022-06-02T13:55:18Z</time>
      </trkpt>
      <trkpt lat="46.43407" lon="5.2338">
        <ele>225.2</ele>
        <time>2022-06-02T13:55:23Z</time>
      </trkpt>
      <trkpt lat="46.43413" lon="5.23379">
        <ele>225.4</ele>
        <time>2022-06-02T13:55:24Z</time>
      </trkpt>
      <trkpt lat="46.43429" lon="5.23379">
        <ele>226.2</ele>
        <time>2022-06-02T13:55:27Z</time>
      </trkpt>
      <trkpt lat="46.43454" lon="5.23377">
        <ele>227.6</ele>
        <time>2022-06-02T13:55:32Z</time>
      </trkpt>
      <trkpt lat="46.43481" lon="5.23375">
        <ele>228.8</ele>
        <time>2022-06-02T13:55:37Z</time>
      </trkpt>
      <trkpt lat="46.43507" lon="5.23373">
        <ele>229.8</ele>
        <time>2022-06-02T13:55:42Z</time>
      </trkpt>
      <trkpt lat="46.43512" lon="5.23373">
        <ele>230</ele>
        <time>2022-06-02T13:55:43Z</time>
      </trkpt>
      <trkpt lat="46.43544" lon="5.23371">
        <ele>231.2</ele>
        <time>2022-06-02T13:55:49Z</time>
      </trkpt>
      <trkpt lat="46.43555" lon="5.2337">
        <ele>231.6</ele>
        <time>2022-06-02T13:55:51Z</time>
      </trkpt>
      <trkpt lat="46.43596" lon="5.23367">
        <ele>232</ele>
        <time>2022-06-02T13:55:58Z</time>
      </trkpt>
      <trkpt lat="46.43645" lon="5.23363">
        <ele>232</ele>
        <time>2022-06-02T13:56:05Z</time>
      </trkpt>
      <trkpt lat="46.43696" lon="5.2336">
        <ele>231.2</ele>
        <time>2022-06-02T13:56:11Z</time>
      </trkpt>
      <trkpt lat="46.43735" lon="5.23357">
        <ele>230.2</ele>
        <time>2022-06-02T13:56:15Z</time>
      </trkpt>
      <trkpt lat="46.43765" lon="5.23355">
        <ele>229</ele>
        <time>2022-06-02T13:56:18Z</time>
      </trkpt>
      <trkpt lat="46.43798" lon="5.23353">
        <ele>227.6</ele>
        <time>2022-06-02T13:56:21Z</time>
      </trkpt>
      <trkpt lat="46.43832" lon="5.23351">
        <ele>225.6</ele>
        <time>2022-06-02T13:56:24Z</time>
      </trkpt>
      <trkpt lat="46.43843" lon="5.2335">
        <ele>225.2</ele>
        <time>2022-06-02T13:56:25Z</time>
      </trkpt>
      <trkpt lat="46.43855" lon="5.23349">
        <ele>224.4</ele>
        <time>2022-06-02T13:56:26Z</time>
      </trkpt>
      <trkpt lat="46.43877" lon="5.23348">
        <ele>223.4</ele>
        <time>2022-06-02T13:56:28Z</time>
      </trkpt>
      <trkpt lat="46.43908" lon="5.23345">
        <ele>222.4</ele>
        <time>2022-06-02T13:56:31Z</time>
      </trkpt>
      <trkpt lat="46.43948" lon="5.23343">
        <ele>221.8</ele>
        <time>2022-06-02T13:56:35Z</time>
      </trkpt>
      <trkpt lat="46.44003" lon="5.23339">
        <ele>221.8</ele>
        <time>2022-06-02T13:56:41Z</time>
      </trkpt>
      <trkpt lat="46.44013" lon="5.23339">
        <ele>221.8</ele>
        <time>2022-06-02T13:56:42Z</time>
      </trkpt>
      <trkpt lat="46.44065" lon="5.23335">
        <ele>222</ele>
        <time>2022-06-02T13:56:48Z</time>
      </trkpt>
      <trkpt lat="46.44089" lon="5.23332">
        <ele>222.2</ele>
        <time>2022-06-02T13:56:51Z</time>
      </trkpt>
      <trkpt lat="46.44096" lon="5.23331">
        <ele>222.2</ele>
        <time>2022-06-02T13:56:52Z</time>
      </trkpt>
      <trkpt lat="46.44154" lon="5.23329">
        <ele>223</ele>
        <time>2022-06-02T13:56:59Z</time>
      </trkpt>
      <trkpt lat="46.44179" lon="5.23327">
        <ele>223</ele>
        <time>2022-06-02T13:57:02Z</time>
      </trkpt>
      <trkpt lat="46.44239" lon="5.23324">
        <ele>223</ele>
        <time>2022-06-02T13:57:09Z</time>
      </trkpt>
      <trkpt lat="46.44264" lon="5.23322">
        <ele>222.8</ele>
        <time>2022-06-02T13:57:12Z</time>
      </trkpt>
      <trkpt lat="46.44327" lon="5.23318">
        <ele>221.8</ele>
        <time>2022-06-02T13:57:19Z</time>
      </trkpt>
      <trkpt lat="46.44337" lon="5.23317">
        <ele>221.6</ele>
        <time>2022-06-02T13:57:20Z</time>
      </trkpt>
      <trkpt lat="46.44355" lon="5.23316">
        <ele>221.2</ele>
        <time>2022-06-02T13:57:22Z</time>
      </trkpt>
      <trkpt lat="46.44415" lon="5.23312">
        <ele>220.4</ele>
        <time>2022-06-02T13:57:29Z</time>
      </trkpt>
      <trkpt lat="46.44423" lon="5.23312">
        <ele>220.4</ele>
        <time>2022-06-02T13:57:30Z</time>
      </trkpt>
      <trkpt lat="46.44481" lon="5.23308">
        <ele>220.6</ele>
        <time>2022-06-02T13:57:37Z</time>
      </trkpt>
      <trkpt lat="46.44529" lon="5.23306">
        <ele>220.2</ele>
        <time>2022-06-02T13:57:43Z</time>
      </trkpt>
      <trkpt lat="46.44551" lon="5.23305">
        <ele>220.2</ele>
        <time>2022-06-02T13:57:46Z</time>
      </trkpt>
      <trkpt lat="46.4459" lon="5.23302">
        <ele>221.4</ele>
        <time>2022-06-02T13:57:52Z</time>
      </trkpt>
      <trkpt lat="46.44596" lon="5.23302">
        <ele>221.6</ele>
        <time>2022-06-02T13:57:53Z</time>
      </trkpt>
      <trkpt lat="46.44614" lon="5.23302">
        <ele>222.4</ele>
        <time>2022-06-02T13:57:56Z</time>
      </trkpt>
      <trkpt lat="46.44643" lon="5.23303">
        <ele>223.2</ele>
        <time>2022-06-02T13:58:01Z</time>
      </trkpt>
      <trkpt lat="46.44648" lon="5.23305">
        <ele>223.6</ele>
        <time>2022-06-02T13:58:02Z</time>
      </trkpt>
      <trkpt lat="46.44664" lon="5.23312">
        <ele>224.4</ele>
        <time>2022-06-02T13:58:05Z</time>
      </trkpt>
      <trkpt lat="46.44669" lon="5.23312">
        <ele>224.6</ele>
        <time>2022-06-02T13:58:06Z</time>
      </trkpt>
      <trkpt lat="46.44675" lon="5.23311">
        <ele>224.6</ele>
        <time>2022-06-02T13:58:07Z</time>
      </trkpt>
      <trkpt lat="46.4468" lon="5.23308">
        <ele>225</ele>
        <time>2022-06-02T13:58:08Z</time>
      </trkpt>
      <trkpt lat="46.44685" lon="5.23304">
        <ele>225.2</ele>
        <time>2022-06-02T13:58:09Z</time>
      </trkpt>
      <trkpt lat="46.44695" lon="5.23297">
        <ele>225.8</ele>
        <time>2022-06-02T13:58:11Z</time>
      </trkpt>
      <trkpt lat="46.44706" lon="5.23294">
        <ele>226.2</ele>
        <time>2022-06-02T13:58:13Z</time>
      </trkpt>
      <trkpt lat="46.44725" lon="5.23292">
        <ele>227</ele>
        <time>2022-06-02T13:58:17Z</time>
      </trkpt>
      <trkpt lat="46.44738" lon="5.23292">
        <ele>227.8</ele>
        <time>2022-06-02T13:58:20Z</time>
      </trkpt>
      <trkpt lat="46.44742" lon="5.23291">
        <ele>228</ele>
        <time>2022-06-02T13:58:21Z</time>
      </trkpt>
      <trkpt lat="46.44758" lon="5.2329">
        <ele>229.4</ele>
        <time>2022-06-02T13:58:25Z</time>
      </trkpt>
      <trkpt lat="46.4477" lon="5.2329">
        <ele>230.8</ele>
        <time>2022-06-02T13:58:29Z</time>
      </trkpt>
      <trkpt lat="46.44777" lon="5.23291">
        <ele>232</ele>
        <time>2022-06-02T13:58:32Z</time>
      </trkpt>
      <trkpt lat="46.44786" lon="5.23292">
        <ele>232.8</ele>
        <time>2022-06-02T13:58:35Z</time>
      </trkpt>
      <trkpt lat="46.44789" lon="5.23292">
        <ele>233.4</ele>
        <time>2022-06-02T13:58:36Z</time>
      </trkpt>
      <trkpt lat="46.44806" lon="5.2329">
        <ele>234.2</ele>
        <time>2022-06-02T13:58:40Z</time>
      </trkpt>
      <trkpt lat="46.44811" lon="5.23289">
        <ele>234.6</ele>
        <time>2022-06-02T13:58:41Z</time>
      </trkpt>
      <trkpt lat="46.44833" lon="5.23286">
        <ele>235.6</ele>
        <time>2022-06-02T13:58:45Z</time>
      </trkpt>
      <trkpt lat="46.44837" lon="5.23285">
        <ele>236</ele>
        <time>2022-06-02T13:58:46Z</time>
      </trkpt>
      <trkpt lat="46.44866" lon="5.23282">
        <ele>237</ele>
        <time>2022-06-02T13:58:51Z</time>
      </trkpt>
      <trkpt lat="46.44875" lon="5.23283">
        <ele>237.6</ele>
        <time>2022-06-02T13:58:53Z</time>
      </trkpt>
      <trkpt lat="46.44885" lon="5.23285">
        <ele>237.8</ele>
        <time>2022-06-02T13:58:55Z</time>
      </trkpt>
      <trkpt lat="46.44895" lon="5.23284">
        <ele>238.2</ele>
        <time>2022-06-02T13:58:57Z</time>
      </trkpt>
      <trkpt lat="46.44907" lon="5.23283">
        <ele>238.8</ele>
        <time>2022-06-02T13:58:59Z</time>
      </trkpt>
      <trkpt lat="46.44955" lon="5.23269">
        <ele>238.6</ele>
        <time>2022-06-02T13:59:06Z</time>
      </trkpt>
      <trkpt lat="46.44986" lon="5.23257">
        <ele>238.4</ele>
        <time>2022-06-02T13:59:10Z</time>
      </trkpt>
      <trkpt lat="46.45013" lon="5.23248">
        <ele>237.4</ele>
        <time>2022-06-02T13:59:13Z</time>
      </trkpt>
      <trkpt lat="46.45023" lon="5.23248">
        <ele>237.2</ele>
        <time>2022-06-02T13:59:14Z</time>
      </trkpt>
      <trkpt lat="46.45033" lon="5.23249">
        <ele>237.2</ele>
        <time>2022-06-02T13:59:15Z</time>
      </trkpt>
      <trkpt lat="46.45053" lon="5.23257">
        <ele>236</ele>
        <time>2022-06-02T13:59:17Z</time>
      </trkpt>
      <trkpt lat="46.45071" lon="5.23272">
        <ele>235.4</ele>
        <time>2022-06-02T13:59:19Z</time>
      </trkpt>
      <trkpt lat="46.4508" lon="5.23282">
        <ele>234.8</ele>
        <time>2022-06-02T13:59:20Z</time>
      </trkpt>
      <trkpt lat="46.45096" lon="5.23303">
        <ele>233.6</ele>
        <time>2022-06-02T13:59:22Z</time>
      </trkpt>
      <trkpt lat="46.45122" lon="5.23335">
        <ele>232</ele>
        <time>2022-06-02T13:59:25Z</time>
      </trkpt>
      <trkpt lat="46.45149" lon="5.23367">
        <ele>230.2</ele>
        <time>2022-06-02T13:59:28Z</time>
      </trkpt>
      <trkpt lat="46.45168" lon="5.23384">
        <ele>229.2</ele>
        <time>2022-06-02T13:59:30Z</time>
      </trkpt>
      <trkpt lat="46.45179" lon="5.23389">
        <ele>229</ele>
        <time>2022-06-02T13:59:31Z</time>
      </trkpt>
      <trkpt lat="46.4519" lon="5.23391">
        <ele>228.2</ele>
        <time>2022-06-02T13:59:32Z</time>
      </trkpt>
      <trkpt lat="46.45201" lon="5.2339">
        <ele>227.6</ele>
        <time>2022-06-02T13:59:33Z</time>
      </trkpt>
      <trkpt lat="46.45212" lon="5.23385">
        <ele>227.2</ele>
        <time>2022-06-02T13:59:34Z</time>
      </trkpt>
      <trkpt lat="46.45222" lon="5.23377">
        <ele>226.8</ele>
        <time>2022-06-02T13:59:35Z</time>
      </trkpt>
      <trkpt lat="46.45231" lon="5.23368">
        <ele>226.6</ele>
        <time>2022-06-02T13:59:36Z</time>
      </trkpt>
      <trkpt lat="46.4526" lon="5.2334">
        <ele>225.2</ele>
        <time>2022-06-02T13:59:39Z</time>
      </trkpt>
      <trkpt lat="46.45278" lon="5.23321">
        <ele>224.6</ele>
        <time>2022-06-02T13:59:41Z</time>
      </trkpt>
      <trkpt lat="46.45287" lon="5.23312">
        <ele>224</ele>
        <time>2022-06-02T13:59:42Z</time>
      </trkpt>
      <trkpt lat="46.45306" lon="5.23294">
        <ele>223</ele>
        <time>2022-06-02T13:59:44Z</time>
      </trkpt>
      <trkpt lat="46.45315" lon="5.23286">
        <ele>222.8</ele>
        <time>2022-06-02T13:59:45Z</time>
      </trkpt>
      <trkpt lat="46.45336" lon="5.23276">
        <ele>222.4</ele>
        <time>2022-06-02T13:59:47Z</time>
      </trkpt>
      <trkpt lat="46.45357" lon="5.23275">
        <ele>222</ele>
        <time>2022-06-02T13:59:49Z</time>
      </trkpt>
      <trkpt lat="46.45368" lon="5.23276">
        <ele>221.8</ele>
        <time>2022-06-02T13:59:50Z</time>
      </trkpt>
      <trkpt lat="46.45428" lon="5.23288">
        <ele>221.2</ele>
        <time>2022-06-02T13:59:56Z</time>
      </trkpt>
      <trkpt lat="46.45438" lon="5.23289">
        <ele>221.2</ele>
        <time>2022-06-02T13:59:57Z</time>
      </trkpt>
      <trkpt lat="46.45448" lon="5.23291">
        <ele>220.8</ele>
        <time>2022-06-02T13:59:58Z</time>
      </trkpt>
      <trkpt lat="46.45498" lon="5.23303">
        <ele>220.6</ele>
        <time>2022-06-02T14:00:03Z</time>
      </trkpt>
      <trkpt lat="46.45555" lon="5.23315">
        <ele>220.4</ele>
        <time>2022-06-02T14:00:09Z</time>
      </trkpt>
      <trkpt lat="46.45564" lon="5.23317">
        <ele>220.4</ele>
        <time>2022-06-02T14:00:10Z</time>
      </trkpt>
      <trkpt lat="46.45617" lon="5.2333">
        <ele>220.8</ele>
        <time>2022-06-02T14:00:16Z</time>
      </trkpt>
      <trkpt lat="46.45674" lon="5.23346">
        <ele>221.2</ele>
        <time>2022-06-02T14:00:23Z</time>
      </trkpt>
      <trkpt lat="46.45682" lon="5.23348">
        <ele>221.2</ele>
        <time>2022-06-02T14:00:24Z</time>
      </trkpt>
      <trkpt lat="46.45741" lon="5.23361">
        <ele>221.4</ele>
        <time>2022-06-02T14:00:31Z</time>
      </trkpt>
      <trkpt lat="46.45759" lon="5.23365">
        <ele>221.2</ele>
        <time>2022-06-02T14:00:33Z</time>
      </trkpt>
      <trkpt lat="46.45815" lon="5.23378">
        <ele>220</ele>
        <time>2022-06-02T14:00:39Z</time>
      </trkpt>
      <trkpt lat="46.45824" lon="5.2338">
        <ele>219.8</ele>
        <time>2022-06-02T14:00:40Z</time>
      </trkpt>
      <trkpt lat="46.4586" lon="5.23389">
        <ele>218.6</ele>
        <time>2022-06-02T14:00:44Z</time>
      </trkpt>
      <trkpt lat="46.45885" lon="5.23397">
        <ele>218.2</ele>
        <time>2022-06-02T14:00:47Z</time>
      </trkpt>
      <trkpt lat="46.45918" lon="5.23412">
        <ele>217.6</ele>
        <time>2022-06-02T14:00:51Z</time>
      </trkpt>
      <trkpt lat="46.45926" lon="5.23417">
        <ele>217.4</ele>
        <time>2022-06-02T14:00:52Z</time>
      </trkpt>
      <trkpt lat="46.45968" lon="5.23451">
        <ele>217.6</ele>
        <time>2022-06-02T14:00:58Z</time>
      </trkpt>
      <trkpt lat="46.46011" lon="5.23487">
        <ele>218.6</ele>
        <time>2022-06-02T14:01:05Z</time>
      </trkpt>
      <trkpt lat="46.46016" lon="5.23492">
        <ele>218.6</ele>
        <time>2022-06-02T14:01:06Z</time>
      </trkpt>
      <trkpt lat="46.46038" lon="5.23511">
        <ele>219.2</ele>
        <time>2022-06-02T14:01:10Z</time>
      </trkpt>
      <trkpt lat="46.46055" lon="5.23532">
        <ele>219.8</ele>
        <time>2022-06-02T14:01:14Z</time>
      </trkpt>
      <trkpt lat="46.46059" lon="5.23536">
        <ele>219.8</ele>
        <time>2022-06-02T14:01:15Z</time>
      </trkpt>
      <trkpt lat="46.46086" lon="5.2356">
        <ele>220.8</ele>
        <time>2022-06-02T14:01:20Z</time>
      </trkpt>
      <trkpt lat="46.46091" lon="5.23565">
        <ele>220.8</ele>
        <time>2022-06-02T14:01:21Z</time>
      </trkpt>
      <trkpt lat="46.46128" lon="5.23592">
        <ele>221.6</ele>
        <time>2022-06-02T14:01:27Z</time>
      </trkpt>
      <trkpt lat="46.46142" lon="5.23602">
        <ele>222</ele>
        <time>2022-06-02T14:01:29Z</time>
      </trkpt>
      <trkpt lat="46.46189" lon="5.23636">
        <ele>222.2</ele>
        <time>2022-06-02T14:01:36Z</time>
      </trkpt>
      <trkpt lat="46.46241" lon="5.23671">
        <ele>221.8</ele>
        <time>2022-06-02T14:01:43Z</time>
      </trkpt>
      <trkpt lat="46.46248" lon="5.23677">
        <ele>221.8</ele>
        <time>2022-06-02T14:01:44Z</time>
      </trkpt>
      <trkpt lat="46.46298" lon="5.23709">
        <ele>221.4</ele>
        <time>2022-06-02T14:01:50Z</time>
      </trkpt>
      <trkpt lat="46.46314" lon="5.23721">
        <ele>220.8</ele>
        <time>2022-06-02T14:01:52Z</time>
      </trkpt>
      <trkpt lat="46.46322" lon="5.23728">
        <ele>220.8</ele>
        <time>2022-06-02T14:01:53Z</time>
      </trkpt>
      <trkpt lat="46.46366" lon="5.2377">
        <ele>219.6</ele>
        <time>2022-06-02T14:01:59Z</time>
      </trkpt>
      <trkpt lat="46.46373" lon="5.23777">
        <ele>219.4</ele>
        <time>2022-06-02T14:02:00Z</time>
      </trkpt>
      <trkpt lat="46.46415" lon="5.23828">
        <ele>219</ele>
        <time>2022-06-02T14:02:07Z</time>
      </trkpt>
      <trkpt lat="46.46454" lon="5.23877">
        <ele>219.4</ele>
        <time>2022-06-02T14:02:14Z</time>
      </trkpt>
      <trkpt lat="46.46485" lon="5.23919">
        <ele>219.8</ele>
        <time>2022-06-02T14:02:20Z</time>
      </trkpt>
      <trkpt lat="46.4652" lon="5.23965">
        <ele>220.6</ele>
        <time>2022-06-02T14:02:27Z</time>
      </trkpt>
      <trkpt lat="46.46551" lon="5.24006">
        <ele>221.6</ele>
        <time>2022-06-02T14:02:33Z</time>
      </trkpt>
      <trkpt lat="46.46576" lon="5.24041">
        <ele>222</ele>
        <time>2022-06-02T14:02:38Z</time>
      </trkpt>
      <trkpt lat="46.46619" lon="5.24101">
        <ele>222</ele>
        <time>2022-06-02T14:02:46Z</time>
      </trkpt>
      <trkpt lat="46.46635" lon="5.24124">
        <ele>222</ele>
        <time>2022-06-02T14:02:49Z</time>
      </trkpt>
      <trkpt lat="46.46679" lon="5.24186">
        <ele>221.8</ele>
        <time>2022-06-02T14:02:57Z</time>
      </trkpt>
      <trkpt lat="46.4669" lon="5.24202">
        <ele>221.8</ele>
        <time>2022-06-02T14:02:59Z</time>
      </trkpt>
      <trkpt lat="46.46733" lon="5.24263">
        <ele>222.2</ele>
        <time>2022-06-02T14:03:07Z</time>
      </trkpt>
      <trkpt lat="46.46738" lon="5.24271">
        <ele>222.2</ele>
        <time>2022-06-02T14:03:08Z</time>
      </trkpt>
      <trkpt lat="46.46778" lon="5.24326">
        <ele>222.2</ele>
        <time>2022-06-02T14:03:15Z</time>
      </trkpt>
      <trkpt lat="46.468" lon="5.24358">
        <ele>222.2</ele>
        <time>2022-06-02T14:03:19Z</time>
      </trkpt>
      <trkpt lat="46.4684" lon="5.24415">
        <ele>222.2</ele>
        <time>2022-06-02T14:03:26Z</time>
      </trkpt>
      <trkpt lat="46.46863" lon="5.24448">
        <ele>222.2</ele>
        <time>2022-06-02T14:03:30Z</time>
      </trkpt>
      <trkpt lat="46.46903" lon="5.24495">
        <ele>222</ele>
        <time>2022-06-02T14:03:36Z</time>
      </trkpt>
      <trkpt lat="46.46956" lon="5.24532">
        <ele>220.8</ele>
        <time>2022-06-02T14:03:42Z</time>
      </trkpt>
      <trkpt lat="46.47005" lon="5.24565">
        <ele>220.2</ele>
        <time>2022-06-02T14:03:48Z</time>
      </trkpt>
      <trkpt lat="46.47012" lon="5.2457">
        <ele>220.2</ele>
        <time>2022-06-02T14:03:49Z</time>
      </trkpt>
      <trkpt lat="46.47049" lon="5.24595">
        <ele>221.2</ele>
        <time>2022-06-02T14:03:55Z</time>
      </trkpt>
      <trkpt lat="46.47065" lon="5.24606">
        <ele>222</ele>
        <time>2022-06-02T14:03:58Z</time>
      </trkpt>
      <trkpt lat="46.47081" lon="5.24615">
        <ele>222.8</ele>
        <time>2022-06-02T14:04:01Z</time>
      </trkpt>
      <trkpt lat="46.47091" lon="5.24621">
        <ele>223.4</ele>
        <time>2022-06-02T14:04:03Z</time>
      </trkpt>
      <trkpt lat="46.47105" lon="5.2463">
        <ele>224.4</ele>
        <time>2022-06-02T14:04:06Z</time>
      </trkpt>
      <trkpt lat="46.47115" lon="5.24636">
        <ele>225</ele>
        <time>2022-06-02T14:04:08Z</time>
      </trkpt>
      <trkpt lat="46.47119" lon="5.24638">
        <ele>225.6</ele>
        <time>2022-06-02T14:04:09Z</time>
      </trkpt>
      <trkpt lat="46.47143" lon="5.24649">
        <ele>226.8</ele>
        <time>2022-06-02T14:04:14Z</time>
      </trkpt>
      <trkpt lat="46.47157" lon="5.24655">
        <ele>227.4</ele>
        <time>2022-06-02T14:04:17Z</time>
      </trkpt>
      <trkpt lat="46.47168" lon="5.24658">
        <ele>228</ele>
        <time>2022-06-02T14:04:19Z</time>
      </trkpt>
      <trkpt lat="46.47194" lon="5.24662">
        <ele>229.2</ele>
        <time>2022-06-02T14:04:24Z</time>
      </trkpt>
      <trkpt lat="46.47199" lon="5.24663">
        <ele>229.4</ele>
        <time>2022-06-02T14:04:25Z</time>
      </trkpt>
      <trkpt lat="46.47224" lon="5.24665">
        <ele>230.4</ele>
        <time>2022-06-02T14:04:30Z</time>
      </trkpt>
      <trkpt lat="46.47239" lon="5.24664">
        <ele>230.8</ele>
        <time>2022-06-02T14:04:33Z</time>
      </trkpt>
      <trkpt lat="46.47261" lon="5.24663">
        <ele>231.4</ele>
        <time>2022-06-02T14:04:37Z</time>
      </trkpt>
      <trkpt lat="46.47286" lon="5.2466">
        <ele>232</ele>
        <time>2022-06-02T14:04:42Z</time>
      </trkpt>
      <trkpt lat="46.47302" lon="5.24659">
        <ele>232.4</ele>
        <time>2022-06-02T14:04:45Z</time>
      </trkpt>
      <trkpt lat="46.47338" lon="5.24655">
        <ele>233.4</ele>
        <time>2022-06-02T14:04:52Z</time>
      </trkpt>
      <trkpt lat="46.47343" lon="5.24655">
        <ele>233.6</ele>
        <time>2022-06-02T14:04:53Z</time>
      </trkpt>
      <trkpt lat="46.47376" lon="5.24652">
        <ele>234.6</ele>
        <time>2022-06-02T14:04:59Z</time>
      </trkpt>
      <trkpt lat="46.47411" lon="5.24649">
        <ele>235</ele>
        <time>2022-06-02T14:05:05Z</time>
      </trkpt>
      <trkpt lat="46.47442" lon="5.24646">
        <ele>235.6</ele>
        <time>2022-06-02T14:05:10Z</time>
      </trkpt>
      <trkpt lat="46.47467" lon="5.24643">
        <ele>236.2</ele>
        <time>2022-06-02T14:05:14Z</time>
      </trkpt>
      <trkpt lat="46.47486" lon="5.24641">
        <ele>236.8</ele>
        <time>2022-06-02T14:05:17Z</time>
      </trkpt>
      <trkpt lat="46.47517" lon="5.24629">
        <ele>237.2</ele>
        <time>2022-06-02T14:05:22Z</time>
      </trkpt>
      <trkpt lat="46.47567" lon="5.24601">
        <ele>237.2</ele>
        <time>2022-06-02T14:05:30Z</time>
      </trkpt>
      <trkpt lat="46.4761" lon="5.24576">
        <ele>237.8</ele>
        <time>2022-06-02T14:05:37Z</time>
      </trkpt>
      <trkpt lat="46.47616" lon="5.24573">
        <ele>238</ele>
        <time>2022-06-02T14:05:38Z</time>
      </trkpt>
      <trkpt lat="46.4766" lon="5.24549">
        <ele>238.4</ele>
        <time>2022-06-02T14:05:45Z</time>
      </trkpt>
      <trkpt lat="46.47708" lon="5.24526">
        <ele>238.4</ele>
        <time>2022-06-02T14:05:52Z</time>
      </trkpt>
      <trkpt lat="46.47762" lon="5.24508">
        <ele>238.4</ele>
        <time>2022-06-02T14:05:59Z</time>
      </trkpt>
      <trkpt lat="46.47769" lon="5.24507">
        <ele>238.4</ele>
        <time>2022-06-02T14:06:00Z</time>
      </trkpt>
      <trkpt lat="46.47819" lon="5.24502">
        <ele>238.4</ele>
        <time>2022-06-02T14:06:07Z</time>
      </trkpt>
      <trkpt lat="46.47839" lon="5.24502">
        <ele>239</ele>
        <time>2022-06-02T14:06:10Z</time>
      </trkpt>
      <trkpt lat="46.47872" lon="5.24502">
        <ele>239.6</ele>
        <time>2022-06-02T14:06:15Z</time>
      </trkpt>
      <trkpt lat="46.4791" lon="5.24503">
        <ele>240</ele>
        <time>2022-06-02T14:06:21Z</time>
      </trkpt>
      <trkpt lat="46.47917" lon="5.24502">
        <ele>240.2</ele>
        <time>2022-06-02T14:06:22Z</time>
      </trkpt>
      <trkpt lat="46.47945" lon="5.24489">
        <ele>240.4</ele>
        <time>2022-06-02T14:06:26Z</time>
      </trkpt>
      <trkpt lat="46.47986" lon="5.24459">
        <ele>240.2</ele>
        <time>2022-06-02T14:06:32Z</time>
      </trkpt>
      <trkpt lat="46.47993" lon="5.24454">
        <ele>240.2</ele>
        <time>2022-06-02T14:06:33Z</time>
      </trkpt>
      <trkpt lat="46.48022" lon="5.24436">
        <ele>239.8</ele>
        <time>2022-06-02T14:06:37Z</time>
      </trkpt>
      <trkpt lat="46.48056" lon="5.24411">
        <ele>239.8</ele>
        <time>2022-06-02T14:06:42Z</time>
      </trkpt>
      <trkpt lat="46.48069" lon="5.24399">
        <ele>239.8</ele>
        <time>2022-06-02T14:06:44Z</time>
      </trkpt>
      <trkpt lat="46.48103" lon="5.24368">
        <ele>239.6</ele>
        <time>2022-06-02T14:06:49Z</time>
      </trkpt>
      <trkpt lat="46.48109" lon="5.24361">
        <ele>239.6</ele>
        <time>2022-06-02T14:06:50Z</time>
      </trkpt>
      <trkpt lat="46.48151" lon="5.24311">
        <ele>239.2</ele>
        <time>2022-06-02T14:06:57Z</time>
      </trkpt>
      <trkpt lat="46.48189" lon="5.24263">
        <ele>239.6</ele>
        <time>2022-06-02T14:07:04Z</time>
      </trkpt>
      <trkpt lat="46.48203" lon="5.24256">
        <ele>239.8</ele>
        <time>2022-06-02T14:07:06Z</time>
      </trkpt>
      <trkpt lat="46.4821" lon="5.24255">
        <ele>240</ele>
        <time>2022-06-02T14:07:07Z</time>
      </trkpt>
      <trkpt lat="46.48225" lon="5.24256">
        <ele>240.4</ele>
        <time>2022-06-02T14:07:09Z</time>
      </trkpt>
      <trkpt lat="46.48239" lon="5.2426">
        <ele>240.8</ele>
        <time>2022-06-02T14:07:11Z</time>
      </trkpt>
      <trkpt lat="46.48291" lon="5.24274">
        <ele>240.8</ele>
        <time>2022-06-02T14:07:18Z</time>
      </trkpt>
      <trkpt lat="46.48306" lon="5.24282">
        <ele>240.6</ele>
        <time>2022-06-02T14:07:20Z</time>
      </trkpt>
      <trkpt lat="46.48313" lon="5.24289">
        <ele>240.4</ele>
        <time>2022-06-02T14:07:21Z</time>
      </trkpt>
      <trkpt lat="46.48318" lon="5.24296">
        <ele>240.2</ele>
        <time>2022-06-02T14:07:22Z</time>
      </trkpt>
      <trkpt lat="46.48336" lon="5.2432">
        <ele>239.8</ele>
        <time>2022-06-02T14:07:25Z</time>
      </trkpt>
      <trkpt lat="46.4835" lon="5.24333">
        <ele>239.8</ele>
        <time>2022-06-02T14:07:27Z</time>
      </trkpt>
      <trkpt lat="46.48367" lon="5.24343">
        <ele>239.6</ele>
        <time>2022-06-02T14:07:29Z</time>
      </trkpt>
      <trkpt lat="46.48404" lon="5.24359">
        <ele>239</ele>
        <time>2022-06-02T14:07:33Z</time>
      </trkpt>
      <trkpt lat="46.48414" lon="5.24366">
        <ele>238.6</ele>
        <time>2022-06-02T14:07:34Z</time>
      </trkpt>
      <trkpt lat="46.48423" lon="5.24373">
        <ele>238.2</ele>
        <time>2022-06-02T14:07:35Z</time>
      </trkpt>
      <trkpt lat="46.48439" lon="5.24391">
        <ele>237.6</ele>
        <time>2022-06-02T14:07:37Z</time>
      </trkpt>
      <trkpt lat="46.48447" lon="5.24399">
        <ele>237.2</ele>
        <time>2022-06-02T14:07:38Z</time>
      </trkpt>
      <trkpt lat="46.4847" lon="5.24425">
        <ele>236.4</ele>
        <time>2022-06-02T14:07:41Z</time>
      </trkpt>
      <trkpt lat="46.48497" lon="5.24459">
        <ele>236.2</ele>
        <time>2022-06-02T14:07:45Z</time>
      </trkpt>
      <trkpt lat="46.4854" lon="5.24512">
        <ele>236.6</ele>
        <time>2022-06-02T14:07:52Z</time>
      </trkpt>
      <trkpt lat="46.48576" lon="5.24552">
        <ele>237.6</ele>
        <time>2022-06-02T14:07:58Z</time>
      </trkpt>
      <trkpt lat="46.48582" lon="5.24557">
        <ele>237.8</ele>
        <time>2022-06-02T14:07:59Z</time>
      </trkpt>
      <trkpt lat="46.48629" lon="5.24589">
        <ele>238.6</ele>
        <time>2022-06-02T14:08:06Z</time>
      </trkpt>
      <trkpt lat="46.48676" lon="5.24613">
        <ele>238.4</ele>
        <time>2022-06-02T14:08:12Z</time>
      </trkpt>
      <trkpt lat="46.48731" lon="5.24637">
        <ele>238</ele>
        <time>2022-06-02T14:08:19Z</time>
      </trkpt>
      <trkpt lat="46.48754" lon="5.24637">
        <ele>238</ele>
        <time>2022-06-02T14:08:22Z</time>
      </trkpt>
      <trkpt lat="46.48761" lon="5.24635">
        <ele>238</ele>
        <time>2022-06-02T14:08:23Z</time>
      </trkpt>
      <trkpt lat="46.48797" lon="5.24616">
        <ele>238.8</ele>
        <time>2022-06-02T14:08:28Z</time>
      </trkpt>
      <trkpt lat="46.48847" lon="5.2458">
        <ele>239</ele>
        <time>2022-06-02T14:08:35Z</time>
      </trkpt>
      <trkpt lat="46.48855" lon="5.24574">
        <ele>239</ele>
        <time>2022-06-02T14:08:36Z</time>
      </trkpt>
      <trkpt lat="46.48911" lon="5.24535">
        <ele>238.2</ele>
        <time>2022-06-02T14:08:43Z</time>
      </trkpt>
      <trkpt lat="46.48937" lon="5.24517">
        <ele>237.6</ele>
        <time>2022-06-02T14:08:46Z</time>
      </trkpt>
      <trkpt lat="46.48972" lon="5.24495">
        <ele>236.8</ele>
        <time>2022-06-02T14:08:50Z</time>
      </trkpt>
      <trkpt lat="46.48981" lon="5.24488">
        <ele>236.4</ele>
        <time>2022-06-02T14:08:51Z</time>
      </trkpt>
      <trkpt lat="46.49035" lon="5.24451">
        <ele>235.4</ele>
        <time>2022-06-02T14:08:57Z</time>
      </trkpt>
      <trkpt lat="46.49044" lon="5.24445">
        <ele>235.2</ele>
        <time>2022-06-02T14:08:58Z</time>
      </trkpt>
      <trkpt lat="46.49053" lon="5.24439">
        <ele>234.8</ele>
        <time>2022-06-02T14:08:59Z</time>
      </trkpt>
      <trkpt lat="46.49105" lon="5.24404">
        <ele>234.4</ele>
        <time>2022-06-02T14:09:05Z</time>
      </trkpt>
      <trkpt lat="46.49122" lon="5.24392">
        <ele>234.2</ele>
        <time>2022-06-02T14:09:07Z</time>
      </trkpt>
      <trkpt lat="46.49164" lon="5.24364">
        <ele>234</ele>
        <time>2022-06-02T14:09:12Z</time>
      </trkpt>
      <trkpt lat="46.49189" lon="5.24348">
        <ele>234</ele>
        <time>2022-06-02T14:09:15Z</time>
      </trkpt>
      <trkpt lat="46.49239" lon="5.24315">
        <ele>234.4</ele>
        <time>2022-06-02T14:09:21Z</time>
      </trkpt>
      <trkpt lat="46.49273" lon="5.24293">
        <ele>234.4</ele>
        <time>2022-06-02T14:09:25Z</time>
      </trkpt>
      <trkpt lat="46.49322" lon="5.24258">
        <ele>234.2</ele>
        <time>2022-06-02T14:09:31Z</time>
      </trkpt>
      <trkpt lat="46.49347" lon="5.24242">
        <ele>234.2</ele>
        <time>2022-06-02T14:09:34Z</time>
      </trkpt>
      <trkpt lat="46.49403" lon="5.24203">
        <ele>233.6</ele>
        <time>2022-06-02T14:09:41Z</time>
      </trkpt>
      <trkpt lat="46.49419" lon="5.24192">
        <ele>233.2</ele>
        <time>2022-06-02T14:09:43Z</time>
      </trkpt>
      <trkpt lat="46.49444" lon="5.24176">
        <ele>233</ele>
        <time>2022-06-02T14:09:46Z</time>
      </trkpt>
      <trkpt lat="46.49495" lon="5.24142">
        <ele>232.6</ele>
        <time>2022-06-02T14:09:52Z</time>
      </trkpt>
      <trkpt lat="46.49504" lon="5.24137">
        <ele>232.6</ele>
        <time>2022-06-02T14:09:53Z</time>
      </trkpt>
      <trkpt lat="46.49522" lon="5.24127">
        <ele>232.2</ele>
        <time>2022-06-02T14:09:55Z</time>
      </trkpt>
      <trkpt lat="46.49559" lon="5.24111">
        <ele>230.8</ele>
        <time>2022-06-02T14:09:59Z</time>
      </trkpt>
      <trkpt lat="46.49597" lon="5.24105">
        <ele>229.6</ele>
        <time>2022-06-02T14:10:03Z</time>
      </trkpt>
      <trkpt lat="46.49607" lon="5.24104">
        <ele>229</ele>
        <time>2022-06-02T14:10:04Z</time>
      </trkpt>
      <trkpt lat="46.49628" lon="5.24106">
        <ele>228.4</ele>
        <time>2022-06-02T14:10:06Z</time>
      </trkpt>
      <trkpt lat="46.49658" lon="5.24114">
        <ele>227.8</ele>
        <time>2022-06-02T14:10:09Z</time>
      </trkpt>
      <trkpt lat="46.49677" lon="5.24123">
        <ele>227</ele>
        <time>2022-06-02T14:10:11Z</time>
      </trkpt>
      <trkpt lat="46.49707" lon="5.24138">
        <ele>226</ele>
        <time>2022-06-02T14:10:14Z</time>
      </trkpt>
      <trkpt lat="46.49717" lon="5.24144">
        <ele>225.6</ele>
        <time>2022-06-02T14:10:15Z</time>
      </trkpt>
      <trkpt lat="46.49747" lon="5.24162">
        <ele>224.6</ele>
        <time>2022-06-02T14:10:18Z</time>
      </trkpt>
      <trkpt lat="46.49788" lon="5.24186">
        <ele>223.2</ele>
        <time>2022-06-02T14:10:22Z</time>
      </trkpt>
      <trkpt lat="46.49808" lon="5.24198">
        <ele>222</ele>
        <time>2022-06-02T14:10:24Z</time>
      </trkpt>
      <trkpt lat="46.49819" lon="5.24204">
        <ele>221.4</ele>
        <time>2022-06-02T14:10:25Z</time>
      </trkpt>
      <trkpt lat="46.4984" lon="5.24216">
        <ele>220.8</ele>
        <time>2022-06-02T14:10:27Z</time>
      </trkpt>
      <trkpt lat="46.49892" lon="5.24245">
        <ele>219.4</ele>
        <time>2022-06-02T14:10:32Z</time>
      </trkpt>
      <trkpt lat="46.49934" lon="5.24269">
        <ele>218.2</ele>
        <time>2022-06-02T14:10:36Z</time>
      </trkpt>
      <trkpt lat="46.49944" lon="5.24275">
        <ele>218</ele>
        <time>2022-06-02T14:10:37Z</time>
      </trkpt>
      <trkpt lat="46.49973" lon="5.24292">
        <ele>217</ele>
        <time>2022-06-02T14:10:40Z</time>
      </trkpt>
      <trkpt lat="46.5001" lon="5.24313">
        <ele>216.8</ele>
        <time>2022-06-02T14:10:44Z</time>
      </trkpt>
      <trkpt lat="46.50061" lon="5.24342">
        <ele>216.8</ele>
        <time>2022-06-02T14:10:50Z</time>
      </trkpt>
      <trkpt lat="46.50069" lon="5.24346">
        <ele>216.8</ele>
        <time>2022-06-02T14:10:51Z</time>
      </trkpt>
      <trkpt lat="46.50123" lon="5.24378">
        <ele>216.8</ele>
        <time>2022-06-02T14:10:58Z</time>
      </trkpt>
      <trkpt lat="46.50178" lon="5.24412">
        <ele>216.6</ele>
        <time>2022-06-02T14:11:05Z</time>
      </trkpt>
      <trkpt lat="46.50185" lon="5.24417">
        <ele>216.4</ele>
        <time>2022-06-02T14:11:06Z</time>
      </trkpt>
      <trkpt lat="46.5024" lon="5.24457">
        <ele>216.4</ele>
        <time>2022-06-02T14:11:14Z</time>
      </trkpt>
      <trkpt lat="46.50265" lon="5.24476">
        <ele>217</ele>
        <time>2022-06-02T14:11:18Z</time>
      </trkpt>
      <trkpt lat="46.5029" lon="5.24494">
        <ele>217.6</ele>
        <time>2022-06-02T14:11:22Z</time>
      </trkpt>
      <trkpt lat="46.5032" lon="5.24516">
        <ele>218.2</ele>
        <time>2022-06-02T14:11:27Z</time>
      </trkpt>
      <trkpt lat="46.50351" lon="5.24539">
        <ele>218.6</ele>
        <time>2022-06-02T14:11:32Z</time>
      </trkpt>
      <trkpt lat="46.504" lon="5.24575">
        <ele>219</ele>
        <time>2022-06-02T14:11:40Z</time>
      </trkpt>
      <trkpt lat="46.50419" lon="5.24587">
        <ele>219.2</ele>
        <time>2022-06-02T14:11:43Z</time>
      </trkpt>
      <trkpt lat="46.50457" lon="5.24607">
        <ele>219.4</ele>
        <time>2022-06-02T14:11:49Z</time>
      </trkpt>
      <trkpt lat="46.5047" lon="5.24611">
        <ele>219.6</ele>
        <time>2022-06-02T14:11:51Z</time>
      </trkpt>
      <trkpt lat="46.50517" lon="5.24615">
        <ele>220.4</ele>
        <time>2022-06-02T14:11:58Z</time>
      </trkpt>
      <trkpt lat="46.50573" lon="5.24608">
        <ele>221.4</ele>
        <time>2022-06-02T14:12:06Z</time>
      </trkpt>
      <trkpt lat="46.50581" lon="5.24607">
        <ele>221.6</ele>
        <time>2022-06-02T14:12:07Z</time>
      </trkpt>
      <trkpt lat="46.50588" lon="5.24606">
        <ele>221.6</ele>
        <time>2022-06-02T14:12:08Z</time>
      </trkpt>
      <trkpt lat="46.50643" lon="5.24599">
        <ele>221.2</ele>
        <time>2022-06-02T14:12:15Z</time>
      </trkpt>
      <trkpt lat="46.50651" lon="5.24598">
        <ele>221</ele>
        <time>2022-06-02T14:12:16Z</time>
      </trkpt>
      <trkpt lat="46.50712" lon="5.24588">
        <ele>220.4</ele>
        <time>2022-06-02T14:12:23Z</time>
      </trkpt>
      <trkpt lat="46.50767" lon="5.2457">
        <ele>219.4</ele>
        <time>2022-06-02T14:12:29Z</time>
      </trkpt>
      <trkpt lat="46.50776" lon="5.24566">
        <ele>219.2</ele>
        <time>2022-06-02T14:12:30Z</time>
      </trkpt>
      <trkpt lat="46.50822" lon="5.24548">
        <ele>218.2</ele>
        <time>2022-06-02T14:12:35Z</time>
      </trkpt>
      <trkpt lat="46.50868" lon="5.24529">
        <ele>217.4</ele>
        <time>2022-06-02T14:12:40Z</time>
      </trkpt>
      <trkpt lat="46.50895" lon="5.24519">
        <ele>217</ele>
        <time>2022-06-02T14:12:43Z</time>
      </trkpt>
      <trkpt lat="46.50949" lon="5.24497">
        <ele>216.2</ele>
        <time>2022-06-02T14:12:49Z</time>
      </trkpt>
      <trkpt lat="46.50958" lon="5.24493">
        <ele>216.2</ele>
        <time>2022-06-02T14:12:50Z</time>
      </trkpt>
      <trkpt lat="46.50984" lon="5.24484">
        <ele>215.8</ele>
        <time>2022-06-02T14:12:53Z</time>
      </trkpt>
      <trkpt lat="46.51036" lon="5.24464">
        <ele>215.4</ele>
        <time>2022-06-02T14:12:59Z</time>
      </trkpt>
      <trkpt lat="46.51094" lon="5.24441">
        <ele>215.2</ele>
        <time>2022-06-02T14:13:06Z</time>
      </trkpt>
      <trkpt lat="46.51102" lon="5.24438">
        <ele>215.2</ele>
        <time>2022-06-02T14:13:07Z</time>
      </trkpt>
      <trkpt lat="46.51142" lon="5.24422">
        <ele>214.8</ele>
        <time>2022-06-02T14:13:12Z</time>
      </trkpt>
      <trkpt lat="46.51175" lon="5.2441">
        <ele>214.6</ele>
        <time>2022-06-02T14:13:16Z</time>
      </trkpt>
      <trkpt lat="46.5123" lon="5.24388">
        <ele>214.2</ele>
        <time>2022-06-02T14:13:23Z</time>
      </trkpt>
      <trkpt lat="46.51245" lon="5.24382">
        <ele>214.4</ele>
        <time>2022-06-02T14:13:25Z</time>
      </trkpt>
      <trkpt lat="46.51302" lon="5.2436">
        <ele>215.2</ele>
        <time>2022-06-02T14:13:33Z</time>
      </trkpt>
      <trkpt lat="46.51309" lon="5.24357">
        <ele>215.2</ele>
        <time>2022-06-02T14:13:34Z</time>
      </trkpt>
      <trkpt lat="46.51353" lon="5.2434">
        <ele>216.2</ele>
        <time>2022-06-02T14:13:41Z</time>
      </trkpt>
      <trkpt lat="46.51389" lon="5.24325">
        <ele>217.2</ele>
        <time>2022-06-02T14:13:47Z</time>
      </trkpt>
      <trkpt lat="46.51395" lon="5.24323">
        <ele>217.4</ele>
        <time>2022-06-02T14:13:48Z</time>
      </trkpt>
      <trkpt lat="46.51434" lon="5.24308">
        <ele>218.2</ele>
        <time>2022-06-02T14:13:55Z</time>
      </trkpt>
      <trkpt lat="46.51445" lon="5.24305">
        <ele>218.4</ele>
        <time>2022-06-02T14:13:57Z</time>
      </trkpt>
      <trkpt lat="46.51468" lon="5.24297">
        <ele>219.4</ele>
        <time>2022-06-02T14:14:01Z</time>
      </trkpt>
      <trkpt lat="46.51495" lon="5.24286">
        <ele>220.4</ele>
        <time>2022-06-02T14:14:06Z</time>
      </trkpt>
      <trkpt lat="46.51532" lon="5.24271">
        <ele>221.6</ele>
        <time>2022-06-02T14:14:13Z</time>
      </trkpt>
      <trkpt lat="46.51542" lon="5.24267">
        <ele>221.8</ele>
        <time>2022-06-02T14:14:15Z</time>
      </trkpt>
      <trkpt lat="46.51563" lon="5.24259">
        <ele>222.6</ele>
        <time>2022-06-02T14:14:19Z</time>
      </trkpt>
      <trkpt lat="46.51584" lon="5.2425">
        <ele>223.2</ele>
        <time>2022-06-02T14:14:23Z</time>
      </trkpt>
      <trkpt lat="46.51594" lon="5.24246">
        <ele>223.8</ele>
        <time>2022-06-02T14:14:25Z</time>
      </trkpt>
      <trkpt lat="46.51626" lon="5.24234">
        <ele>224.8</ele>
        <time>2022-06-02T14:14:31Z</time>
      </trkpt>
      <trkpt lat="46.51642" lon="5.24227">
        <ele>225.6</ele>
        <time>2022-06-02T14:14:34Z</time>
      </trkpt>
      <trkpt lat="46.51653" lon="5.24223">
        <ele>226</ele>
        <time>2022-06-02T14:14:36Z</time>
      </trkpt>
      <trkpt lat="46.51705" lon="5.24203">
        <ele>226.8</ele>
        <time>2022-06-02T14:14:45Z</time>
      </trkpt>
      <trkpt lat="46.51723" lon="5.24198">
        <ele>227</ele>
        <time>2022-06-02T14:14:48Z</time>
      </trkpt>
      <trkpt lat="46.51757" lon="5.24191">
        <ele>227.2</ele>
        <time>2022-06-02T14:14:53Z</time>
      </trkpt>
      <trkpt lat="46.51802" lon="5.24184">
        <ele>226.8</ele>
        <time>2022-06-02T14:14:59Z</time>
      </trkpt>
      <trkpt lat="46.51859" lon="5.24175">
        <ele>226</ele>
        <time>2022-06-02T14:15:06Z</time>
      </trkpt>
      <trkpt lat="46.51867" lon="5.24174">
        <ele>225.8</ele>
        <time>2022-06-02T14:15:07Z</time>
      </trkpt>
      <trkpt lat="46.51917" lon="5.24166">
        <ele>224.8</ele>
        <time>2022-06-02T14:15:13Z</time>
      </trkpt>
      <trkpt lat="46.51932" lon="5.24163">
        <ele>224.6</ele>
        <time>2022-06-02T14:15:15Z</time>
      </trkpt>
      <trkpt lat="46.51983" lon="5.24155">
        <ele>225</ele>
        <time>2022-06-02T14:15:22Z</time>
      </trkpt>
      <trkpt lat="46.5203" lon="5.24146">
        <ele>226</ele>
        <time>2022-06-02T14:15:29Z</time>
      </trkpt>
      <trkpt lat="46.52037" lon="5.24145">
        <ele>226</ele>
        <time>2022-06-02T14:15:30Z</time>
      </trkpt>
      <trkpt lat="46.52085" lon="5.24137">
        <ele>227.2</ele>
        <time>2022-06-02T14:15:37Z</time>
      </trkpt>
      <trkpt lat="46.52119" lon="5.24131">
        <ele>228.4</ele>
        <time>2022-06-02T14:15:42Z</time>
      </trkpt>
      <trkpt lat="46.52138" lon="5.24128">
        <ele>229</ele>
        <time>2022-06-02T14:15:45Z</time>
      </trkpt>
      <trkpt lat="46.52156" lon="5.24126">
        <ele>229.4</ele>
        <time>2022-06-02T14:15:48Z</time>
      </trkpt>
      <trkpt lat="46.52181" lon="5.24121">
        <ele>230.2</ele>
        <time>2022-06-02T14:15:52Z</time>
      </trkpt>
      <trkpt lat="46.52187" lon="5.2412">
        <ele>230.6</ele>
        <time>2022-06-02T14:15:53Z</time>
      </trkpt>
      <trkpt lat="46.52225" lon="5.24114">
        <ele>231.2</ele>
        <time>2022-06-02T14:15:59Z</time>
      </trkpt>
      <trkpt lat="46.52283" lon="5.24105">
        <ele>231.4</ele>
        <time>2022-06-02T14:16:08Z</time>
      </trkpt>
      <trkpt lat="46.52289" lon="5.24104">
        <ele>231.6</ele>
        <time>2022-06-02T14:16:09Z</time>
      </trkpt>
      <trkpt lat="46.52343" lon="5.241">
        <ele>232</ele>
        <time>2022-06-02T14:16:17Z</time>
      </trkpt>
      <trkpt lat="46.52398" lon="5.2411">
        <ele>232.2</ele>
        <time>2022-06-02T14:16:25Z</time>
      </trkpt>
      <trkpt lat="46.52452" lon="5.24123">
        <ele>232.4</ele>
        <time>2022-06-02T14:16:33Z</time>
      </trkpt>
      <trkpt lat="46.52466" lon="5.24126">
        <ele>232.6</ele>
        <time>2022-06-02T14:16:35Z</time>
      </trkpt>
      <trkpt lat="46.52508" lon="5.24136">
        <ele>232.8</ele>
        <time>2022-06-02T14:16:41Z</time>
      </trkpt>
      <trkpt lat="46.52562" lon="5.24148">
        <ele>233.4</ele>
        <time>2022-06-02T14:16:48Z</time>
      </trkpt>
      <trkpt lat="46.5257" lon="5.2415">
        <ele>233.4</ele>
        <time>2022-06-02T14:16:49Z</time>
      </trkpt>
      <trkpt lat="46.52625" lon="5.24163">
        <ele>233.2</ele>
        <time>2022-06-02T14:16:56Z</time>
      </trkpt>
      <trkpt lat="46.52649" lon="5.24169">
        <ele>233.2</ele>
        <time>2022-06-02T14:16:59Z</time>
      </trkpt>
      <trkpt lat="46.52705" lon="5.24182">
        <ele>233.2</ele>
        <time>2022-06-02T14:17:06Z</time>
      </trkpt>
      <trkpt lat="46.52729" lon="5.24188">
        <ele>233.2</ele>
        <time>2022-06-02T14:17:09Z</time>
      </trkpt>
      <trkpt lat="46.52784" lon="5.24201">
        <ele>233.2</ele>
        <time>2022-06-02T14:17:16Z</time>
      </trkpt>
      <trkpt lat="46.52817" lon="5.24208">
        <ele>233</ele>
        <time>2022-06-02T14:17:20Z</time>
      </trkpt>
      <trkpt lat="46.52877" lon="5.24222">
        <ele>232.8</ele>
        <time>2022-06-02T14:17:27Z</time>
      </trkpt>
      <trkpt lat="46.52887" lon="5.24225">
        <ele>232.8</ele>
        <time>2022-06-02T14:17:28Z</time>
      </trkpt>
      <trkpt lat="46.52948" lon="5.24239">
        <ele>232.8</ele>
        <time>2022-06-02T14:17:34Z</time>
      </trkpt>
      <trkpt lat="46.52959" lon="5.24241">
        <ele>232.8</ele>
        <time>2022-06-02T14:17:35Z</time>
      </trkpt>
      <trkpt lat="46.53012" lon="5.24254">
        <ele>232.4</ele>
        <time>2022-06-02T14:17:40Z</time>
      </trkpt>
      <trkpt lat="46.53054" lon="5.24264">
        <ele>232.2</ele>
        <time>2022-06-02T14:17:44Z</time>
      </trkpt>
      <trkpt lat="46.53103" lon="5.24275">
        <ele>232.4</ele>
        <time>2022-06-02T14:17:49Z</time>
      </trkpt>
      <trkpt lat="46.53157" lon="5.24289">
        <ele>231.8</ele>
        <time>2022-06-02T14:17:55Z</time>
      </trkpt>
      <trkpt lat="46.53166" lon="5.24291">
        <ele>231.8</ele>
        <time>2022-06-02T14:17:56Z</time>
      </trkpt>
      <trkpt lat="46.53227" lon="5.24304">
        <ele>231.6</ele>
        <time>2022-06-02T14:18:03Z</time>
      </trkpt>
      <trkpt lat="46.53244" lon="5.24307">
        <ele>231.6</ele>
        <time>2022-06-02T14:18:05Z</time>
      </trkpt>
      <trkpt lat="46.53302" lon="5.24319">
        <ele>231.6</ele>
        <time>2022-06-02T14:18:12Z</time>
      </trkpt>
      <trkpt lat="46.53318" lon="5.24321">
        <ele>231.6</ele>
        <time>2022-06-02T14:18:14Z</time>
      </trkpt>
      <trkpt lat="46.53375" lon="5.24332">
        <ele>231</ele>
        <time>2022-06-02T14:18:21Z</time>
      </trkpt>
      <trkpt lat="46.53391" lon="5.24335">
        <ele>231</ele>
        <time>2022-06-02T14:18:23Z</time>
      </trkpt>
      <trkpt lat="46.53448" lon="5.24345">
        <ele>230.8</ele>
        <time>2022-06-02T14:18:30Z</time>
      </trkpt>
      <trkpt lat="46.53456" lon="5.24346">
        <ele>230.8</ele>
        <time>2022-06-02T14:18:31Z</time>
      </trkpt>
      <trkpt lat="46.53481" lon="5.24351">
        <ele>230.4</ele>
        <time>2022-06-02T14:18:34Z</time>
      </trkpt>
      <trkpt lat="46.53539" lon="5.24362">
        <ele>230.2</ele>
        <time>2022-06-02T14:18:41Z</time>
      </trkpt>
      <trkpt lat="46.53572" lon="5.24368">
        <ele>230</ele>
        <time>2022-06-02T14:18:45Z</time>
      </trkpt>
      <trkpt lat="46.53632" lon="5.24378">
        <ele>230</ele>
        <time>2022-06-02T14:18:52Z</time>
      </trkpt>
      <trkpt lat="46.53666" lon="5.24385">
        <ele>230</ele>
        <time>2022-06-02T14:18:56Z</time>
      </trkpt>
      <trkpt lat="46.53675" lon="5.24386">
        <ele>229.8</ele>
        <time>2022-06-02T14:18:57Z</time>
      </trkpt>
      <trkpt lat="46.53734" lon="5.24397">
        <ele>229.2</ele>
        <time>2022-06-02T14:19:04Z</time>
      </trkpt>
      <trkpt lat="46.53794" lon="5.24408">
        <ele>228.8</ele>
        <time>2022-06-02T14:19:11Z</time>
      </trkpt>
      <trkpt lat="46.53812" lon="5.24411">
        <ele>228.8</ele>
        <time>2022-06-02T14:19:13Z</time>
      </trkpt>
      <trkpt lat="46.5383" lon="5.24415">
        <ele>228.6</ele>
        <time>2022-06-02T14:19:15Z</time>
      </trkpt>
      <trkpt lat="46.53875" lon="5.24423">
        <ele>227.6</ele>
        <time>2022-06-02T14:19:20Z</time>
      </trkpt>
      <trkpt lat="46.53903" lon="5.24428">
        <ele>227</ele>
        <time>2022-06-02T14:19:23Z</time>
      </trkpt>
      <trkpt lat="46.53921" lon="5.24432">
        <ele>226.4</ele>
        <time>2022-06-02T14:19:25Z</time>
      </trkpt>
      <trkpt lat="46.5398" lon="5.24443">
        <ele>225.2</ele>
        <time>2022-06-02T14:19:31Z</time>
      </trkpt>
      <trkpt lat="46.5399" lon="5.24445">
        <ele>224.8</ele>
        <time>2022-06-02T14:19:32Z</time>
      </trkpt>
      <trkpt lat="46.54009" lon="5.24449">
        <ele>223.8</ele>
        <time>2022-06-02T14:19:34Z</time>
      </trkpt>
      <trkpt lat="46.54059" lon="5.24457">
        <ele>222.8</ele>
        <time>2022-06-02T14:19:39Z</time>
      </trkpt>
      <trkpt lat="46.54079" lon="5.24461">
        <ele>222.2</ele>
        <time>2022-06-02T14:19:41Z</time>
      </trkpt>
      <trkpt lat="46.54089" lon="5.24462">
        <ele>221.6</ele>
        <time>2022-06-02T14:19:42Z</time>
      </trkpt>
      <trkpt lat="46.54118" lon="5.24468">
        <ele>220.6</ele>
        <time>2022-06-02T14:19:45Z</time>
      </trkpt>
      <trkpt lat="46.54163" lon="5.24476">
        <ele>219.6</ele>
        <time>2022-06-02T14:19:50Z</time>
      </trkpt>
      <trkpt lat="46.54172" lon="5.24478">
        <ele>219.4</ele>
        <time>2022-06-02T14:19:51Z</time>
      </trkpt>
      <trkpt lat="46.54221" lon="5.24487">
        <ele>219.4</ele>
        <time>2022-06-02T14:19:57Z</time>
      </trkpt>
      <trkpt lat="46.54228" lon="5.24488">
        <ele>219.4</ele>
        <time>2022-06-02T14:19:58Z</time>
      </trkpt>
      <trkpt lat="46.54266" lon="5.24495">
        <ele>219.8</ele>
        <time>2022-06-02T14:20:03Z</time>
      </trkpt>
      <trkpt lat="46.54321" lon="5.24506">
        <ele>220.2</ele>
        <time>2022-06-02T14:20:11Z</time>
      </trkpt>
      <trkpt lat="46.54328" lon="5.24507">
        <ele>220.2</ele>
        <time>2022-06-02T14:20:12Z</time>
      </trkpt>
      <trkpt lat="46.54368" lon="5.24515">
        <ele>220.6</ele>
        <time>2022-06-02T14:20:18Z</time>
      </trkpt>
      <trkpt lat="46.54388" lon="5.24519">
        <ele>220.8</ele>
        <time>2022-06-02T14:20:21Z</time>
      </trkpt>
      <trkpt lat="46.54448" lon="5.24532">
        <ele>221.2</ele>
        <time>2022-06-02T14:20:30Z</time>
      </trkpt>
      <trkpt lat="46.54462" lon="5.24534">
        <ele>221.2</ele>
        <time>2022-06-02T14:20:32Z</time>
      </trkpt>
      <trkpt lat="46.54509" lon="5.24545">
        <ele>221.6</ele>
        <time>2022-06-02T14:20:39Z</time>
      </trkpt>
      <trkpt lat="46.54515" lon="5.24547">
        <ele>221.6</ele>
        <time>2022-06-02T14:20:40Z</time>
      </trkpt>
      <trkpt lat="46.54565" lon="5.24558">
        <ele>222.4</ele>
        <time>2022-06-02T14:20:48Z</time>
      </trkpt>
      <trkpt lat="46.54583" lon="5.24562">
        <ele>222.8</ele>
        <time>2022-06-02T14:20:51Z</time>
      </trkpt>
      <trkpt lat="46.54611" lon="5.24569">
        <ele>223.2</ele>
        <time>2022-06-02T14:20:56Z</time>
      </trkpt>
      <trkpt lat="46.54632" lon="5.24574">
        <ele>223.8</ele>
        <time>2022-06-02T14:21:00Z</time>
      </trkpt>
      <trkpt lat="46.54659" lon="5.24579">
        <ele>224.8</ele>
        <time>2022-06-02T14:21:05Z</time>
      </trkpt>
      <trkpt lat="46.54664" lon="5.2458">
        <ele>225</ele>
        <time>2022-06-02T14:21:06Z</time>
      </trkpt>
      <trkpt lat="46.54707" lon="5.24589">
        <ele>225.8</ele>
        <time>2022-06-02T14:21:14Z</time>
      </trkpt>
      <trkpt lat="46.54713" lon="5.2459">
        <ele>226</ele>
        <time>2022-06-02T14:21:15Z</time>
      </trkpt>
      <trkpt lat="46.54752" lon="5.2459">
        <ele>226.8</ele>
        <time>2022-06-02T14:21:22Z</time>
      </trkpt>
      <trkpt lat="46.5478" lon="5.2458">
        <ele>227.2</ele>
        <time>2022-06-02T14:21:27Z</time>
      </trkpt>
      <trkpt lat="46.54791" lon="5.24574">
        <ele>227.6</ele>
        <time>2022-06-02T14:21:29Z</time>
      </trkpt>
      <trkpt lat="46.54807" lon="5.24565">
        <ele>228.2</ele>
        <time>2022-06-02T14:21:32Z</time>
      </trkpt>
      <trkpt lat="46.54837" lon="5.24545">
        <ele>229</ele>
        <time>2022-06-02T14:21:38Z</time>
      </trkpt>
      <trkpt lat="46.54847" lon="5.24539">
        <ele>229.2</ele>
        <time>2022-06-02T14:21:40Z</time>
      </trkpt>
      <trkpt lat="46.54872" lon="5.24523">
        <ele>230.4</ele>
        <time>2022-06-02T14:21:45Z</time>
      </trkpt>
      <trkpt lat="46.54877" lon="5.2452">
        <ele>230.4</ele>
        <time>2022-06-02T14:21:46Z</time>
      </trkpt>
      <trkpt lat="46.54909" lon="5.245">
        <ele>231.4</ele>
        <time>2022-06-02T14:21:52Z</time>
      </trkpt>
      <trkpt lat="46.54932" lon="5.24487">
        <ele>231.8</ele>
        <time>2022-06-02T14:21:56Z</time>
      </trkpt>
      <trkpt lat="46.54969" lon="5.24464">
        <ele>232.2</ele>
        <time>2022-06-02T14:22:02Z</time>
      </trkpt>
      <trkpt lat="46.55018" lon="5.24434">
        <ele>232.4</ele>
        <time>2022-06-02T14:22:10Z</time>
      </trkpt>
      <trkpt lat="46.55025" lon="5.2443">
        <ele>232.4</ele>
        <time>2022-06-02T14:22:11Z</time>
      </trkpt>
      <trkpt lat="46.55071" lon="5.24401">
        <ele>232.4</ele>
        <time>2022-06-02T14:22:18Z</time>
      </trkpt>
      <trkpt lat="46.55117" lon="5.24375">
        <ele>231.8</ele>
        <time>2022-06-02T14:22:24Z</time>
      </trkpt>
      <trkpt lat="46.55142" lon="5.24365">
        <ele>231.2</ele>
        <time>2022-06-02T14:22:27Z</time>
      </trkpt>
      <trkpt lat="46.55165" lon="5.24358">
        <ele>230.8</ele>
        <time>2022-06-02T14:22:30Z</time>
      </trkpt>
      <trkpt lat="46.55173" lon="5.24356">
        <ele>230.8</ele>
        <time>2022-06-02T14:22:31Z</time>
      </trkpt>
      <trkpt lat="46.5519" lon="5.24355">
        <ele>230.2</ele>
        <time>2022-06-02T14:22:33Z</time>
      </trkpt>
      <trkpt lat="46.55207" lon="5.24354">
        <ele>229.6</ele>
        <time>2022-06-02T14:22:35Z</time>
      </trkpt>
      <trkpt lat="46.55239" lon="5.24351">
        <ele>228.8</ele>
        <time>2022-06-02T14:22:39Z</time>
      </trkpt>
      <trkpt lat="46.55265" lon="5.24349">
        <ele>228.4</ele>
        <time>2022-06-02T14:22:42Z</time>
      </trkpt>
      <trkpt lat="46.55296" lon="5.24348">
        <ele>228.4</ele>
        <time>2022-06-02T14:22:46Z</time>
      </trkpt>
      <trkpt lat="46.55311" lon="5.24347">
        <ele>228.4</ele>
        <time>2022-06-02T14:22:48Z</time>
      </trkpt>
      <trkpt lat="46.55369" lon="5.24342">
        <ele>229</ele>
        <time>2022-06-02T14:22:56Z</time>
      </trkpt>
      <trkpt lat="46.55392" lon="5.2434">
        <ele>228.8</ele>
        <time>2022-06-02T14:22:59Z</time>
      </trkpt>
      <trkpt lat="46.55415" lon="5.24338">
        <ele>229</ele>
        <time>2022-06-02T14:23:02Z</time>
      </trkpt>
      <trkpt lat="46.55457" lon="5.24335">
        <ele>228.8</ele>
        <time>2022-06-02T14:23:07Z</time>
      </trkpt>
      <trkpt lat="46.55511" lon="5.24333">
        <ele>228.4</ele>
        <time>2022-06-02T14:23:13Z</time>
      </trkpt>
      <trkpt lat="46.55563" lon="5.24329">
        <ele>227.6</ele>
        <time>2022-06-02T14:23:19Z</time>
      </trkpt>
      <trkpt lat="46.55589" lon="5.24327">
        <ele>227.2</ele>
        <time>2022-06-02T14:23:22Z</time>
      </trkpt>
      <trkpt lat="46.55645" lon="5.24323">
        <ele>226.8</ele>
        <time>2022-06-02T14:23:29Z</time>
      </trkpt>
      <trkpt lat="46.55653" lon="5.24322">
        <ele>226.8</ele>
        <time>2022-06-02T14:23:30Z</time>
      </trkpt>
      <trkpt lat="46.55685" lon="5.2432">
        <ele>226.6</ele>
        <time>2022-06-02T14:23:34Z</time>
      </trkpt>
      <trkpt lat="46.5574" lon="5.24316">
        <ele>226.8</ele>
        <time>2022-06-02T14:23:41Z</time>
      </trkpt>
      <trkpt lat="46.55748" lon="5.24315">
        <ele>227</ele>
        <time>2022-06-02T14:23:42Z</time>
      </trkpt>
      <trkpt lat="46.55765" lon="5.24312">
        <ele>227.2</ele>
        <time>2022-06-02T14:23:44Z</time>
      </trkpt>
      <trkpt lat="46.5579" lon="5.2431">
        <ele>227.6</ele>
        <time>2022-06-02T14:23:47Z</time>
      </trkpt>
      <trkpt lat="46.55798" lon="5.2431">
        <ele>227.8</ele>
        <time>2022-06-02T14:23:48Z</time>
      </trkpt>
      <trkpt lat="46.55852" lon="5.24307">
        <ele>228.6</ele>
        <time>2022-06-02T14:23:55Z</time>
      </trkpt>
      <trkpt lat="46.55859" lon="5.24306">
        <ele>228.8</ele>
        <time>2022-06-02T14:23:56Z</time>
      </trkpt>
      <trkpt lat="46.5591" lon="5.24302">
        <ele>229.8</ele>
        <time>2022-06-02T14:24:03Z</time>
      </trkpt>
      <trkpt lat="46.55917" lon="5.24302">
        <ele>229.8</ele>
        <time>2022-06-02T14:24:04Z</time>
      </trkpt>
      <trkpt lat="46.55955" lon="5.24304">
        <ele>230.8</ele>
        <time>2022-06-02T14:24:10Z</time>
      </trkpt>
      <trkpt lat="46.55961" lon="5.24304">
        <ele>231</ele>
        <time>2022-06-02T14:24:11Z</time>
      </trkpt>
      <trkpt lat="46.55998" lon="5.24311">
        <ele>232</ele>
        <time>2022-06-02T14:24:17Z</time>
      </trkpt>
      <trkpt lat="46.56017" lon="5.24316">
        <ele>232</ele>
        <time>2022-06-02T14:24:20Z</time>
      </trkpt>
      <trkpt lat="46.56073" lon="5.24335">
        <ele>232.2</ele>
        <time>2022-06-02T14:24:29Z</time>
      </trkpt>
      <trkpt lat="46.56086" lon="5.24339">
        <ele>232.2</ele>
        <time>2022-06-02T14:24:31Z</time>
      </trkpt>
      <trkpt lat="46.56139" lon="5.24358">
        <ele>232.4</ele>
        <time>2022-06-02T14:24:39Z</time>
      </trkpt>
      <trkpt lat="46.5616" lon="5.24366">
        <ele>232.6</ele>
        <time>2022-06-02T14:24:42Z</time>
      </trkpt>
      <trkpt lat="46.56214" lon="5.24384">
        <ele>232.6</ele>
        <time>2022-06-02T14:24:50Z</time>
      </trkpt>
      <trkpt lat="46.56228" lon="5.24389">
        <ele>232.6</ele>
        <time>2022-06-02T14:24:52Z</time>
      </trkpt>
      <trkpt lat="46.56281" lon="5.24407">
        <ele>232.8</ele>
        <time>2022-06-02T14:25:00Z</time>
      </trkpt>
      <trkpt lat="46.56309" lon="5.24417">
        <ele>232.6</ele>
        <time>2022-06-02T14:25:04Z</time>
      </trkpt>
      <trkpt lat="46.56369" lon="5.24437">
        <ele>232</ele>
        <time>2022-06-02T14:25:12Z</time>
      </trkpt>
      <trkpt lat="46.56376" lon="5.2444">
        <ele>232</ele>
        <time>2022-06-02T14:25:13Z</time>
      </trkpt>
      <trkpt lat="46.5643" lon="5.24459">
        <ele>231</ele>
        <time>2022-06-02T14:25:20Z</time>
      </trkpt>
      <trkpt lat="46.56438" lon="5.24461">
        <ele>230.8</ele>
        <time>2022-06-02T14:25:21Z</time>
      </trkpt>
      <trkpt lat="46.5648" lon="5.24475">
        <ele>230.2</ele>
        <time>2022-06-02T14:25:26Z</time>
      </trkpt>
      <trkpt lat="46.56513" lon="5.24486">
        <ele>229.8</ele>
        <time>2022-06-02T14:25:30Z</time>
      </trkpt>
      <trkpt lat="46.56537" lon="5.24494">
        <ele>228.8</ele>
        <time>2022-06-02T14:25:33Z</time>
      </trkpt>
      <trkpt lat="46.5657" lon="5.24506">
        <ele>228</ele>
        <time>2022-06-02T14:25:37Z</time>
      </trkpt>
      <trkpt lat="46.56586" lon="5.24512">
        <ele>227.6</ele>
        <time>2022-06-02T14:25:39Z</time>
      </trkpt>
      <trkpt lat="46.56629" lon="5.24526">
        <ele>227</ele>
        <time>2022-06-02T14:25:44Z</time>
      </trkpt>
      <trkpt lat="46.56664" lon="5.24539">
        <ele>226.4</ele>
        <time>2022-06-02T14:25:48Z</time>
      </trkpt>
      <trkpt lat="46.56692" lon="5.24548">
        <ele>225.2</ele>
        <time>2022-06-02T14:25:51Z</time>
      </trkpt>
      <trkpt lat="46.56702" lon="5.24552">
        <ele>224.6</ele>
        <time>2022-06-02T14:25:52Z</time>
      </trkpt>
      <trkpt lat="46.56721" lon="5.24559">
        <ele>224</ele>
        <time>2022-06-02T14:25:54Z</time>
      </trkpt>
      <trkpt lat="46.5675" lon="5.24569">
        <ele>222.8</ele>
        <time>2022-06-02T14:25:57Z</time>
      </trkpt>
      <trkpt lat="46.56779" lon="5.24579">
        <ele>221.6</ele>
        <time>2022-06-02T14:26:00Z</time>
      </trkpt>
      <trkpt lat="46.56789" lon="5.24583">
        <ele>221.6</ele>
        <time>2022-06-02T14:26:01Z</time>
      </trkpt>
      <trkpt lat="46.56817" lon="5.24592">
        <ele>220.4</ele>
        <time>2022-06-02T14:26:04Z</time>
      </trkpt>
      <trkpt lat="46.56862" lon="5.24608">
        <ele>219.2</ele>
        <time>2022-06-02T14:26:09Z</time>
      </trkpt>
      <trkpt lat="46.5688" lon="5.24614">
        <ele>219.2</ele>
        <time>2022-06-02T14:26:11Z</time>
      </trkpt>
      <trkpt lat="46.56922" lon="5.24628">
        <ele>218</ele>
        <time>2022-06-02T14:26:16Z</time>
      </trkpt>
      <trkpt lat="46.5693" lon="5.2463">
        <ele>217.8</ele>
        <time>2022-06-02T14:26:17Z</time>
      </trkpt>
      <trkpt lat="46.56938" lon="5.24633">
        <ele>217.6</ele>
        <time>2022-06-02T14:26:18Z</time>
      </trkpt>
      <trkpt lat="46.5696" lon="5.24637">
        <ele>217</ele>
        <time>2022-06-02T14:26:21Z</time>
      </trkpt>
      <trkpt lat="46.56968" lon="5.2465">
        <ele>216.6</ele>
        <time>2022-06-02T14:26:23Z</time>
      </trkpt>
      <trkpt lat="46.56964" lon="5.2467">
        <ele>216.4</ele>
        <time>2022-06-02T14:26:25Z</time>
      </trkpt>
      <trkpt lat="46.56951" lon="5.24703">
        <ele>215.4</ele>
        <time>2022-06-02T14:26:28Z</time>
      </trkpt>
      <trkpt lat="46.56946" lon="5.24715">
        <ele>215</ele>
        <time>2022-06-02T14:26:29Z</time>
      </trkpt>
      <trkpt lat="46.56931" lon="5.24754">
        <ele>213.8</ele>
        <time>2022-06-02T14:26:32Z</time>
      </trkpt>
      <trkpt lat="46.56917" lon="5.24793">
        <ele>213.4</ele>
        <time>2022-06-02T14:26:35Z</time>
      </trkpt>
      <trkpt lat="46.56899" lon="5.24843">
        <ele>212.8</ele>
        <time>2022-06-02T14:26:39Z</time>
      </trkpt>
      <trkpt lat="46.5688" lon="5.24889">
        <ele>212.4</ele>
        <time>2022-06-02T14:26:43Z</time>
      </trkpt>
      <trkpt lat="46.56869" lon="5.24908">
        <ele>212.2</ele>
        <time>2022-06-02T14:26:45Z</time>
      </trkpt>
      <trkpt lat="46.56857" lon="5.24925">
        <ele>212.2</ele>
        <time>2022-06-02T14:26:47Z</time>
      </trkpt>
      <trkpt lat="46.56824" lon="5.24973">
        <ele>212.8</ele>
        <time>2022-06-02T14:26:53Z</time>
      </trkpt>
      <trkpt lat="46.56819" lon="5.24982">
        <ele>212.8</ele>
        <time>2022-06-02T14:26:54Z</time>
      </trkpt>
      <trkpt lat="46.56811" lon="5.25003">
        <ele>212.8</ele>
        <time>2022-06-02T14:26:56Z</time>
      </trkpt>
      <trkpt lat="46.56807" lon="5.25025">
        <ele>213</ele>
        <time>2022-06-02T14:26:58Z</time>
      </trkpt>
      <trkpt lat="46.56806" lon="5.25037">
        <ele>213</ele>
        <time>2022-06-02T14:26:59Z</time>
      </trkpt>
      <trkpt lat="46.56806" lon="5.25073">
        <ele>213</ele>
        <time>2022-06-02T14:27:02Z</time>
      </trkpt>
      <trkpt lat="46.56804" lon="5.25109">
        <ele>212.8</ele>
        <time>2022-06-02T14:27:05Z</time>
      </trkpt>
      <trkpt lat="46.56799" lon="5.25131">
        <ele>212.8</ele>
        <time>2022-06-02T14:27:07Z</time>
      </trkpt>
      <trkpt lat="46.56781" lon="5.2521">
        <ele>212.2</ele>
        <time>2022-06-02T14:27:14Z</time>
      </trkpt>
      <trkpt lat="46.5678" lon="5.25222">
        <ele>212.2</ele>
        <time>2022-06-02T14:27:15Z</time>
      </trkpt>
      <trkpt lat="46.56781" lon="5.25258">
        <ele>211.8</ele>
        <time>2022-06-02T14:27:18Z</time>
      </trkpt>
      <trkpt lat="46.56783" lon="5.2527">
        <ele>211.6</ele>
        <time>2022-06-02T14:27:19Z</time>
      </trkpt>
      <trkpt lat="46.56793" lon="5.25317">
        <ele>211</ele>
        <time>2022-06-02T14:27:23Z</time>
      </trkpt>
      <trkpt lat="46.5681" lon="5.25399">
        <ele>210.8</ele>
        <time>2022-06-02T14:27:30Z</time>
      </trkpt>
      <trkpt lat="46.56811" lon="5.25424">
        <ele>210.4</ele>
        <time>2022-06-02T14:27:32Z</time>
      </trkpt>
      <trkpt lat="46.56811" lon="5.25436">
        <ele>210.4</ele>
        <time>2022-06-02T14:27:33Z</time>
      </trkpt>
      <trkpt lat="46.56808" lon="5.25459">
        <ele>210.4</ele>
        <time>2022-06-02T14:27:35Z</time>
      </trkpt>
      <trkpt lat="46.56805" lon="5.2547">
        <ele>210.2</ele>
        <time>2022-06-02T14:27:36Z</time>
      </trkpt>
      <trkpt lat="46.56794" lon="5.25499">
        <ele>210.2</ele>
        <time>2022-06-02T14:27:39Z</time>
      </trkpt>
      <trkpt lat="46.56772" lon="5.25552">
        <ele>210.6</ele>
        <time>2022-06-02T14:27:45Z</time>
      </trkpt>
      <trkpt lat="46.56743" lon="5.25607">
        <ele>211.2</ele>
        <time>2022-06-02T14:27:52Z</time>
      </trkpt>
      <trkpt lat="46.56738" lon="5.25614">
        <ele>211.4</ele>
        <time>2022-06-02T14:27:53Z</time>
      </trkpt>
      <trkpt lat="46.56734" lon="5.25621">
        <ele>211.6</ele>
        <time>2022-06-02T14:27:54Z</time>
      </trkpt>
      <trkpt lat="46.56702" lon="5.25659">
        <ele>212</ele>
        <time>2022-06-02T14:28:00Z</time>
      </trkpt>
      <trkpt lat="46.56658" lon="5.25711">
        <ele>212.6</ele>
        <time>2022-06-02T14:28:08Z</time>
      </trkpt>
      <trkpt lat="46.56641" lon="5.25731">
        <ele>212.6</ele>
        <time>2022-06-02T14:28:11Z</time>
      </trkpt>
      <trkpt lat="46.56595" lon="5.25785">
        <ele>212.8</ele>
        <time>2022-06-02T14:28:19Z</time>
      </trkpt>
      <trkpt lat="46.56589" lon="5.25792">
        <ele>213</ele>
        <time>2022-06-02T14:28:20Z</time>
      </trkpt>
      <trkpt lat="46.56554" lon="5.2583">
        <ele>213</ele>
        <time>2022-06-02T14:28:26Z</time>
      </trkpt>
      <trkpt lat="46.56504" lon="5.25879">
        <ele>213.4</ele>
        <time>2022-06-02T14:28:34Z</time>
      </trkpt>
      <trkpt lat="46.56491" lon="5.25891">
        <ele>213.4</ele>
        <time>2022-06-02T14:28:36Z</time>
      </trkpt>
      <trkpt lat="46.56445" lon="5.25935">
        <ele>213.4</ele>
        <time>2022-06-02T14:28:43Z</time>
      </trkpt>
      <trkpt lat="46.56418" lon="5.2596">
        <ele>213.4</ele>
        <time>2022-06-02T14:28:47Z</time>
      </trkpt>
      <trkpt lat="46.56379" lon="5.25997">
        <ele>213.4</ele>
        <time>2022-06-02T14:28:53Z</time>
      </trkpt>
      <trkpt lat="46.56327" lon="5.26046">
        <ele>213.4</ele>
        <time>2022-06-02T14:29:01Z</time>
      </trkpt>
      <trkpt lat="46.56296" lon="5.26076">
        <ele>213.6</ele>
        <time>2022-06-02T14:29:06Z</time>
      </trkpt>
      <trkpt lat="46.5629" lon="5.26081">
        <ele>213.6</ele>
        <time>2022-06-02T14:29:07Z</time>
      </trkpt>
      <trkpt lat="46.5624" lon="5.26128">
        <ele>213.8</ele>
        <time>2022-06-02T14:29:15Z</time>
      </trkpt>
      <trkpt lat="46.56222" lon="5.26145">
        <ele>213.8</ele>
        <time>2022-06-02T14:29:18Z</time>
      </trkpt>
      <trkpt lat="46.56198" lon="5.26168">
        <ele>214.4</ele>
        <time>2022-06-02T14:29:22Z</time>
      </trkpt>
      <trkpt lat="46.56174" lon="5.26191">
        <ele>214.6</ele>
        <time>2022-06-02T14:29:26Z</time>
      </trkpt>
      <trkpt lat="46.56168" lon="5.26196">
        <ele>214.6</ele>
        <time>2022-06-02T14:29:27Z</time>
      </trkpt>
      <trkpt lat="46.56143" lon="5.26213">
        <ele>214.6</ele>
        <time>2022-06-02T14:29:31Z</time>
      </trkpt>
      <trkpt lat="46.56136" lon="5.26215">
        <ele>214.6</ele>
        <time>2022-06-02T14:29:32Z</time>
      </trkpt>
      <trkpt lat="46.5613" lon="5.26216">
        <ele>214.8</ele>
        <time>2022-06-02T14:29:33Z</time>
      </trkpt>
      <trkpt lat="46.5611" lon="5.26213">
        <ele>215</ele>
        <time>2022-06-02T14:29:36Z</time>
      </trkpt>
      <trkpt lat="46.56058" lon="5.262">
        <ele>215.2</ele>
        <time>2022-06-02T14:29:44Z</time>
      </trkpt>
      <trkpt lat="46.56035" lon="5.26198">
        <ele>215.6</ele>
        <time>2022-06-02T14:29:48Z</time>
      </trkpt>
      <trkpt lat="46.5603" lon="5.26198">
        <ele>215.8</ele>
        <time>2022-06-02T14:29:49Z</time>
      </trkpt>
      <trkpt lat="46.56005" lon="5.26197">
        <ele>217</ele>
        <time>2022-06-02T14:29:54Z</time>
      </trkpt>
      <trkpt lat="46.55996" lon="5.26197">
        <ele>218</ele>
        <time>2022-06-02T14:29:56Z</time>
      </trkpt>
      <trkpt lat="46.55991" lon="5.26197">
        <ele>218.2</ele>
        <time>2022-06-02T14:29:57Z</time>
      </trkpt>
      <trkpt lat="46.55959" lon="5.26198">
        <ele>219.4</ele>
        <time>2022-06-02T14:30:04Z</time>
      </trkpt>
      <trkpt lat="46.55955" lon="5.26198">
        <ele>219.4</ele>
        <time>2022-06-02T14:30:05Z</time>
      </trkpt>
      <trkpt lat="46.55938" lon="5.26199">
        <ele>220.6</ele>
        <time>2022-06-02T14:30:09Z</time>
      </trkpt>
      <trkpt lat="46.55917" lon="5.262">
        <ele>221.8</ele>
        <time>2022-06-02T14:30:14Z</time>
      </trkpt>
      <trkpt lat="46.55908" lon="5.262">
        <ele>222.4</ele>
        <time>2022-06-02T14:30:16Z</time>
      </trkpt>
      <trkpt lat="46.55896" lon="5.262">
        <ele>222.8</ele>
        <time>2022-06-02T14:30:19Z</time>
      </trkpt>
      <trkpt lat="46.5588" lon="5.26201">
        <ele>224</ele>
        <time>2022-06-02T14:30:23Z</time>
      </trkpt>
      <trkpt lat="46.55876" lon="5.26201">
        <ele>224</ele>
        <time>2022-06-02T14:30:24Z</time>
      </trkpt>
      <trkpt lat="46.55863" lon="5.262">
        <ele>225</ele>
        <time>2022-06-02T14:30:27Z</time>
      </trkpt>
      <trkpt lat="46.5585" lon="5.262">
        <ele>226.6</ele>
        <time>2022-06-02T14:30:30Z</time>
      </trkpt>
      <trkpt lat="46.55845" lon="5.262">
        <ele>226.8</ele>
        <time>2022-06-02T14:30:31Z</time>
      </trkpt>
      <trkpt lat="46.55822" lon="5.26201">
        <ele>227.6</ele>
        <time>2022-06-02T14:30:36Z</time>
      </trkpt>
      <trkpt lat="46.55797" lon="5.26203">
        <ele>228.6</ele>
        <time>2022-06-02T14:30:41Z</time>
      </trkpt>
      <trkpt lat="46.55787" lon="5.26203">
        <ele>228.6</ele>
        <time>2022-06-02T14:30:43Z</time>
      </trkpt>
      <trkpt lat="46.5575" lon="5.26205">
        <ele>229</ele>
        <time>2022-06-02T14:30:49Z</time>
      </trkpt>
      <trkpt lat="46.55698" lon="5.26209">
        <ele>229.4</ele>
        <time>2022-06-02T14:30:57Z</time>
      </trkpt>
      <trkpt lat="46.55642" lon="5.26212">
        <ele>229.2</ele>
        <time>2022-06-02T14:31:05Z</time>
      </trkpt>
      <trkpt lat="46.55614" lon="5.26216">
        <ele>229</ele>
        <time>2022-06-02T14:31:09Z</time>
      </trkpt>
      <trkpt lat="46.556" lon="5.26215">
        <ele>228.8</ele>
        <time>2022-06-02T14:31:11Z</time>
      </trkpt>
      <trkpt lat="46.5556" lon="5.26205">
        <ele>229</ele>
        <time>2022-06-02T14:31:17Z</time>
      </trkpt>
      <trkpt lat="46.55518" lon="5.26209">
        <ele>228.8</ele>
        <time>2022-06-02T14:31:23Z</time>
      </trkpt>
      <trkpt lat="46.55481" lon="5.26213">
        <ele>228.8</ele>
        <time>2022-06-02T14:31:28Z</time>
      </trkpt>
      <trkpt lat="46.55467" lon="5.2621">
        <ele>228.6</ele>
        <time>2022-06-02T14:31:30Z</time>
      </trkpt>
      <trkpt lat="46.55432" lon="5.26191">
        <ele>228.6</ele>
        <time>2022-06-02T14:31:35Z</time>
      </trkpt>
      <trkpt lat="46.55384" lon="5.26154">
        <ele>228.8</ele>
        <time>2022-06-02T14:31:43Z</time>
      </trkpt>
      <trkpt lat="46.5534" lon="5.26131">
        <ele>229</ele>
        <time>2022-06-02T14:31:49Z</time>
      </trkpt>
      <trkpt lat="46.55293" lon="5.26121">
        <ele>229</ele>
        <time>2022-06-02T14:31:55Z</time>
      </trkpt>
      <trkpt lat="46.55264" lon="5.26126">
        <ele>228.8</ele>
        <time>2022-06-02T14:31:59Z</time>
      </trkpt>
      <trkpt lat="46.55235" lon="5.26136">
        <ele>228.6</ele>
        <time>2022-06-02T14:32:03Z</time>
      </trkpt>
      <trkpt lat="46.55228" lon="5.26137">
        <ele>228.6</ele>
        <time>2022-06-02T14:32:04Z</time>
      </trkpt>
      <trkpt lat="46.55222" lon="5.26136">
        <ele>228.8</ele>
        <time>2022-06-02T14:32:05Z</time>
      </trkpt>
      <trkpt lat="46.55209" lon="5.26131">
        <ele>229</ele>
        <time>2022-06-02T14:32:07Z</time>
      </trkpt>
      <trkpt lat="46.5516" lon="5.261">
        <ele>229.6</ele>
        <time>2022-06-02T14:32:15Z</time>
      </trkpt>
      <trkpt lat="46.55135" lon="5.26086">
        <ele>229.4</ele>
        <time>2022-06-02T14:32:19Z</time>
      </trkpt>
      <trkpt lat="46.55131" lon="5.26085">
        <ele>229.4</ele>
        <time>2022-06-02T14:32:20Z</time>
      </trkpt>
      <trkpt lat="46.55128" lon="5.26084">
        <ele>228.6</ele>
        <time>2022-06-02T14:32:23Z</time>
      </trkpt>
      <trkpt lat="46.55128" lon="5.26084">
        <ele>227.6</ele>
        <time>2022-06-02T14:32:27Z</time>
      </trkpt>
      <trkpt lat="46.55123" lon="5.26081">
        <ele>227</ele>
        <time>2022-06-02T14:34:42Z</time>
      </trkpt>
      <trkpt lat="46.55106" lon="5.2607">
        <ele>226.8</ele>
        <time>2022-06-02T14:34:46Z</time>
      </trkpt>
      <trkpt lat="46.551" lon="5.26067">
        <ele>226.8</ele>
        <time>2022-06-02T14:34:47Z</time>
      </trkpt>
      <trkpt lat="46.55094" lon="5.26064">
        <ele>226.6</ele>
        <time>2022-06-02T14:34:48Z</time>
      </trkpt>
      <trkpt lat="46.55074" lon="5.26056">
        <ele>226.4</ele>
        <time>2022-06-02T14:34:51Z</time>
      </trkpt>
      <trkpt lat="46.55044" lon="5.26049">
        <ele>226</ele>
        <time>2022-06-02T14:34:55Z</time>
      </trkpt>
      <trkpt lat="46.55027" lon="5.26048">
        <ele>225.4</ele>
        <time>2022-06-02T14:34:57Z</time>
      </trkpt>
      <trkpt lat="46.54991" lon="5.26044">
        <ele>224.4</ele>
        <time>2022-06-02T14:35:01Z</time>
      </trkpt>
      <trkpt lat="46.54972" lon="5.26042">
        <ele>223.8</ele>
        <time>2022-06-02T14:35:03Z</time>
      </trkpt>
      <trkpt lat="46.54962" lon="5.26042">
        <ele>223.2</ele>
        <time>2022-06-02T14:35:04Z</time>
      </trkpt>
      <trkpt lat="46.54931" lon="5.2604">
        <ele>221.8</ele>
        <time>2022-06-02T14:35:07Z</time>
      </trkpt>
      <trkpt lat="46.5491" lon="5.26039">
        <ele>220.2</ele>
        <time>2022-06-02T14:35:09Z</time>
      </trkpt>
      <trkpt lat="46.54888" lon="5.26036">
        <ele>219</ele>
        <time>2022-06-02T14:35:11Z</time>
      </trkpt>
      <trkpt lat="46.54856" lon="5.26031">
        <ele>217.6</ele>
        <time>2022-06-02T14:35:14Z</time>
      </trkpt>
      <trkpt lat="46.54845" lon="5.26028">
        <ele>217.2</ele>
        <time>2022-06-02T14:35:15Z</time>
      </trkpt>
      <trkpt lat="46.54825" lon="5.2602">
        <ele>216.6</ele>
        <time>2022-06-02T14:35:17Z</time>
      </trkpt>
      <trkpt lat="46.54797" lon="5.26009">
        <ele>215</ele>
        <time>2022-06-02T14:35:20Z</time>
      </trkpt>
      <trkpt lat="46.54788" lon="5.26006">
        <ele>214.8</ele>
        <time>2022-06-02T14:35:21Z</time>
      </trkpt>
      <trkpt lat="46.54745" lon="5.25991">
        <ele>214</ele>
        <time>2022-06-02T14:35:26Z</time>
      </trkpt>
      <trkpt lat="46.54736" lon="5.25989">
        <ele>214</ele>
        <time>2022-06-02T14:35:27Z</time>
      </trkpt>
      <trkpt lat="46.54706" lon="5.25989">
        <ele>214.2</ele>
        <time>2022-06-02T14:35:31Z</time>
      </trkpt>
      <trkpt lat="46.54689" lon="5.25996">
        <ele>214.8</ele>
        <time>2022-06-02T14:35:34Z</time>
      </trkpt>
      <trkpt lat="46.54682" lon="5.25996">
        <ele>215</ele>
        <time>2022-06-02T14:35:35Z</time>
      </trkpt>
      <trkpt lat="46.54669" lon="5.25997">
        <ele>215.2</ele>
        <time>2022-06-02T14:35:37Z</time>
      </trkpt>
      <trkpt lat="46.54649" lon="5.26">
        <ele>216</ele>
        <time>2022-06-02T14:35:40Z</time>
      </trkpt>
      <trkpt lat="46.54642" lon="5.26001">
        <ele>216.4</ele>
        <time>2022-06-02T14:35:41Z</time>
      </trkpt>
      <trkpt lat="46.54622" lon="5.26003">
        <ele>216.8</ele>
        <time>2022-06-02T14:35:44Z</time>
      </trkpt>
      <trkpt lat="46.5458" lon="5.26012">
        <ele>217.2</ele>
        <time>2022-06-02T14:35:50Z</time>
      </trkpt>
      <trkpt lat="46.54529" lon="5.2603">
        <ele>216.8</ele>
        <time>2022-06-02T14:35:57Z</time>
      </trkpt>
      <trkpt lat="46.5448" lon="5.26062">
        <ele>216.2</ele>
        <time>2022-06-02T14:36:04Z</time>
      </trkpt>
      <trkpt lat="46.5444" lon="5.26095">
        <ele>215.2</ele>
        <time>2022-06-02T14:36:10Z</time>
      </trkpt>
      <trkpt lat="46.54433" lon="5.26101">
        <ele>215.2</ele>
        <time>2022-06-02T14:36:11Z</time>
      </trkpt>
      <trkpt lat="46.54387" lon="5.26143">
        <ele>214.8</ele>
        <time>2022-06-02T14:36:18Z</time>
      </trkpt>
      <trkpt lat="46.5438" lon="5.26148">
        <ele>214.8</ele>
        <time>2022-06-02T14:36:19Z</time>
      </trkpt>
      <trkpt lat="46.54368" lon="5.26157">
        <ele>215</ele>
        <time>2022-06-02T14:36:21Z</time>
      </trkpt>
      <trkpt lat="46.54357" lon="5.26162">
        <ele>215</ele>
        <time>2022-06-02T14:36:23Z</time>
      </trkpt>
      <trkpt lat="46.54327" lon="5.26175">
        <ele>216</ele>
        <time>2022-06-02T14:36:29Z</time>
      </trkpt>
      <trkpt lat="46.54322" lon="5.26178">
        <ele>216.2</ele>
        <time>2022-06-02T14:36:30Z</time>
      </trkpt>
      <trkpt lat="46.54304" lon="5.26186">
        <ele>216.4</ele>
        <time>2022-06-02T14:36:33Z</time>
      </trkpt>
      <trkpt lat="46.54293" lon="5.2619">
        <ele>216.4</ele>
        <time>2022-06-02T14:36:35Z</time>
      </trkpt>
      <trkpt lat="46.54288" lon="5.26192">
        <ele>216.4</ele>
        <time>2022-06-02T14:36:36Z</time>
      </trkpt>
      <trkpt lat="46.54277" lon="5.26195">
        <ele>216.8</ele>
        <time>2022-06-02T14:36:38Z</time>
      </trkpt>
      <trkpt lat="46.54265" lon="5.26196">
        <ele>217</ele>
        <time>2022-06-02T14:36:40Z</time>
      </trkpt>
      <trkpt lat="46.54256" lon="5.26195">
        <ele>217.4</ele>
        <time>2022-06-02T14:36:42Z</time>
      </trkpt>
      <trkpt lat="46.54247" lon="5.26191">
        <ele>217.8</ele>
        <time>2022-06-02T14:36:44Z</time>
      </trkpt>
      <trkpt lat="46.54237" lon="5.26186">
        <ele>218.8</ele>
        <time>2022-06-02T14:36:47Z</time>
      </trkpt>
      <trkpt lat="46.54231" lon="5.26179">
        <ele>219.4</ele>
        <time>2022-06-02T14:36:49Z</time>
      </trkpt>
      <trkpt lat="46.54225" lon="5.26169">
        <ele>219.8</ele>
        <time>2022-06-02T14:36:51Z</time>
      </trkpt>
      <trkpt lat="46.54212" lon="5.26152">
        <ele>221</ele>
        <time>2022-06-02T14:36:55Z</time>
      </trkpt>
      <trkpt lat="46.54208" lon="5.26148">
        <ele>221.2</ele>
        <time>2022-06-02T14:36:56Z</time>
      </trkpt>
      <trkpt lat="46.54193" lon="5.26138">
        <ele>222</ele>
        <time>2022-06-02T14:37:00Z</time>
      </trkpt>
      <trkpt lat="46.54181" lon="5.26134">
        <ele>223.4</ele>
        <time>2022-06-02T14:37:03Z</time>
      </trkpt>
      <trkpt lat="46.54163" lon="5.26137">
        <ele>224.4</ele>
        <time>2022-06-02T14:37:07Z</time>
      </trkpt>
      <trkpt lat="46.54158" lon="5.26138">
        <ele>224.6</ele>
        <time>2022-06-02T14:37:08Z</time>
      </trkpt>
      <trkpt lat="46.54137" lon="5.26144">
        <ele>225.4</ele>
        <time>2022-06-02T14:37:13Z</time>
      </trkpt>
      <trkpt lat="46.54133" lon="5.26146">
        <ele>225.4</ele>
        <time>2022-06-02T14:37:14Z</time>
      </trkpt>
      <trkpt lat="46.54117" lon="5.26162">
        <ele>225.6</ele>
        <time>2022-06-02T14:37:18Z</time>
      </trkpt>
      <trkpt lat="46.54112" lon="5.26167">
        <ele>225.6</ele>
        <time>2022-06-02T14:37:19Z</time>
      </trkpt>
      <trkpt lat="46.54091" lon="5.26184">
        <ele>225.4</ele>
        <time>2022-06-02T14:37:23Z</time>
      </trkpt>
      <trkpt lat="46.54055" lon="5.26205">
        <ele>225.2</ele>
        <time>2022-06-02T14:37:29Z</time>
      </trkpt>
      <trkpt lat="46.54024" lon="5.26226">
        <ele>225</ele>
        <time>2022-06-02T14:37:34Z</time>
      </trkpt>
      <trkpt lat="46.54017" lon="5.26233">
        <ele>224.8</ele>
        <time>2022-06-02T14:37:35Z</time>
      </trkpt>
      <trkpt lat="46.54011" lon="5.26241">
        <ele>224.8</ele>
        <time>2022-06-02T14:37:36Z</time>
      </trkpt>
      <trkpt lat="46.54001" lon="5.26262">
        <ele>224.6</ele>
        <time>2022-06-02T14:37:38Z</time>
      </trkpt>
      <trkpt lat="46.53997" lon="5.26273">
        <ele>224.4</ele>
        <time>2022-06-02T14:37:39Z</time>
      </trkpt>
      <trkpt lat="46.53986" lon="5.26308">
        <ele>223</ele>
        <time>2022-06-02T14:37:42Z</time>
      </trkpt>
      <trkpt lat="46.53982" lon="5.26319">
        <ele>222.6</ele>
        <time>2022-06-02T14:37:43Z</time>
      </trkpt>
      <trkpt lat="46.53973" lon="5.26343">
        <ele>221.8</ele>
        <time>2022-06-02T14:37:45Z</time>
      </trkpt>
      <trkpt lat="46.53961" lon="5.26378">
        <ele>221.2</ele>
        <time>2022-06-02T14:37:48Z</time>
      </trkpt>
      <trkpt lat="46.53956" lon="5.2639">
        <ele>220.6</ele>
        <time>2022-06-02T14:37:49Z</time>
      </trkpt>
      <trkpt lat="46.53944" lon="5.26425">
        <ele>219.4</ele>
        <time>2022-06-02T14:37:52Z</time>
      </trkpt>
      <trkpt lat="46.53924" lon="5.26482">
        <ele>218.2</ele>
        <time>2022-06-02T14:37:57Z</time>
      </trkpt>
      <trkpt lat="46.53909" lon="5.26526">
        <ele>217.2</ele>
        <time>2022-06-02T14:38:01Z</time>
      </trkpt>
      <trkpt lat="46.53893" lon="5.2657">
        <ele>216.4</ele>
        <time>2022-06-02T14:38:05Z</time>
      </trkpt>
      <trkpt lat="46.53878" lon="5.26603">
        <ele>215.8</ele>
        <time>2022-06-02T14:38:08Z</time>
      </trkpt>
      <trkpt lat="46.53866" lon="5.26623">
        <ele>215</ele>
        <time>2022-06-02T14:38:10Z</time>
      </trkpt>
      <trkpt lat="46.53861" lon="5.26632">
        <ele>214.4</ele>
        <time>2022-06-02T14:38:11Z</time>
      </trkpt>
      <trkpt lat="46.53857" lon="5.26639">
        <ele>214.2</ele>
        <time>2022-06-02T14:38:12Z</time>
      </trkpt>
      <trkpt lat="46.53853" lon="5.26644">
        <ele>213.8</ele>
        <time>2022-06-02T14:38:13Z</time>
      </trkpt>
      <trkpt lat="46.53849" lon="5.26646">
        <ele>213.8</ele>
        <time>2022-06-02T14:38:14Z</time>
      </trkpt>
      <trkpt lat="46.53845" lon="5.26646">
        <ele>213.4</ele>
        <time>2022-06-02T14:38:15Z</time>
      </trkpt>
      <trkpt lat="46.53835" lon="5.26635">
        <ele>212</ele>
        <time>2022-06-02T14:38:18Z</time>
      </trkpt>
      <trkpt lat="46.53833" lon="5.26628">
        <ele>211.8</ele>
        <time>2022-06-02T14:38:19Z</time>
      </trkpt>
      <trkpt lat="46.53825" lon="5.26591">
        <ele>211.8</ele>
        <time>2022-06-02T14:38:24Z</time>
      </trkpt>
      <trkpt lat="46.53823" lon="5.26582">
        <ele>211.8</ele>
        <time>2022-06-02T14:38:25Z</time>
      </trkpt>
      <trkpt lat="46.53817" lon="5.26547">
        <ele>212.2</ele>
        <time>2022-06-02T14:38:28Z</time>
      </trkpt>
      <trkpt lat="46.53815" lon="5.26509">
        <ele>212.8</ele>
        <time>2022-06-02T14:38:31Z</time>
      </trkpt>
      <trkpt lat="46.53816" lon="5.265">
        <ele>213</ele>
        <time>2022-06-02T14:38:32Z</time>
      </trkpt>
      <trkpt lat="46.53813" lon="5.26471">
        <ele>213.2</ele>
        <time>2022-06-02T14:38:35Z</time>
      </trkpt>
      <trkpt lat="46.5381" lon="5.26452">
        <ele>213.6</ele>
        <time>2022-06-02T14:38:37Z</time>
      </trkpt>
      <trkpt lat="46.53803" lon="5.26436">
        <ele>214</ele>
        <time>2022-06-02T14:38:39Z</time>
      </trkpt>
      <trkpt lat="46.53789" lon="5.26426">
        <ele>214.4</ele>
        <time>2022-06-02T14:38:41Z</time>
      </trkpt>
      <trkpt lat="46.53784" lon="5.26426">
        <ele>214.4</ele>
        <time>2022-06-02T14:38:42Z</time>
      </trkpt>
      <trkpt lat="46.53779" lon="5.26428">
        <ele>214.4</ele>
        <time>2022-06-02T14:38:43Z</time>
      </trkpt>
      <trkpt lat="46.5377" lon="5.26432">
        <ele>214.8</ele>
        <time>2022-06-02T14:38:45Z</time>
      </trkpt>
      <trkpt lat="46.53761" lon="5.26437">
        <ele>215.2</ele>
        <time>2022-06-02T14:38:47Z</time>
      </trkpt>
      <trkpt lat="46.53746" lon="5.26447">
        <ele>215.4</ele>
        <time>2022-06-02T14:38:49Z</time>
      </trkpt>
      <trkpt lat="46.53739" lon="5.2645">
        <ele>215.6</ele>
        <time>2022-06-02T14:38:50Z</time>
      </trkpt>
      <trkpt lat="46.53704" lon="5.26467">
        <ele>215.4</ele>
        <time>2022-06-02T14:38:55Z</time>
      </trkpt>
      <trkpt lat="46.5366" lon="5.26481">
        <ele>214.8</ele>
        <time>2022-06-02T14:39:01Z</time>
      </trkpt>
      <trkpt lat="46.5363" lon="5.26479">
        <ele>214.2</ele>
        <time>2022-06-02T14:39:05Z</time>
      </trkpt>
      <trkpt lat="46.53608" lon="5.26476">
        <ele>213.6</ele>
        <time>2022-06-02T14:39:08Z</time>
      </trkpt>
      <trkpt lat="46.53563" lon="5.26478">
        <ele>213.4</ele>
        <time>2022-06-02T14:39:14Z</time>
      </trkpt>
      <trkpt lat="46.53521" lon="5.26472">
        <ele>213.8</ele>
        <time>2022-06-02T14:39:20Z</time>
      </trkpt>
      <trkpt lat="46.53465" lon="5.26467">
        <ele>213.8</ele>
        <time>2022-06-02T14:39:28Z</time>
      </trkpt>
      <trkpt lat="46.53458" lon="5.26466">
        <ele>213.8</ele>
        <time>2022-06-02T14:39:29Z</time>
      </trkpt>
      <trkpt lat="46.53403" lon="5.26464">
        <ele>213.4</ele>
        <time>2022-06-02T14:39:37Z</time>
      </trkpt>
      <trkpt lat="46.53345" lon="5.26463">
        <ele>213.6</ele>
        <time>2022-06-02T14:39:45Z</time>
      </trkpt>
      <trkpt lat="46.53338" lon="5.26463">
        <ele>213.6</ele>
        <time>2022-06-02T14:39:46Z</time>
      </trkpt>
      <trkpt lat="46.53277" lon="5.26453">
        <ele>213.8</ele>
        <time>2022-06-02T14:39:54Z</time>
      </trkpt>
      <trkpt lat="46.5327" lon="5.26453">
        <ele>213.8</ele>
        <time>2022-06-02T14:39:55Z</time>
      </trkpt>
      <trkpt lat="46.53233" lon="5.26446">
        <ele>213.8</ele>
        <time>2022-06-02T14:40:00Z</time>
      </trkpt>
      <trkpt lat="46.53174" lon="5.26438">
        <ele>213.8</ele>
        <time>2022-06-02T14:40:08Z</time>
      </trkpt>
      <trkpt lat="46.53123" lon="5.26431">
        <ele>214.2</ele>
        <time>2022-06-02T14:40:15Z</time>
      </trkpt>
      <trkpt lat="46.5308" lon="5.26417">
        <ele>214.4</ele>
        <time>2022-06-02T14:40:21Z</time>
      </trkpt>
      <trkpt lat="46.53028" lon="5.26387">
        <ele>214.6</ele>
        <time>2022-06-02T14:40:29Z</time>
      </trkpt>
      <trkpt lat="46.53021" lon="5.26384">
        <ele>214.6</ele>
        <time>2022-06-02T14:40:30Z</time>
      </trkpt>
      <trkpt lat="46.52971" lon="5.26355">
        <ele>215</ele>
        <time>2022-06-02T14:40:38Z</time>
      </trkpt>
      <trkpt lat="46.52947" lon="5.2634">
        <ele>215.4</ele>
        <time>2022-06-02T14:40:42Z</time>
      </trkpt>
      <trkpt lat="46.52922" lon="5.26326">
        <ele>215.6</ele>
        <time>2022-06-02T14:40:46Z</time>
      </trkpt>
      <trkpt lat="46.52876" lon="5.26308">
        <ele>216.2</ele>
        <time>2022-06-02T14:40:53Z</time>
      </trkpt>
      <trkpt lat="46.52856" lon="5.26307">
        <ele>216.4</ele>
        <time>2022-06-02T14:40:56Z</time>
      </trkpt>
      <trkpt lat="46.52836" lon="5.26309">
        <ele>216.6</ele>
        <time>2022-06-02T14:40:59Z</time>
      </trkpt>
      <trkpt lat="46.52795" lon="5.26306">
        <ele>216.6</ele>
        <time>2022-06-02T14:41:05Z</time>
      </trkpt>
      <trkpt lat="46.52753" lon="5.26288">
        <ele>217</ele>
        <time>2022-06-02T14:41:11Z</time>
      </trkpt>
      <trkpt lat="46.52695" lon="5.2626">
        <ele>216.6</ele>
        <time>2022-06-02T14:41:19Z</time>
      </trkpt>
      <trkpt lat="46.52687" lon="5.26257">
        <ele>216.6</ele>
        <time>2022-06-02T14:41:20Z</time>
      </trkpt>
      <trkpt lat="46.52636" lon="5.26228">
        <ele>216</ele>
        <time>2022-06-02T14:41:27Z</time>
      </trkpt>
      <trkpt lat="46.52597" lon="5.26192">
        <ele>215.4</ele>
        <time>2022-06-02T14:41:33Z</time>
      </trkpt>
      <trkpt lat="46.52591" lon="5.26184">
        <ele>215.4</ele>
        <time>2022-06-02T14:41:34Z</time>
      </trkpt>
      <trkpt lat="46.52586" lon="5.26176">
        <ele>215.4</ele>
        <time>2022-06-02T14:41:35Z</time>
      </trkpt>
      <trkpt lat="46.52564" lon="5.26138">
        <ele>214.8</ele>
        <time>2022-06-02T14:41:40Z</time>
      </trkpt>
      <trkpt lat="46.52558" lon="5.26124">
        <ele>214.4</ele>
        <time>2022-06-02T14:41:42Z</time>
      </trkpt>
      <trkpt lat="46.52553" lon="5.2612">
        <ele>214.4</ele>
        <time>2022-06-02T14:41:43Z</time>
      </trkpt>
      <trkpt lat="46.52547" lon="5.26118">
        <ele>214.2</ele>
        <time>2022-06-02T14:41:44Z</time>
      </trkpt>
      <trkpt lat="46.52534" lon="5.26117">
        <ele>213.8</ele>
        <time>2022-06-02T14:41:46Z</time>
      </trkpt>
      <trkpt lat="46.52527" lon="5.26118">
        <ele>213.6</ele>
        <time>2022-06-02T14:41:47Z</time>
      </trkpt>
      <trkpt lat="46.52513" lon="5.26122">
        <ele>213.6</ele>
        <time>2022-06-02T14:41:49Z</time>
      </trkpt>
      <trkpt lat="46.52507" lon="5.26128">
        <ele>213.6</ele>
        <time>2022-06-02T14:41:50Z</time>
      </trkpt>
      <trkpt lat="46.52502" lon="5.26136">
        <ele>213.6</ele>
        <time>2022-06-02T14:41:51Z</time>
      </trkpt>
      <trkpt lat="46.52495" lon="5.26154">
        <ele>213.6</ele>
        <time>2022-06-02T14:41:53Z</time>
      </trkpt>
      <trkpt lat="46.52473" lon="5.26212">
        <ele>213.4</ele>
        <time>2022-06-02T14:41:59Z</time>
      </trkpt>
      <trkpt lat="46.52465" lon="5.26231">
        <ele>213.4</ele>
        <time>2022-06-02T14:42:01Z</time>
      </trkpt>
      <trkpt lat="46.52436" lon="5.26309">
        <ele>213.2</ele>
        <time>2022-06-02T14:42:09Z</time>
      </trkpt>
      <trkpt lat="46.52408" lon="5.26388">
        <ele>213.2</ele>
        <time>2022-06-02T14:42:17Z</time>
      </trkpt>
      <trkpt lat="46.52404" lon="5.26397">
        <ele>213.2</ele>
        <time>2022-06-02T14:42:18Z</time>
      </trkpt>
      <trkpt lat="46.52389" lon="5.26432">
        <ele>213.4</ele>
        <time>2022-06-02T14:42:22Z</time>
      </trkpt>
      <trkpt lat="46.5238" lon="5.26447">
        <ele>213.6</ele>
        <time>2022-06-02T14:42:24Z</time>
      </trkpt>
      <trkpt lat="46.52368" lon="5.26457">
        <ele>213.6</ele>
        <time>2022-06-02T14:42:26Z</time>
      </trkpt>
      <trkpt lat="46.52356" lon="5.26464">
        <ele>214</ele>
        <time>2022-06-02T14:42:28Z</time>
      </trkpt>
      <trkpt lat="46.52344" lon="5.26469">
        <ele>214</ele>
        <time>2022-06-02T14:42:30Z</time>
      </trkpt>
      <trkpt lat="46.52327" lon="5.26476">
        <ele>214.4</ele>
        <time>2022-06-02T14:42:33Z</time>
      </trkpt>
      <trkpt lat="46.52321" lon="5.26479">
        <ele>214.8</ele>
        <time>2022-06-02T14:42:34Z</time>
      </trkpt>
      <trkpt lat="46.52288" lon="5.26494">
        <ele>216</ele>
        <time>2022-06-02T14:42:40Z</time>
      </trkpt>
      <trkpt lat="46.52254" lon="5.2651">
        <ele>217.2</ele>
        <time>2022-06-02T14:42:47Z</time>
      </trkpt>
      <trkpt lat="46.52249" lon="5.26513">
        <ele>217.4</ele>
        <time>2022-06-02T14:42:48Z</time>
      </trkpt>
      <trkpt lat="46.52234" lon="5.26518">
        <ele>218.2</ele>
        <time>2022-06-02T14:42:51Z</time>
      </trkpt>
      <trkpt lat="46.52214" lon="5.26526">
        <ele>218.8</ele>
        <time>2022-06-02T14:42:55Z</time>
      </trkpt>
      <trkpt lat="46.52204" lon="5.26531">
        <ele>219.4</ele>
        <time>2022-06-02T14:42:57Z</time>
      </trkpt>
      <trkpt lat="46.52189" lon="5.26543">
        <ele>219.6</ele>
        <time>2022-06-02T14:43:00Z</time>
      </trkpt>
      <trkpt lat="46.52185" lon="5.26548">
        <ele>219.8</ele>
        <time>2022-06-02T14:43:01Z</time>
      </trkpt>
      <trkpt lat="46.52173" lon="5.26565">
        <ele>220.2</ele>
        <time>2022-06-02T14:43:04Z</time>
      </trkpt>
      <trkpt lat="46.52153" lon="5.26598">
        <ele>221</ele>
        <time>2022-06-02T14:43:09Z</time>
      </trkpt>
      <trkpt lat="46.52138" lon="5.26624">
        <ele>221.4</ele>
        <time>2022-06-02T14:43:13Z</time>
      </trkpt>
      <trkpt lat="46.52122" lon="5.26648">
        <ele>221.4</ele>
        <time>2022-06-02T14:43:17Z</time>
      </trkpt>
      <trkpt lat="46.52094" lon="5.26674">
        <ele>221.8</ele>
        <time>2022-06-02T14:43:23Z</time>
      </trkpt>
      <trkpt lat="46.52076" lon="5.26692">
        <ele>222.6</ele>
        <time>2022-06-02T14:43:27Z</time>
      </trkpt>
      <trkpt lat="46.52064" lon="5.26703">
        <ele>223</ele>
        <time>2022-06-02T14:43:30Z</time>
      </trkpt>
      <trkpt lat="46.52056" lon="5.2671">
        <ele>223.6</ele>
        <time>2022-06-02T14:43:32Z</time>
      </trkpt>
      <trkpt lat="46.52044" lon="5.26718">
        <ele>224.2</ele>
        <time>2022-06-02T14:43:35Z</time>
      </trkpt>
      <trkpt lat="46.5204" lon="5.26722">
        <ele>224.6</ele>
        <time>2022-06-02T14:43:36Z</time>
      </trkpt>
      <trkpt lat="46.52036" lon="5.26726">
        <ele>225</ele>
        <time>2022-06-02T14:43:37Z</time>
      </trkpt>
      <trkpt lat="46.52028" lon="5.26733">
        <ele>225.6</ele>
        <time>2022-06-02T14:43:39Z</time>
      </trkpt>
      <trkpt lat="46.52024" lon="5.26737">
        <ele>225.8</ele>
        <time>2022-06-02T14:43:40Z</time>
      </trkpt>
      <trkpt lat="46.5202" lon="5.2674">
        <ele>226</ele>
        <time>2022-06-02T14:43:41Z</time>
      </trkpt>
      <trkpt lat="46.52" lon="5.26756">
        <ele>227.4</ele>
        <time>2022-06-02T14:43:46Z</time>
      </trkpt>
      <trkpt lat="46.51988" lon="5.26766">
        <ele>228</ele>
        <time>2022-06-02T14:43:49Z</time>
      </trkpt>
      <trkpt lat="46.51984" lon="5.26769">
        <ele>228.4</ele>
        <time>2022-06-02T14:43:50Z</time>
      </trkpt>
      <trkpt lat="46.51981" lon="5.26772">
        <ele>228.6</ele>
        <time>2022-06-02T14:43:51Z</time>
      </trkpt>
      <trkpt lat="46.5197" lon="5.26783">
        <ele>229.2</ele>
        <time>2022-06-02T14:43:54Z</time>
      </trkpt>
      <trkpt lat="46.51964" lon="5.26791">
        <ele>229.6</ele>
        <time>2022-06-02T14:43:56Z</time>
      </trkpt>
      <trkpt lat="46.51961" lon="5.26796">
        <ele>230</ele>
        <time>2022-06-02T14:43:57Z</time>
      </trkpt>
      <trkpt lat="46.51959" lon="5.268">
        <ele>230.2</ele>
        <time>2022-06-02T14:43:58Z</time>
      </trkpt>
      <trkpt lat="46.51952" lon="5.26816">
        <ele>231</ele>
        <time>2022-06-02T14:44:01Z</time>
      </trkpt>
      <trkpt lat="46.51951" lon="5.26821">
        <ele>231.4</ele>
        <time>2022-06-02T14:44:02Z</time>
      </trkpt>
      <trkpt lat="46.51949" lon="5.26827">
        <ele>231.4</ele>
        <time>2022-06-02T14:44:03Z</time>
      </trkpt>
      <trkpt lat="46.51948" lon="5.26839">
        <ele>232</ele>
        <time>2022-06-02T14:44:05Z</time>
      </trkpt>
      <trkpt lat="46.51948" lon="5.26845">
        <ele>232</ele>
        <time>2022-06-02T14:44:06Z</time>
      </trkpt>
      <trkpt lat="46.51952" lon="5.26873">
        <ele>233.2</ele>
        <time>2022-06-02T14:44:11Z</time>
      </trkpt>
      <trkpt lat="46.51954" lon="5.26879">
        <ele>233.6</ele>
        <time>2022-06-02T14:44:12Z</time>
      </trkpt>
      <trkpt lat="46.51962" lon="5.26901">
        <ele>234.4</ele>
        <time>2022-06-02T14:44:16Z</time>
      </trkpt>
      <trkpt lat="46.5197" lon="5.26926">
        <ele>235.2</ele>
        <time>2022-06-02T14:44:20Z</time>
      </trkpt>
      <trkpt lat="46.51974" lon="5.2694">
        <ele>235.4</ele>
        <time>2022-06-02T14:44:22Z</time>
      </trkpt>
      <trkpt lat="46.51979" lon="5.26963">
        <ele>235.8</ele>
        <time>2022-06-02T14:44:25Z</time>
      </trkpt>
      <trkpt lat="46.51988" lon="5.27016">
        <ele>235.8</ele>
        <time>2022-06-02T14:44:31Z</time>
      </trkpt>
      <trkpt lat="46.51994" lon="5.27081">
        <ele>235.4</ele>
        <time>2022-06-02T14:44:37Z</time>
      </trkpt>
      <trkpt lat="46.52002" lon="5.27142">
        <ele>234.4</ele>
        <time>2022-06-02T14:44:42Z</time>
      </trkpt>
      <trkpt lat="46.52004" lon="5.27155">
        <ele>234</ele>
        <time>2022-06-02T14:44:43Z</time>
      </trkpt>
      <trkpt lat="46.52012" lon="5.27194">
        <ele>233.2</ele>
        <time>2022-06-02T14:44:46Z</time>
      </trkpt>
      <trkpt lat="46.52019" lon="5.2722">
        <ele>232.4</ele>
        <time>2022-06-02T14:44:48Z</time>
      </trkpt>
      <trkpt lat="46.52028" lon="5.27245">
        <ele>231.8</ele>
        <time>2022-06-02T14:44:50Z</time>
      </trkpt>
      <trkpt lat="46.52034" lon="5.27257">
        <ele>231.2</ele>
        <time>2022-06-02T14:44:51Z</time>
      </trkpt>
      <trkpt lat="46.52041" lon="5.27267">
        <ele>231</ele>
        <time>2022-06-02T14:44:52Z</time>
      </trkpt>
      <trkpt lat="46.52048" lon="5.27276">
        <ele>230.2</ele>
        <time>2022-06-02T14:44:53Z</time>
      </trkpt>
      <trkpt lat="46.52065" lon="5.2729">
        <ele>229.6</ele>
        <time>2022-06-02T14:44:55Z</time>
      </trkpt>
      <trkpt lat="46.52084" lon="5.27299">
        <ele>229.2</ele>
        <time>2022-06-02T14:44:57Z</time>
      </trkpt>
      <trkpt lat="46.52102" lon="5.27312">
        <ele>228.6</ele>
        <time>2022-06-02T14:44:59Z</time>
      </trkpt>
      <trkpt lat="46.5211" lon="5.27321">
        <ele>227.8</ele>
        <time>2022-06-02T14:45:00Z</time>
      </trkpt>
      <trkpt lat="46.52116" lon="5.27333">
        <ele>227.4</ele>
        <time>2022-06-02T14:45:01Z</time>
      </trkpt>
      <trkpt lat="46.52121" lon="5.27347">
        <ele>227.2</ele>
        <time>2022-06-02T14:45:02Z</time>
      </trkpt>
      <trkpt lat="46.52122" lon="5.27362">
        <ele>226.8</ele>
        <time>2022-06-02T14:45:03Z</time>
      </trkpt>
      <trkpt lat="46.52122" lon="5.27377">
        <ele>226.4</ele>
        <time>2022-06-02T14:45:04Z</time>
      </trkpt>
      <trkpt lat="46.5212" lon="5.27392">
        <ele>226</ele>
        <time>2022-06-02T14:45:05Z</time>
      </trkpt>
      <trkpt lat="46.52116" lon="5.27406">
        <ele>225.6</ele>
        <time>2022-06-02T14:45:06Z</time>
      </trkpt>
      <trkpt lat="46.52112" lon="5.2742">
        <ele>225.2</ele>
        <time>2022-06-02T14:45:07Z</time>
      </trkpt>
      <trkpt lat="46.52106" lon="5.27433">
        <ele>224.6</ele>
        <time>2022-06-02T14:45:08Z</time>
      </trkpt>
      <trkpt lat="46.52093" lon="5.27457">
        <ele>223.6</ele>
        <time>2022-06-02T14:45:10Z</time>
      </trkpt>
      <trkpt lat="46.52086" lon="5.27468">
        <ele>223.4</ele>
        <time>2022-06-02T14:45:11Z</time>
      </trkpt>
      <trkpt lat="46.52062" lon="5.27498">
        <ele>222.4</ele>
        <time>2022-06-02T14:45:14Z</time>
      </trkpt>
      <trkpt lat="46.52038" lon="5.27529">
        <ele>221</ele>
        <time>2022-06-02T14:45:17Z</time>
      </trkpt>
      <trkpt lat="46.52021" lon="5.2755">
        <ele>220.2</ele>
        <time>2022-06-02T14:45:19Z</time>
      </trkpt>
      <trkpt lat="46.52006" lon="5.27571">
        <ele>219.4</ele>
        <time>2022-06-02T14:45:21Z</time>
      </trkpt>
      <trkpt lat="46.51983" lon="5.27601">
        <ele>218.4</ele>
        <time>2022-06-02T14:45:24Z</time>
      </trkpt>
      <trkpt lat="46.51941" lon="5.27654">
        <ele>217.6</ele>
        <time>2022-06-02T14:45:30Z</time>
      </trkpt>
      <trkpt lat="46.51911" lon="5.27689">
        <ele>217.6</ele>
        <time>2022-06-02T14:45:35Z</time>
      </trkpt>
      <trkpt lat="46.51879" lon="5.27723">
        <ele>218.6</ele>
        <time>2022-06-02T14:45:41Z</time>
      </trkpt>
      <trkpt lat="46.51863" lon="5.27737">
        <ele>219.4</ele>
        <time>2022-06-02T14:45:44Z</time>
      </trkpt>
      <trkpt lat="46.51853" lon="5.27748">
        <ele>219.6</ele>
        <time>2022-06-02T14:45:46Z</time>
      </trkpt>
      <trkpt lat="46.51831" lon="5.27772">
        <ele>220.6</ele>
        <time>2022-06-02T14:45:51Z</time>
      </trkpt>
      <trkpt lat="46.51813" lon="5.27791">
        <ele>221.2</ele>
        <time>2022-06-02T14:45:55Z</time>
      </trkpt>
      <trkpt lat="46.51808" lon="5.27795">
        <ele>221.6</ele>
        <time>2022-06-02T14:45:56Z</time>
      </trkpt>
      <trkpt lat="46.51787" lon="5.27818">
        <ele>222.6</ele>
        <time>2022-06-02T14:46:01Z</time>
      </trkpt>
      <trkpt lat="46.51774" lon="5.27832">
        <ele>223.6</ele>
        <time>2022-06-02T14:46:04Z</time>
      </trkpt>
      <trkpt lat="46.5177" lon="5.27837">
        <ele>223.8</ele>
        <time>2022-06-02T14:46:05Z</time>
      </trkpt>
      <trkpt lat="46.51749" lon="5.27859">
        <ele>224.8</ele>
        <time>2022-06-02T14:46:10Z</time>
      </trkpt>
      <trkpt lat="46.51732" lon="5.27876">
        <ele>226</ele>
        <time>2022-06-02T14:46:14Z</time>
      </trkpt>
      <trkpt lat="46.5172" lon="5.27887">
        <ele>227</ele>
        <time>2022-06-02T14:46:17Z</time>
      </trkpt>
      <trkpt lat="46.51691" lon="5.27916">
        <ele>228</ele>
        <time>2022-06-02T14:46:24Z</time>
      </trkpt>
      <trkpt lat="46.51682" lon="5.27925">
        <ele>228.4</ele>
        <time>2022-06-02T14:46:26Z</time>
      </trkpt>
      <trkpt lat="46.51652" lon="5.27955">
        <ele>229.2</ele>
        <time>2022-06-02T14:46:33Z</time>
      </trkpt>
      <trkpt lat="46.51639" lon="5.27969">
        <ele>229.6</ele>
        <time>2022-06-02T14:46:36Z</time>
      </trkpt>
      <trkpt lat="46.51616" lon="5.27993">
        <ele>230</ele>
        <time>2022-06-02T14:46:41Z</time>
      </trkpt>
      <trkpt lat="46.51612" lon="5.27998">
        <ele>230.2</ele>
        <time>2022-06-02T14:46:42Z</time>
      </trkpt>
      <trkpt lat="46.51607" lon="5.28004">
        <ele>230.2</ele>
        <time>2022-06-02T14:46:43Z</time>
      </trkpt>
      <trkpt lat="46.51591" lon="5.28035">
        <ele>230.4</ele>
        <time>2022-06-02T14:46:47Z</time>
      </trkpt>
      <trkpt lat="46.51574" lon="5.28088">
        <ele>229.8</ele>
        <time>2022-06-02T14:46:52Z</time>
      </trkpt>
      <trkpt lat="46.51556" lon="5.28147">
        <ele>228.8</ele>
        <time>2022-06-02T14:46:57Z</time>
      </trkpt>
      <trkpt lat="46.51552" lon="5.28159">
        <ele>228.6</ele>
        <time>2022-06-02T14:46:58Z</time>
      </trkpt>
      <trkpt lat="46.51536" lon="5.28209">
        <ele>227.2</ele>
        <time>2022-06-02T14:47:02Z</time>
      </trkpt>
      <trkpt lat="46.51526" lon="5.28233">
        <ele>226.4</ele>
        <time>2022-06-02T14:47:04Z</time>
      </trkpt>
      <trkpt lat="46.5152" lon="5.28244">
        <ele>226</ele>
        <time>2022-06-02T14:47:05Z</time>
      </trkpt>
      <trkpt lat="46.51497" lon="5.28292">
        <ele>224.6</ele>
        <time>2022-06-02T14:47:09Z</time>
      </trkpt>
      <trkpt lat="46.51478" lon="5.28328">
        <ele>223.6</ele>
        <time>2022-06-02T14:47:12Z</time>
      </trkpt>
      <trkpt lat="46.51472" lon="5.2834">
        <ele>223</ele>
        <time>2022-06-02T14:47:13Z</time>
      </trkpt>
      <trkpt lat="46.51453" lon="5.28378">
        <ele>222</ele>
        <time>2022-06-02T14:47:16Z</time>
      </trkpt>
      <trkpt lat="46.51434" lon="5.28415">
        <ele>220.8</ele>
        <time>2022-06-02T14:47:19Z</time>
      </trkpt>
      <trkpt lat="46.51423" lon="5.28442">
        <ele>220.2</ele>
        <time>2022-06-02T14:47:21Z</time>
      </trkpt>
      <trkpt lat="46.51419" lon="5.28456">
        <ele>219.6</ele>
        <time>2022-06-02T14:47:22Z</time>
      </trkpt>
      <trkpt lat="46.51417" lon="5.28471">
        <ele>219</ele>
        <time>2022-06-02T14:47:23Z</time>
      </trkpt>
      <trkpt lat="46.51417" lon="5.28486">
        <ele>218.8</ele>
        <time>2022-06-02T14:47:24Z</time>
      </trkpt>
      <trkpt lat="46.51419" lon="5.28501">
        <ele>218</ele>
        <time>2022-06-02T14:47:25Z</time>
      </trkpt>
      <trkpt lat="46.51427" lon="5.28528">
        <ele>217.2</ele>
        <time>2022-06-02T14:47:27Z</time>
      </trkpt>
      <trkpt lat="46.51437" lon="5.28555">
        <ele>216.6</ele>
        <time>2022-06-02T14:47:29Z</time>
      </trkpt>
      <trkpt lat="46.51455" lon="5.28607">
        <ele>216</ele>
        <time>2022-06-02T14:47:33Z</time>
      </trkpt>
      <trkpt lat="46.51477" lon="5.28672">
        <ele>215.6</ele>
        <time>2022-06-02T14:47:38Z</time>
      </trkpt>
      <trkpt lat="46.51493" lon="5.28722">
        <ele>215.4</ele>
        <time>2022-06-02T14:47:42Z</time>
      </trkpt>
      <trkpt lat="46.51504" lon="5.2877">
        <ele>215.4</ele>
        <time>2022-06-02T14:47:46Z</time>
      </trkpt>
      <trkpt lat="46.51508" lon="5.28807">
        <ele>215.2</ele>
        <time>2022-06-02T14:47:49Z</time>
      </trkpt>
      <trkpt lat="46.51507" lon="5.28832">
        <ele>215.2</ele>
        <time>2022-06-02T14:47:51Z</time>
      </trkpt>
      <trkpt lat="46.51494" lon="5.28907">
        <ele>215.2</ele>
        <time>2022-06-02T14:47:57Z</time>
      </trkpt>
      <trkpt lat="46.51479" lon="5.28989">
        <ele>215</ele>
        <time>2022-06-02T14:48:04Z</time>
      </trkpt>
      <trkpt lat="46.51475" lon="5.29012">
        <ele>215</ele>
        <time>2022-06-02T14:48:06Z</time>
      </trkpt>
      <trkpt lat="46.51462" lon="5.29085">
        <ele>215.4</ele>
        <time>2022-06-02T14:48:13Z</time>
      </trkpt>
      <trkpt lat="46.51448" lon="5.29165">
        <ele>216.6</ele>
        <time>2022-06-02T14:48:21Z</time>
      </trkpt>
      <trkpt lat="46.51446" lon="5.29175">
        <ele>216.8</ele>
        <time>2022-06-02T14:48:22Z</time>
      </trkpt>
      <trkpt lat="46.51434" lon="5.29213">
        <ele>217.2</ele>
        <time>2022-06-02T14:48:26Z</time>
      </trkpt>
      <trkpt lat="46.51427" lon="5.29228">
        <ele>217.2</ele>
        <time>2022-06-02T14:48:28Z</time>
      </trkpt>
      <trkpt lat="46.51422" lon="5.29235">
        <ele>217.2</ele>
        <time>2022-06-02T14:48:29Z</time>
      </trkpt>
      <trkpt lat="46.51387" lon="5.2929">
        <ele>217.6</ele>
        <time>2022-06-02T14:48:36Z</time>
      </trkpt>
      <trkpt lat="46.51356" lon="5.29337">
        <ele>217.6</ele>
        <time>2022-06-02T14:48:42Z</time>
      </trkpt>
      <trkpt lat="46.5135" lon="5.29343">
        <ele>217.6</ele>
        <time>2022-06-02T14:48:43Z</time>
      </trkpt>
      <trkpt lat="46.51329" lon="5.29357">
        <ele>217.4</ele>
        <time>2022-06-02T14:48:46Z</time>
      </trkpt>
      <trkpt lat="46.51286" lon="5.29383">
        <ele>217.4</ele>
        <time>2022-06-02T14:48:52Z</time>
      </trkpt>
      <trkpt lat="46.51279" lon="5.29387">
        <ele>217.4</ele>
        <time>2022-06-02T14:48:53Z</time>
      </trkpt>
      <trkpt lat="46.51236" lon="5.294">
        <ele>217.2</ele>
        <time>2022-06-02T14:48:59Z</time>
      </trkpt>
      <trkpt lat="46.51182" lon="5.29413">
        <ele>217.4</ele>
        <time>2022-06-02T14:49:07Z</time>
      </trkpt>
      <trkpt lat="46.51176" lon="5.29415">
        <ele>217.4</ele>
        <time>2022-06-02T14:49:08Z</time>
      </trkpt>
      <trkpt lat="46.51136" lon="5.29425">
        <ele>218</ele>
        <time>2022-06-02T14:49:14Z</time>
      </trkpt>
      <trkpt lat="46.5111" lon="5.29433">
        <ele>218.2</ele>
        <time>2022-06-02T14:49:18Z</time>
      </trkpt>
      <trkpt lat="46.51058" lon="5.29453">
        <ele>218.6</ele>
        <time>2022-06-02T14:49:26Z</time>
      </trkpt>
      <trkpt lat="46.51031" lon="5.29472">
        <ele>219</ele>
        <time>2022-06-02T14:49:31Z</time>
      </trkpt>
      <trkpt lat="46.51025" lon="5.29475">
        <ele>219</ele>
        <time>2022-06-02T14:49:32Z</time>
      </trkpt>
      <trkpt lat="46.5102" lon="5.29479">
        <ele>219.4</ele>
        <time>2022-06-02T14:49:33Z</time>
      </trkpt>
      <trkpt lat="46.51006" lon="5.29491">
        <ele>220</ele>
        <time>2022-06-02T14:49:36Z</time>
      </trkpt>
      <trkpt lat="46.50996" lon="5.29499">
        <ele>220.2</ele>
        <time>2022-06-02T14:49:38Z</time>
      </trkpt>
      <trkpt lat="46.50971" lon="5.29518">
        <ele>221</ele>
        <time>2022-06-02T14:49:44Z</time>
      </trkpt>
      <trkpt lat="46.50967" lon="5.29521">
        <ele>221.2</ele>
        <time>2022-06-02T14:49:45Z</time>
      </trkpt>
      <trkpt lat="46.50949" lon="5.29534">
        <ele>222.4</ele>
        <time>2022-06-02T14:49:50Z</time>
      </trkpt>
      <trkpt lat="46.50945" lon="5.29537">
        <ele>222.4</ele>
        <time>2022-06-02T14:49:51Z</time>
      </trkpt>
      <trkpt lat="46.50935" lon="5.29545">
        <ele>223.4</ele>
        <time>2022-06-02T14:49:54Z</time>
      </trkpt>
      <trkpt lat="46.50925" lon="5.29553">
        <ele>224.6</ele>
        <time>2022-06-02T14:49:57Z</time>
      </trkpt>
      <trkpt lat="46.50922" lon="5.29555">
        <ele>224.8</ele>
        <time>2022-06-02T14:49:58Z</time>
      </trkpt>
      <trkpt lat="46.50905" lon="5.29564">
        <ele>226</ele>
        <time>2022-06-02T14:50:03Z</time>
      </trkpt>
      <trkpt lat="46.50898" lon="5.29567">
        <ele>226.6</ele>
        <time>2022-06-02T14:50:05Z</time>
      </trkpt>
      <trkpt lat="46.50891" lon="5.29568">
        <ele>227</ele>
        <time>2022-06-02T14:50:07Z</time>
      </trkpt>
      <trkpt lat="46.50877" lon="5.29569">
        <ele>228.2</ele>
        <time>2022-06-02T14:50:11Z</time>
      </trkpt>
      <trkpt lat="46.50869" lon="5.29569">
        <ele>228.6</ele>
        <time>2022-06-02T14:50:13Z</time>
      </trkpt>
      <trkpt lat="46.50859" lon="5.29568">
        <ele>229.4</ele>
        <time>2022-06-02T14:50:16Z</time>
      </trkpt>
      <trkpt lat="46.50843" lon="5.29566">
        <ele>230.4</ele>
        <time>2022-06-02T14:50:20Z</time>
      </trkpt>
      <trkpt lat="46.50836" lon="5.29565">
        <ele>230.6</ele>
        <time>2022-06-02T14:50:22Z</time>
      </trkpt>
      <trkpt lat="46.50816" lon="5.29564">
        <ele>231.6</ele>
        <time>2022-06-02T14:50:27Z</time>
      </trkpt>
      <trkpt lat="46.50802" lon="5.29563">
        <ele>232.2</ele>
        <time>2022-06-02T14:50:31Z</time>
      </trkpt>
      <trkpt lat="46.50798" lon="5.29563">
        <ele>232.6</ele>
        <time>2022-06-02T14:50:32Z</time>
      </trkpt>
      <trkpt lat="46.50764" lon="5.29561">
        <ele>233.8</ele>
        <time>2022-06-02T14:50:41Z</time>
      </trkpt>
      <trkpt lat="46.50756" lon="5.29559">
        <ele>234.4</ele>
        <time>2022-06-02T14:50:43Z</time>
      </trkpt>
      <trkpt lat="46.50745" lon="5.29556">
        <ele>235</ele>
        <time>2022-06-02T14:50:46Z</time>
      </trkpt>
      <trkpt lat="46.50717" lon="5.29544">
        <ele>236</ele>
        <time>2022-06-02T14:50:53Z</time>
      </trkpt>
      <trkpt lat="46.50713" lon="5.29542">
        <ele>236.2</ele>
        <time>2022-06-02T14:50:54Z</time>
      </trkpt>
      <trkpt lat="46.50688" lon="5.2953">
        <ele>237.4</ele>
        <time>2022-06-02T14:51:00Z</time>
      </trkpt>
      <trkpt lat="46.50683" lon="5.29529">
        <ele>237.6</ele>
        <time>2022-06-02T14:51:01Z</time>
      </trkpt>
      <trkpt lat="46.50661" lon="5.29522">
        <ele>238.2</ele>
        <time>2022-06-02T14:51:06Z</time>
      </trkpt>
      <trkpt lat="46.50656" lon="5.29522">
        <ele>238.2</ele>
        <time>2022-06-02T14:51:07Z</time>
      </trkpt>
      <trkpt lat="46.50651" lon="5.29522">
        <ele>238.4</ele>
        <time>2022-06-02T14:51:08Z</time>
      </trkpt>
      <trkpt lat="46.50646" lon="5.29524">
        <ele>238.6</ele>
        <time>2022-06-02T14:51:09Z</time>
      </trkpt>
      <trkpt lat="46.50632" lon="5.2953">
        <ele>239.2</ele>
        <time>2022-06-02T14:51:12Z</time>
      </trkpt>
      <trkpt lat="46.50622" lon="5.29537">
        <ele>239.4</ele>
        <time>2022-06-02T14:51:14Z</time>
      </trkpt>
      <trkpt lat="46.50582" lon="5.29569">
        <ele>240.2</ele>
        <time>2022-06-02T14:51:22Z</time>
      </trkpt>
      <trkpt lat="46.50577" lon="5.29573">
        <ele>240.2</ele>
        <time>2022-06-02T14:51:23Z</time>
      </trkpt>
      <trkpt lat="46.50543" lon="5.29599">
        <ele>240.6</ele>
        <time>2022-06-02T14:51:29Z</time>
      </trkpt>
      <trkpt lat="46.50489" lon="5.29638">
        <ele>240.6</ele>
        <time>2022-06-02T14:51:38Z</time>
      </trkpt>
      <trkpt lat="46.50439" lon="5.2967">
        <ele>241.2</ele>
        <time>2022-06-02T14:51:46Z</time>
      </trkpt>
      <trkpt lat="46.50426" lon="5.29679">
        <ele>241.2</ele>
        <time>2022-06-02T14:51:48Z</time>
      </trkpt>
      <trkpt lat="46.50414" lon="5.29687">
        <ele>241.4</ele>
        <time>2022-06-02T14:51:50Z</time>
      </trkpt>
      <trkpt lat="46.50377" lon="5.29711">
        <ele>241.6</ele>
        <time>2022-06-02T14:51:56Z</time>
      </trkpt>
      <trkpt lat="46.50323" lon="5.29735">
        <ele>241.8</ele>
        <time>2022-06-02T14:52:04Z</time>
      </trkpt>
      <trkpt lat="46.50316" lon="5.29738">
        <ele>241.8</ele>
        <time>2022-06-02T14:52:05Z</time>
      </trkpt>
      <trkpt lat="46.50259" lon="5.29762">
        <ele>241.2</ele>
        <time>2022-06-02T14:52:13Z</time>
      </trkpt>
      <trkpt lat="46.50245" lon="5.29766">
        <ele>241.2</ele>
        <time>2022-06-02T14:52:15Z</time>
      </trkpt>
      <trkpt lat="46.50208" lon="5.29767">
        <ele>240.8</ele>
        <time>2022-06-02T14:52:20Z</time>
      </trkpt>
      <trkpt lat="46.50148" lon="5.2977">
        <ele>240.6</ele>
        <time>2022-06-02T14:52:28Z</time>
      </trkpt>
      <trkpt lat="46.50132" lon="5.29774">
        <ele>240.4</ele>
        <time>2022-06-02T14:52:30Z</time>
      </trkpt>
      <trkpt lat="46.50099" lon="5.29783">
        <ele>240</ele>
        <time>2022-06-02T14:52:34Z</time>
      </trkpt>
      <trkpt lat="46.50074" lon="5.29793">
        <ele>239</ele>
        <time>2022-06-02T14:52:37Z</time>
      </trkpt>
      <trkpt lat="46.50057" lon="5.29801">
        <ele>238.2</ele>
        <time>2022-06-02T14:52:39Z</time>
      </trkpt>
      <trkpt lat="46.5005" lon="5.29807">
        <ele>237.8</ele>
        <time>2022-06-02T14:52:40Z</time>
      </trkpt>
      <trkpt lat="46.50043" lon="5.29814">
        <ele>237.6</ele>
        <time>2022-06-02T14:52:41Z</time>
      </trkpt>
      <trkpt lat="46.50026" lon="5.29837">
        <ele>236.8</ele>
        <time>2022-06-02T14:52:44Z</time>
      </trkpt>
      <trkpt lat="46.50016" lon="5.29855">
        <ele>235.6</ele>
        <time>2022-06-02T14:52:47Z</time>
      </trkpt>
      <trkpt lat="46.50017" lon="5.29869">
        <ele>235.4</ele>
        <time>2022-06-02T14:52:49Z</time>
      </trkpt>
      <trkpt lat="46.50021" lon="5.29876">
        <ele>235.4</ele>
        <time>2022-06-02T14:52:50Z</time>
      </trkpt>
      <trkpt lat="46.50025" lon="5.29882">
        <ele>235.4</ele>
        <time>2022-06-02T14:52:51Z</time>
      </trkpt>
      <trkpt lat="46.50042" lon="5.299">
        <ele>235.4</ele>
        <time>2022-06-02T14:52:54Z</time>
      </trkpt>
      <trkpt lat="46.50057" lon="5.29925">
        <ele>235.2</ele>
        <time>2022-06-02T14:52:57Z</time>
      </trkpt>
      <trkpt lat="46.50066" lon="5.29944">
        <ele>235.4</ele>
        <time>2022-06-02T14:52:59Z</time>
      </trkpt>
      <trkpt lat="46.50081" lon="5.29994">
        <ele>235.8</ele>
        <time>2022-06-02T14:53:04Z</time>
      </trkpt>
      <trkpt lat="46.50085" lon="5.30057">
        <ele>236.2</ele>
        <time>2022-06-02T14:53:10Z</time>
      </trkpt>
      <trkpt lat="46.50086" lon="5.30145">
        <ele>236.4</ele>
        <time>2022-06-02T14:53:18Z</time>
      </trkpt>
      <trkpt lat="46.50086" lon="5.30202">
        <ele>236.4</ele>
        <time>2022-06-02T14:53:23Z</time>
      </trkpt>
      <trkpt lat="46.50086" lon="5.30213">
        <ele>236.4</ele>
        <time>2022-06-02T14:53:24Z</time>
      </trkpt>
      <trkpt lat="46.50081" lon="5.30294">
        <ele>235.8</ele>
        <time>2022-06-02T14:53:31Z</time>
      </trkpt>
      <trkpt lat="46.50077" lon="5.30318">
        <ele>235.8</ele>
        <time>2022-06-02T14:53:33Z</time>
      </trkpt>
      <trkpt lat="46.50069" lon="5.30341">
        <ele>235.6</ele>
        <time>2022-06-02T14:53:35Z</time>
      </trkpt>
      <trkpt lat="46.50064" lon="5.30353">
        <ele>235.4</ele>
        <time>2022-06-02T14:53:36Z</time>
      </trkpt>
      <trkpt lat="46.50046" lon="5.30383">
        <ele>234.8</ele>
        <time>2022-06-02T14:53:39Z</time>
      </trkpt>
      <trkpt lat="46.50039" lon="5.30391">
        <ele>234.4</ele>
        <time>2022-06-02T14:53:40Z</time>
      </trkpt>
      <trkpt lat="46.50016" lon="5.30411">
        <ele>233.4</ele>
        <time>2022-06-02T14:53:43Z</time>
      </trkpt>
      <trkpt lat="46.50009" lon="5.30416">
        <ele>233.4</ele>
        <time>2022-06-02T14:53:44Z</time>
      </trkpt>
      <trkpt lat="46.49982" lon="5.30437">
        <ele>233</ele>
        <time>2022-06-02T14:53:48Z</time>
      </trkpt>
      <trkpt lat="46.4996" lon="5.30461">
        <ele>233.6</ele>
        <time>2022-06-02T14:53:52Z</time>
      </trkpt>
      <trkpt lat="46.49956" lon="5.30467">
        <ele>233.8</ele>
        <time>2022-06-02T14:53:53Z</time>
      </trkpt>
      <trkpt lat="46.49945" lon="5.30489">
        <ele>234.4</ele>
        <time>2022-06-02T14:53:56Z</time>
      </trkpt>
      <trkpt lat="46.49939" lon="5.30505">
        <ele>234.8</ele>
        <time>2022-06-02T14:53:58Z</time>
      </trkpt>
      <trkpt lat="46.49931" lon="5.30544">
        <ele>235.6</ele>
        <time>2022-06-02T14:54:03Z</time>
      </trkpt>
      <trkpt lat="46.49931" lon="5.30552">
        <ele>235.6</ele>
        <time>2022-06-02T14:54:04Z</time>
      </trkpt>
      <trkpt lat="46.49931" lon="5.30585">
        <ele>236.6</ele>
        <time>2022-06-02T14:54:08Z</time>
      </trkpt>
      <trkpt lat="46.49933" lon="5.30608">
        <ele>237.2</ele>
        <time>2022-06-02T14:54:11Z</time>
      </trkpt>
      <trkpt lat="46.49935" lon="5.30624">
        <ele>237.8</ele>
        <time>2022-06-02T14:54:13Z</time>
      </trkpt>
      <trkpt lat="46.49946" lon="5.3068">
        <ele>239</ele>
        <time>2022-06-02T14:54:20Z</time>
      </trkpt>
      <trkpt lat="46.49949" lon="5.30696">
        <ele>239.4</ele>
        <time>2022-06-02T14:54:22Z</time>
      </trkpt>
      <trkpt lat="46.49954" lon="5.30727">
        <ele>239.8</ele>
        <time>2022-06-02T14:54:26Z</time>
      </trkpt>
      <trkpt lat="46.49956" lon="5.30735">
        <ele>240.2</ele>
        <time>2022-06-02T14:54:27Z</time>
      </trkpt>
      <trkpt lat="46.49961" lon="5.30762">
        <ele>240.8</ele>
        <time>2022-06-02T14:54:30Z</time>
      </trkpt>
      <trkpt lat="46.49968" lon="5.308">
        <ele>241.2</ele>
        <time>2022-06-02T14:54:34Z</time>
      </trkpt>
      <trkpt lat="46.49976" lon="5.3083">
        <ele>241.2</ele>
        <time>2022-06-02T14:54:37Z</time>
      </trkpt>
      <trkpt lat="46.50001" lon="5.30903">
        <ele>240.4</ele>
        <time>2022-06-02T14:54:44Z</time>
      </trkpt>
      <trkpt lat="46.50006" lon="5.30914">
        <ele>240.2</ele>
        <time>2022-06-02T14:54:45Z</time>
      </trkpt>
      <trkpt lat="46.50024" lon="5.30962">
        <ele>239.2</ele>
        <time>2022-06-02T14:54:49Z</time>
      </trkpt>
      <trkpt lat="46.50028" lon="5.30975">
        <ele>238.6</ele>
        <time>2022-06-02T14:54:50Z</time>
      </trkpt>
      <trkpt lat="46.50038" lon="5.31002">
        <ele>237.8</ele>
        <time>2022-06-02T14:54:52Z</time>
      </trkpt>
      <trkpt lat="46.50052" lon="5.31043">
        <ele>236</ele>
        <time>2022-06-02T14:54:55Z</time>
      </trkpt>
      <trkpt lat="46.50057" lon="5.31057">
        <ele>235.8</ele>
        <time>2022-06-02T14:54:56Z</time>
      </trkpt>
      <trkpt lat="46.50067" lon="5.31087">
        <ele>234.8</ele>
        <time>2022-06-02T14:54:58Z</time>
      </trkpt>
      <trkpt lat="46.50081" lon="5.31131">
        <ele>233</ele>
        <time>2022-06-02T14:55:01Z</time>
      </trkpt>
      <trkpt lat="46.5009" lon="5.31158">
        <ele>232</ele>
        <time>2022-06-02T14:55:03Z</time>
      </trkpt>
      <trkpt lat="46.50112" lon="5.31222">
        <ele>231</ele>
        <time>2022-06-02T14:55:08Z</time>
      </trkpt>
      <trkpt lat="46.50116" lon="5.31234">
        <ele>230.8</ele>
        <time>2022-06-02T14:55:09Z</time>
      </trkpt>
      <trkpt lat="46.50136" lon="5.31292">
        <ele>230.8</ele>
        <time>2022-06-02T14:55:14Z</time>
      </trkpt>
      <trkpt lat="46.50161" lon="5.31364">
        <ele>231.6</ele>
        <time>2022-06-02T14:55:20Z</time>
      </trkpt>
      <trkpt lat="46.50173" lon="5.31401">
        <ele>231.8</ele>
        <time>2022-06-02T14:55:23Z</time>
      </trkpt>
      <trkpt lat="46.50181" lon="5.31426">
        <ele>231.8</ele>
        <time>2022-06-02T14:55:25Z</time>
      </trkpt>
      <trkpt lat="46.50204" lon="5.31492">
        <ele>230.8</ele>
        <time>2022-06-02T14:55:30Z</time>
      </trkpt>
      <trkpt lat="46.50209" lon="5.31506">
        <ele>230.6</ele>
        <time>2022-06-02T14:55:31Z</time>
      </trkpt>
      <trkpt lat="46.50221" lon="5.31533">
        <ele>229.8</ele>
        <time>2022-06-02T14:55:33Z</time>
      </trkpt>
      <trkpt lat="46.50228" lon="5.31545">
        <ele>229.2</ele>
        <time>2022-06-02T14:55:34Z</time>
      </trkpt>
      <trkpt lat="46.50243" lon="5.31568">
        <ele>228</ele>
        <time>2022-06-02T14:55:36Z</time>
      </trkpt>
      <trkpt lat="46.50261" lon="5.31587">
        <ele>226.8</ele>
        <time>2022-06-02T14:55:38Z</time>
      </trkpt>
      <trkpt lat="46.50297" lon="5.31618">
        <ele>225.8</ele>
        <time>2022-06-02T14:55:42Z</time>
      </trkpt>
      <trkpt lat="46.50314" lon="5.31631">
        <ele>225.4</ele>
        <time>2022-06-02T14:55:44Z</time>
      </trkpt>
      <trkpt lat="46.50365" lon="5.31673">
        <ele>225</ele>
        <time>2022-06-02T14:55:50Z</time>
      </trkpt>
      <trkpt lat="46.50372" lon="5.31682">
        <ele>225</ele>
        <time>2022-06-02T14:55:51Z</time>
      </trkpt>
      <trkpt lat="46.50389" lon="5.31712">
        <ele>225</ele>
        <time>2022-06-02T14:55:54Z</time>
      </trkpt>
      <trkpt lat="46.50394" lon="5.31722">
        <ele>225</ele>
        <time>2022-06-02T14:55:55Z</time>
      </trkpt>
      <trkpt lat="46.50415" lon="5.31777">
        <ele>225.2</ele>
        <time>2022-06-02T14:56:00Z</time>
      </trkpt>
      <trkpt lat="46.50433" lon="5.31858">
        <ele>226</ele>
        <time>2022-06-02T14:56:07Z</time>
      </trkpt>
      <trkpt lat="46.50437" lon="5.31918">
        <ele>226.2</ele>
        <time>2022-06-02T14:56:12Z</time>
      </trkpt>
      <trkpt lat="46.50435" lon="5.31999">
        <ele>226.4</ele>
        <time>2022-06-02T14:56:19Z</time>
      </trkpt>
      <trkpt lat="46.50432" lon="5.32087">
        <ele>226.8</ele>
        <time>2022-06-02T14:56:27Z</time>
      </trkpt>
      <trkpt lat="46.5043" lon="5.32139">
        <ele>227</ele>
        <time>2022-06-02T14:56:32Z</time>
      </trkpt>
      <trkpt lat="46.50429" lon="5.32179">
        <ele>227.6</ele>
        <time>2022-06-02T14:56:36Z</time>
      </trkpt>
      <trkpt lat="46.50428" lon="5.32227">
        <ele>228.2</ele>
        <time>2022-06-02T14:56:41Z</time>
      </trkpt>
      <trkpt lat="46.50429" lon="5.32256">
        <ele>228.4</ele>
        <time>2022-06-02T14:56:44Z</time>
      </trkpt>
      <trkpt lat="46.50436" lon="5.32312">
        <ele>229</ele>
        <time>2022-06-02T14:56:50Z</time>
      </trkpt>
      <trkpt lat="46.50444" lon="5.32352">
        <ele>229.2</ele>
        <time>2022-06-02T14:56:54Z</time>
      </trkpt>
      <trkpt lat="46.50454" lon="5.32392">
        <ele>229.6</ele>
        <time>2022-06-02T14:56:58Z</time>
      </trkpt>
      <trkpt lat="46.50467" lon="5.32471">
        <ele>229.4</ele>
        <time>2022-06-02T14:57:06Z</time>
      </trkpt>
      <trkpt lat="46.50471" lon="5.32538">
        <ele>229.6</ele>
        <time>2022-06-02T14:57:13Z</time>
      </trkpt>
      <trkpt lat="46.50474" lon="5.32623">
        <ele>230</ele>
        <time>2022-06-02T14:57:22Z</time>
      </trkpt>
      <trkpt lat="46.50474" lon="5.32641">
        <ele>230.4</ele>
        <time>2022-06-02T14:57:24Z</time>
      </trkpt>
      <trkpt lat="46.50473" lon="5.32707">
        <ele>230.8</ele>
        <time>2022-06-02T14:57:31Z</time>
      </trkpt>
      <trkpt lat="46.50472" lon="5.32763">
        <ele>231.4</ele>
        <time>2022-06-02T14:57:37Z</time>
      </trkpt>
      <trkpt lat="46.50472" lon="5.3282">
        <ele>232.4</ele>
        <time>2022-06-02T14:57:43Z</time>
      </trkpt>
      <trkpt lat="46.50472" lon="5.32839">
        <ele>232.6</ele>
        <time>2022-06-02T14:57:45Z</time>
      </trkpt>
      <trkpt lat="46.5047" lon="5.32884">
        <ele>232.8</ele>
        <time>2022-06-02T14:57:50Z</time>
      </trkpt>
      <trkpt lat="46.5047" lon="5.32924">
        <ele>233.6</ele>
        <time>2022-06-02T14:57:55Z</time>
      </trkpt>
      <trkpt lat="46.5047" lon="5.32932">
        <ele>233.8</ele>
        <time>2022-06-02T14:57:56Z</time>
      </trkpt>
      <trkpt lat="46.50469" lon="5.32956">
        <ele>234.8</ele>
        <time>2022-06-02T14:57:59Z</time>
      </trkpt>
      <trkpt lat="46.50469" lon="5.32987">
        <ele>235.6</ele>
        <time>2022-06-02T14:58:03Z</time>
      </trkpt>
      <trkpt lat="46.50469" lon="5.32995">
        <ele>235.8</ele>
        <time>2022-06-02T14:58:04Z</time>
      </trkpt>
      <trkpt lat="46.50468" lon="5.33018">
        <ele>236.8</ele>
        <time>2022-06-02T14:58:07Z</time>
      </trkpt>
      <trkpt lat="46.50468" lon="5.3304">
        <ele>237.6</ele>
        <time>2022-06-02T14:58:10Z</time>
      </trkpt>
      <trkpt lat="46.50466" lon="5.33054">
        <ele>238</ele>
        <time>2022-06-02T14:58:12Z</time>
      </trkpt>
      <trkpt lat="46.50466" lon="5.33075">
        <ele>238.8</ele>
        <time>2022-06-02T14:58:15Z</time>
      </trkpt>
      <trkpt lat="46.50465" lon="5.33082">
        <ele>239</ele>
        <time>2022-06-02T14:58:16Z</time>
      </trkpt>
      <trkpt lat="46.50465" lon="5.33089">
        <ele>239.2</ele>
        <time>2022-06-02T14:58:17Z</time>
      </trkpt>
      <trkpt lat="46.50465" lon="5.33102">
        <ele>239.8</ele>
        <time>2022-06-02T14:58:19Z</time>
      </trkpt>
      <trkpt lat="46.50465" lon="5.33109">
        <ele>240.2</ele>
        <time>2022-06-02T14:58:20Z</time>
      </trkpt>
      <trkpt lat="46.50465" lon="5.3313">
        <ele>240.8</ele>
        <time>2022-06-02T14:58:23Z</time>
      </trkpt>
      <trkpt lat="46.50466" lon="5.33143">
        <ele>241.2</ele>
        <time>2022-06-02T14:58:25Z</time>
      </trkpt>
      <trkpt lat="46.50466" lon="5.33157">
        <ele>242</ele>
        <time>2022-06-02T14:58:27Z</time>
      </trkpt>
      <trkpt lat="46.50467" lon="5.33172">
        <ele>242.4</ele>
        <time>2022-06-02T14:58:29Z</time>
      </trkpt>
      <trkpt lat="46.50466" lon="5.3318">
        <ele>242.6</ele>
        <time>2022-06-02T14:58:30Z</time>
      </trkpt>
      <trkpt lat="46.50465" lon="5.33194">
        <ele>243.4</ele>
        <time>2022-06-02T14:58:32Z</time>
      </trkpt>
      <trkpt lat="46.50464" lon="5.33202">
        <ele>243.8</ele>
        <time>2022-06-02T14:58:33Z</time>
      </trkpt>
      <trkpt lat="46.50464" lon="5.33211">
        <ele>244.2</ele>
        <time>2022-06-02T14:58:34Z</time>
      </trkpt>
      <trkpt lat="46.50463" lon="5.33236">
        <ele>244.4</ele>
        <time>2022-06-02T14:58:37Z</time>
      </trkpt>
      <trkpt lat="46.50465" lon="5.33268">
        <ele>244.8</ele>
        <time>2022-06-02T14:58:41Z</time>
      </trkpt>
      <trkpt lat="46.50465" lon="5.33286">
        <ele>245.2</ele>
        <time>2022-06-02T14:58:43Z</time>
      </trkpt>
      <trkpt lat="46.50463" lon="5.33305">
        <ele>245.2</ele>
        <time>2022-06-02T14:58:45Z</time>
      </trkpt>
      <trkpt lat="46.50459" lon="5.33366">
        <ele>244.8</ele>
        <time>2022-06-02T14:58:51Z</time>
      </trkpt>
      <trkpt lat="46.50453" lon="5.33397">
        <ele>244.6</ele>
        <time>2022-06-02T14:58:54Z</time>
      </trkpt>
      <trkpt lat="46.50447" lon="5.33415">
        <ele>244.6</ele>
        <time>2022-06-02T14:58:56Z</time>
      </trkpt>
      <trkpt lat="46.50429" lon="5.33443">
        <ele>244.6</ele>
        <time>2022-06-02T14:59:00Z</time>
      </trkpt>
      <trkpt lat="46.50385" lon="5.3349">
        <ele>245</ele>
        <time>2022-06-02T14:59:08Z</time>
      </trkpt>
      <trkpt lat="46.50369" lon="5.33507">
        <ele>245.8</ele>
        <time>2022-06-02T14:59:11Z</time>
      </trkpt>
      <trkpt lat="46.50335" lon="5.33542">
        <ele>246.6</ele>
        <time>2022-06-02T14:59:17Z</time>
      </trkpt>
      <trkpt lat="46.50318" lon="5.3356">
        <ele>246.8</ele>
        <time>2022-06-02T14:59:20Z</time>
      </trkpt>
      <trkpt lat="46.50286" lon="5.33595">
        <ele>247.4</ele>
        <time>2022-06-02T14:59:26Z</time>
      </trkpt>
      <trkpt lat="46.50244" lon="5.33639">
        <ele>248</ele>
        <time>2022-06-02T14:59:34Z</time>
      </trkpt>
      <trkpt lat="46.50201" lon="5.33684">
        <ele>248.4</ele>
        <time>2022-06-02T14:59:42Z</time>
      </trkpt>
      <trkpt lat="46.50162" lon="5.33724">
        <ele>248.8</ele>
        <time>2022-06-02T14:59:49Z</time>
      </trkpt>
      <trkpt lat="46.50132" lon="5.33758">
        <ele>248.8</ele>
        <time>2022-06-02T14:59:54Z</time>
      </trkpt>
      <trkpt lat="46.50092" lon="5.338">
        <ele>248.2</ele>
        <time>2022-06-02T15:00:00Z</time>
      </trkpt>
      <trkpt lat="46.50086" lon="5.33807">
        <ele>248.2</ele>
        <time>2022-06-02T15:00:01Z</time>
      </trkpt>
      <trkpt lat="46.50042" lon="5.33857">
        <ele>248.4</ele>
        <time>2022-06-02T15:00:09Z</time>
      </trkpt>
      <trkpt lat="46.50017" lon="5.33884">
        <ele>249.2</ele>
        <time>2022-06-02T15:00:14Z</time>
      </trkpt>
      <trkpt lat="46.49997" lon="5.33905">
        <ele>249.6</ele>
        <time>2022-06-02T15:00:18Z</time>
      </trkpt>
      <trkpt lat="46.49986" lon="5.33917">
        <ele>250</ele>
        <time>2022-06-02T15:00:20Z</time>
      </trkpt>
      <trkpt lat="46.49959" lon="5.33946">
        <ele>250.4</ele>
        <time>2022-06-02T15:00:25Z</time>
      </trkpt>
      <trkpt lat="46.49922" lon="5.33985">
        <ele>250.4</ele>
        <time>2022-06-02T15:00:31Z</time>
      </trkpt>
      <trkpt lat="46.49873" lon="5.3404">
        <ele>249.2</ele>
        <time>2022-06-02T15:00:38Z</time>
      </trkpt>
      <trkpt lat="46.49866" lon="5.34049">
        <ele>249</ele>
        <time>2022-06-02T15:00:39Z</time>
      </trkpt>
      <trkpt lat="46.4983" lon="5.341">
        <ele>248</ele>
        <time>2022-06-02T15:00:45Z</time>
      </trkpt>
      <trkpt lat="46.49814" lon="5.34126">
        <ele>248</ele>
        <time>2022-06-02T15:00:48Z</time>
      </trkpt>
      <trkpt lat="46.49809" lon="5.34135">
        <ele>248</ele>
        <time>2022-06-02T15:00:49Z</time>
      </trkpt>
      <trkpt lat="46.49799" lon="5.34152">
        <ele>248</ele>
        <time>2022-06-02T15:00:51Z</time>
      </trkpt>
      <trkpt lat="46.49762" lon="5.34212">
        <ele>248</ele>
        <time>2022-06-02T15:00:58Z</time>
      </trkpt>
      <trkpt lat="46.49726" lon="5.34273">
        <ele>247.6</ele>
        <time>2022-06-02T15:01:05Z</time>
      </trkpt>
      <trkpt lat="46.49712" lon="5.34301">
        <ele>247.4</ele>
        <time>2022-06-02T15:01:08Z</time>
      </trkpt>
      <trkpt lat="46.49693" lon="5.34362">
        <ele>247</ele>
        <time>2022-06-02T15:01:14Z</time>
      </trkpt>
      <trkpt lat="46.49676" lon="5.34422">
        <ele>246.6</ele>
        <time>2022-06-02T15:01:19Z</time>
      </trkpt>
      <trkpt lat="46.49659" lon="5.34483">
        <ele>245.2</ele>
        <time>2022-06-02T15:01:24Z</time>
      </trkpt>
      <trkpt lat="46.49645" lon="5.34527">
        <ele>244</ele>
        <time>2022-06-02T15:01:28Z</time>
      </trkpt>
      <trkpt lat="46.49633" lon="5.34544">
        <ele>243.6</ele>
        <time>2022-06-02T15:01:30Z</time>
      </trkpt>
      <trkpt lat="46.49619" lon="5.3456">
        <ele>243.2</ele>
        <time>2022-06-02T15:01:32Z</time>
      </trkpt>
      <trkpt lat="46.49612" lon="5.34567">
        <ele>242.8</ele>
        <time>2022-06-02T15:01:33Z</time>
      </trkpt>
      <trkpt lat="46.49598" lon="5.34583">
        <ele>242.4</ele>
        <time>2022-06-02T15:01:35Z</time>
      </trkpt>
      <trkpt lat="46.49587" lon="5.34601">
        <ele>241.8</ele>
        <time>2022-06-02T15:01:37Z</time>
      </trkpt>
      <trkpt lat="46.49581" lon="5.34609">
        <ele>241.8</ele>
        <time>2022-06-02T15:01:38Z</time>
      </trkpt>
      <trkpt lat="46.49554" lon="5.34646">
        <ele>241.6</ele>
        <time>2022-06-02T15:01:43Z</time>
      </trkpt>
      <trkpt lat="46.49526" lon="5.34678">
        <ele>242.8</ele>
        <time>2022-06-02T15:01:49Z</time>
      </trkpt>
      <trkpt lat="46.49522" lon="5.34682">
        <ele>243</ele>
        <time>2022-06-02T15:01:50Z</time>
      </trkpt>
      <trkpt lat="46.49506" lon="5.34701">
        <ele>244</ele>
        <time>2022-06-02T15:01:54Z</time>
      </trkpt>
      <trkpt lat="46.49498" lon="5.34711">
        <ele>244.4</ele>
        <time>2022-06-02T15:01:56Z</time>
      </trkpt>
      <trkpt lat="46.4949" lon="5.34719">
        <ele>245</ele>
        <time>2022-06-02T15:01:58Z</time>
      </trkpt>
      <trkpt lat="46.49486" lon="5.34724">
        <ele>245.6</ele>
        <time>2022-06-02T15:01:59Z</time>
      </trkpt>
      <trkpt lat="46.49479" lon="5.3473">
        <ele>246.2</ele>
        <time>2022-06-02T15:02:01Z</time>
      </trkpt>
      <trkpt lat="46.49472" lon="5.34738">
        <ele>246.4</ele>
        <time>2022-06-02T15:02:03Z</time>
      </trkpt>
      <trkpt lat="46.49461" lon="5.34749">
        <ele>247.4</ele>
        <time>2022-06-02T15:02:06Z</time>
      </trkpt>
      <trkpt lat="46.49455" lon="5.34757">
        <ele>248</ele>
        <time>2022-06-02T15:02:08Z</time>
      </trkpt>
      <trkpt lat="46.49448" lon="5.34763">
        <ele>248.4</ele>
        <time>2022-06-02T15:02:10Z</time>
      </trkpt>
      <trkpt lat="46.49438" lon="5.34773">
        <ele>249.2</ele>
        <time>2022-06-02T15:02:13Z</time>
      </trkpt>
      <trkpt lat="46.49435" lon="5.34776">
        <ele>249.6</ele>
        <time>2022-06-02T15:02:14Z</time>
      </trkpt>
      <trkpt lat="46.49418" lon="5.34788">
        <ele>250.6</ele>
        <time>2022-06-02T15:02:18Z</time>
      </trkpt>
      <trkpt lat="46.49413" lon="5.34791">
        <ele>251</ele>
        <time>2022-06-02T15:02:19Z</time>
      </trkpt>
      <trkpt lat="46.49388" lon="5.34814">
        <ele>251.4</ele>
        <time>2022-06-02T15:02:24Z</time>
      </trkpt>
      <trkpt lat="46.49383" lon="5.34816">
        <ele>251.4</ele>
        <time>2022-06-02T15:02:25Z</time>
      </trkpt>
      <trkpt lat="46.49378" lon="5.34818">
        <ele>251.6</ele>
        <time>2022-06-02T15:02:26Z</time>
      </trkpt>
      <trkpt lat="46.49359" lon="5.34822">
        <ele>252</ele>
        <time>2022-06-02T15:02:29Z</time>
      </trkpt>
      <trkpt lat="46.49323" lon="5.34831">
        <ele>252.2</ele>
        <time>2022-06-02T15:02:35Z</time>
      </trkpt>
      <trkpt lat="46.49293" lon="5.34838">
        <ele>252.4</ele>
        <time>2022-06-02T15:02:40Z</time>
      </trkpt>
      <trkpt lat="46.49287" lon="5.34841">
        <ele>252.2</ele>
        <time>2022-06-02T15:02:41Z</time>
      </trkpt>
      <trkpt lat="46.49275" lon="5.34851">
        <ele>252.2</ele>
        <time>2022-06-02T15:02:43Z</time>
      </trkpt>
      <trkpt lat="46.49264" lon="5.34863">
        <ele>252.2</ele>
        <time>2022-06-02T15:02:45Z</time>
      </trkpt>
      <trkpt lat="46.49259" lon="5.34869">
        <ele>252.4</ele>
        <time>2022-06-02T15:02:46Z</time>
      </trkpt>
      <trkpt lat="46.49251" lon="5.34883">
        <ele>252.8</ele>
        <time>2022-06-02T15:02:48Z</time>
      </trkpt>
      <trkpt lat="46.4924" lon="5.34899">
        <ele>252.8</ele>
        <time>2022-06-02T15:02:50Z</time>
      </trkpt>
      <trkpt lat="46.49235" lon="5.34906">
        <ele>252.8</ele>
        <time>2022-06-02T15:02:51Z</time>
      </trkpt>
      <trkpt lat="46.49215" lon="5.34935">
        <ele>252.6</ele>
        <time>2022-06-02T15:02:55Z</time>
      </trkpt>
      <trkpt lat="46.49209" lon="5.34941">
        <ele>252.6</ele>
        <time>2022-06-02T15:02:56Z</time>
      </trkpt>
      <trkpt lat="46.49189" lon="5.34971">
        <ele>252.6</ele>
        <time>2022-06-02T15:03:00Z</time>
      </trkpt>
      <trkpt lat="46.49177" lon="5.34985">
        <ele>252.8</ele>
        <time>2022-06-02T15:03:02Z</time>
      </trkpt>
      <trkpt lat="46.4913" lon="5.35029">
        <ele>252.6</ele>
        <time>2022-06-02T15:03:10Z</time>
      </trkpt>
      <trkpt lat="46.49113" lon="5.35042">
        <ele>253</ele>
        <time>2022-06-02T15:03:13Z</time>
      </trkpt>
      <trkpt lat="46.49078" lon="5.35073">
        <ele>253.4</ele>
        <time>2022-06-02T15:03:19Z</time>
      </trkpt>
      <trkpt lat="46.49073" lon="5.35077">
        <ele>253.8</ele>
        <time>2022-06-02T15:03:20Z</time>
      </trkpt>
      <trkpt lat="46.49047" lon="5.35101">
        <ele>254.8</ele>
        <time>2022-06-02T15:03:25Z</time>
      </trkpt>
      <trkpt lat="46.49042" lon="5.35106">
        <ele>254.8</ele>
        <time>2022-06-02T15:03:26Z</time>
      </trkpt>
      <trkpt lat="46.49038" lon="5.35111">
        <ele>255</ele>
        <time>2022-06-02T15:03:27Z</time>
      </trkpt>
      <trkpt lat="46.49025" lon="5.35131">
        <ele>255</ele>
        <time>2022-06-02T15:03:30Z</time>
      </trkpt>
      <trkpt lat="46.49005" lon="5.35177">
        <ele>254.8</ele>
        <time>2022-06-02T15:03:35Z</time>
      </trkpt>
      <trkpt lat="46.48978" lon="5.3524">
        <ele>254.2</ele>
        <time>2022-06-02T15:03:41Z</time>
      </trkpt>
      <trkpt lat="46.48951" lon="5.35303">
        <ele>253.6</ele>
        <time>2022-06-02T15:03:47Z</time>
      </trkpt>
      <trkpt lat="46.48943" lon="5.35324">
        <ele>253.2</ele>
        <time>2022-06-02T15:03:49Z</time>
      </trkpt>
      <trkpt lat="46.48911" lon="5.35394">
        <ele>252.8</ele>
        <time>2022-06-02T15:03:56Z</time>
      </trkpt>
      <trkpt lat="46.48906" lon="5.35404">
        <ele>252.6</ele>
        <time>2022-06-02T15:03:57Z</time>
      </trkpt>
      <trkpt lat="46.48878" lon="5.35467">
        <ele>253</ele>
        <time>2022-06-02T15:04:04Z</time>
      </trkpt>
      <trkpt lat="46.48849" lon="5.35534">
        <ele>253.6</ele>
        <time>2022-06-02T15:04:12Z</time>
      </trkpt>
      <trkpt lat="46.48845" lon="5.35543">
        <ele>253.6</ele>
        <time>2022-06-02T15:04:13Z</time>
      </trkpt>
      <trkpt lat="46.48814" lon="5.35615">
        <ele>254.2</ele>
        <time>2022-06-02T15:04:21Z</time>
      </trkpt>
      <trkpt lat="46.48806" lon="5.35635">
        <ele>254.2</ele>
        <time>2022-06-02T15:04:23Z</time>
      </trkpt>
      <trkpt lat="46.48794" lon="5.35663">
        <ele>254.4</ele>
        <time>2022-06-02T15:04:26Z</time>
      </trkpt>
      <trkpt lat="46.48763" lon="5.35731">
        <ele>254.4</ele>
        <time>2022-06-02T15:04:33Z</time>
      </trkpt>
      <trkpt lat="46.48758" lon="5.35741">
        <ele>254.4</ele>
        <time>2022-06-02T15:04:34Z</time>
      </trkpt>
      <trkpt lat="46.48726" lon="5.35814">
        <ele>254.2</ele>
        <time>2022-06-02T15:04:42Z</time>
      </trkpt>
      <trkpt lat="46.48718" lon="5.35832">
        <ele>254.2</ele>
        <time>2022-06-02T15:04:44Z</time>
      </trkpt>
      <trkpt lat="46.48697" lon="5.35882">
        <ele>254.4</ele>
        <time>2022-06-02T15:04:50Z</time>
      </trkpt>
      <trkpt lat="46.48691" lon="5.35899">
        <ele>254.6</ele>
        <time>2022-06-02T15:04:52Z</time>
      </trkpt>
      <trkpt lat="46.48686" lon="5.35916">
        <ele>254.8</ele>
        <time>2022-06-02T15:04:54Z</time>
      </trkpt>
      <trkpt lat="46.48683" lon="5.35934">
        <ele>255.2</ele>
        <time>2022-06-02T15:04:56Z</time>
      </trkpt>
      <trkpt lat="46.4868" lon="5.35953">
        <ele>255.8</ele>
        <time>2022-06-02T15:04:58Z</time>
      </trkpt>
      <trkpt lat="46.48672" lon="5.36009">
        <ele>256.4</ele>
        <time>2022-06-02T15:05:04Z</time>
      </trkpt>
      <trkpt lat="46.48662" lon="5.36062">
        <ele>256.4</ele>
        <time>2022-06-02T15:05:09Z</time>
      </trkpt>
      <trkpt lat="46.48644" lon="5.36144">
        <ele>255.4</ele>
        <time>2022-06-02T15:05:16Z</time>
      </trkpt>
      <trkpt lat="46.48642" lon="5.36155">
        <ele>255.4</ele>
        <time>2022-06-02T15:05:17Z</time>
      </trkpt>
      <trkpt lat="46.48638" lon="5.3621">
        <ele>254.8</ele>
        <time>2022-06-02T15:05:22Z</time>
      </trkpt>
      <trkpt lat="46.4863" lon="5.36279">
        <ele>255.2</ele>
        <time>2022-06-02T15:05:29Z</time>
      </trkpt>
      <trkpt lat="46.48623" lon="5.36304">
        <ele>255.8</ele>
        <time>2022-06-02T15:05:32Z</time>
      </trkpt>
      <trkpt lat="46.48619" lon="5.3631">
        <ele>255.8</ele>
        <time>2022-06-02T15:05:33Z</time>
      </trkpt>
      <trkpt lat="46.48615" lon="5.36315">
        <ele>256</ele>
        <time>2022-06-02T15:05:34Z</time>
      </trkpt>
      <trkpt lat="46.48604" lon="5.3632">
        <ele>256.4</ele>
        <time>2022-06-02T15:05:36Z</time>
      </trkpt>
      <trkpt lat="46.48588" lon="5.36323">
        <ele>257</ele>
        <time>2022-06-02T15:05:39Z</time>
      </trkpt>
      <trkpt lat="46.48563" lon="5.36327">
        <ele>258.2</ele>
        <time>2022-06-02T15:05:44Z</time>
      </trkpt>
      <trkpt lat="46.48533" lon="5.36332">
        <ele>259.2</ele>
        <time>2022-06-02T15:05:50Z</time>
      </trkpt>
      <trkpt lat="46.48528" lon="5.36333">
        <ele>259.4</ele>
        <time>2022-06-02T15:05:51Z</time>
      </trkpt>
      <trkpt lat="46.48496" lon="5.36338">
        <ele>260.2</ele>
        <time>2022-06-02T15:05:57Z</time>
      </trkpt>
      <trkpt lat="46.48492" lon="5.36339">
        <ele>260.4</ele>
        <time>2022-06-02T15:05:58Z</time>
      </trkpt>
      <trkpt lat="46.48487" lon="5.3634">
        <ele>260.8</ele>
        <time>2022-06-02T15:06:00Z</time>
      </trkpt>
      <trkpt lat="46.48488" lon="5.36342">
        <ele>260.8</ele>
        <time>2022-06-02T15:06:01Z</time>
      </trkpt>
      <trkpt lat="46.48499" lon="5.36342">
        <ele>260.8</ele>
        <time>2022-06-02T15:06:05Z</time>
      </trkpt>
      <trkpt lat="46.48505" lon="5.36341">
        <ele>260.8</ele>
        <time>2022-06-02T15:06:09Z</time>
      </trkpt>
      <trkpt lat="46.48505" lon="5.36341">
        <ele>260.8</ele>
        <time>2022-06-02T15:06:10Z</time>
      </trkpt>
      <trkpt lat="46.48507" lon="5.36338">
        <ele>260.4</ele>
        <time>2022-06-02T15:06:35Z</time>
      </trkpt>
      <trkpt lat="46.48504" lon="5.36336">
        <ele>260.2</ele>
        <time>2022-06-02T15:06:37Z</time>
      </trkpt>
      <trkpt lat="46.48486" lon="5.36337">
        <ele>260.4</ele>
        <time>2022-06-02T15:06:42Z</time>
      </trkpt>
      <trkpt lat="46.48481" lon="5.36338">
        <ele>260.4</ele>
        <time>2022-06-02T15:06:43Z</time>
      </trkpt>
      <trkpt lat="46.48461" lon="5.36341">
        <ele>260.4</ele>
        <time>2022-06-02T15:06:46Z</time>
      </trkpt>
      <trkpt lat="46.4842" lon="5.36351">
        <ele>260.6</ele>
        <time>2022-06-02T15:06:52Z</time>
      </trkpt>
      <trkpt lat="46.48413" lon="5.36355">
        <ele>260.6</ele>
        <time>2022-06-02T15:06:53Z</time>
      </trkpt>
      <trkpt lat="46.48395" lon="5.3637">
        <ele>261.4</ele>
        <time>2022-06-02T15:06:56Z</time>
      </trkpt>
      <trkpt lat="46.48383" lon="5.36383">
        <ele>261.4</ele>
        <time>2022-06-02T15:06:58Z</time>
      </trkpt>
      <trkpt lat="46.48347" lon="5.36423">
        <ele>262.4</ele>
        <time>2022-06-02T15:07:05Z</time>
      </trkpt>
      <trkpt lat="46.48337" lon="5.36433">
        <ele>262.6</ele>
        <time>2022-06-02T15:07:07Z</time>
      </trkpt>
      <trkpt lat="46.48315" lon="5.36457">
        <ele>263.4</ele>
        <time>2022-06-02T15:07:12Z</time>
      </trkpt>
      <trkpt lat="46.48307" lon="5.36467">
        <ele>263.8</ele>
        <time>2022-06-02T15:07:14Z</time>
      </trkpt>
      <trkpt lat="46.48278" lon="5.36498">
        <ele>264.6</ele>
        <time>2022-06-02T15:07:21Z</time>
      </trkpt>
      <trkpt lat="46.48274" lon="5.36503">
        <ele>264.8</ele>
        <time>2022-06-02T15:07:22Z</time>
      </trkpt>
      <trkpt lat="46.48266" lon="5.36512">
        <ele>265.2</ele>
        <time>2022-06-02T15:07:24Z</time>
      </trkpt>
      <trkpt lat="46.48242" lon="5.36539">
        <ele>265.8</ele>
        <time>2022-06-02T15:07:30Z</time>
      </trkpt>
      <trkpt lat="46.48234" lon="5.36548">
        <ele>266.2</ele>
        <time>2022-06-02T15:07:32Z</time>
      </trkpt>
      <trkpt lat="46.48226" lon="5.36555">
        <ele>266.4</ele>
        <time>2022-06-02T15:07:34Z</time>
      </trkpt>
      <trkpt lat="46.48216" lon="5.36558">
        <ele>266.6</ele>
        <time>2022-06-02T15:07:36Z</time>
      </trkpt>
      <trkpt lat="46.48205" lon="5.36556">
        <ele>266.8</ele>
        <time>2022-06-02T15:07:38Z</time>
      </trkpt>
      <trkpt lat="46.48196" lon="5.36561">
        <ele>267</ele>
        <time>2022-06-02T15:07:40Z</time>
      </trkpt>
      <trkpt lat="46.48189" lon="5.36572">
        <ele>267.4</ele>
        <time>2022-06-02T15:07:42Z</time>
      </trkpt>
      <trkpt lat="46.48187" lon="5.36579">
        <ele>267.4</ele>
        <time>2022-06-02T15:07:43Z</time>
      </trkpt>
      <trkpt lat="46.48184" lon="5.36594">
        <ele>267.8</ele>
        <time>2022-06-02T15:07:45Z</time>
      </trkpt>
      <trkpt lat="46.48177" lon="5.36606">
        <ele>268</ele>
        <time>2022-06-02T15:07:47Z</time>
      </trkpt>
      <trkpt lat="46.48147" lon="5.36641">
        <ele>268.6</ele>
        <time>2022-06-02T15:07:54Z</time>
      </trkpt>
      <trkpt lat="46.48128" lon="5.36661">
        <ele>269</ele>
        <time>2022-06-02T15:07:58Z</time>
      </trkpt>
      <trkpt lat="46.48124" lon="5.36666">
        <ele>269.2</ele>
        <time>2022-06-02T15:07:59Z</time>
      </trkpt>
      <trkpt lat="46.48111" lon="5.36679">
        <ele>269.4</ele>
        <time>2022-06-02T15:08:02Z</time>
      </trkpt>
      <trkpt lat="46.48105" lon="5.36687">
        <ele>269.6</ele>
        <time>2022-06-02T15:08:04Z</time>
      </trkpt>
      <trkpt lat="46.48101" lon="5.36694">
        <ele>270</ele>
        <time>2022-06-02T15:08:06Z</time>
      </trkpt>
      <trkpt lat="46.48102" lon="5.36699">
        <ele>270.2</ele>
        <time>2022-06-02T15:08:07Z</time>
      </trkpt>
      <trkpt lat="46.48104" lon="5.36704">
        <ele>270.2</ele>
        <time>2022-06-02T15:08:08Z</time>
      </trkpt>
      <trkpt lat="46.48112" lon="5.3671">
        <ele>270.6</ele>
        <time>2022-06-02T15:08:10Z</time>
      </trkpt>
      <trkpt lat="46.48134" lon="5.36727">
        <ele>271.4</ele>
        <time>2022-06-02T15:08:15Z</time>
      </trkpt>
      <trkpt lat="46.48138" lon="5.36731">
        <ele>271.4</ele>
        <time>2022-06-02T15:08:16Z</time>
      </trkpt>
      <trkpt lat="46.48165" lon="5.36752">
        <ele>272.6</ele>
        <time>2022-06-02T15:08:22Z</time>
      </trkpt>
      <trkpt lat="46.48172" lon="5.36758">
        <ele>273.2</ele>
        <time>2022-06-02T15:08:24Z</time>
      </trkpt>
      <trkpt lat="46.48179" lon="5.36765">
        <ele>273.6</ele>
        <time>2022-06-02T15:08:26Z</time>
      </trkpt>
      <trkpt lat="46.482" lon="5.36781">
        <ele>274.8</ele>
        <time>2022-06-02T15:08:31Z</time>
      </trkpt>
      <trkpt lat="46.48204" lon="5.36784">
        <ele>274.8</ele>
        <time>2022-06-02T15:08:32Z</time>
      </trkpt>
      <trkpt lat="46.48219" lon="5.36796">
        <ele>275.8</ele>
        <time>2022-06-02T15:08:36Z</time>
      </trkpt>
      <trkpt lat="46.48233" lon="5.36808">
        <ele>276.8</ele>
        <time>2022-06-02T15:08:40Z</time>
      </trkpt>
      <trkpt lat="46.48251" lon="5.36824">
        <ele>278</ele>
        <time>2022-06-02T15:08:45Z</time>
      </trkpt>
    </trkseg>
  </trk>
</gpx>